<?xml version="1.0" encoding="UTF-8" standalone="no" ?>
<gpx xmlns="http://www.topografix.com/GPX/1/1" xmlns:xsi="http://www.w3.org/2001/XMLSchema-instance" xsi:schemaLocation="http://www.topografix.com/GPX/1/1 http://www.topografix.com/GPX/1/1/gpx.xsd" version="1.1" creator="VisuGPX - https://www.visugpx.com">
  <metadata>
    <name>Le Pla de l'Arcouade en boucle via le Pla de Castet et les Granges de Camoudiet (Payolle 65)</name>
    <desc><![CDATA[Le Pla de l'Arcouade en boucle via le Pla de Castet et les Granges de Camoudiet (Payolle 65)]]></desc>
  </metadata>
  <trk>
    <name><![CDATA[Le Pla de l'Arcouade en boucle via le Pla de Castet et les Granges de Camoudiet (Payolle 65)_1]]></name>
    <trkseg>
      <trkpt lat="42.9426" lon="0.27909">
        <ele>1079</ele>
        <time>2017-03-04T08:59:10Z</time>
      </trkpt>
      <trkpt lat="42.94264" lon="0.27915">
        <ele>1079</ele>
        <time>2017-03-04T08:59:10Z</time>
      </trkpt>
      <trkpt lat="42.94267" lon="0.27922">
        <ele>1079</ele>
        <time>2017-03-04T08:59:11Z</time>
      </trkpt>
      <trkpt lat="42.94272" lon="0.27923">
        <ele>1079</ele>
        <time>2017-03-04T08:59:11Z</time>
      </trkpt>
      <trkpt lat="42.94265" lon="0.27919">
        <ele>1079</ele>
        <time>2017-03-04T09:03:50Z</time>
      </trkpt>
      <trkpt lat="42.94265" lon="0.27919">
        <ele>1079</ele>
        <time>2017-03-04T09:03:51Z</time>
      </trkpt>
      <trkpt lat="42.94265" lon="0.27919">
        <ele>1079</ele>
        <time>2017-03-04T09:03:51Z</time>
      </trkpt>
      <trkpt lat="42.94265" lon="0.27917">
        <ele>1079</ele>
        <time>2017-03-04T09:03:51Z</time>
      </trkpt>
      <trkpt lat="42.94265" lon="0.27914">
        <ele>1079</ele>
        <time>2017-03-04T09:03:51Z</time>
      </trkpt>
      <trkpt lat="42.94265" lon="0.27914">
        <ele>1079</ele>
        <time>2017-03-04T09:04:06Z</time>
      </trkpt>
      <trkpt lat="42.94265" lon="0.27916">
        <ele>1079</ele>
        <time>2017-03-04T09:04:07Z</time>
      </trkpt>
      <trkpt lat="42.94269" lon="0.27925">
        <ele>1079</ele>
        <time>2017-03-04T09:04:07Z</time>
      </trkpt>
      <trkpt lat="42.94274" lon="0.27926">
        <ele>1079</ele>
        <time>2017-03-04T09:04:07Z</time>
      </trkpt>
      <trkpt lat="42.94271" lon="0.2793">
        <ele>1079</ele>
        <time>2017-03-04T09:07:10Z</time>
      </trkpt>
      <trkpt lat="42.9427" lon="0.27934">
        <ele>1079</ele>
        <time>2017-03-04T09:07:11Z</time>
      </trkpt>
      <trkpt lat="42.9427" lon="0.27934">
        <ele>1079</ele>
        <time>2017-03-04T09:07:11Z</time>
      </trkpt>
      <trkpt lat="42.9427" lon="0.27935">
        <ele>1079</ele>
        <time>2017-03-04T09:07:11Z</time>
      </trkpt>
      <trkpt lat="42.94268" lon="0.27939">
        <ele>1079</ele>
        <time>2017-03-04T09:07:11Z</time>
      </trkpt>
      <trkpt lat="42.94264" lon="0.27945">
        <ele>1079</ele>
        <time>2017-03-04T09:07:26Z</time>
      </trkpt>
      <trkpt lat="42.94262" lon="0.27948">
        <ele>1079</ele>
        <time>2017-03-04T09:07:27Z</time>
      </trkpt>
      <trkpt lat="42.94259" lon="0.27954">
        <ele>1079</ele>
        <time>2017-03-04T09:07:27Z</time>
      </trkpt>
      <trkpt lat="42.94256" lon="0.2796">
        <ele>1079</ele>
        <time>2017-03-04T09:07:27Z</time>
      </trkpt>
      <trkpt lat="42.94254" lon="0.27964">
        <ele>1079</ele>
        <time>2017-03-04T09:07:46Z</time>
      </trkpt>
      <trkpt lat="42.94253" lon="0.27968">
        <ele>1079</ele>
        <time>2017-03-04T09:07:47Z</time>
      </trkpt>
      <trkpt lat="42.94252" lon="0.27971">
        <ele>1079</ele>
        <time>2017-03-04T09:07:47Z</time>
      </trkpt>
      <trkpt lat="42.94251" lon="0.27974">
        <ele>1079</ele>
        <time>2017-03-04T09:07:47Z</time>
      </trkpt>
      <trkpt lat="42.94249" lon="0.27978">
        <ele>1079</ele>
        <time>2017-03-04T09:07:47Z</time>
      </trkpt>
      <trkpt lat="42.94249" lon="0.27979">
        <ele>1079</ele>
        <time>2017-03-04T09:08:02Z</time>
      </trkpt>
      <trkpt lat="42.94248" lon="0.27981">
        <ele>1079</ele>
        <time>2017-03-04T09:08:03Z</time>
      </trkpt>
      <trkpt lat="42.94246" lon="0.27986">
        <ele>1079</ele>
        <time>2017-03-04T09:08:03Z</time>
      </trkpt>
      <trkpt lat="42.94243" lon="0.2799">
        <ele>1079</ele>
        <time>2017-03-04T09:08:03Z</time>
      </trkpt>
      <trkpt lat="42.94235" lon="0.27997">
        <ele>1079</ele>
        <time>2017-03-04T09:08:46Z</time>
      </trkpt>
      <trkpt lat="42.94234" lon="0.27999">
        <ele>1079</ele>
        <time>2017-03-04T09:08:46Z</time>
      </trkpt>
      <trkpt lat="42.94234" lon="0.28">
        <ele>1079</ele>
        <time>2017-03-04T09:08:47Z</time>
      </trkpt>
      <trkpt lat="42.94232" lon="0.28">
        <ele>1079</ele>
        <time>2017-03-04T09:08:47Z</time>
      </trkpt>
      <trkpt lat="42.94231" lon="0.28001">
        <ele>1079</ele>
        <time>2017-03-04T09:08:47Z</time>
      </trkpt>
      <trkpt lat="42.94232" lon="0.28003">
        <ele>1079</ele>
        <time>2017-03-04T09:09:34Z</time>
      </trkpt>
      <trkpt lat="42.94231" lon="0.28003">
        <ele>1079</ele>
        <time>2017-03-04T09:09:35Z</time>
      </trkpt>
      <trkpt lat="42.94228" lon="0.28001">
        <ele>1079</ele>
        <time>2017-03-04T09:09:35Z</time>
      </trkpt>
      <trkpt lat="42.94228" lon="0.28">
        <ele>1079</ele>
        <time>2017-03-04T09:09:35Z</time>
      </trkpt>
      <trkpt lat="42.94225" lon="0.27999">
        <ele>1079</ele>
        <time>2017-03-04T09:09:35Z</time>
      </trkpt>
      <trkpt lat="42.94223" lon="0.27999">
        <ele>1079</ele>
        <time>2017-03-04T09:09:50Z</time>
      </trkpt>
      <trkpt lat="42.9422" lon="0.28001">
        <ele>1079</ele>
        <time>2017-03-04T09:09:51Z</time>
      </trkpt>
      <trkpt lat="42.94216" lon="0.28003">
        <ele>1079</ele>
        <time>2017-03-04T09:09:51Z</time>
      </trkpt>
      <trkpt lat="42.94215" lon="0.28003">
        <ele>1079</ele>
        <time>2017-03-04T09:09:51Z</time>
      </trkpt>
      <trkpt lat="42.94212" lon="0.28004">
        <ele>1079</ele>
        <time>2017-03-04T09:10:10Z</time>
      </trkpt>
      <trkpt lat="42.94209" lon="0.28003">
        <ele>1079</ele>
        <time>2017-03-04T09:10:11Z</time>
      </trkpt>
      <trkpt lat="42.94207" lon="0.28003">
        <ele>1088</ele>
        <time>2017-03-04T09:10:11Z</time>
      </trkpt>
      <trkpt lat="42.94205" lon="0.28004">
        <ele>1088</ele>
        <time>2017-03-04T09:10:11Z</time>
      </trkpt>
      <trkpt lat="42.94202" lon="0.28008">
        <ele>1088</ele>
        <time>2017-03-04T09:10:11Z</time>
      </trkpt>
      <trkpt lat="42.94196" lon="0.28011">
        <ele>1088</ele>
        <time>2017-03-04T09:10:34Z</time>
      </trkpt>
      <trkpt lat="42.94193" lon="0.28011">
        <ele>1088</ele>
        <time>2017-03-04T09:10:35Z</time>
      </trkpt>
      <trkpt lat="42.94191" lon="0.28013">
        <ele>1088</ele>
        <time>2017-03-04T09:10:35Z</time>
      </trkpt>
      <trkpt lat="42.9419" lon="0.28013">
        <ele>1088</ele>
        <time>2017-03-04T09:10:35Z</time>
      </trkpt>
      <trkpt lat="42.94188" lon="0.28014">
        <ele>1088</ele>
        <time>2017-03-04T09:10:35Z</time>
      </trkpt>
      <trkpt lat="42.94183" lon="0.28016">
        <ele>1088</ele>
        <time>2017-03-04T09:10:58Z</time>
      </trkpt>
      <trkpt lat="42.94182" lon="0.28014">
        <ele>1088</ele>
        <time>2017-03-04T09:10:58Z</time>
      </trkpt>
      <trkpt lat="42.94181" lon="0.28012">
        <ele>1088</ele>
        <time>2017-03-04T09:10:59Z</time>
      </trkpt>
      <trkpt lat="42.94179" lon="0.28009">
        <ele>1088</ele>
        <time>2017-03-04T09:10:59Z</time>
      </trkpt>
      <trkpt lat="42.94178" lon="0.28007">
        <ele>1088</ele>
        <time>2017-03-04T09:10:59Z</time>
      </trkpt>
      <trkpt lat="42.94177" lon="0.28005">
        <ele>1088</ele>
        <time>2017-03-04T09:11:18Z</time>
      </trkpt>
      <trkpt lat="42.94174" lon="0.28005">
        <ele>1088</ele>
        <time>2017-03-04T09:11:18Z</time>
      </trkpt>
      <trkpt lat="42.94171" lon="0.28005">
        <ele>1088</ele>
        <time>2017-03-04T09:11:19Z</time>
      </trkpt>
      <trkpt lat="42.94169" lon="0.28005">
        <ele>1088</ele>
        <time>2017-03-04T09:11:19Z</time>
      </trkpt>
      <trkpt lat="42.94167" lon="0.28005">
        <ele>1088</ele>
        <time>2017-03-04T09:11:19Z</time>
      </trkpt>
      <trkpt lat="42.94162" lon="0.28001">
        <ele>1088</ele>
        <time>2017-03-04T09:11:42Z</time>
      </trkpt>
      <trkpt lat="42.9416" lon="0.28">
        <ele>1088</ele>
        <time>2017-03-04T09:11:43Z</time>
      </trkpt>
      <trkpt lat="42.94158" lon="0.27999">
        <ele>1088</ele>
        <time>2017-03-04T09:11:43Z</time>
      </trkpt>
      <trkpt lat="42.94156" lon="0.27999">
        <ele>1088</ele>
        <time>2017-03-04T09:11:43Z</time>
      </trkpt>
      <trkpt lat="42.94156" lon="0.27998">
        <ele>1088</ele>
        <time>2017-03-04T09:11:43Z</time>
      </trkpt>
      <trkpt lat="42.94155" lon="0.27999">
        <ele>1088</ele>
        <time>2017-03-04T09:12:02Z</time>
      </trkpt>
      <trkpt lat="42.94154" lon="0.27998">
        <ele>1088</ele>
        <time>2017-03-04T09:12:03Z</time>
      </trkpt>
      <trkpt lat="42.94152" lon="0.27997">
        <ele>1088</ele>
        <time>2017-03-04T09:12:03Z</time>
      </trkpt>
      <trkpt lat="42.94149" lon="0.27996">
        <ele>1088</ele>
        <time>2017-03-04T09:12:03Z</time>
      </trkpt>
      <trkpt lat="42.94146" lon="0.27997">
        <ele>1088</ele>
        <time>2017-03-04T09:12:03Z</time>
      </trkpt>
      <trkpt lat="42.94139" lon="0.28002">
        <ele>1088</ele>
        <time>2017-03-04T09:14:10Z</time>
      </trkpt>
      <trkpt lat="42.94137" lon="0.28">
        <ele>1088</ele>
        <time>2017-03-04T09:14:11Z</time>
      </trkpt>
      <trkpt lat="42.94134" lon="0.27994">
        <ele>1088</ele>
        <time>2017-03-04T09:14:11Z</time>
      </trkpt>
      <trkpt lat="42.94132" lon="0.2799">
        <ele>1088</ele>
        <time>2017-03-04T09:14:11Z</time>
      </trkpt>
      <trkpt lat="42.9413" lon="0.27986">
        <ele>1088</ele>
        <time>2017-03-04T09:14:11Z</time>
      </trkpt>
      <trkpt lat="42.94129" lon="0.27981">
        <ele>1088</ele>
        <time>2017-03-04T09:14:26Z</time>
      </trkpt>
      <trkpt lat="42.94128" lon="0.27977">
        <ele>1088</ele>
        <time>2017-03-04T09:14:27Z</time>
      </trkpt>
      <trkpt lat="42.94128" lon="0.2797">
        <ele>1088</ele>
        <time>2017-03-04T09:14:27Z</time>
      </trkpt>
      <trkpt lat="42.94127" lon="0.27966">
        <ele>1088</ele>
        <time>2017-03-04T09:14:27Z</time>
      </trkpt>
      <trkpt lat="42.94127" lon="0.27959">
        <ele>1088</ele>
        <time>2017-03-04T09:14:42Z</time>
      </trkpt>
      <trkpt lat="42.94126" lon="0.27953">
        <ele>1088</ele>
        <time>2017-03-04T09:14:43Z</time>
      </trkpt>
      <trkpt lat="42.94126" lon="0.27947">
        <ele>1088</ele>
        <time>2017-03-04T09:14:43Z</time>
      </trkpt>
      <trkpt lat="42.94125" lon="0.27943">
        <ele>1102</ele>
        <time>2017-03-04T09:14:43Z</time>
      </trkpt>
      <trkpt lat="42.94124" lon="0.27939">
        <ele>1102</ele>
        <time>2017-03-04T09:14:58Z</time>
      </trkpt>
      <trkpt lat="42.94122" lon="0.27933">
        <ele>1102</ele>
        <time>2017-03-04T09:14:58Z</time>
      </trkpt>
      <trkpt lat="42.94121" lon="0.27929">
        <ele>1102</ele>
        <time>2017-03-04T09:14:59Z</time>
      </trkpt>
      <trkpt lat="42.9412" lon="0.27925">
        <ele>1102</ele>
        <time>2017-03-04T09:14:59Z</time>
      </trkpt>
      <trkpt lat="42.94121" lon="0.27921">
        <ele>1102</ele>
        <time>2017-03-04T09:15:18Z</time>
      </trkpt>
      <trkpt lat="42.9412" lon="0.27918">
        <ele>1102</ele>
        <time>2017-03-04T09:15:18Z</time>
      </trkpt>
      <trkpt lat="42.9412" lon="0.27914">
        <ele>1102</ele>
        <time>2017-03-04T09:15:19Z</time>
      </trkpt>
      <trkpt lat="42.9412" lon="0.27909">
        <ele>1102</ele>
        <time>2017-03-04T09:15:19Z</time>
      </trkpt>
      <trkpt lat="42.9412" lon="0.27905">
        <ele>1102</ele>
        <time>2017-03-04T09:15:19Z</time>
      </trkpt>
      <trkpt lat="42.94121" lon="0.279">
        <ele>1102</ele>
        <time>2017-03-04T09:15:34Z</time>
      </trkpt>
      <trkpt lat="42.94121" lon="0.27894">
        <ele>1102</ele>
        <time>2017-03-04T09:15:34Z</time>
      </trkpt>
      <trkpt lat="42.9412" lon="0.27887">
        <ele>1102</ele>
        <time>2017-03-04T09:15:35Z</time>
      </trkpt>
      <trkpt lat="42.94121" lon="0.27882">
        <ele>1102</ele>
        <time>2017-03-04T09:15:35Z</time>
      </trkpt>
      <trkpt lat="42.94119" lon="0.27875">
        <ele>1102</ele>
        <time>2017-03-04T09:15:50Z</time>
      </trkpt>
      <trkpt lat="42.94118" lon="0.27869">
        <ele>1101</ele>
        <time>2017-03-04T09:15:50Z</time>
      </trkpt>
      <trkpt lat="42.94119" lon="0.27863">
        <ele>1101</ele>
        <time>2017-03-04T09:15:51Z</time>
      </trkpt>
      <trkpt lat="42.94117" lon="0.27859">
        <ele>1101</ele>
        <time>2017-03-04T09:15:51Z</time>
      </trkpt>
      <trkpt lat="42.94117" lon="0.27856">
        <ele>1101</ele>
        <time>2017-03-04T09:16:06Z</time>
      </trkpt>
      <trkpt lat="42.94115" lon="0.27851">
        <ele>1101</ele>
        <time>2017-03-04T09:16:06Z</time>
      </trkpt>
      <trkpt lat="42.94114" lon="0.27845">
        <ele>1101</ele>
        <time>2017-03-04T09:16:07Z</time>
      </trkpt>
      <trkpt lat="42.94114" lon="0.2784">
        <ele>1101</ele>
        <time>2017-03-04T09:16:07Z</time>
      </trkpt>
      <trkpt lat="42.94113" lon="0.27835">
        <ele>1101</ele>
        <time>2017-03-04T09:16:22Z</time>
      </trkpt>
      <trkpt lat="42.94112" lon="0.2783">
        <ele>1101</ele>
        <time>2017-03-04T09:16:22Z</time>
      </trkpt>
      <trkpt lat="42.94113" lon="0.27826">
        <ele>1101</ele>
        <time>2017-03-04T09:16:23Z</time>
      </trkpt>
      <trkpt lat="42.94113" lon="0.2782">
        <ele>1101</ele>
        <time>2017-03-04T09:16:23Z</time>
      </trkpt>
      <trkpt lat="42.94112" lon="0.27816">
        <ele>1101</ele>
        <time>2017-03-04T09:16:42Z</time>
      </trkpt>
      <trkpt lat="42.94114" lon="0.27811">
        <ele>1101</ele>
        <time>2017-03-04T09:16:42Z</time>
      </trkpt>
      <trkpt lat="42.94114" lon="0.27807">
        <ele>1101</ele>
        <time>2017-03-04T09:16:43Z</time>
      </trkpt>
      <trkpt lat="42.94112" lon="0.27804">
        <ele>1101</ele>
        <time>2017-03-04T09:16:43Z</time>
      </trkpt>
      <trkpt lat="42.94113" lon="0.278">
        <ele>1101</ele>
        <time>2017-03-04T09:16:43Z</time>
      </trkpt>
      <trkpt lat="42.94112" lon="0.27795">
        <ele>1101</ele>
        <time>2017-03-04T09:17:02Z</time>
      </trkpt>
      <trkpt lat="42.94111" lon="0.27792">
        <ele>1101</ele>
        <time>2017-03-04T09:17:02Z</time>
      </trkpt>
      <trkpt lat="42.94109" lon="0.27789">
        <ele>1102</ele>
        <time>2017-03-04T09:17:03Z</time>
      </trkpt>
      <trkpt lat="42.94108" lon="0.27787">
        <ele>1102</ele>
        <time>2017-03-04T09:17:03Z</time>
      </trkpt>
      <trkpt lat="42.94106" lon="0.2778">
        <ele>1102</ele>
        <time>2017-03-04T09:17:03Z</time>
      </trkpt>
      <trkpt lat="42.94105" lon="0.27777">
        <ele>1102</ele>
        <time>2017-03-04T09:17:22Z</time>
      </trkpt>
      <trkpt lat="42.94104" lon="0.27774">
        <ele>1102</ele>
        <time>2017-03-04T09:17:22Z</time>
      </trkpt>
      <trkpt lat="42.94104" lon="0.27772">
        <ele>1102</ele>
        <time>2017-03-04T09:17:23Z</time>
      </trkpt>
      <trkpt lat="42.94103" lon="0.27768">
        <ele>1102</ele>
        <time>2017-03-04T09:17:23Z</time>
      </trkpt>
      <trkpt lat="42.94103" lon="0.27764">
        <ele>1102</ele>
        <time>2017-03-04T09:17:23Z</time>
      </trkpt>
      <trkpt lat="42.94102" lon="0.27761">
        <ele>1102</ele>
        <time>2017-03-04T09:17:38Z</time>
      </trkpt>
      <trkpt lat="42.94101" lon="0.27757">
        <ele>1102</ele>
        <time>2017-03-04T09:17:38Z</time>
      </trkpt>
      <trkpt lat="42.941" lon="0.27752">
        <ele>1102</ele>
        <time>2017-03-04T09:17:39Z</time>
      </trkpt>
      <trkpt lat="42.94099" lon="0.27747">
        <ele>1102</ele>
        <time>2017-03-04T09:17:39Z</time>
      </trkpt>
      <trkpt lat="42.94099" lon="0.27742">
        <ele>1102</ele>
        <time>2017-03-04T09:17:58Z</time>
      </trkpt>
      <trkpt lat="42.94099" lon="0.27738">
        <ele>1102</ele>
        <time>2017-03-04T09:17:58Z</time>
      </trkpt>
      <trkpt lat="42.94099" lon="0.27735">
        <ele>1102</ele>
        <time>2017-03-04T09:17:59Z</time>
      </trkpt>
      <trkpt lat="42.94098" lon="0.27731">
        <ele>1102</ele>
        <time>2017-03-04T09:17:59Z</time>
      </trkpt>
      <trkpt lat="42.94097" lon="0.27727">
        <ele>1102</ele>
        <time>2017-03-04T09:17:59Z</time>
      </trkpt>
      <trkpt lat="42.94096" lon="0.27722">
        <ele>1102</ele>
        <time>2017-03-04T09:18:18Z</time>
      </trkpt>
      <trkpt lat="42.94095" lon="0.27718">
        <ele>1102</ele>
        <time>2017-03-04T09:18:19Z</time>
      </trkpt>
      <trkpt lat="42.94094" lon="0.27715">
        <ele>1102</ele>
        <time>2017-03-04T09:18:19Z</time>
      </trkpt>
      <trkpt lat="42.94094" lon="0.27711">
        <ele>1102</ele>
        <time>2017-03-04T09:18:19Z</time>
      </trkpt>
      <trkpt lat="42.94094" lon="0.27709">
        <ele>1102</ele>
        <time>2017-03-04T09:18:19Z</time>
      </trkpt>
      <trkpt lat="42.94094" lon="0.27707">
        <ele>1105</ele>
        <time>2017-03-04T09:18:34Z</time>
      </trkpt>
      <trkpt lat="42.94093" lon="0.27701">
        <ele>1105</ele>
        <time>2017-03-04T09:18:35Z</time>
      </trkpt>
      <trkpt lat="42.94091" lon="0.27695">
        <ele>1105</ele>
        <time>2017-03-04T09:18:35Z</time>
      </trkpt>
      <trkpt lat="42.9409" lon="0.27692">
        <ele>1105</ele>
        <time>2017-03-04T09:18:35Z</time>
      </trkpt>
      <trkpt lat="42.94088" lon="0.27688">
        <ele>1105</ele>
        <time>2017-03-04T09:18:50Z</time>
      </trkpt>
      <trkpt lat="42.94087" lon="0.27684">
        <ele>1105</ele>
        <time>2017-03-04T09:18:51Z</time>
      </trkpt>
      <trkpt lat="42.94086" lon="0.27681">
        <ele>1105</ele>
        <time>2017-03-04T09:18:51Z</time>
      </trkpt>
      <trkpt lat="42.94086" lon="0.27676">
        <ele>1105</ele>
        <time>2017-03-04T09:18:51Z</time>
      </trkpt>
      <trkpt lat="42.94086" lon="0.27671">
        <ele>1105</ele>
        <time>2017-03-04T09:19:06Z</time>
      </trkpt>
      <trkpt lat="42.94086" lon="0.27668">
        <ele>1105</ele>
        <time>2017-03-04T09:19:06Z</time>
      </trkpt>
      <trkpt lat="42.94086" lon="0.27663">
        <ele>1105</ele>
        <time>2017-03-04T09:19:07Z</time>
      </trkpt>
      <trkpt lat="42.94086" lon="0.27658">
        <ele>1105</ele>
        <time>2017-03-04T09:19:07Z</time>
      </trkpt>
      <trkpt lat="42.94086" lon="0.27655">
        <ele>1105</ele>
        <time>2017-03-04T09:19:26Z</time>
      </trkpt>
      <trkpt lat="42.94085" lon="0.27649">
        <ele>1105</ele>
        <time>2017-03-04T09:19:26Z</time>
      </trkpt>
      <trkpt lat="42.94084" lon="0.27645">
        <ele>1105</ele>
        <time>2017-03-04T09:19:27Z</time>
      </trkpt>
      <trkpt lat="42.94084" lon="0.27643">
        <ele>1105</ele>
        <time>2017-03-04T09:19:27Z</time>
      </trkpt>
      <trkpt lat="42.94084" lon="0.27639">
        <ele>1105</ele>
        <time>2017-03-04T09:19:27Z</time>
      </trkpt>
      <trkpt lat="42.94083" lon="0.27634">
        <ele>1105</ele>
        <time>2017-03-04T09:19:46Z</time>
      </trkpt>
      <trkpt lat="42.94083" lon="0.27631">
        <ele>1105</ele>
        <time>2017-03-04T09:19:47Z</time>
      </trkpt>
      <trkpt lat="42.94083" lon="0.27629">
        <ele>1105</ele>
        <time>2017-03-04T09:19:47Z</time>
      </trkpt>
      <trkpt lat="42.94083" lon="0.27626">
        <ele>1105</ele>
        <time>2017-03-04T09:19:47Z</time>
      </trkpt>
      <trkpt lat="42.94082" lon="0.27621">
        <ele>1108</ele>
        <time>2017-03-04T09:19:47Z</time>
      </trkpt>
      <trkpt lat="42.94081" lon="0.27616">
        <ele>1108</ele>
        <time>2017-03-04T09:20:26Z</time>
      </trkpt>
      <trkpt lat="42.9408" lon="0.27614">
        <ele>1108</ele>
        <time>2017-03-04T09:20:27Z</time>
      </trkpt>
      <trkpt lat="42.9408" lon="0.27609">
        <ele>1108</ele>
        <time>2017-03-04T09:20:27Z</time>
      </trkpt>
      <trkpt lat="42.94079" lon="0.27605">
        <ele>1108</ele>
        <time>2017-03-04T09:20:27Z</time>
      </trkpt>
      <trkpt lat="42.94079" lon="0.27603">
        <ele>1108</ele>
        <time>2017-03-04T09:20:27Z</time>
      </trkpt>
      <trkpt lat="42.94079" lon="0.27598">
        <ele>1108</ele>
        <time>2017-03-04T09:20:42Z</time>
      </trkpt>
      <trkpt lat="42.94079" lon="0.27594">
        <ele>1108</ele>
        <time>2017-03-04T09:20:43Z</time>
      </trkpt>
      <trkpt lat="42.94078" lon="0.27588">
        <ele>1108</ele>
        <time>2017-03-04T09:20:43Z</time>
      </trkpt>
      <trkpt lat="42.94078" lon="0.27585">
        <ele>1108</ele>
        <time>2017-03-04T09:20:43Z</time>
      </trkpt>
      <trkpt lat="42.94077" lon="0.27581">
        <ele>1108</ele>
        <time>2017-03-04T09:20:58Z</time>
      </trkpt>
      <trkpt lat="42.94076" lon="0.27576">
        <ele>1108</ele>
        <time>2017-03-04T09:20:59Z</time>
      </trkpt>
      <trkpt lat="42.94076" lon="0.2757">
        <ele>1108</ele>
        <time>2017-03-04T09:20:59Z</time>
      </trkpt>
      <trkpt lat="42.94076" lon="0.27566">
        <ele>1108</ele>
        <time>2017-03-04T09:20:59Z</time>
      </trkpt>
      <trkpt lat="42.94076" lon="0.27564">
        <ele>1108</ele>
        <time>2017-03-04T09:21:14Z</time>
      </trkpt>
      <trkpt lat="42.94076" lon="0.2756">
        <ele>1108</ele>
        <time>2017-03-04T09:21:15Z</time>
      </trkpt>
      <trkpt lat="42.94075" lon="0.27556">
        <ele>1108</ele>
        <time>2017-03-04T09:21:15Z</time>
      </trkpt>
      <trkpt lat="42.94072" lon="0.2755">
        <ele>1108</ele>
        <time>2017-03-04T09:21:15Z</time>
      </trkpt>
      <trkpt lat="42.94072" lon="0.27543">
        <ele>1108</ele>
        <time>2017-03-04T09:21:38Z</time>
      </trkpt>
      <trkpt lat="42.94072" lon="0.2754">
        <ele>1113</ele>
        <time>2017-03-04T09:21:39Z</time>
      </trkpt>
      <trkpt lat="42.94072" lon="0.27537">
        <ele>1113</ele>
        <time>2017-03-04T09:21:39Z</time>
      </trkpt>
      <trkpt lat="42.94071" lon="0.27536">
        <ele>1113</ele>
        <time>2017-03-04T09:21:39Z</time>
      </trkpt>
      <trkpt lat="42.94072" lon="0.27533">
        <ele>1113</ele>
        <time>2017-03-04T09:21:39Z</time>
      </trkpt>
      <trkpt lat="42.94073" lon="0.2753">
        <ele>1113</ele>
        <time>2017-03-04T09:21:54Z</time>
      </trkpt>
      <trkpt lat="42.94073" lon="0.27525">
        <ele>1113</ele>
        <time>2017-03-04T09:21:54Z</time>
      </trkpt>
      <trkpt lat="42.94073" lon="0.2752">
        <ele>1113</ele>
        <time>2017-03-04T09:21:55Z</time>
      </trkpt>
      <trkpt lat="42.94074" lon="0.27517">
        <ele>1113</ele>
        <time>2017-03-04T09:21:55Z</time>
      </trkpt>
      <trkpt lat="42.94077" lon="0.27514">
        <ele>1113</ele>
        <time>2017-03-04T09:22:34Z</time>
      </trkpt>
      <trkpt lat="42.94079" lon="0.27516">
        <ele>1113</ele>
        <time>2017-03-04T09:22:35Z</time>
      </trkpt>
      <trkpt lat="42.9408" lon="0.27518">
        <ele>1113</ele>
        <time>2017-03-04T09:22:35Z</time>
      </trkpt>
      <trkpt lat="42.94082" lon="0.27517">
        <ele>1113</ele>
        <time>2017-03-04T09:22:35Z</time>
      </trkpt>
      <trkpt lat="42.94084" lon="0.27517">
        <ele>1113</ele>
        <time>2017-03-04T09:22:35Z</time>
      </trkpt>
      <trkpt lat="42.94082" lon="0.27524">
        <ele>1113</ele>
        <time>2017-03-04T09:23:26Z</time>
      </trkpt>
      <trkpt lat="42.94082" lon="0.27524">
        <ele>1113</ele>
        <time>2017-03-04T09:23:26Z</time>
      </trkpt>
      <trkpt lat="42.94082" lon="0.27524">
        <ele>1113</ele>
        <time>2017-03-04T09:23:27Z</time>
      </trkpt>
      <trkpt lat="42.94079" lon="0.27515">
        <ele>1113</ele>
        <time>2017-03-04T09:23:27Z</time>
      </trkpt>
      <trkpt lat="42.94078" lon="0.27507">
        <ele>1113</ele>
        <time>2017-03-04T09:23:27Z</time>
      </trkpt>
      <trkpt lat="42.94076" lon="0.27502">
        <ele>1113</ele>
        <time>2017-03-04T09:23:46Z</time>
      </trkpt>
      <trkpt lat="42.94075" lon="0.27498">
        <ele>1113</ele>
        <time>2017-03-04T09:23:47Z</time>
      </trkpt>
      <trkpt lat="42.94075" lon="0.27496">
        <ele>1113</ele>
        <time>2017-03-04T09:23:47Z</time>
      </trkpt>
      <trkpt lat="42.94074" lon="0.27491">
        <ele>1113</ele>
        <time>2017-03-04T09:23:47Z</time>
      </trkpt>
      <trkpt lat="42.94074" lon="0.27489">
        <ele>1113</ele>
        <time>2017-03-04T09:23:47Z</time>
      </trkpt>
      <trkpt lat="42.94073" lon="0.27486">
        <ele>1113</ele>
        <time>2017-03-04T09:24:02Z</time>
      </trkpt>
      <trkpt lat="42.94073" lon="0.27483">
        <ele>1113</ele>
        <time>2017-03-04T09:24:03Z</time>
      </trkpt>
      <trkpt lat="42.94071" lon="0.27478">
        <ele>1113</ele>
        <time>2017-03-04T09:24:03Z</time>
      </trkpt>
      <trkpt lat="42.9407" lon="0.27472">
        <ele>1113</ele>
        <time>2017-03-04T09:24:03Z</time>
      </trkpt>
      <trkpt lat="42.9407" lon="0.2747">
        <ele>1113</ele>
        <time>2017-03-04T09:24:22Z</time>
      </trkpt>
      <trkpt lat="42.94069" lon="0.27468">
        <ele>1113</ele>
        <time>2017-03-04T09:24:23Z</time>
      </trkpt>
      <trkpt lat="42.94068" lon="0.27465">
        <ele>1113</ele>
        <time>2017-03-04T09:24:23Z</time>
      </trkpt>
      <trkpt lat="42.94068" lon="0.27462">
        <ele>1113</ele>
        <time>2017-03-04T09:24:23Z</time>
      </trkpt>
      <trkpt lat="42.94067" lon="0.27457">
        <ele>1118</ele>
        <time>2017-03-04T09:24:23Z</time>
      </trkpt>
      <trkpt lat="42.9407" lon="0.27446">
        <ele>1118</ele>
        <time>2017-03-04T09:25:26Z</time>
      </trkpt>
      <trkpt lat="42.9407" lon="0.27441">
        <ele>1118</ele>
        <time>2017-03-04T09:25:27Z</time>
      </trkpt>
      <trkpt lat="42.9407" lon="0.27436">
        <ele>1118</ele>
        <time>2017-03-04T09:25:27Z</time>
      </trkpt>
      <trkpt lat="42.9407" lon="0.27433">
        <ele>1118</ele>
        <time>2017-03-04T09:25:27Z</time>
      </trkpt>
      <trkpt lat="42.9407" lon="0.2743">
        <ele>1118</ele>
        <time>2017-03-04T09:25:27Z</time>
      </trkpt>
      <trkpt lat="42.9407" lon="0.27425">
        <ele>1118</ele>
        <time>2017-03-04T09:25:42Z</time>
      </trkpt>
      <trkpt lat="42.9407" lon="0.27421">
        <ele>1118</ele>
        <time>2017-03-04T09:25:42Z</time>
      </trkpt>
      <trkpt lat="42.9407" lon="0.27417">
        <ele>1118</ele>
        <time>2017-03-04T09:25:43Z</time>
      </trkpt>
      <trkpt lat="42.94071" lon="0.27413">
        <ele>1118</ele>
        <time>2017-03-04T09:25:43Z</time>
      </trkpt>
      <trkpt lat="42.94072" lon="0.27408">
        <ele>1118</ele>
        <time>2017-03-04T09:26:02Z</time>
      </trkpt>
      <trkpt lat="42.94072" lon="0.27405">
        <ele>1118</ele>
        <time>2017-03-04T09:26:03Z</time>
      </trkpt>
      <trkpt lat="42.94071" lon="0.27402">
        <ele>1118</ele>
        <time>2017-03-04T09:26:03Z</time>
      </trkpt>
      <trkpt lat="42.94071" lon="0.27398">
        <ele>1118</ele>
        <time>2017-03-04T09:26:03Z</time>
      </trkpt>
      <trkpt lat="42.94072" lon="0.27395">
        <ele>1118</ele>
        <time>2017-03-04T09:26:03Z</time>
      </trkpt>
      <trkpt lat="42.94073" lon="0.2739">
        <ele>1118</ele>
        <time>2017-03-04T09:26:18Z</time>
      </trkpt>
      <trkpt lat="42.94073" lon="0.27385">
        <ele>1118</ele>
        <time>2017-03-04T09:26:19Z</time>
      </trkpt>
      <trkpt lat="42.94075" lon="0.27381">
        <ele>1118</ele>
        <time>2017-03-04T09:26:19Z</time>
      </trkpt>
      <trkpt lat="42.94075" lon="0.27377">
        <ele>1118</ele>
        <time>2017-03-04T09:26:19Z</time>
      </trkpt>
      <trkpt lat="42.94075" lon="0.27372">
        <ele>1124</ele>
        <time>2017-03-04T09:26:38Z</time>
      </trkpt>
      <trkpt lat="42.94076" lon="0.27367">
        <ele>1124</ele>
        <time>2017-03-04T09:26:39Z</time>
      </trkpt>
      <trkpt lat="42.94077" lon="0.27364">
        <ele>1124</ele>
        <time>2017-03-04T09:26:39Z</time>
      </trkpt>
      <trkpt lat="42.94077" lon="0.27361">
        <ele>1124</ele>
        <time>2017-03-04T09:26:39Z</time>
      </trkpt>
      <trkpt lat="42.94076" lon="0.27357">
        <ele>1124</ele>
        <time>2017-03-04T09:26:39Z</time>
      </trkpt>
      <trkpt lat="42.94075" lon="0.27353">
        <ele>1124</ele>
        <time>2017-03-04T09:26:58Z</time>
      </trkpt>
      <trkpt lat="42.94074" lon="0.27349">
        <ele>1124</ele>
        <time>2017-03-04T09:26:59Z</time>
      </trkpt>
      <trkpt lat="42.94074" lon="0.27346">
        <ele>1124</ele>
        <time>2017-03-04T09:26:59Z</time>
      </trkpt>
      <trkpt lat="42.94072" lon="0.27344">
        <ele>1124</ele>
        <time>2017-03-04T09:26:59Z</time>
      </trkpt>
      <trkpt lat="42.94071" lon="0.27339">
        <ele>1124</ele>
        <time>2017-03-04T09:26:59Z</time>
      </trkpt>
      <trkpt lat="42.94071" lon="0.27334">
        <ele>1124</ele>
        <time>2017-03-04T09:27:22Z</time>
      </trkpt>
      <trkpt lat="42.94069" lon="0.2733">
        <ele>1124</ele>
        <time>2017-03-04T09:27:23Z</time>
      </trkpt>
      <trkpt lat="42.94068" lon="0.27328">
        <ele>1124</ele>
        <time>2017-03-04T09:27:23Z</time>
      </trkpt>
      <trkpt lat="42.94066" lon="0.27326">
        <ele>1124</ele>
        <time>2017-03-04T09:27:23Z</time>
      </trkpt>
      <trkpt lat="42.94063" lon="0.27325">
        <ele>1124</ele>
        <time>2017-03-04T09:27:23Z</time>
      </trkpt>
      <trkpt lat="42.94061" lon="0.27322">
        <ele>1124</ele>
        <time>2017-03-04T09:27:42Z</time>
      </trkpt>
      <trkpt lat="42.9406" lon="0.27319">
        <ele>1124</ele>
        <time>2017-03-04T09:27:43Z</time>
      </trkpt>
      <trkpt lat="42.94058" lon="0.27317">
        <ele>1124</ele>
        <time>2017-03-04T09:27:43Z</time>
      </trkpt>
      <trkpt lat="42.94057" lon="0.27316">
        <ele>1124</ele>
        <time>2017-03-04T09:27:43Z</time>
      </trkpt>
      <trkpt lat="42.94054" lon="0.27314">
        <ele>1124</ele>
        <time>2017-03-04T09:27:43Z</time>
      </trkpt>
      <trkpt lat="42.9405" lon="0.2731">
        <ele>1124</ele>
        <time>2017-03-04T09:28:06Z</time>
      </trkpt>
      <trkpt lat="42.94049" lon="0.27309">
        <ele>1124</ele>
        <time>2017-03-04T09:28:07Z</time>
      </trkpt>
      <trkpt lat="42.94047" lon="0.27308">
        <ele>1124</ele>
        <time>2017-03-04T09:28:07Z</time>
      </trkpt>
      <trkpt lat="42.94045" lon="0.27308">
        <ele>1124</ele>
        <time>2017-03-04T09:28:07Z</time>
      </trkpt>
      <trkpt lat="42.94043" lon="0.27305">
        <ele>1124</ele>
        <time>2017-03-04T09:28:07Z</time>
      </trkpt>
      <trkpt lat="42.9404" lon="0.27303">
        <ele>1132</ele>
        <time>2017-03-04T09:28:26Z</time>
      </trkpt>
      <trkpt lat="42.94038" lon="0.27301">
        <ele>1132</ele>
        <time>2017-03-04T09:28:27Z</time>
      </trkpt>
      <trkpt lat="42.94037" lon="0.27299">
        <ele>1132</ele>
        <time>2017-03-04T09:28:27Z</time>
      </trkpt>
      <trkpt lat="42.94034" lon="0.27297">
        <ele>1132</ele>
        <time>2017-03-04T09:28:27Z</time>
      </trkpt>
      <trkpt lat="42.94032" lon="0.27296">
        <ele>1132</ele>
        <time>2017-03-04T09:28:27Z</time>
      </trkpt>
      <trkpt lat="42.94028" lon="0.27293">
        <ele>1132</ele>
        <time>2017-03-04T09:28:50Z</time>
      </trkpt>
      <trkpt lat="42.94025" lon="0.27291">
        <ele>1137</ele>
        <time>2017-03-04T09:28:51Z</time>
      </trkpt>
      <trkpt lat="42.94024" lon="0.27289">
        <ele>1137</ele>
        <time>2017-03-04T09:28:51Z</time>
      </trkpt>
      <trkpt lat="42.94024" lon="0.27288">
        <ele>1137</ele>
        <time>2017-03-04T09:28:51Z</time>
      </trkpt>
      <trkpt lat="42.94021" lon="0.27286">
        <ele>1137</ele>
        <time>2017-03-04T09:28:51Z</time>
      </trkpt>
      <trkpt lat="42.94021" lon="0.27285">
        <ele>1137</ele>
        <time>2017-03-04T09:29:10Z</time>
      </trkpt>
      <trkpt lat="42.94019" lon="0.27283">
        <ele>1137</ele>
        <time>2017-03-04T09:29:11Z</time>
      </trkpt>
      <trkpt lat="42.94017" lon="0.27281">
        <ele>1137</ele>
        <time>2017-03-04T09:29:11Z</time>
      </trkpt>
      <trkpt lat="42.94015" lon="0.2728">
        <ele>1137</ele>
        <time>2017-03-04T09:29:11Z</time>
      </trkpt>
      <trkpt lat="42.94013" lon="0.27279">
        <ele>1137</ele>
        <time>2017-03-04T09:29:11Z</time>
      </trkpt>
      <trkpt lat="42.94008" lon="0.27278">
        <ele>1137</ele>
        <time>2017-03-04T09:29:34Z</time>
      </trkpt>
      <trkpt lat="42.94006" lon="0.27277">
        <ele>1137</ele>
        <time>2017-03-04T09:29:35Z</time>
      </trkpt>
      <trkpt lat="42.94005" lon="0.27274">
        <ele>1137</ele>
        <time>2017-03-04T09:29:35Z</time>
      </trkpt>
      <trkpt lat="42.94003" lon="0.27272">
        <ele>1137</ele>
        <time>2017-03-04T09:29:35Z</time>
      </trkpt>
      <trkpt lat="42.94" lon="0.27271">
        <ele>1137</ele>
        <time>2017-03-04T09:29:35Z</time>
      </trkpt>
      <trkpt lat="42.93999" lon="0.27269">
        <ele>1137</ele>
        <time>2017-03-04T09:29:54Z</time>
      </trkpt>
      <trkpt lat="42.93997" lon="0.27269">
        <ele>1137</ele>
        <time>2017-03-04T09:29:55Z</time>
      </trkpt>
      <trkpt lat="42.93994" lon="0.27269">
        <ele>1137</ele>
        <time>2017-03-04T09:29:55Z</time>
      </trkpt>
      <trkpt lat="42.93991" lon="0.27269">
        <ele>1137</ele>
        <time>2017-03-04T09:29:55Z</time>
      </trkpt>
      <trkpt lat="42.9399" lon="0.27269">
        <ele>1137</ele>
        <time>2017-03-04T09:29:55Z</time>
      </trkpt>
      <trkpt lat="42.93988" lon="0.27268">
        <ele>1137</ele>
        <time>2017-03-04T09:30:14Z</time>
      </trkpt>
      <trkpt lat="42.93986" lon="0.27268">
        <ele>1137</ele>
        <time>2017-03-04T09:30:15Z</time>
      </trkpt>
      <trkpt lat="42.93983" lon="0.27266">
        <ele>1137</ele>
        <time>2017-03-04T09:30:15Z</time>
      </trkpt>
      <trkpt lat="42.93981" lon="0.27265">
        <ele>1137</ele>
        <time>2017-03-04T09:30:15Z</time>
      </trkpt>
      <trkpt lat="42.93979" lon="0.27265">
        <ele>1137</ele>
        <time>2017-03-04T09:30:15Z</time>
      </trkpt>
      <trkpt lat="42.93972" lon="0.27264">
        <ele>1137</ele>
        <time>2017-03-04T09:30:38Z</time>
      </trkpt>
      <trkpt lat="42.9397" lon="0.27264">
        <ele>1137</ele>
        <time>2017-03-04T09:30:39Z</time>
      </trkpt>
      <trkpt lat="42.93968" lon="0.27263">
        <ele>1137</ele>
        <time>2017-03-04T09:30:39Z</time>
      </trkpt>
      <trkpt lat="42.93968" lon="0.27264">
        <ele>1137</ele>
        <time>2017-03-04T09:30:39Z</time>
      </trkpt>
      <trkpt lat="42.93966" lon="0.27264">
        <ele>1137</ele>
        <time>2017-03-04T09:30:39Z</time>
      </trkpt>
      <trkpt lat="42.93964" lon="0.27261">
        <ele>1137</ele>
        <time>2017-03-04T09:30:58Z</time>
      </trkpt>
      <trkpt lat="42.93962" lon="0.27259">
        <ele>1137</ele>
        <time>2017-03-04T09:30:59Z</time>
      </trkpt>
      <trkpt lat="42.9396" lon="0.27258">
        <ele>1137</ele>
        <time>2017-03-04T09:30:59Z</time>
      </trkpt>
      <trkpt lat="42.93958" lon="0.27258">
        <ele>1147</ele>
        <time>2017-03-04T09:30:59Z</time>
      </trkpt>
      <trkpt lat="42.93955" lon="0.27256">
        <ele>1147</ele>
        <time>2017-03-04T09:30:59Z</time>
      </trkpt>
      <trkpt lat="42.93953" lon="0.27254">
        <ele>1147</ele>
        <time>2017-03-04T09:31:18Z</time>
      </trkpt>
      <trkpt lat="42.93951" lon="0.27254">
        <ele>1147</ele>
        <time>2017-03-04T09:31:19Z</time>
      </trkpt>
      <trkpt lat="42.93949" lon="0.27253">
        <ele>1147</ele>
        <time>2017-03-04T09:31:19Z</time>
      </trkpt>
      <trkpt lat="42.93945" lon="0.27252">
        <ele>1147</ele>
        <time>2017-03-04T09:31:19Z</time>
      </trkpt>
      <trkpt lat="42.93942" lon="0.27252">
        <ele>1147</ele>
        <time>2017-03-04T09:31:19Z</time>
      </trkpt>
      <trkpt lat="42.93936" lon="0.27253">
        <ele>1147</ele>
        <time>2017-03-04T09:31:42Z</time>
      </trkpt>
      <trkpt lat="42.93936" lon="0.27254">
        <ele>1147</ele>
        <time>2017-03-04T09:31:43Z</time>
      </trkpt>
      <trkpt lat="42.93933" lon="0.27255">
        <ele>1147</ele>
        <time>2017-03-04T09:31:43Z</time>
      </trkpt>
      <trkpt lat="42.93931" lon="0.27253">
        <ele>1147</ele>
        <time>2017-03-04T09:31:43Z</time>
      </trkpt>
      <trkpt lat="42.93929" lon="0.27252">
        <ele>1147</ele>
        <time>2017-03-04T09:31:43Z</time>
      </trkpt>
      <trkpt lat="42.93928" lon="0.27252">
        <ele>1147</ele>
        <time>2017-03-04T09:32:02Z</time>
      </trkpt>
      <trkpt lat="42.93925" lon="0.27252">
        <ele>1147</ele>
        <time>2017-03-04T09:32:02Z</time>
      </trkpt>
      <trkpt lat="42.93923" lon="0.2725">
        <ele>1147</ele>
        <time>2017-03-04T09:32:03Z</time>
      </trkpt>
      <trkpt lat="42.93921" lon="0.27251">
        <ele>1147</ele>
        <time>2017-03-04T09:32:03Z</time>
      </trkpt>
      <trkpt lat="42.93919" lon="0.2725">
        <ele>1147</ele>
        <time>2017-03-04T09:32:03Z</time>
      </trkpt>
      <trkpt lat="42.93916" lon="0.27251">
        <ele>1147</ele>
        <time>2017-03-04T09:32:22Z</time>
      </trkpt>
      <trkpt lat="42.93914" lon="0.2725">
        <ele>1147</ele>
        <time>2017-03-04T09:32:23Z</time>
      </trkpt>
      <trkpt lat="42.9391" lon="0.2725">
        <ele>1147</ele>
        <time>2017-03-04T09:32:23Z</time>
      </trkpt>
      <trkpt lat="42.93909" lon="0.2725">
        <ele>1147</ele>
        <time>2017-03-04T09:32:23Z</time>
      </trkpt>
      <trkpt lat="42.93906" lon="0.27248">
        <ele>1147</ele>
        <time>2017-03-04T09:32:23Z</time>
      </trkpt>
      <trkpt lat="42.93904" lon="0.27246">
        <ele>1147</ele>
        <time>2017-03-04T09:32:42Z</time>
      </trkpt>
      <trkpt lat="42.93903" lon="0.27243">
        <ele>1147</ele>
        <time>2017-03-04T09:32:43Z</time>
      </trkpt>
      <trkpt lat="42.93901" lon="0.27242">
        <ele>1147</ele>
        <time>2017-03-04T09:32:43Z</time>
      </trkpt>
      <trkpt lat="42.93898" lon="0.2724">
        <ele>1147</ele>
        <time>2017-03-04T09:32:43Z</time>
      </trkpt>
      <trkpt lat="42.93896" lon="0.2724">
        <ele>1147</ele>
        <time>2017-03-04T09:32:43Z</time>
      </trkpt>
      <trkpt lat="42.93893" lon="0.27239">
        <ele>1147</ele>
        <time>2017-03-04T09:33:02Z</time>
      </trkpt>
      <trkpt lat="42.9389" lon="0.27239">
        <ele>1147</ele>
        <time>2017-03-04T09:33:02Z</time>
      </trkpt>
      <trkpt lat="42.93889" lon="0.27239">
        <ele>1147</ele>
        <time>2017-03-04T09:33:03Z</time>
      </trkpt>
      <trkpt lat="42.93886" lon="0.2724">
        <ele>1147</ele>
        <time>2017-03-04T09:33:03Z</time>
      </trkpt>
      <trkpt lat="42.93883" lon="0.2724">
        <ele>1147</ele>
        <time>2017-03-04T09:33:03Z</time>
      </trkpt>
      <trkpt lat="42.9388" lon="0.27235">
        <ele>1147</ele>
        <time>2017-03-04T09:33:26Z</time>
      </trkpt>
      <trkpt lat="42.93879" lon="0.27233">
        <ele>1147</ele>
        <time>2017-03-04T09:33:27Z</time>
      </trkpt>
      <trkpt lat="42.93877" lon="0.27231">
        <ele>1147</ele>
        <time>2017-03-04T09:33:27Z</time>
      </trkpt>
      <trkpt lat="42.93875" lon="0.27231">
        <ele>1147</ele>
        <time>2017-03-04T09:33:27Z</time>
      </trkpt>
      <trkpt lat="42.93874" lon="0.2723">
        <ele>1158</ele>
        <time>2017-03-04T09:33:27Z</time>
      </trkpt>
      <trkpt lat="42.93872" lon="0.27229">
        <ele>1158</ele>
        <time>2017-03-04T09:33:46Z</time>
      </trkpt>
      <trkpt lat="42.9387" lon="0.27228">
        <ele>1158</ele>
        <time>2017-03-04T09:33:47Z</time>
      </trkpt>
      <trkpt lat="42.93868" lon="0.27228">
        <ele>1158</ele>
        <time>2017-03-04T09:33:47Z</time>
      </trkpt>
      <trkpt lat="42.93865" lon="0.27227">
        <ele>1158</ele>
        <time>2017-03-04T09:33:47Z</time>
      </trkpt>
      <trkpt lat="42.93862" lon="0.27227">
        <ele>1158</ele>
        <time>2017-03-04T09:33:47Z</time>
      </trkpt>
      <trkpt lat="42.9386" lon="0.27226">
        <ele>1158</ele>
        <time>2017-03-04T09:34:02Z</time>
      </trkpt>
      <trkpt lat="42.93858" lon="0.27226">
        <ele>1158</ele>
        <time>2017-03-04T09:34:02Z</time>
      </trkpt>
      <trkpt lat="42.93854" lon="0.27226">
        <ele>1158</ele>
        <time>2017-03-04T09:34:03Z</time>
      </trkpt>
      <trkpt lat="42.9385" lon="0.27226">
        <ele>1158</ele>
        <time>2017-03-04T09:34:03Z</time>
      </trkpt>
      <trkpt lat="42.93847" lon="0.27227">
        <ele>1158</ele>
        <time>2017-03-04T09:34:22Z</time>
      </trkpt>
      <trkpt lat="42.93845" lon="0.27225">
        <ele>1158</ele>
        <time>2017-03-04T09:34:23Z</time>
      </trkpt>
      <trkpt lat="42.93844" lon="0.27223">
        <ele>1158</ele>
        <time>2017-03-04T09:34:23Z</time>
      </trkpt>
      <trkpt lat="42.93841" lon="0.27221">
        <ele>1158</ele>
        <time>2017-03-04T09:34:23Z</time>
      </trkpt>
      <trkpt lat="42.93838" lon="0.27219">
        <ele>1158</ele>
        <time>2017-03-04T09:34:23Z</time>
      </trkpt>
      <trkpt lat="42.93836" lon="0.27217">
        <ele>1158</ele>
        <time>2017-03-04T09:35:02Z</time>
      </trkpt>
      <trkpt lat="42.9383" lon="0.27215">
        <ele>1158</ele>
        <time>2017-03-04T09:35:03Z</time>
      </trkpt>
      <trkpt lat="42.93827" lon="0.27214">
        <ele>1158</ele>
        <time>2017-03-04T09:35:03Z</time>
      </trkpt>
      <trkpt lat="42.93824" lon="0.27213">
        <ele>1158</ele>
        <time>2017-03-04T09:35:03Z</time>
      </trkpt>
      <trkpt lat="42.93822" lon="0.27212">
        <ele>1158</ele>
        <time>2017-03-04T09:35:03Z</time>
      </trkpt>
      <trkpt lat="42.93818" lon="0.2721">
        <ele>1158</ele>
        <time>2017-03-04T09:35:18Z</time>
      </trkpt>
      <trkpt lat="42.93815" lon="0.27208">
        <ele>1158</ele>
        <time>2017-03-04T09:35:19Z</time>
      </trkpt>
      <trkpt lat="42.93811" lon="0.27204">
        <ele>1158</ele>
        <time>2017-03-04T09:35:19Z</time>
      </trkpt>
      <trkpt lat="42.93808" lon="0.27204">
        <ele>1158</ele>
        <time>2017-03-04T09:35:19Z</time>
      </trkpt>
      <trkpt lat="42.93805" lon="0.27203">
        <ele>1158</ele>
        <time>2017-03-04T09:35:38Z</time>
      </trkpt>
      <trkpt lat="42.93802" lon="0.27201">
        <ele>1158</ele>
        <time>2017-03-04T09:35:39Z</time>
      </trkpt>
      <trkpt lat="42.938" lon="0.27199">
        <ele>1158</ele>
        <time>2017-03-04T09:35:39Z</time>
      </trkpt>
      <trkpt lat="42.93797" lon="0.27197">
        <ele>1158</ele>
        <time>2017-03-04T09:35:39Z</time>
      </trkpt>
      <trkpt lat="42.93795" lon="0.27198">
        <ele>1158</ele>
        <time>2017-03-04T09:35:39Z</time>
      </trkpt>
      <trkpt lat="42.93793" lon="0.27198">
        <ele>1158</ele>
        <time>2017-03-04T09:35:54Z</time>
      </trkpt>
      <trkpt lat="42.9379" lon="0.27199">
        <ele>1162</ele>
        <time>2017-03-04T09:35:54Z</time>
      </trkpt>
      <trkpt lat="42.93786" lon="0.272">
        <ele>1162</ele>
        <time>2017-03-04T09:35:55Z</time>
      </trkpt>
      <trkpt lat="42.93782" lon="0.272">
        <ele>1162</ele>
        <time>2017-03-04T09:35:55Z</time>
      </trkpt>
      <trkpt lat="42.93773" lon="0.27201">
        <ele>1162</ele>
        <time>2017-03-04T09:38:46Z</time>
      </trkpt>
      <trkpt lat="42.93773" lon="0.272">
        <ele>1162</ele>
        <time>2017-03-04T09:38:47Z</time>
      </trkpt>
      <trkpt lat="42.9377" lon="0.27204">
        <ele>1162</ele>
        <time>2017-03-04T09:38:47Z</time>
      </trkpt>
      <trkpt lat="42.9377" lon="0.2721">
        <ele>1169</ele>
        <time>2017-03-04T09:38:47Z</time>
      </trkpt>
      <trkpt lat="42.93768" lon="0.27207">
        <ele>1162</ele>
        <time>2017-03-04T09:38:47Z</time>
      </trkpt>
      <trkpt lat="42.93768" lon="0.27207">
        <ele>1162</ele>
        <time>2017-03-04T09:39:10Z</time>
      </trkpt>
      <trkpt lat="42.9377" lon="0.27203">
        <ele>1162</ele>
        <time>2017-03-04T09:39:11Z</time>
      </trkpt>
      <trkpt lat="42.9377" lon="0.27203">
        <ele>1162</ele>
        <time>2017-03-04T09:39:11Z</time>
      </trkpt>
      <trkpt lat="42.93774" lon="0.27203">
        <ele>1162</ele>
        <time>2017-03-04T09:39:11Z</time>
      </trkpt>
      <trkpt lat="42.93778" lon="0.27203">
        <ele>1162</ele>
        <time>2017-03-04T09:39:11Z</time>
      </trkpt>
      <trkpt lat="42.93783" lon="0.272">
        <ele>1162</ele>
        <time>2017-03-04T09:39:30Z</time>
      </trkpt>
      <trkpt lat="42.93785" lon="0.272">
        <ele>1162</ele>
        <time>2017-03-04T09:39:31Z</time>
      </trkpt>
      <trkpt lat="42.9379" lon="0.27199">
        <ele>1162</ele>
        <time>2017-03-04T09:39:31Z</time>
      </trkpt>
      <trkpt lat="42.93791" lon="0.27199">
        <ele>1162</ele>
        <time>2017-03-04T09:39:31Z</time>
      </trkpt>
      <trkpt lat="42.93793" lon="0.27199">
        <ele>1158</ele>
        <time>2017-03-04T09:39:31Z</time>
      </trkpt>
      <trkpt lat="42.93797" lon="0.27198">
        <ele>1158</ele>
        <time>2017-03-04T09:40:06Z</time>
      </trkpt>
      <trkpt lat="42.93795" lon="0.27193">
        <ele>1158</ele>
        <time>2017-03-04T09:40:07Z</time>
      </trkpt>
      <trkpt lat="42.93793" lon="0.2719">
        <ele>1158</ele>
        <time>2017-03-04T09:40:07Z</time>
      </trkpt>
      <trkpt lat="42.9379" lon="0.27186">
        <ele>1162</ele>
        <time>2017-03-04T09:40:07Z</time>
      </trkpt>
      <trkpt lat="42.93788" lon="0.27183">
        <ele>1162</ele>
        <time>2017-03-04T09:40:07Z</time>
      </trkpt>
      <trkpt lat="42.93785" lon="0.27179">
        <ele>1162</ele>
        <time>2017-03-04T09:40:22Z</time>
      </trkpt>
      <trkpt lat="42.93784" lon="0.27178">
        <ele>1162</ele>
        <time>2017-03-04T09:40:23Z</time>
      </trkpt>
      <trkpt lat="42.93781" lon="0.27173">
        <ele>1162</ele>
        <time>2017-03-04T09:40:23Z</time>
      </trkpt>
      <trkpt lat="42.9378" lon="0.27169">
        <ele>1162</ele>
        <time>2017-03-04T09:40:23Z</time>
      </trkpt>
      <trkpt lat="42.93777" lon="0.27166">
        <ele>1162</ele>
        <time>2017-03-04T09:40:42Z</time>
      </trkpt>
      <trkpt lat="42.93774" lon="0.27162">
        <ele>1162</ele>
        <time>2017-03-04T09:40:42Z</time>
      </trkpt>
      <trkpt lat="42.93772" lon="0.2716">
        <ele>1162</ele>
        <time>2017-03-04T09:40:43Z</time>
      </trkpt>
      <trkpt lat="42.9377" lon="0.27159">
        <ele>1162</ele>
        <time>2017-03-04T09:40:43Z</time>
      </trkpt>
      <trkpt lat="42.93768" lon="0.27157">
        <ele>1162</ele>
        <time>2017-03-04T09:40:43Z</time>
      </trkpt>
      <trkpt lat="42.93766" lon="0.27155">
        <ele>1162</ele>
        <time>2017-03-04T09:40:58Z</time>
      </trkpt>
      <trkpt lat="42.93762" lon="0.27151">
        <ele>1162</ele>
        <time>2017-03-04T09:40:59Z</time>
      </trkpt>
      <trkpt lat="42.9376" lon="0.27149">
        <ele>1162</ele>
        <time>2017-03-04T09:40:59Z</time>
      </trkpt>
      <trkpt lat="42.93759" lon="0.27146">
        <ele>1162</ele>
        <time>2017-03-04T09:40:59Z</time>
      </trkpt>
      <trkpt lat="42.93756" lon="0.27144">
        <ele>1162</ele>
        <time>2017-03-04T09:41:14Z</time>
      </trkpt>
      <trkpt lat="42.93754" lon="0.27141">
        <ele>1162</ele>
        <time>2017-03-04T09:41:15Z</time>
      </trkpt>
      <trkpt lat="42.93751" lon="0.27138">
        <ele>1162</ele>
        <time>2017-03-04T09:41:15Z</time>
      </trkpt>
      <trkpt lat="42.93749" lon="0.27134">
        <ele>1162</ele>
        <time>2017-03-04T09:41:15Z</time>
      </trkpt>
      <trkpt lat="42.93747" lon="0.27131">
        <ele>1162</ele>
        <time>2017-03-04T09:41:30Z</time>
      </trkpt>
      <trkpt lat="42.93745" lon="0.27127">
        <ele>1162</ele>
        <time>2017-03-04T09:41:31Z</time>
      </trkpt>
      <trkpt lat="42.93742" lon="0.27124">
        <ele>1162</ele>
        <time>2017-03-04T09:41:31Z</time>
      </trkpt>
      <trkpt lat="42.9374" lon="0.27119">
        <ele>1162</ele>
        <time>2017-03-04T09:41:31Z</time>
      </trkpt>
      <trkpt lat="42.93737" lon="0.27118">
        <ele>1162</ele>
        <time>2017-03-04T09:41:46Z</time>
      </trkpt>
      <trkpt lat="42.93734" lon="0.27111">
        <ele>1162</ele>
        <time>2017-03-04T09:41:46Z</time>
      </trkpt>
      <trkpt lat="42.9373" lon="0.27105">
        <ele>1162</ele>
        <time>2017-03-04T09:41:47Z</time>
      </trkpt>
      <trkpt lat="42.93728" lon="0.271">
        <ele>1162</ele>
        <time>2017-03-04T09:41:47Z</time>
      </trkpt>
      <trkpt lat="42.93725" lon="0.27096">
        <ele>1162</ele>
        <time>2017-03-04T09:42:06Z</time>
      </trkpt>
      <trkpt lat="42.93722" lon="0.27092">
        <ele>1162</ele>
        <time>2017-03-04T09:42:07Z</time>
      </trkpt>
      <trkpt lat="42.9372" lon="0.27089">
        <ele>1162</ele>
        <time>2017-03-04T09:42:07Z</time>
      </trkpt>
      <trkpt lat="42.93721" lon="0.27087">
        <ele>1162</ele>
        <time>2017-03-04T09:42:07Z</time>
      </trkpt>
      <trkpt lat="42.93719" lon="0.27084">
        <ele>1162</ele>
        <time>2017-03-04T09:42:07Z</time>
      </trkpt>
      <trkpt lat="42.93716" lon="0.27081">
        <ele>1162</ele>
        <time>2017-03-04T09:42:22Z</time>
      </trkpt>
      <trkpt lat="42.93713" lon="0.27077">
        <ele>1162</ele>
        <time>2017-03-04T09:42:23Z</time>
      </trkpt>
      <trkpt lat="42.93709" lon="0.27073">
        <ele>1162</ele>
        <time>2017-03-04T09:42:23Z</time>
      </trkpt>
      <trkpt lat="42.93708" lon="0.27069">
        <ele>1170</ele>
        <time>2017-03-04T09:42:23Z</time>
      </trkpt>
      <trkpt lat="42.93707" lon="0.27064">
        <ele>1170</ele>
        <time>2017-03-04T09:42:38Z</time>
      </trkpt>
      <trkpt lat="42.93706" lon="0.2706">
        <ele>1170</ele>
        <time>2017-03-04T09:42:39Z</time>
      </trkpt>
      <trkpt lat="42.93705" lon="0.27054">
        <ele>1170</ele>
        <time>2017-03-04T09:42:39Z</time>
      </trkpt>
      <trkpt lat="42.93704" lon="0.27051">
        <ele>1170</ele>
        <time>2017-03-04T09:42:39Z</time>
      </trkpt>
      <trkpt lat="42.93702" lon="0.27047">
        <ele>1170</ele>
        <time>2017-03-04T09:42:54Z</time>
      </trkpt>
      <trkpt lat="42.937" lon="0.27042">
        <ele>1170</ele>
        <time>2017-03-04T09:42:55Z</time>
      </trkpt>
      <trkpt lat="42.93698" lon="0.27037">
        <ele>1170</ele>
        <time>2017-03-04T09:42:55Z</time>
      </trkpt>
      <trkpt lat="42.93696" lon="0.27033">
        <ele>1170</ele>
        <time>2017-03-04T09:42:55Z</time>
      </trkpt>
      <trkpt lat="42.93694" lon="0.27031">
        <ele>1170</ele>
        <time>2017-03-04T09:43:14Z</time>
      </trkpt>
      <trkpt lat="42.93695" lon="0.27028">
        <ele>1170</ele>
        <time>2017-03-04T09:43:15Z</time>
      </trkpt>
      <trkpt lat="42.93694" lon="0.27025">
        <ele>1170</ele>
        <time>2017-03-04T09:43:15Z</time>
      </trkpt>
      <trkpt lat="42.93693" lon="0.27022">
        <ele>1170</ele>
        <time>2017-03-04T09:43:15Z</time>
      </trkpt>
      <trkpt lat="42.9369" lon="0.27019">
        <ele>1170</ele>
        <time>2017-03-04T09:43:15Z</time>
      </trkpt>
      <trkpt lat="42.93688" lon="0.27011">
        <ele>1170</ele>
        <time>2017-03-04T09:43:30Z</time>
      </trkpt>
      <trkpt lat="42.93687" lon="0.27005">
        <ele>1170</ele>
        <time>2017-03-04T09:43:30Z</time>
      </trkpt>
      <trkpt lat="42.93687" lon="0.27">
        <ele>1170</ele>
        <time>2017-03-04T09:43:31Z</time>
      </trkpt>
      <trkpt lat="42.93686" lon="0.26996">
        <ele>1170</ele>
        <time>2017-03-04T09:43:31Z</time>
      </trkpt>
      <trkpt lat="42.93685" lon="0.26987">
        <ele>1170</ele>
        <time>2017-03-04T09:43:46Z</time>
      </trkpt>
      <trkpt lat="42.93683" lon="0.2698">
        <ele>1170</ele>
        <time>2017-03-04T09:43:46Z</time>
      </trkpt>
      <trkpt lat="42.93683" lon="0.26977">
        <ele>1170</ele>
        <time>2017-03-04T09:43:47Z</time>
      </trkpt>
      <trkpt lat="42.93683" lon="0.26973">
        <ele>1170</ele>
        <time>2017-03-04T09:43:47Z</time>
      </trkpt>
      <trkpt lat="42.93681" lon="0.26968">
        <ele>1170</ele>
        <time>2017-03-04T09:44:02Z</time>
      </trkpt>
      <trkpt lat="42.93682" lon="0.26963">
        <ele>1170</ele>
        <time>2017-03-04T09:44:03Z</time>
      </trkpt>
      <trkpt lat="42.93681" lon="0.26958">
        <ele>1175</ele>
        <time>2017-03-04T09:44:03Z</time>
      </trkpt>
      <trkpt lat="42.93682" lon="0.26953">
        <ele>1175</ele>
        <time>2017-03-04T09:44:03Z</time>
      </trkpt>
      <trkpt lat="42.93683" lon="0.26948">
        <ele>1175</ele>
        <time>2017-03-04T09:44:18Z</time>
      </trkpt>
      <trkpt lat="42.93682" lon="0.26946">
        <ele>1175</ele>
        <time>2017-03-04T09:44:19Z</time>
      </trkpt>
      <trkpt lat="42.93681" lon="0.2694">
        <ele>1175</ele>
        <time>2017-03-04T09:44:19Z</time>
      </trkpt>
      <trkpt lat="42.93682" lon="0.26935">
        <ele>1175</ele>
        <time>2017-03-04T09:44:19Z</time>
      </trkpt>
      <trkpt lat="42.93681" lon="0.26929">
        <ele>1175</ele>
        <time>2017-03-04T09:44:34Z</time>
      </trkpt>
      <trkpt lat="42.9368" lon="0.26924">
        <ele>1175</ele>
        <time>2017-03-04T09:44:35Z</time>
      </trkpt>
      <trkpt lat="42.93678" lon="0.26919">
        <ele>1175</ele>
        <time>2017-03-04T09:44:35Z</time>
      </trkpt>
      <trkpt lat="42.93677" lon="0.26916">
        <ele>1175</ele>
        <time>2017-03-04T09:44:35Z</time>
      </trkpt>
      <trkpt lat="42.93675" lon="0.26911">
        <ele>1175</ele>
        <time>2017-03-04T09:44:50Z</time>
      </trkpt>
      <trkpt lat="42.93673" lon="0.26908">
        <ele>1175</ele>
        <time>2017-03-04T09:44:51Z</time>
      </trkpt>
      <trkpt lat="42.93671" lon="0.26904">
        <ele>1175</ele>
        <time>2017-03-04T09:44:51Z</time>
      </trkpt>
      <trkpt lat="42.93669" lon="0.269">
        <ele>1175</ele>
        <time>2017-03-04T09:44:51Z</time>
      </trkpt>
      <trkpt lat="42.93668" lon="0.26892">
        <ele>1175</ele>
        <time>2017-03-04T09:45:10Z</time>
      </trkpt>
      <trkpt lat="42.93666" lon="0.26886">
        <ele>1175</ele>
        <time>2017-03-04T09:45:11Z</time>
      </trkpt>
      <trkpt lat="42.93666" lon="0.26883">
        <ele>1175</ele>
        <time>2017-03-04T09:45:11Z</time>
      </trkpt>
      <trkpt lat="42.93664" lon="0.26881">
        <ele>1175</ele>
        <time>2017-03-04T09:45:11Z</time>
      </trkpt>
      <trkpt lat="42.93662" lon="0.26877">
        <ele>1175</ele>
        <time>2017-03-04T09:45:11Z</time>
      </trkpt>
      <trkpt lat="42.93661" lon="0.26871">
        <ele>1180</ele>
        <time>2017-03-04T09:45:30Z</time>
      </trkpt>
      <trkpt lat="42.9366" lon="0.26867">
        <ele>1180</ele>
        <time>2017-03-04T09:45:31Z</time>
      </trkpt>
      <trkpt lat="42.93659" lon="0.26863">
        <ele>1180</ele>
        <time>2017-03-04T09:45:31Z</time>
      </trkpt>
      <trkpt lat="42.93659" lon="0.26861">
        <ele>1180</ele>
        <time>2017-03-04T09:45:31Z</time>
      </trkpt>
      <trkpt lat="42.93658" lon="0.26854">
        <ele>1180</ele>
        <time>2017-03-04T09:45:31Z</time>
      </trkpt>
      <trkpt lat="42.93657" lon="0.2685">
        <ele>1180</ele>
        <time>2017-03-04T09:45:46Z</time>
      </trkpt>
      <trkpt lat="42.93656" lon="0.26847">
        <ele>1180</ele>
        <time>2017-03-04T09:45:47Z</time>
      </trkpt>
      <trkpt lat="42.93655" lon="0.26842">
        <ele>1180</ele>
        <time>2017-03-04T09:45:47Z</time>
      </trkpt>
      <trkpt lat="42.93651" lon="0.26836">
        <ele>1180</ele>
        <time>2017-03-04T09:45:47Z</time>
      </trkpt>
      <trkpt lat="42.9365" lon="0.26833">
        <ele>1180</ele>
        <time>2017-03-04T09:46:02Z</time>
      </trkpt>
      <trkpt lat="42.93649" lon="0.26829">
        <ele>1180</ele>
        <time>2017-03-04T09:46:03Z</time>
      </trkpt>
      <trkpt lat="42.93645" lon="0.26823">
        <ele>1180</ele>
        <time>2017-03-04T09:46:03Z</time>
      </trkpt>
      <trkpt lat="42.93643" lon="0.26817">
        <ele>1180</ele>
        <time>2017-03-04T09:46:03Z</time>
      </trkpt>
      <trkpt lat="42.93642" lon="0.26815">
        <ele>1180</ele>
        <time>2017-03-04T09:46:22Z</time>
      </trkpt>
      <trkpt lat="42.9364" lon="0.26812">
        <ele>1180</ele>
        <time>2017-03-04T09:46:22Z</time>
      </trkpt>
      <trkpt lat="42.9364" lon="0.26811">
        <ele>1180</ele>
        <time>2017-03-04T09:46:23Z</time>
      </trkpt>
      <trkpt lat="42.93638" lon="0.26807">
        <ele>1180</ele>
        <time>2017-03-04T09:46:23Z</time>
      </trkpt>
      <trkpt lat="42.93636" lon="0.26803">
        <ele>1180</ele>
        <time>2017-03-04T09:46:23Z</time>
      </trkpt>
      <trkpt lat="42.93635" lon="0.26795">
        <ele>1180</ele>
        <time>2017-03-04T09:46:38Z</time>
      </trkpt>
      <trkpt lat="42.93631" lon="0.26791">
        <ele>1187</ele>
        <time>2017-03-04T09:46:38Z</time>
      </trkpt>
      <trkpt lat="42.93629" lon="0.26789">
        <ele>1187</ele>
        <time>2017-03-04T09:46:39Z</time>
      </trkpt>
      <trkpt lat="42.93626" lon="0.26786">
        <ele>1187</ele>
        <time>2017-03-04T09:46:39Z</time>
      </trkpt>
      <trkpt lat="42.93624" lon="0.26782">
        <ele>1184</ele>
        <time>2017-03-04T09:46:58Z</time>
      </trkpt>
      <trkpt lat="42.93622" lon="0.26779">
        <ele>1184</ele>
        <time>2017-03-04T09:46:59Z</time>
      </trkpt>
      <trkpt lat="42.93621" lon="0.26775">
        <ele>1184</ele>
        <time>2017-03-04T09:46:59Z</time>
      </trkpt>
      <trkpt lat="42.93619" lon="0.26773">
        <ele>1184</ele>
        <time>2017-03-04T09:46:59Z</time>
      </trkpt>
      <trkpt lat="42.93616" lon="0.2677">
        <ele>1184</ele>
        <time>2017-03-04T09:46:59Z</time>
      </trkpt>
      <trkpt lat="42.93612" lon="0.26768">
        <ele>1184</ele>
        <time>2017-03-04T09:47:14Z</time>
      </trkpt>
      <trkpt lat="42.93609" lon="0.26768">
        <ele>1184</ele>
        <time>2017-03-04T09:47:14Z</time>
      </trkpt>
      <trkpt lat="42.93607" lon="0.26766">
        <ele>1184</ele>
        <time>2017-03-04T09:47:15Z</time>
      </trkpt>
      <trkpt lat="42.93603" lon="0.26763">
        <ele>1184</ele>
        <time>2017-03-04T09:47:15Z</time>
      </trkpt>
      <trkpt lat="42.936" lon="0.26761">
        <ele>1184</ele>
        <time>2017-03-04T09:47:30Z</time>
      </trkpt>
      <trkpt lat="42.93598" lon="0.2676">
        <ele>1184</ele>
        <time>2017-03-04T09:47:31Z</time>
      </trkpt>
      <trkpt lat="42.93595" lon="0.26758">
        <ele>1184</ele>
        <time>2017-03-04T09:47:31Z</time>
      </trkpt>
      <trkpt lat="42.93592" lon="0.26755">
        <ele>1184</ele>
        <time>2017-03-04T09:47:31Z</time>
      </trkpt>
      <trkpt lat="42.9359" lon="0.26753">
        <ele>1184</ele>
        <time>2017-03-04T09:47:50Z</time>
      </trkpt>
      <trkpt lat="42.93586" lon="0.26749">
        <ele>1184</ele>
        <time>2017-03-04T09:47:50Z</time>
      </trkpt>
      <trkpt lat="42.93586" lon="0.26748">
        <ele>1184</ele>
        <time>2017-03-04T09:47:51Z</time>
      </trkpt>
      <trkpt lat="42.93584" lon="0.26746">
        <ele>1184</ele>
        <time>2017-03-04T09:47:51Z</time>
      </trkpt>
      <trkpt lat="42.9358" lon="0.26742">
        <ele>1184</ele>
        <time>2017-03-04T09:47:51Z</time>
      </trkpt>
      <trkpt lat="42.9357" lon="0.26733">
        <ele>1184</ele>
        <time>2017-03-04T09:48:22Z</time>
      </trkpt>
      <trkpt lat="42.93569" lon="0.26733">
        <ele>1184</ele>
        <time>2017-03-04T09:48:22Z</time>
      </trkpt>
      <trkpt lat="42.93566" lon="0.26731">
        <ele>1184</ele>
        <time>2017-03-04T09:48:23Z</time>
      </trkpt>
      <trkpt lat="42.93563" lon="0.26728">
        <ele>1184</ele>
        <time>2017-03-04T09:48:23Z</time>
      </trkpt>
      <trkpt lat="42.93559" lon="0.26724">
        <ele>1184</ele>
        <time>2017-03-04T09:48:23Z</time>
      </trkpt>
      <trkpt lat="42.93558" lon="0.26723">
        <ele>1184</ele>
        <time>2017-03-04T09:48:38Z</time>
      </trkpt>
      <trkpt lat="42.93554" lon="0.26719">
        <ele>1184</ele>
        <time>2017-03-04T09:48:39Z</time>
      </trkpt>
      <trkpt lat="42.9355" lon="0.26717">
        <ele>1184</ele>
        <time>2017-03-04T09:48:39Z</time>
      </trkpt>
      <trkpt lat="42.93547" lon="0.26714">
        <ele>1184</ele>
        <time>2017-03-04T09:48:39Z</time>
      </trkpt>
      <trkpt lat="42.93545" lon="0.26711">
        <ele>1184</ele>
        <time>2017-03-04T09:48:58Z</time>
      </trkpt>
      <trkpt lat="42.93542" lon="0.26708">
        <ele>1190</ele>
        <time>2017-03-04T09:48:58Z</time>
      </trkpt>
      <trkpt lat="42.93539" lon="0.26705">
        <ele>1190</ele>
        <time>2017-03-04T09:48:59Z</time>
      </trkpt>
      <trkpt lat="42.93537" lon="0.26704">
        <ele>1190</ele>
        <time>2017-03-04T09:48:59Z</time>
      </trkpt>
      <trkpt lat="42.93533" lon="0.26701">
        <ele>1190</ele>
        <time>2017-03-04T09:48:59Z</time>
      </trkpt>
      <trkpt lat="42.9353" lon="0.26698">
        <ele>1190</ele>
        <time>2017-03-04T09:49:14Z</time>
      </trkpt>
      <trkpt lat="42.93527" lon="0.26696">
        <ele>1190</ele>
        <time>2017-03-04T09:49:14Z</time>
      </trkpt>
      <trkpt lat="42.93524" lon="0.26693">
        <ele>1190</ele>
        <time>2017-03-04T09:49:15Z</time>
      </trkpt>
      <trkpt lat="42.93521" lon="0.2669">
        <ele>1190</ele>
        <time>2017-03-04T09:49:15Z</time>
      </trkpt>
      <trkpt lat="42.9352" lon="0.26686">
        <ele>1190</ele>
        <time>2017-03-04T09:49:34Z</time>
      </trkpt>
      <trkpt lat="42.93519" lon="0.26684">
        <ele>1190</ele>
        <time>2017-03-04T09:49:35Z</time>
      </trkpt>
      <trkpt lat="42.93516" lon="0.26682">
        <ele>1190</ele>
        <time>2017-03-04T09:49:35Z</time>
      </trkpt>
      <trkpt lat="42.93513" lon="0.26681">
        <ele>1190</ele>
        <time>2017-03-04T09:49:35Z</time>
      </trkpt>
      <trkpt lat="42.93511" lon="0.26678">
        <ele>1190</ele>
        <time>2017-03-04T09:49:35Z</time>
      </trkpt>
      <trkpt lat="42.93508" lon="0.26674">
        <ele>1190</ele>
        <time>2017-03-04T09:49:54Z</time>
      </trkpt>
      <trkpt lat="42.93506" lon="0.2667">
        <ele>1190</ele>
        <time>2017-03-04T09:49:55Z</time>
      </trkpt>
      <trkpt lat="42.93503" lon="0.26668">
        <ele>1190</ele>
        <time>2017-03-04T09:49:55Z</time>
      </trkpt>
      <trkpt lat="42.93502" lon="0.26666">
        <ele>1190</ele>
        <time>2017-03-04T09:49:55Z</time>
      </trkpt>
      <trkpt lat="42.935" lon="0.26664">
        <ele>1190</ele>
        <time>2017-03-04T09:49:55Z</time>
      </trkpt>
      <trkpt lat="42.93496" lon="0.2666">
        <ele>1190</ele>
        <time>2017-03-04T09:50:10Z</time>
      </trkpt>
      <trkpt lat="42.93493" lon="0.26658">
        <ele>1190</ele>
        <time>2017-03-04T09:50:11Z</time>
      </trkpt>
      <trkpt lat="42.93488" lon="0.26655">
        <ele>1190</ele>
        <time>2017-03-04T09:50:11Z</time>
      </trkpt>
      <trkpt lat="42.93485" lon="0.26651">
        <ele>1190</ele>
        <time>2017-03-04T09:50:11Z</time>
      </trkpt>
      <trkpt lat="42.93484" lon="0.26647">
        <ele>1190</ele>
        <time>2017-03-04T09:50:26Z</time>
      </trkpt>
      <trkpt lat="42.93482" lon="0.26643">
        <ele>1190</ele>
        <time>2017-03-04T09:50:27Z</time>
      </trkpt>
      <trkpt lat="42.9348" lon="0.26639">
        <ele>1190</ele>
        <time>2017-03-04T09:50:27Z</time>
      </trkpt>
      <trkpt lat="42.93477" lon="0.26637">
        <ele>1190</ele>
        <time>2017-03-04T09:50:27Z</time>
      </trkpt>
      <trkpt lat="42.93475" lon="0.26635">
        <ele>1190</ele>
        <time>2017-03-04T09:50:46Z</time>
      </trkpt>
      <trkpt lat="42.93471" lon="0.26633">
        <ele>1190</ele>
        <time>2017-03-04T09:50:46Z</time>
      </trkpt>
      <trkpt lat="42.93469" lon="0.26631">
        <ele>1190</ele>
        <time>2017-03-04T09:50:47Z</time>
      </trkpt>
      <trkpt lat="42.93468" lon="0.26628">
        <ele>1190</ele>
        <time>2017-03-04T09:50:47Z</time>
      </trkpt>
      <trkpt lat="42.93467" lon="0.26626">
        <ele>1190</ele>
        <time>2017-03-04T09:50:47Z</time>
      </trkpt>
      <trkpt lat="42.93465" lon="0.26621">
        <ele>1197</ele>
        <time>2017-03-04T09:51:02Z</time>
      </trkpt>
      <trkpt lat="42.93462" lon="0.26619">
        <ele>1197</ele>
        <time>2017-03-04T09:51:03Z</time>
      </trkpt>
      <trkpt lat="42.93459" lon="0.26615">
        <ele>1197</ele>
        <time>2017-03-04T09:51:03Z</time>
      </trkpt>
      <trkpt lat="42.93456" lon="0.26613">
        <ele>1197</ele>
        <time>2017-03-04T09:51:03Z</time>
      </trkpt>
      <trkpt lat="42.93455" lon="0.26611">
        <ele>1197</ele>
        <time>2017-03-04T09:51:22Z</time>
      </trkpt>
      <trkpt lat="42.93454" lon="0.2661">
        <ele>1197</ele>
        <time>2017-03-04T09:51:22Z</time>
      </trkpt>
      <trkpt lat="42.9345" lon="0.26607">
        <ele>1197</ele>
        <time>2017-03-04T09:51:23Z</time>
      </trkpt>
      <trkpt lat="42.93448" lon="0.26606">
        <ele>1197</ele>
        <time>2017-03-04T09:51:23Z</time>
      </trkpt>
      <trkpt lat="42.93446" lon="0.26604">
        <ele>1197</ele>
        <time>2017-03-04T09:51:23Z</time>
      </trkpt>
      <trkpt lat="42.93444" lon="0.26601">
        <ele>1197</ele>
        <time>2017-03-04T09:51:38Z</time>
      </trkpt>
      <trkpt lat="42.93442" lon="0.26598">
        <ele>1197</ele>
        <time>2017-03-04T09:51:39Z</time>
      </trkpt>
      <trkpt lat="42.93438" lon="0.26594">
        <ele>1197</ele>
        <time>2017-03-04T09:51:39Z</time>
      </trkpt>
      <trkpt lat="42.93436" lon="0.26592">
        <ele>1197</ele>
        <time>2017-03-04T09:51:39Z</time>
      </trkpt>
      <trkpt lat="42.93434" lon="0.2659">
        <ele>1197</ele>
        <time>2017-03-04T09:51:58Z</time>
      </trkpt>
      <trkpt lat="42.93432" lon="0.26588">
        <ele>1197</ele>
        <time>2017-03-04T09:51:59Z</time>
      </trkpt>
      <trkpt lat="42.93431" lon="0.26588">
        <ele>1197</ele>
        <time>2017-03-04T09:51:59Z</time>
      </trkpt>
      <trkpt lat="42.93428" lon="0.26585">
        <ele>1197</ele>
        <time>2017-03-04T09:51:59Z</time>
      </trkpt>
      <trkpt lat="42.93425" lon="0.26582">
        <ele>1197</ele>
        <time>2017-03-04T09:51:59Z</time>
      </trkpt>
      <trkpt lat="42.93423" lon="0.2658">
        <ele>1197</ele>
        <time>2017-03-04T09:52:14Z</time>
      </trkpt>
      <trkpt lat="42.93421" lon="0.26577">
        <ele>1197</ele>
        <time>2017-03-04T09:52:15Z</time>
      </trkpt>
      <trkpt lat="42.93418" lon="0.26573">
        <ele>1197</ele>
        <time>2017-03-04T09:52:15Z</time>
      </trkpt>
      <trkpt lat="42.93415" lon="0.26571">
        <ele>1197</ele>
        <time>2017-03-04T09:52:15Z</time>
      </trkpt>
      <trkpt lat="42.93414" lon="0.26568">
        <ele>1197</ele>
        <time>2017-03-04T09:52:34Z</time>
      </trkpt>
      <trkpt lat="42.9341" lon="0.26567">
        <ele>1197</ele>
        <time>2017-03-04T09:52:35Z</time>
      </trkpt>
      <trkpt lat="42.93409" lon="0.26567">
        <ele>1197</ele>
        <time>2017-03-04T09:52:35Z</time>
      </trkpt>
      <trkpt lat="42.93407" lon="0.26566">
        <ele>1197</ele>
        <time>2017-03-04T09:52:35Z</time>
      </trkpt>
      <trkpt lat="42.93405" lon="0.26563">
        <ele>1197</ele>
        <time>2017-03-04T09:52:35Z</time>
      </trkpt>
      <trkpt lat="42.93403" lon="0.26561">
        <ele>1197</ele>
        <time>2017-03-04T09:52:50Z</time>
      </trkpt>
      <trkpt lat="42.93401" lon="0.2656">
        <ele>1197</ele>
        <time>2017-03-04T09:52:51Z</time>
      </trkpt>
      <trkpt lat="42.93398" lon="0.26558">
        <ele>1197</ele>
        <time>2017-03-04T09:52:51Z</time>
      </trkpt>
      <trkpt lat="42.93394" lon="0.26555">
        <ele>1197</ele>
        <time>2017-03-04T09:52:51Z</time>
      </trkpt>
      <trkpt lat="42.93389" lon="0.26552">
        <ele>1197</ele>
        <time>2017-03-04T09:53:14Z</time>
      </trkpt>
      <trkpt lat="42.93388" lon="0.26551">
        <ele>1197</ele>
        <time>2017-03-04T09:53:15Z</time>
      </trkpt>
      <trkpt lat="42.93387" lon="0.26548">
        <ele>1197</ele>
        <time>2017-03-04T09:53:15Z</time>
      </trkpt>
      <trkpt lat="42.93385" lon="0.26547">
        <ele>1197</ele>
        <time>2017-03-04T09:53:15Z</time>
      </trkpt>
      <trkpt lat="42.93382" lon="0.26546">
        <ele>1197</ele>
        <time>2017-03-04T09:53:15Z</time>
      </trkpt>
      <trkpt lat="42.93379" lon="0.26545">
        <ele>1197</ele>
        <time>2017-03-04T09:53:30Z</time>
      </trkpt>
      <trkpt lat="42.93376" lon="0.26543">
        <ele>1197</ele>
        <time>2017-03-04T09:53:31Z</time>
      </trkpt>
      <trkpt lat="42.93374" lon="0.26541">
        <ele>1212</ele>
        <time>2017-03-04T09:53:31Z</time>
      </trkpt>
      <trkpt lat="42.93371" lon="0.2654">
        <ele>1212</ele>
        <time>2017-03-04T09:53:31Z</time>
      </trkpt>
      <trkpt lat="42.9337" lon="0.26539">
        <ele>1212</ele>
        <time>2017-03-04T09:53:50Z</time>
      </trkpt>
      <trkpt lat="42.93367" lon="0.26539">
        <ele>1212</ele>
        <time>2017-03-04T09:53:51Z</time>
      </trkpt>
      <trkpt lat="42.93364" lon="0.26536">
        <ele>1212</ele>
        <time>2017-03-04T09:53:51Z</time>
      </trkpt>
      <trkpt lat="42.93362" lon="0.26534">
        <ele>1212</ele>
        <time>2017-03-04T09:53:51Z</time>
      </trkpt>
      <trkpt lat="42.93359" lon="0.26531">
        <ele>1212</ele>
        <time>2017-03-04T09:53:51Z</time>
      </trkpt>
      <trkpt lat="42.93357" lon="0.26529">
        <ele>1212</ele>
        <time>2017-03-04T09:54:06Z</time>
      </trkpt>
      <trkpt lat="42.93355" lon="0.26527">
        <ele>1212</ele>
        <time>2017-03-04T09:54:07Z</time>
      </trkpt>
      <trkpt lat="42.93352" lon="0.26525">
        <ele>1212</ele>
        <time>2017-03-04T09:54:07Z</time>
      </trkpt>
      <trkpt lat="42.93349" lon="0.26524">
        <ele>1212</ele>
        <time>2017-03-04T09:54:07Z</time>
      </trkpt>
      <trkpt lat="42.93347" lon="0.26523">
        <ele>1212</ele>
        <time>2017-03-04T09:54:26Z</time>
      </trkpt>
      <trkpt lat="42.93344" lon="0.26522">
        <ele>1212</ele>
        <time>2017-03-04T09:54:27Z</time>
      </trkpt>
      <trkpt lat="42.93343" lon="0.26518">
        <ele>1212</ele>
        <time>2017-03-04T09:54:27Z</time>
      </trkpt>
      <trkpt lat="42.93341" lon="0.26517">
        <ele>1212</ele>
        <time>2017-03-04T09:54:27Z</time>
      </trkpt>
      <trkpt lat="42.93338" lon="0.26516">
        <ele>1212</ele>
        <time>2017-03-04T09:54:27Z</time>
      </trkpt>
      <trkpt lat="42.93336" lon="0.26515">
        <ele>1212</ele>
        <time>2017-03-04T09:54:46Z</time>
      </trkpt>
      <trkpt lat="42.93333" lon="0.26512">
        <ele>1212</ele>
        <time>2017-03-04T09:54:47Z</time>
      </trkpt>
      <trkpt lat="42.9333" lon="0.26511">
        <ele>1212</ele>
        <time>2017-03-04T09:54:47Z</time>
      </trkpt>
      <trkpt lat="42.93328" lon="0.26508">
        <ele>1212</ele>
        <time>2017-03-04T09:54:47Z</time>
      </trkpt>
      <trkpt lat="42.93326" lon="0.26507">
        <ele>1212</ele>
        <time>2017-03-04T09:54:47Z</time>
      </trkpt>
      <trkpt lat="42.93324" lon="0.26506">
        <ele>1212</ele>
        <time>2017-03-04T09:55:06Z</time>
      </trkpt>
      <trkpt lat="42.93321" lon="0.26503">
        <ele>1212</ele>
        <time>2017-03-04T09:55:07Z</time>
      </trkpt>
      <trkpt lat="42.9332" lon="0.26502">
        <ele>1212</ele>
        <time>2017-03-04T09:55:07Z</time>
      </trkpt>
      <trkpt lat="42.93319" lon="0.265">
        <ele>1212</ele>
        <time>2017-03-04T09:55:07Z</time>
      </trkpt>
      <trkpt lat="42.93316" lon="0.26499">
        <ele>1212</ele>
        <time>2017-03-04T09:55:07Z</time>
      </trkpt>
      <trkpt lat="42.93313" lon="0.26498">
        <ele>1212</ele>
        <time>2017-03-04T09:55:26Z</time>
      </trkpt>
      <trkpt lat="42.93312" lon="0.26498">
        <ele>1212</ele>
        <time>2017-03-04T09:55:27Z</time>
      </trkpt>
      <trkpt lat="42.9331" lon="0.26497">
        <ele>1212</ele>
        <time>2017-03-04T09:55:27Z</time>
      </trkpt>
      <trkpt lat="42.93307" lon="0.26497">
        <ele>1212</ele>
        <time>2017-03-04T09:55:27Z</time>
      </trkpt>
      <trkpt lat="42.93303" lon="0.26496">
        <ele>1212</ele>
        <time>2017-03-04T09:55:27Z</time>
      </trkpt>
      <trkpt lat="42.933" lon="0.26495">
        <ele>1212</ele>
        <time>2017-03-04T09:55:46Z</time>
      </trkpt>
      <trkpt lat="42.93296" lon="0.26494">
        <ele>1212</ele>
        <time>2017-03-04T09:55:47Z</time>
      </trkpt>
      <trkpt lat="42.93294" lon="0.26493">
        <ele>1212</ele>
        <time>2017-03-04T09:55:47Z</time>
      </trkpt>
      <trkpt lat="42.93292" lon="0.26489">
        <ele>1212</ele>
        <time>2017-03-04T09:55:47Z</time>
      </trkpt>
      <trkpt lat="42.93289" lon="0.26487">
        <ele>1201</ele>
        <time>2017-03-04T09:55:47Z</time>
      </trkpt>
      <trkpt lat="42.93285" lon="0.26486">
        <ele>1201</ele>
        <time>2017-03-04T09:56:06Z</time>
      </trkpt>
      <trkpt lat="42.93283" lon="0.26485">
        <ele>1201</ele>
        <time>2017-03-04T09:56:06Z</time>
      </trkpt>
      <trkpt lat="42.9328" lon="0.26485">
        <ele>1201</ele>
        <time>2017-03-04T09:56:07Z</time>
      </trkpt>
      <trkpt lat="42.93278" lon="0.26484">
        <ele>1201</ele>
        <time>2017-03-04T09:56:07Z</time>
      </trkpt>
      <trkpt lat="42.93274" lon="0.26484">
        <ele>1201</ele>
        <time>2017-03-04T09:56:07Z</time>
      </trkpt>
      <trkpt lat="42.93271" lon="0.26484">
        <ele>1201</ele>
        <time>2017-03-04T09:56:26Z</time>
      </trkpt>
      <trkpt lat="42.9327" lon="0.26483">
        <ele>1201</ele>
        <time>2017-03-04T09:56:26Z</time>
      </trkpt>
      <trkpt lat="42.93267" lon="0.26481">
        <ele>1201</ele>
        <time>2017-03-04T09:56:27Z</time>
      </trkpt>
      <trkpt lat="42.93265" lon="0.26478">
        <ele>1201</ele>
        <time>2017-03-04T09:56:27Z</time>
      </trkpt>
      <trkpt lat="42.93261" lon="0.26475">
        <ele>1201</ele>
        <time>2017-03-04T09:56:27Z</time>
      </trkpt>
      <trkpt lat="42.93258" lon="0.2647">
        <ele>1201</ele>
        <time>2017-03-04T09:56:42Z</time>
      </trkpt>
      <trkpt lat="42.93254" lon="0.26469">
        <ele>1201</ele>
        <time>2017-03-04T09:56:43Z</time>
      </trkpt>
      <trkpt lat="42.93253" lon="0.26465">
        <ele>1201</ele>
        <time>2017-03-04T09:56:43Z</time>
      </trkpt>
      <trkpt lat="42.93252" lon="0.26462">
        <ele>1201</ele>
        <time>2017-03-04T09:56:43Z</time>
      </trkpt>
      <trkpt lat="42.93251" lon="0.26452">
        <ele>1225</ele>
        <time>2017-03-04T09:57:02Z</time>
      </trkpt>
      <trkpt lat="42.93251" lon="0.2645">
        <ele>1225</ele>
        <time>2017-03-04T09:57:02Z</time>
      </trkpt>
      <trkpt lat="42.9325" lon="0.26447">
        <ele>1225</ele>
        <time>2017-03-04T09:57:03Z</time>
      </trkpt>
      <trkpt lat="42.93247" lon="0.26444">
        <ele>1225</ele>
        <time>2017-03-04T09:57:03Z</time>
      </trkpt>
      <trkpt lat="42.93246" lon="0.26442">
        <ele>1225</ele>
        <time>2017-03-04T09:57:03Z</time>
      </trkpt>
      <trkpt lat="42.93244" lon="0.26433">
        <ele>1225</ele>
        <time>2017-03-04T09:57:42Z</time>
      </trkpt>
      <trkpt lat="42.93245" lon="0.26432">
        <ele>1225</ele>
        <time>2017-03-04T09:57:43Z</time>
      </trkpt>
      <trkpt lat="42.93244" lon="0.2643">
        <ele>1225</ele>
        <time>2017-03-04T09:57:43Z</time>
      </trkpt>
      <trkpt lat="42.93243" lon="0.26427">
        <ele>1225</ele>
        <time>2017-03-04T09:57:43Z</time>
      </trkpt>
      <trkpt lat="42.9324" lon="0.26424">
        <ele>1225</ele>
        <time>2017-03-04T09:57:43Z</time>
      </trkpt>
      <trkpt lat="42.93235" lon="0.26415">
        <ele>1225</ele>
        <time>2017-03-04T09:58:18Z</time>
      </trkpt>
      <trkpt lat="42.93235" lon="0.26415">
        <ele>1225</ele>
        <time>2017-03-04T09:58:19Z</time>
      </trkpt>
      <trkpt lat="42.93233" lon="0.26411">
        <ele>1225</ele>
        <time>2017-03-04T09:58:19Z</time>
      </trkpt>
      <trkpt lat="42.93232" lon="0.26409">
        <ele>1225</ele>
        <time>2017-03-04T09:58:19Z</time>
      </trkpt>
      <trkpt lat="42.9323" lon="0.26406">
        <ele>1225</ele>
        <time>2017-03-04T09:58:19Z</time>
      </trkpt>
      <trkpt lat="42.93227" lon="0.26404">
        <ele>1225</ele>
        <time>2017-03-04T09:58:38Z</time>
      </trkpt>
      <trkpt lat="42.93225" lon="0.26402">
        <ele>1225</ele>
        <time>2017-03-04T09:58:39Z</time>
      </trkpt>
      <trkpt lat="42.93224" lon="0.26399">
        <ele>1225</ele>
        <time>2017-03-04T09:58:39Z</time>
      </trkpt>
      <trkpt lat="42.93221" lon="0.26397">
        <ele>1225</ele>
        <time>2017-03-04T09:58:39Z</time>
      </trkpt>
      <trkpt lat="42.93218" lon="0.26396">
        <ele>1225</ele>
        <time>2017-03-04T09:58:39Z</time>
      </trkpt>
      <trkpt lat="42.93218" lon="0.26396">
        <ele>1225</ele>
        <time>2017-03-04T09:58:54Z</time>
      </trkpt>
      <trkpt lat="42.93216" lon="0.26394">
        <ele>1225</ele>
        <time>2017-03-04T09:58:55Z</time>
      </trkpt>
      <trkpt lat="42.9321" lon="0.26387">
        <ele>1225</ele>
        <time>2017-03-04T09:58:55Z</time>
      </trkpt>
      <trkpt lat="42.93208" lon="0.26384">
        <ele>1225</ele>
        <time>2017-03-04T09:58:55Z</time>
      </trkpt>
      <trkpt lat="42.93207" lon="0.26382">
        <ele>1214</ele>
        <time>2017-03-04T09:59:10Z</time>
      </trkpt>
      <trkpt lat="42.93204" lon="0.26378">
        <ele>1214</ele>
        <time>2017-03-04T09:59:11Z</time>
      </trkpt>
      <trkpt lat="42.93204" lon="0.26376">
        <ele>1214</ele>
        <time>2017-03-04T09:59:11Z</time>
      </trkpt>
      <trkpt lat="42.93201" lon="0.26368">
        <ele>1233</ele>
        <time>2017-03-04T09:59:11Z</time>
      </trkpt>
      <trkpt lat="42.93196" lon="0.26363">
        <ele>1233</ele>
        <time>2017-03-04T09:59:42Z</time>
      </trkpt>
      <trkpt lat="42.93196" lon="0.26363">
        <ele>1233</ele>
        <time>2017-03-04T09:59:43Z</time>
      </trkpt>
      <trkpt lat="42.93195" lon="0.26363">
        <ele>1233</ele>
        <time>2017-03-04T09:59:43Z</time>
      </trkpt>
      <trkpt lat="42.93194" lon="0.26363">
        <ele>1233</ele>
        <time>2017-03-04T09:59:43Z</time>
      </trkpt>
      <trkpt lat="42.93191" lon="0.26363">
        <ele>1233</ele>
        <time>2017-03-04T09:59:43Z</time>
      </trkpt>
      <trkpt lat="42.9319" lon="0.26361">
        <ele>1233</ele>
        <time>2017-03-04T10:00:02Z</time>
      </trkpt>
      <trkpt lat="42.93189" lon="0.2636">
        <ele>1233</ele>
        <time>2017-03-04T10:00:02Z</time>
      </trkpt>
      <trkpt lat="42.93187" lon="0.26359">
        <ele>1233</ele>
        <time>2017-03-04T10:00:03Z</time>
      </trkpt>
      <trkpt lat="42.93186" lon="0.26359">
        <ele>1233</ele>
        <time>2017-03-04T10:00:03Z</time>
      </trkpt>
      <trkpt lat="42.93181" lon="0.26357">
        <ele>1233</ele>
        <time>2017-03-04T10:00:03Z</time>
      </trkpt>
      <trkpt lat="42.9318" lon="0.26351">
        <ele>1233</ele>
        <time>2017-03-04T10:00:18Z</time>
      </trkpt>
      <trkpt lat="42.93179" lon="0.26345">
        <ele>1233</ele>
        <time>2017-03-04T10:00:19Z</time>
      </trkpt>
      <trkpt lat="42.9318" lon="0.2634">
        <ele>1233</ele>
        <time>2017-03-04T10:00:19Z</time>
      </trkpt>
      <trkpt lat="42.9318" lon="0.26338">
        <ele>1233</ele>
        <time>2017-03-04T10:00:19Z</time>
      </trkpt>
      <trkpt lat="42.93178" lon="0.26336">
        <ele>1233</ele>
        <time>2017-03-04T10:00:46Z</time>
      </trkpt>
      <trkpt lat="42.93177" lon="0.26333">
        <ele>1233</ele>
        <time>2017-03-04T10:00:47Z</time>
      </trkpt>
      <trkpt lat="42.93177" lon="0.26332">
        <ele>1233</ele>
        <time>2017-03-04T10:00:47Z</time>
      </trkpt>
      <trkpt lat="42.93177" lon="0.26329">
        <ele>1233</ele>
        <time>2017-03-04T10:00:47Z</time>
      </trkpt>
      <trkpt lat="42.93172" lon="0.26324">
        <ele>1233</ele>
        <time>2017-03-04T10:00:47Z</time>
      </trkpt>
      <trkpt lat="42.93171" lon="0.2632">
        <ele>1233</ele>
        <time>2017-03-04T10:01:14Z</time>
      </trkpt>
      <trkpt lat="42.93169" lon="0.26317">
        <ele>1233</ele>
        <time>2017-03-04T10:01:15Z</time>
      </trkpt>
      <trkpt lat="42.93169" lon="0.26316">
        <ele>1233</ele>
        <time>2017-03-04T10:01:15Z</time>
      </trkpt>
      <trkpt lat="42.93169" lon="0.26311">
        <ele>1233</ele>
        <time>2017-03-04T10:01:15Z</time>
      </trkpt>
      <trkpt lat="42.93167" lon="0.26309">
        <ele>1233</ele>
        <time>2017-03-04T10:01:15Z</time>
      </trkpt>
      <trkpt lat="42.93171" lon="0.26296">
        <ele>1233</ele>
        <time>2017-03-04T10:03:42Z</time>
      </trkpt>
      <trkpt lat="42.93165" lon="0.26293">
        <ele>1233</ele>
        <time>2017-03-04T10:03:43Z</time>
      </trkpt>
      <trkpt lat="42.93165" lon="0.26293">
        <ele>1233</ele>
        <time>2017-03-04T10:03:43Z</time>
      </trkpt>
      <trkpt lat="42.93165" lon="0.26292">
        <ele>1233</ele>
        <time>2017-03-04T10:03:43Z</time>
      </trkpt>
      <trkpt lat="42.93165" lon="0.26292">
        <ele>1233</ele>
        <time>2017-03-04T10:03:43Z</time>
      </trkpt>
      <trkpt lat="42.93164" lon="0.26288">
        <ele>1252</ele>
        <time>2017-03-04T10:04:22Z</time>
      </trkpt>
      <trkpt lat="42.93162" lon="0.2629">
        <ele>1252</ele>
        <time>2017-03-04T10:04:23Z</time>
      </trkpt>
      <trkpt lat="42.93162" lon="0.2629">
        <ele>1252</ele>
        <time>2017-03-04T10:04:23Z</time>
      </trkpt>
      <trkpt lat="42.9316" lon="0.2629">
        <ele>1252</ele>
        <time>2017-03-04T10:04:23Z</time>
      </trkpt>
      <trkpt lat="42.93153" lon="0.263">
        <ele>1233</ele>
        <time>2017-03-04T10:04:23Z</time>
      </trkpt>
      <trkpt lat="42.9315" lon="0.26302">
        <ele>1233</ele>
        <time>2017-03-04T10:04:54Z</time>
      </trkpt>
      <trkpt lat="42.9315" lon="0.26302">
        <ele>1233</ele>
        <time>2017-03-04T10:04:54Z</time>
      </trkpt>
      <trkpt lat="42.93151" lon="0.26303">
        <ele>1233</ele>
        <time>2017-03-04T10:04:55Z</time>
      </trkpt>
      <trkpt lat="42.93156" lon="0.26299">
        <ele>1233</ele>
        <time>2017-03-04T10:04:55Z</time>
      </trkpt>
      <trkpt lat="42.93159" lon="0.26298">
        <ele>1233</ele>
        <time>2017-03-04T10:04:55Z</time>
      </trkpt>
      <trkpt lat="42.93162" lon="0.26295">
        <ele>1233</ele>
        <time>2017-03-04T10:05:42Z</time>
      </trkpt>
      <trkpt lat="42.93162" lon="0.26291">
        <ele>1252</ele>
        <time>2017-03-04T10:05:42Z</time>
      </trkpt>
      <trkpt lat="42.93162" lon="0.26286">
        <ele>1252</ele>
        <time>2017-03-04T10:05:43Z</time>
      </trkpt>
      <trkpt lat="42.93159" lon="0.26281">
        <ele>1252</ele>
        <time>2017-03-04T10:05:43Z</time>
      </trkpt>
      <trkpt lat="42.93159" lon="0.26278">
        <ele>1252</ele>
        <time>2017-03-04T10:05:43Z</time>
      </trkpt>
      <trkpt lat="42.93158" lon="0.2628">
        <ele>1252</ele>
        <time>2017-03-04T10:06:02Z</time>
      </trkpt>
      <trkpt lat="42.93157" lon="0.26285">
        <ele>1252</ele>
        <time>2017-03-04T10:06:02Z</time>
      </trkpt>
      <trkpt lat="42.93156" lon="0.26285">
        <ele>1252</ele>
        <time>2017-03-04T10:06:02Z</time>
      </trkpt>
      <trkpt lat="42.93153" lon="0.26288">
        <ele>1252</ele>
        <time>2017-03-04T10:06:03Z</time>
      </trkpt>
      <trkpt lat="42.93152" lon="0.2629">
        <ele>1252</ele>
        <time>2017-03-04T10:06:03Z</time>
      </trkpt>
      <trkpt lat="42.93153" lon="0.26292">
        <ele>1233</ele>
        <time>2017-03-04T10:06:58Z</time>
      </trkpt>
      <trkpt lat="42.93153" lon="0.26284">
        <ele>1252</ele>
        <time>2017-03-04T10:06:58Z</time>
      </trkpt>
      <trkpt lat="42.93154" lon="0.26282">
        <ele>1252</ele>
        <time>2017-03-04T10:06:58Z</time>
      </trkpt>
      <trkpt lat="42.93152" lon="0.26279">
        <ele>1252</ele>
        <time>2017-03-04T10:06:59Z</time>
      </trkpt>
      <trkpt lat="42.9315" lon="0.26273">
        <ele>1252</ele>
        <time>2017-03-04T10:06:59Z</time>
      </trkpt>
      <trkpt lat="42.93152" lon="0.26268">
        <ele>1252</ele>
        <time>2017-03-04T10:07:18Z</time>
      </trkpt>
      <trkpt lat="42.93154" lon="0.26263">
        <ele>1252</ele>
        <time>2017-03-04T10:07:18Z</time>
      </trkpt>
      <trkpt lat="42.93152" lon="0.26261">
        <ele>1252</ele>
        <time>2017-03-04T10:07:19Z</time>
      </trkpt>
      <trkpt lat="42.93152" lon="0.2626">
        <ele>1252</ele>
        <time>2017-03-04T10:07:19Z</time>
      </trkpt>
      <trkpt lat="42.93152" lon="0.26253">
        <ele>1252</ele>
        <time>2017-03-04T10:07:19Z</time>
      </trkpt>
      <trkpt lat="42.93153" lon="0.26248">
        <ele>1252</ele>
        <time>2017-03-04T10:07:50Z</time>
      </trkpt>
      <trkpt lat="42.93155" lon="0.26246">
        <ele>1252</ele>
        <time>2017-03-04T10:07:50Z</time>
      </trkpt>
      <trkpt lat="42.93155" lon="0.26244">
        <ele>1252</ele>
        <time>2017-03-04T10:07:50Z</time>
      </trkpt>
      <trkpt lat="42.93155" lon="0.26244">
        <ele>1252</ele>
        <time>2017-03-04T10:07:51Z</time>
      </trkpt>
      <trkpt lat="42.93155" lon="0.26236">
        <ele>1252</ele>
        <time>2017-03-04T10:07:51Z</time>
      </trkpt>
      <trkpt lat="42.93157" lon="0.26235">
        <ele>1252</ele>
        <time>2017-03-04T10:08:14Z</time>
      </trkpt>
      <trkpt lat="42.93157" lon="0.26235">
        <ele>1252</ele>
        <time>2017-03-04T10:08:14Z</time>
      </trkpt>
      <trkpt lat="42.93159" lon="0.26231">
        <ele>1252</ele>
        <time>2017-03-04T10:08:14Z</time>
      </trkpt>
      <trkpt lat="42.9316" lon="0.26227">
        <ele>1252</ele>
        <time>2017-03-04T10:08:15Z</time>
      </trkpt>
      <trkpt lat="42.93159" lon="0.26222">
        <ele>1252</ele>
        <time>2017-03-04T10:08:15Z</time>
      </trkpt>
      <trkpt lat="42.9316" lon="0.26206">
        <ele>1272</ele>
        <time>2017-03-04T10:08:50Z</time>
      </trkpt>
      <trkpt lat="42.93159" lon="0.26204">
        <ele>1272</ele>
        <time>2017-03-04T10:08:50Z</time>
      </trkpt>
      <trkpt lat="42.9316" lon="0.26203">
        <ele>1272</ele>
        <time>2017-03-04T10:08:50Z</time>
      </trkpt>
      <trkpt lat="42.9316" lon="0.262">
        <ele>1272</ele>
        <time>2017-03-04T10:08:51Z</time>
      </trkpt>
      <trkpt lat="42.93161" lon="0.26193">
        <ele>1272</ele>
        <time>2017-03-04T10:08:51Z</time>
      </trkpt>
      <trkpt lat="42.93159" lon="0.26191">
        <ele>1272</ele>
        <time>2017-03-04T10:09:14Z</time>
      </trkpt>
      <trkpt lat="42.93159" lon="0.26191">
        <ele>1272</ele>
        <time>2017-03-04T10:09:14Z</time>
      </trkpt>
      <trkpt lat="42.93157" lon="0.2619">
        <ele>1272</ele>
        <time>2017-03-04T10:09:15Z</time>
      </trkpt>
      <trkpt lat="42.93155" lon="0.26187">
        <ele>1272</ele>
        <time>2017-03-04T10:09:15Z</time>
      </trkpt>
      <trkpt lat="42.93156" lon="0.26179">
        <ele>1272</ele>
        <time>2017-03-04T10:09:15Z</time>
      </trkpt>
      <trkpt lat="42.93161" lon="0.26163">
        <ele>1272</ele>
        <time>2017-03-04T10:09:54Z</time>
      </trkpt>
      <trkpt lat="42.93164" lon="0.26161">
        <ele>1272</ele>
        <time>2017-03-04T10:09:54Z</time>
      </trkpt>
      <trkpt lat="42.93166" lon="0.26159">
        <ele>1272</ele>
        <time>2017-03-04T10:09:55Z</time>
      </trkpt>
      <trkpt lat="42.9317" lon="0.26152">
        <ele>1272</ele>
        <time>2017-03-04T10:09:55Z</time>
      </trkpt>
      <trkpt lat="42.93171" lon="0.2615">
        <ele>1272</ele>
        <time>2017-03-04T10:09:55Z</time>
      </trkpt>
      <trkpt lat="42.9317" lon="0.26149">
        <ele>1272</ele>
        <time>2017-03-04T10:10:14Z</time>
      </trkpt>
      <trkpt lat="42.93169" lon="0.26148">
        <ele>1272</ele>
        <time>2017-03-04T10:10:14Z</time>
      </trkpt>
      <trkpt lat="42.93169" lon="0.26145">
        <ele>1272</ele>
        <time>2017-03-04T10:10:14Z</time>
      </trkpt>
      <trkpt lat="42.93168" lon="0.26139">
        <ele>1272</ele>
        <time>2017-03-04T10:10:15Z</time>
      </trkpt>
      <trkpt lat="42.93167" lon="0.26137">
        <ele>1272</ele>
        <time>2017-03-04T10:10:15Z</time>
      </trkpt>
      <trkpt lat="42.93166" lon="0.26127">
        <ele>1272</ele>
        <time>2017-03-04T10:11:18Z</time>
      </trkpt>
      <trkpt lat="42.93166" lon="0.26124">
        <ele>1292</ele>
        <time>2017-03-04T10:11:18Z</time>
      </trkpt>
      <trkpt lat="42.93165" lon="0.26123">
        <ele>1292</ele>
        <time>2017-03-04T10:11:18Z</time>
      </trkpt>
      <trkpt lat="42.93165" lon="0.26122">
        <ele>1292</ele>
        <time>2017-03-04T10:11:19Z</time>
      </trkpt>
      <trkpt lat="42.93164" lon="0.26122">
        <ele>1292</ele>
        <time>2017-03-04T10:11:19Z</time>
      </trkpt>
      <trkpt lat="42.93163" lon="0.26119">
        <ele>1292</ele>
        <time>2017-03-04T10:11:46Z</time>
      </trkpt>
      <trkpt lat="42.93163" lon="0.26117">
        <ele>1292</ele>
        <time>2017-03-04T10:11:46Z</time>
      </trkpt>
      <trkpt lat="42.93163" lon="0.26117">
        <ele>1292</ele>
        <time>2017-03-04T10:11:46Z</time>
      </trkpt>
      <trkpt lat="42.93163" lon="0.26116">
        <ele>1292</ele>
        <time>2017-03-04T10:11:47Z</time>
      </trkpt>
      <trkpt lat="42.93166" lon="0.2611">
        <ele>1292</ele>
        <time>2017-03-04T10:11:47Z</time>
      </trkpt>
      <trkpt lat="42.93166" lon="0.261">
        <ele>1292</ele>
        <time>2017-03-04T10:12:34Z</time>
      </trkpt>
      <trkpt lat="42.93166" lon="0.26099">
        <ele>1292</ele>
        <time>2017-03-04T10:12:34Z</time>
      </trkpt>
      <trkpt lat="42.93166" lon="0.26099">
        <ele>1292</ele>
        <time>2017-03-04T10:12:34Z</time>
      </trkpt>
      <trkpt lat="42.93166" lon="0.26098">
        <ele>1292</ele>
        <time>2017-03-04T10:12:35Z</time>
      </trkpt>
      <trkpt lat="42.93165" lon="0.26098">
        <ele>1292</ele>
        <time>2017-03-04T10:12:35Z</time>
      </trkpt>
      <trkpt lat="42.93165" lon="0.26098">
        <ele>1292</ele>
        <time>2017-03-04T10:12:50Z</time>
      </trkpt>
      <trkpt lat="42.9316" lon="0.26095">
        <ele>1292</ele>
        <time>2017-03-04T10:12:50Z</time>
      </trkpt>
      <trkpt lat="42.93161" lon="0.26088">
        <ele>1292</ele>
        <time>2017-03-04T10:12:50Z</time>
      </trkpt>
      <trkpt lat="42.93162" lon="0.26085">
        <ele>1292</ele>
        <time>2017-03-04T10:12:51Z</time>
      </trkpt>
      <trkpt lat="42.93155" lon="0.26077">
        <ele>1292</ele>
        <time>2017-03-04T10:14:26Z</time>
      </trkpt>
      <trkpt lat="42.93156" lon="0.26075">
        <ele>1292</ele>
        <time>2017-03-04T10:14:26Z</time>
      </trkpt>
      <trkpt lat="42.93159" lon="0.26072">
        <ele>1292</ele>
        <time>2017-03-04T10:14:27Z</time>
      </trkpt>
      <trkpt lat="42.93161" lon="0.2607">
        <ele>1292</ele>
        <time>2017-03-04T10:14:27Z</time>
      </trkpt>
      <trkpt lat="42.93165" lon="0.26066">
        <ele>1292</ele>
        <time>2017-03-04T10:14:27Z</time>
      </trkpt>
      <trkpt lat="42.93165" lon="0.26063">
        <ele>1292</ele>
        <time>2017-03-04T10:14:42Z</time>
      </trkpt>
      <trkpt lat="42.93167" lon="0.26052">
        <ele>1292</ele>
        <time>2017-03-04T10:14:42Z</time>
      </trkpt>
      <trkpt lat="42.93167" lon="0.26052">
        <ele>1292</ele>
        <time>2017-03-04T10:14:43Z</time>
      </trkpt>
      <trkpt lat="42.93168" lon="0.2605">
        <ele>1292</ele>
        <time>2017-03-04T10:14:43Z</time>
      </trkpt>
      <trkpt lat="42.93172" lon="0.2604">
        <ele>1312</ele>
        <time>2017-03-04T10:15:46Z</time>
      </trkpt>
      <trkpt lat="42.93181" lon="0.26045">
        <ele>1292</ele>
        <time>2017-03-04T10:15:47Z</time>
      </trkpt>
      <trkpt lat="42.93182" lon="0.26045">
        <ele>1292</ele>
        <time>2017-03-04T10:15:47Z</time>
      </trkpt>
      <trkpt lat="42.93186" lon="0.26051">
        <ele>1292</ele>
        <time>2017-03-04T10:15:47Z</time>
      </trkpt>
      <trkpt lat="42.93187" lon="0.26054">
        <ele>1292</ele>
        <time>2017-03-04T10:15:47Z</time>
      </trkpt>
      <trkpt lat="42.93187" lon="0.26054">
        <ele>1292</ele>
        <time>2017-03-04T10:16:06Z</time>
      </trkpt>
      <trkpt lat="42.93187" lon="0.26058">
        <ele>1292</ele>
        <time>2017-03-04T10:16:07Z</time>
      </trkpt>
      <trkpt lat="42.93188" lon="0.26064">
        <ele>1292</ele>
        <time>2017-03-04T10:16:07Z</time>
      </trkpt>
      <trkpt lat="42.9319" lon="0.26065">
        <ele>1292</ele>
        <time>2017-03-04T10:16:07Z</time>
      </trkpt>
      <trkpt lat="42.9319" lon="0.26066">
        <ele>1292</ele>
        <time>2017-03-04T10:16:07Z</time>
      </trkpt>
      <trkpt lat="42.93192" lon="0.26069">
        <ele>1292</ele>
        <time>2017-03-04T10:16:26Z</time>
      </trkpt>
      <trkpt lat="42.93196" lon="0.26076">
        <ele>1292</ele>
        <time>2017-03-04T10:16:27Z</time>
      </trkpt>
      <trkpt lat="42.93198" lon="0.26077">
        <ele>1292</ele>
        <time>2017-03-04T10:16:27Z</time>
      </trkpt>
      <trkpt lat="42.93199" lon="0.26077">
        <ele>1292</ele>
        <time>2017-03-04T10:16:27Z</time>
      </trkpt>
      <trkpt lat="42.932" lon="0.26078">
        <ele>1292</ele>
        <time>2017-03-04T10:16:27Z</time>
      </trkpt>
      <trkpt lat="42.93198" lon="0.26079">
        <ele>1292</ele>
        <time>2017-03-04T10:16:58Z</time>
      </trkpt>
      <trkpt lat="42.93196" lon="0.26081">
        <ele>1292</ele>
        <time>2017-03-04T10:16:59Z</time>
      </trkpt>
      <trkpt lat="42.93196" lon="0.26081">
        <ele>1292</ele>
        <time>2017-03-04T10:16:59Z</time>
      </trkpt>
      <trkpt lat="42.93195" lon="0.26082">
        <ele>1292</ele>
        <time>2017-03-04T10:16:59Z</time>
      </trkpt>
      <trkpt lat="42.93188" lon="0.26083">
        <ele>1292</ele>
        <time>2017-03-04T10:16:59Z</time>
      </trkpt>
      <trkpt lat="42.93188" lon="0.26085">
        <ele>1292</ele>
        <time>2017-03-04T10:17:30Z</time>
      </trkpt>
      <trkpt lat="42.93187" lon="0.26078">
        <ele>1292</ele>
        <time>2017-03-04T10:17:31Z</time>
      </trkpt>
      <trkpt lat="42.93185" lon="0.26077">
        <ele>1292</ele>
        <time>2017-03-04T10:17:31Z</time>
      </trkpt>
      <trkpt lat="42.93185" lon="0.26076">
        <ele>1292</ele>
        <time>2017-03-04T10:17:31Z</time>
      </trkpt>
      <trkpt lat="42.93184" lon="0.26075">
        <ele>1292</ele>
        <time>2017-03-04T10:17:31Z</time>
      </trkpt>
      <trkpt lat="42.93182" lon="0.26076">
        <ele>1292</ele>
        <time>2017-03-04T10:17:50Z</time>
      </trkpt>
      <trkpt lat="42.93181" lon="0.26075">
        <ele>1292</ele>
        <time>2017-03-04T10:17:51Z</time>
      </trkpt>
      <trkpt lat="42.93181" lon="0.26071">
        <ele>1292</ele>
        <time>2017-03-04T10:17:51Z</time>
      </trkpt>
      <trkpt lat="42.93181" lon="0.26071">
        <ele>1292</ele>
        <time>2017-03-04T10:17:51Z</time>
      </trkpt>
      <trkpt lat="42.93176" lon="0.26062">
        <ele>1292</ele>
        <time>2017-03-04T10:17:51Z</time>
      </trkpt>
      <trkpt lat="42.93176" lon="0.26062">
        <ele>1292</ele>
        <time>2017-03-04T10:18:10Z</time>
      </trkpt>
      <trkpt lat="42.93176" lon="0.26062">
        <ele>1292</ele>
        <time>2017-03-04T10:18:11Z</time>
      </trkpt>
      <trkpt lat="42.93176" lon="0.26062">
        <ele>1292</ele>
        <time>2017-03-04T10:18:11Z</time>
      </trkpt>
      <trkpt lat="42.93171" lon="0.26054">
        <ele>1292</ele>
        <time>2017-03-04T10:18:11Z</time>
      </trkpt>
      <trkpt lat="42.93171" lon="0.26052">
        <ele>1292</ele>
        <time>2017-03-04T10:18:11Z</time>
      </trkpt>
      <trkpt lat="42.9317" lon="0.26043">
        <ele>1292</ele>
        <time>2017-03-04T10:18:42Z</time>
      </trkpt>
      <trkpt lat="42.93171" lon="0.26043">
        <ele>1292</ele>
        <time>2017-03-04T10:18:43Z</time>
      </trkpt>
      <trkpt lat="42.93173" lon="0.2604">
        <ele>1312</ele>
        <time>2017-03-04T10:18:43Z</time>
      </trkpt>
      <trkpt lat="42.93173" lon="0.2604">
        <ele>1312</ele>
        <time>2017-03-04T10:18:43Z</time>
      </trkpt>
      <trkpt lat="42.93176" lon="0.26033">
        <ele>1312</ele>
        <time>2017-03-04T10:18:43Z</time>
      </trkpt>
      <trkpt lat="42.93177" lon="0.2603">
        <ele>1312</ele>
        <time>2017-03-04T10:19:14Z</time>
      </trkpt>
      <trkpt lat="42.93177" lon="0.2603">
        <ele>1312</ele>
        <time>2017-03-04T10:19:15Z</time>
      </trkpt>
      <trkpt lat="42.93177" lon="0.2603">
        <ele>1312</ele>
        <time>2017-03-04T10:19:15Z</time>
      </trkpt>
      <trkpt lat="42.93184" lon="0.26027">
        <ele>1312</ele>
        <time>2017-03-04T10:19:15Z</time>
      </trkpt>
      <trkpt lat="42.9319" lon="0.26026">
        <ele>1312</ele>
        <time>2017-03-04T10:19:15Z</time>
      </trkpt>
      <trkpt lat="42.93192" lon="0.26027">
        <ele>1312</ele>
        <time>2017-03-04T10:19:34Z</time>
      </trkpt>
      <trkpt lat="42.93192" lon="0.26026">
        <ele>1312</ele>
        <time>2017-03-04T10:19:35Z</time>
      </trkpt>
      <trkpt lat="42.93192" lon="0.26024">
        <ele>1312</ele>
        <time>2017-03-04T10:19:35Z</time>
      </trkpt>
      <trkpt lat="42.9319" lon="0.26023">
        <ele>1312</ele>
        <time>2017-03-04T10:19:35Z</time>
      </trkpt>
      <trkpt lat="42.93189" lon="0.26015">
        <ele>1312</ele>
        <time>2017-03-04T10:19:35Z</time>
      </trkpt>
      <trkpt lat="42.93195" lon="0.26007">
        <ele>1312</ele>
        <time>2017-03-04T10:20:02Z</time>
      </trkpt>
      <trkpt lat="42.93196" lon="0.26007">
        <ele>1312</ele>
        <time>2017-03-04T10:20:03Z</time>
      </trkpt>
      <trkpt lat="42.93196" lon="0.26005">
        <ele>1312</ele>
        <time>2017-03-04T10:20:03Z</time>
      </trkpt>
      <trkpt lat="42.93196" lon="0.26004">
        <ele>1312</ele>
        <time>2017-03-04T10:20:03Z</time>
      </trkpt>
      <trkpt lat="42.93196" lon="0.26002">
        <ele>1312</ele>
        <time>2017-03-04T10:20:03Z</time>
      </trkpt>
      <trkpt lat="42.93192" lon="0.25998">
        <ele>1312</ele>
        <time>2017-03-04T10:20:50Z</time>
      </trkpt>
      <trkpt lat="42.93196" lon="0.25991">
        <ele>1312</ele>
        <time>2017-03-04T10:20:51Z</time>
      </trkpt>
      <trkpt lat="42.93199" lon="0.25985">
        <ele>1312</ele>
        <time>2017-03-04T10:20:51Z</time>
      </trkpt>
      <trkpt lat="42.932" lon="0.25983">
        <ele>1312</ele>
        <time>2017-03-04T10:20:51Z</time>
      </trkpt>
      <trkpt lat="42.93202" lon="0.25982">
        <ele>1312</ele>
        <time>2017-03-04T10:20:51Z</time>
      </trkpt>
      <trkpt lat="42.93208" lon="0.25975">
        <ele>1312</ele>
        <time>2017-03-04T10:21:34Z</time>
      </trkpt>
      <trkpt lat="42.93208" lon="0.25974">
        <ele>1312</ele>
        <time>2017-03-04T10:21:35Z</time>
      </trkpt>
      <trkpt lat="42.93208" lon="0.25974">
        <ele>1312</ele>
        <time>2017-03-04T10:21:35Z</time>
      </trkpt>
      <trkpt lat="42.93208" lon="0.25973">
        <ele>1312</ele>
        <time>2017-03-04T10:21:35Z</time>
      </trkpt>
      <trkpt lat="42.93208" lon="0.25972">
        <ele>1312</ele>
        <time>2017-03-04T10:21:35Z</time>
      </trkpt>
      <trkpt lat="42.93207" lon="0.25972">
        <ele>1312</ele>
        <time>2017-03-04T10:21:50Z</time>
      </trkpt>
      <trkpt lat="42.93206" lon="0.2597">
        <ele>1312</ele>
        <time>2017-03-04T10:21:51Z</time>
      </trkpt>
      <trkpt lat="42.93206" lon="0.25969">
        <ele>1312</ele>
        <time>2017-03-04T10:21:51Z</time>
      </trkpt>
      <trkpt lat="42.93208" lon="0.25957">
        <ele>1334</ele>
        <time>2017-03-04T10:21:51Z</time>
      </trkpt>
      <trkpt lat="42.93203" lon="0.25955">
        <ele>1334</ele>
        <time>2017-03-04T10:24:14Z</time>
      </trkpt>
      <trkpt lat="42.93201" lon="0.25955">
        <ele>1334</ele>
        <time>2017-03-04T10:24:15Z</time>
      </trkpt>
      <trkpt lat="42.93199" lon="0.25954">
        <ele>1334</ele>
        <time>2017-03-04T10:24:15Z</time>
      </trkpt>
      <trkpt lat="42.93199" lon="0.25953">
        <ele>1334</ele>
        <time>2017-03-04T10:24:15Z</time>
      </trkpt>
      <trkpt lat="42.93198" lon="0.25947">
        <ele>1334</ele>
        <time>2017-03-04T10:24:15Z</time>
      </trkpt>
      <trkpt lat="42.93202" lon="0.25939">
        <ele>1334</ele>
        <time>2017-03-04T10:25:30Z</time>
      </trkpt>
      <trkpt lat="42.93203" lon="0.25938">
        <ele>1334</ele>
        <time>2017-03-04T10:25:31Z</time>
      </trkpt>
      <trkpt lat="42.93203" lon="0.25937">
        <ele>1334</ele>
        <time>2017-03-04T10:25:31Z</time>
      </trkpt>
      <trkpt lat="42.93202" lon="0.25935">
        <ele>1334</ele>
        <time>2017-03-04T10:25:31Z</time>
      </trkpt>
      <trkpt lat="42.93201" lon="0.25933">
        <ele>1334</ele>
        <time>2017-03-04T10:25:31Z</time>
      </trkpt>
      <trkpt lat="42.93203" lon="0.25922">
        <ele>1334</ele>
        <time>2017-03-04T10:26:54Z</time>
      </trkpt>
      <trkpt lat="42.93203" lon="0.25921">
        <ele>1334</ele>
        <time>2017-03-04T10:26:55Z</time>
      </trkpt>
      <trkpt lat="42.93203" lon="0.2592">
        <ele>1334</ele>
        <time>2017-03-04T10:26:55Z</time>
      </trkpt>
      <trkpt lat="42.93202" lon="0.25919">
        <ele>1334</ele>
        <time>2017-03-04T10:26:55Z</time>
      </trkpt>
      <trkpt lat="42.93204" lon="0.25915">
        <ele>1334</ele>
        <time>2017-03-04T10:26:55Z</time>
      </trkpt>
      <trkpt lat="42.93209" lon="0.25904">
        <ele>1354</ele>
        <time>2017-03-04T10:28:10Z</time>
      </trkpt>
      <trkpt lat="42.93209" lon="0.25904">
        <ele>1354</ele>
        <time>2017-03-04T10:28:11Z</time>
      </trkpt>
      <trkpt lat="42.93209" lon="0.25904">
        <ele>1354</ele>
        <time>2017-03-04T10:28:11Z</time>
      </trkpt>
      <trkpt lat="42.93209" lon="0.25903">
        <ele>1354</ele>
        <time>2017-03-04T10:28:11Z</time>
      </trkpt>
      <trkpt lat="42.9321" lon="0.25901">
        <ele>1354</ele>
        <time>2017-03-04T10:28:11Z</time>
      </trkpt>
      <trkpt lat="42.93214" lon="0.2589">
        <ele>1354</ele>
        <time>2017-03-04T10:28:34Z</time>
      </trkpt>
      <trkpt lat="42.93215" lon="0.25889">
        <ele>1354</ele>
        <time>2017-03-04T10:28:35Z</time>
      </trkpt>
      <trkpt lat="42.93217" lon="0.25889">
        <ele>1354</ele>
        <time>2017-03-04T10:28:35Z</time>
      </trkpt>
      <trkpt lat="42.93218" lon="0.25888">
        <ele>1354</ele>
        <time>2017-03-04T10:28:35Z</time>
      </trkpt>
      <trkpt lat="42.93219" lon="0.25885">
        <ele>1354</ele>
        <time>2017-03-04T10:28:35Z</time>
      </trkpt>
      <trkpt lat="42.93217" lon="0.25878">
        <ele>1354</ele>
        <time>2017-03-04T10:29:10Z</time>
      </trkpt>
      <trkpt lat="42.93217" lon="0.25878">
        <ele>1354</ele>
        <time>2017-03-04T10:29:11Z</time>
      </trkpt>
      <trkpt lat="42.93216" lon="0.25876">
        <ele>1354</ele>
        <time>2017-03-04T10:29:11Z</time>
      </trkpt>
      <trkpt lat="42.93214" lon="0.25874">
        <ele>1361</ele>
        <time>2017-03-04T10:29:11Z</time>
      </trkpt>
      <trkpt lat="42.93212" lon="0.25869">
        <ele>1361</ele>
        <time>2017-03-04T10:29:11Z</time>
      </trkpt>
      <trkpt lat="42.93214" lon="0.25873">
        <ele>1361</ele>
        <time>2017-03-04T10:33:54Z</time>
      </trkpt>
      <trkpt lat="42.93215" lon="0.25872">
        <ele>1361</ele>
        <time>2017-03-04T10:33:55Z</time>
      </trkpt>
      <trkpt lat="42.93216" lon="0.25872">
        <ele>1361</ele>
        <time>2017-03-04T10:33:55Z</time>
      </trkpt>
      <trkpt lat="42.93218" lon="0.25873">
        <ele>1361</ele>
        <time>2017-03-04T10:33:55Z</time>
      </trkpt>
      <trkpt lat="42.93226" lon="0.25871">
        <ele>1361</ele>
        <time>2017-03-04T10:33:55Z</time>
      </trkpt>
      <trkpt lat="42.9323" lon="0.25869">
        <ele>1361</ele>
        <time>2017-03-04T10:34:18Z</time>
      </trkpt>
      <trkpt lat="42.93231" lon="0.25869">
        <ele>1361</ele>
        <time>2017-03-04T10:34:19Z</time>
      </trkpt>
      <trkpt lat="42.93234" lon="0.25865">
        <ele>1361</ele>
        <time>2017-03-04T10:34:19Z</time>
      </trkpt>
      <trkpt lat="42.93238" lon="0.25865">
        <ele>1361</ele>
        <time>2017-03-04T10:34:19Z</time>
      </trkpt>
      <trkpt lat="42.93239" lon="0.25864">
        <ele>1361</ele>
        <time>2017-03-04T10:34:19Z</time>
      </trkpt>
      <trkpt lat="42.93246" lon="0.25867">
        <ele>1361</ele>
        <time>2017-03-04T10:34:50Z</time>
      </trkpt>
      <trkpt lat="42.93248" lon="0.25868">
        <ele>1361</ele>
        <time>2017-03-04T10:34:51Z</time>
      </trkpt>
      <trkpt lat="42.93248" lon="0.25867">
        <ele>1361</ele>
        <time>2017-03-04T10:34:51Z</time>
      </trkpt>
      <trkpt lat="42.9325" lon="0.25867">
        <ele>1361</ele>
        <time>2017-03-04T10:34:51Z</time>
      </trkpt>
      <trkpt lat="42.93252" lon="0.25865">
        <ele>1361</ele>
        <time>2017-03-04T10:34:51Z</time>
      </trkpt>
      <trkpt lat="42.93259" lon="0.25866">
        <ele>1361</ele>
        <time>2017-03-04T10:35:30Z</time>
      </trkpt>
      <trkpt lat="42.93259" lon="0.25866">
        <ele>1361</ele>
        <time>2017-03-04T10:35:31Z</time>
      </trkpt>
      <trkpt lat="42.93259" lon="0.25865">
        <ele>1361</ele>
        <time>2017-03-04T10:35:31Z</time>
      </trkpt>
      <trkpt lat="42.93259" lon="0.25862">
        <ele>1361</ele>
        <time>2017-03-04T10:35:31Z</time>
      </trkpt>
      <trkpt lat="42.93257" lon="0.25852">
        <ele>1361</ele>
        <time>2017-03-04T10:35:31Z</time>
      </trkpt>
      <trkpt lat="42.93259" lon="0.25852">
        <ele>1361</ele>
        <time>2017-03-04T10:36:02Z</time>
      </trkpt>
      <trkpt lat="42.9326" lon="0.25852">
        <ele>1361</ele>
        <time>2017-03-04T10:36:03Z</time>
      </trkpt>
      <trkpt lat="42.93262" lon="0.25846">
        <ele>1361</ele>
        <time>2017-03-04T10:36:03Z</time>
      </trkpt>
      <trkpt lat="42.93264" lon="0.25846">
        <ele>1361</ele>
        <time>2017-03-04T10:36:03Z</time>
      </trkpt>
      <trkpt lat="42.93265" lon="0.25845">
        <ele>1361</ele>
        <time>2017-03-04T10:36:03Z</time>
      </trkpt>
      <trkpt lat="42.93269" lon="0.25844">
        <ele>1361</ele>
        <time>2017-03-04T10:36:42Z</time>
      </trkpt>
      <trkpt lat="42.9327" lon="0.25844">
        <ele>1361</ele>
        <time>2017-03-04T10:36:43Z</time>
      </trkpt>
      <trkpt lat="42.93271" lon="0.25843">
        <ele>1361</ele>
        <time>2017-03-04T10:36:43Z</time>
      </trkpt>
      <trkpt lat="42.93273" lon="0.25841">
        <ele>1361</ele>
        <time>2017-03-04T10:36:43Z</time>
      </trkpt>
      <trkpt lat="42.93275" lon="0.25838">
        <ele>1361</ele>
        <time>2017-03-04T10:36:43Z</time>
      </trkpt>
      <trkpt lat="42.93279" lon="0.25835">
        <ele>1361</ele>
        <time>2017-03-04T10:37:18Z</time>
      </trkpt>
      <trkpt lat="42.9328" lon="0.25834">
        <ele>1361</ele>
        <time>2017-03-04T10:37:18Z</time>
      </trkpt>
      <trkpt lat="42.9328" lon="0.25834">
        <ele>1361</ele>
        <time>2017-03-04T10:37:18Z</time>
      </trkpt>
      <trkpt lat="42.93281" lon="0.25831">
        <ele>1361</ele>
        <time>2017-03-04T10:37:18Z</time>
      </trkpt>
      <trkpt lat="42.93281" lon="0.25825">
        <ele>1361</ele>
        <time>2017-03-04T10:37:19Z</time>
      </trkpt>
      <trkpt lat="42.93284" lon="0.25817">
        <ele>1361</ele>
        <time>2017-03-04T10:37:54Z</time>
      </trkpt>
      <trkpt lat="42.93285" lon="0.25816">
        <ele>1361</ele>
        <time>2017-03-04T10:37:54Z</time>
      </trkpt>
      <trkpt lat="42.93285" lon="0.25815">
        <ele>1361</ele>
        <time>2017-03-04T10:37:55Z</time>
      </trkpt>
      <trkpt lat="42.93286" lon="0.25815">
        <ele>1361</ele>
        <time>2017-03-04T10:37:55Z</time>
      </trkpt>
      <trkpt lat="42.93287" lon="0.25812">
        <ele>1361</ele>
        <time>2017-03-04T10:37:55Z</time>
      </trkpt>
      <trkpt lat="42.93289" lon="0.25808">
        <ele>1361</ele>
        <time>2017-03-04T10:38:22Z</time>
      </trkpt>
      <trkpt lat="42.93289" lon="0.25808">
        <ele>1361</ele>
        <time>2017-03-04T10:38:23Z</time>
      </trkpt>
      <trkpt lat="42.93286" lon="0.25803">
        <ele>1361</ele>
        <time>2017-03-04T10:38:23Z</time>
      </trkpt>
      <trkpt lat="42.93286" lon="0.25802">
        <ele>1361</ele>
        <time>2017-03-04T10:38:23Z</time>
      </trkpt>
      <trkpt lat="42.93286" lon="0.25801">
        <ele>1361</ele>
        <time>2017-03-04T10:38:23Z</time>
      </trkpt>
      <trkpt lat="42.93289" lon="0.25794">
        <ele>1361</ele>
        <time>2017-03-04T10:38:50Z</time>
      </trkpt>
      <trkpt lat="42.9329" lon="0.25792">
        <ele>1361</ele>
        <time>2017-03-04T10:38:51Z</time>
      </trkpt>
      <trkpt lat="42.9329" lon="0.25789">
        <ele>1361</ele>
        <time>2017-03-04T10:38:51Z</time>
      </trkpt>
      <trkpt lat="42.9329" lon="0.25788">
        <ele>1361</ele>
        <time>2017-03-04T10:38:51Z</time>
      </trkpt>
      <trkpt lat="42.93292" lon="0.25781">
        <ele>1361</ele>
        <time>2017-03-04T10:38:51Z</time>
      </trkpt>
      <trkpt lat="42.93294" lon="0.25773">
        <ele>1360</ele>
        <time>2017-03-04T10:39:18Z</time>
      </trkpt>
      <trkpt lat="42.93294" lon="0.25769">
        <ele>1360</ele>
        <time>2017-03-04T10:39:19Z</time>
      </trkpt>
      <trkpt lat="42.93294" lon="0.25767">
        <ele>1360</ele>
        <time>2017-03-04T10:39:19Z</time>
      </trkpt>
      <trkpt lat="42.93293" lon="0.25764">
        <ele>1360</ele>
        <time>2017-03-04T10:39:19Z</time>
      </trkpt>
      <trkpt lat="42.93293" lon="0.25763">
        <ele>1360</ele>
        <time>2017-03-04T10:39:19Z</time>
      </trkpt>
      <trkpt lat="42.93293" lon="0.25761">
        <ele>1360</ele>
        <time>2017-03-04T10:46:50Z</time>
      </trkpt>
      <trkpt lat="42.93292" lon="0.25759">
        <ele>1360</ele>
        <time>2017-03-04T10:46:50Z</time>
      </trkpt>
      <trkpt lat="42.93289" lon="0.25756">
        <ele>1361</ele>
        <time>2017-03-04T10:46:51Z</time>
      </trkpt>
      <trkpt lat="42.93288" lon="0.25753">
        <ele>1361</ele>
        <time>2017-03-04T10:46:51Z</time>
      </trkpt>
      <trkpt lat="42.93285" lon="0.25752">
        <ele>1361</ele>
        <time>2017-03-04T10:46:51Z</time>
      </trkpt>
      <trkpt lat="42.93278" lon="0.25749">
        <ele>1361</ele>
        <time>2017-03-04T10:47:38Z</time>
      </trkpt>
      <trkpt lat="42.93278" lon="0.25749">
        <ele>1361</ele>
        <time>2017-03-04T10:47:39Z</time>
      </trkpt>
      <trkpt lat="42.93278" lon="0.25749">
        <ele>1361</ele>
        <time>2017-03-04T10:47:39Z</time>
      </trkpt>
      <trkpt lat="42.93276" lon="0.25751">
        <ele>1361</ele>
        <time>2017-03-04T10:47:39Z</time>
      </trkpt>
      <trkpt lat="42.93271" lon="0.2575">
        <ele>1361</ele>
        <time>2017-03-04T10:47:39Z</time>
      </trkpt>
      <trkpt lat="42.93268" lon="0.25751">
        <ele>1361</ele>
        <time>2017-03-04T10:48:02Z</time>
      </trkpt>
      <trkpt lat="42.93266" lon="0.2575">
        <ele>1361</ele>
        <time>2017-03-04T10:48:02Z</time>
      </trkpt>
      <trkpt lat="42.93263" lon="0.25751">
        <ele>1361</ele>
        <time>2017-03-04T10:48:03Z</time>
      </trkpt>
      <trkpt lat="42.93261" lon="0.25751">
        <ele>1361</ele>
        <time>2017-03-04T10:48:03Z</time>
      </trkpt>
      <trkpt lat="42.93258" lon="0.25749">
        <ele>1361</ele>
        <time>2017-03-04T10:48:03Z</time>
      </trkpt>
      <trkpt lat="42.93252" lon="0.25744">
        <ele>1361</ele>
        <time>2017-03-04T10:48:30Z</time>
      </trkpt>
      <trkpt lat="42.9325" lon="0.25741">
        <ele>1361</ele>
        <time>2017-03-04T10:48:31Z</time>
      </trkpt>
      <trkpt lat="42.9325" lon="0.25741">
        <ele>1361</ele>
        <time>2017-03-04T10:48:31Z</time>
      </trkpt>
      <trkpt lat="42.93248" lon="0.2574">
        <ele>1361</ele>
        <time>2017-03-04T10:48:31Z</time>
      </trkpt>
      <trkpt lat="42.93243" lon="0.25737">
        <ele>1361</ele>
        <time>2017-03-04T10:48:31Z</time>
      </trkpt>
      <trkpt lat="42.9324" lon="0.25735">
        <ele>1361</ele>
        <time>2017-03-04T10:48:50Z</time>
      </trkpt>
      <trkpt lat="42.93238" lon="0.25733">
        <ele>1361</ele>
        <time>2017-03-04T10:48:50Z</time>
      </trkpt>
      <trkpt lat="42.93237" lon="0.25733">
        <ele>1361</ele>
        <time>2017-03-04T10:48:51Z</time>
      </trkpt>
      <trkpt lat="42.93233" lon="0.25731">
        <ele>1361</ele>
        <time>2017-03-04T10:48:51Z</time>
      </trkpt>
      <trkpt lat="42.93231" lon="0.2573">
        <ele>1361</ele>
        <time>2017-03-04T10:48:51Z</time>
      </trkpt>
      <trkpt lat="42.93227" lon="0.25729">
        <ele>1361</ele>
        <time>2017-03-04T10:49:14Z</time>
      </trkpt>
      <trkpt lat="42.93225" lon="0.2573">
        <ele>1361</ele>
        <time>2017-03-04T10:49:14Z</time>
      </trkpt>
      <trkpt lat="42.93223" lon="0.25729">
        <ele>1361</ele>
        <time>2017-03-04T10:49:15Z</time>
      </trkpt>
      <trkpt lat="42.93221" lon="0.25728">
        <ele>1361</ele>
        <time>2017-03-04T10:49:15Z</time>
      </trkpt>
      <trkpt lat="42.9322" lon="0.25726">
        <ele>1361</ele>
        <time>2017-03-04T10:49:15Z</time>
      </trkpt>
      <trkpt lat="42.93215" lon="0.25725">
        <ele>1361</ele>
        <time>2017-03-04T10:49:38Z</time>
      </trkpt>
      <trkpt lat="42.93214" lon="0.25725">
        <ele>1361</ele>
        <time>2017-03-04T10:49:38Z</time>
      </trkpt>
      <trkpt lat="42.93213" lon="0.25723">
        <ele>1361</ele>
        <time>2017-03-04T10:49:39Z</time>
      </trkpt>
      <trkpt lat="42.9321" lon="0.25724">
        <ele>1361</ele>
        <time>2017-03-04T10:49:39Z</time>
      </trkpt>
      <trkpt lat="42.93207" lon="0.25722">
        <ele>1371</ele>
        <time>2017-03-04T10:49:39Z</time>
      </trkpt>
      <trkpt lat="42.93204" lon="0.25719">
        <ele>1371</ele>
        <time>2017-03-04T10:50:02Z</time>
      </trkpt>
      <trkpt lat="42.93203" lon="0.25716">
        <ele>1371</ele>
        <time>2017-03-04T10:50:02Z</time>
      </trkpt>
      <trkpt lat="42.93201" lon="0.25716">
        <ele>1371</ele>
        <time>2017-03-04T10:50:03Z</time>
      </trkpt>
      <trkpt lat="42.93199" lon="0.25716">
        <ele>1371</ele>
        <time>2017-03-04T10:50:03Z</time>
      </trkpt>
      <trkpt lat="42.93196" lon="0.25715">
        <ele>1371</ele>
        <time>2017-03-04T10:50:03Z</time>
      </trkpt>
      <trkpt lat="42.9319" lon="0.25713">
        <ele>1371</ele>
        <time>2017-03-04T10:50:30Z</time>
      </trkpt>
      <trkpt lat="42.93188" lon="0.25711">
        <ele>1371</ele>
        <time>2017-03-04T10:50:30Z</time>
      </trkpt>
      <trkpt lat="42.93186" lon="0.2571">
        <ele>1371</ele>
        <time>2017-03-04T10:50:31Z</time>
      </trkpt>
      <trkpt lat="42.93186" lon="0.2571">
        <ele>1371</ele>
        <time>2017-03-04T10:50:31Z</time>
      </trkpt>
      <trkpt lat="42.93185" lon="0.25709">
        <ele>1371</ele>
        <time>2017-03-04T10:50:31Z</time>
      </trkpt>
      <trkpt lat="42.93182" lon="0.25708">
        <ele>1363</ele>
        <time>2017-03-04T10:50:54Z</time>
      </trkpt>
      <trkpt lat="42.93181" lon="0.25708">
        <ele>1363</ele>
        <time>2017-03-04T10:50:54Z</time>
      </trkpt>
      <trkpt lat="42.93179" lon="0.25708">
        <ele>1363</ele>
        <time>2017-03-04T10:50:55Z</time>
      </trkpt>
      <trkpt lat="42.93176" lon="0.25707">
        <ele>1363</ele>
        <time>2017-03-04T10:50:55Z</time>
      </trkpt>
      <trkpt lat="42.93168" lon="0.25703">
        <ele>1363</ele>
        <time>2017-03-04T10:50:55Z</time>
      </trkpt>
      <trkpt lat="42.93162" lon="0.257">
        <ele>1363</ele>
        <time>2017-03-04T10:51:14Z</time>
      </trkpt>
      <trkpt lat="42.9316" lon="0.257">
        <ele>1363</ele>
        <time>2017-03-04T10:51:14Z</time>
      </trkpt>
      <trkpt lat="42.93156" lon="0.25699">
        <ele>1363</ele>
        <time>2017-03-04T10:51:15Z</time>
      </trkpt>
      <trkpt lat="42.93154" lon="0.25698">
        <ele>1363</ele>
        <time>2017-03-04T10:51:15Z</time>
      </trkpt>
      <trkpt lat="42.93149" lon="0.25696">
        <ele>1363</ele>
        <time>2017-03-04T10:51:15Z</time>
      </trkpt>
      <trkpt lat="42.93147" lon="0.25695">
        <ele>1363</ele>
        <time>2017-03-04T10:51:34Z</time>
      </trkpt>
      <trkpt lat="42.93143" lon="0.25695">
        <ele>1363</ele>
        <time>2017-03-04T10:51:34Z</time>
      </trkpt>
      <trkpt lat="42.93141" lon="0.25693">
        <ele>1363</ele>
        <time>2017-03-04T10:51:35Z</time>
      </trkpt>
      <trkpt lat="42.9314" lon="0.25691">
        <ele>1363</ele>
        <time>2017-03-04T10:51:35Z</time>
      </trkpt>
      <trkpt lat="42.93137" lon="0.25689">
        <ele>1363</ele>
        <time>2017-03-04T10:51:35Z</time>
      </trkpt>
      <trkpt lat="42.93133" lon="0.25688">
        <ele>1363</ele>
        <time>2017-03-04T10:51:58Z</time>
      </trkpt>
      <trkpt lat="42.93132" lon="0.25687">
        <ele>1363</ele>
        <time>2017-03-04T10:51:59Z</time>
      </trkpt>
      <trkpt lat="42.93131" lon="0.25684">
        <ele>1363</ele>
        <time>2017-03-04T10:51:59Z</time>
      </trkpt>
      <trkpt lat="42.93128" lon="0.25682">
        <ele>1363</ele>
        <time>2017-03-04T10:51:59Z</time>
      </trkpt>
      <trkpt lat="42.93127" lon="0.25681">
        <ele>1363</ele>
        <time>2017-03-04T10:51:59Z</time>
      </trkpt>
      <trkpt lat="42.93124" lon="0.25681">
        <ele>1384</ele>
        <time>2017-03-04T10:52:22Z</time>
      </trkpt>
      <trkpt lat="42.93123" lon="0.25681">
        <ele>1384</ele>
        <time>2017-03-04T10:52:22Z</time>
      </trkpt>
      <trkpt lat="42.93121" lon="0.2568">
        <ele>1384</ele>
        <time>2017-03-04T10:52:23Z</time>
      </trkpt>
      <trkpt lat="42.93119" lon="0.2568">
        <ele>1384</ele>
        <time>2017-03-04T10:52:23Z</time>
      </trkpt>
      <trkpt lat="42.93117" lon="0.25681">
        <ele>1384</ele>
        <time>2017-03-04T10:52:23Z</time>
      </trkpt>
      <trkpt lat="42.9311" lon="0.25681">
        <ele>1384</ele>
        <time>2017-03-04T10:52:50Z</time>
      </trkpt>
      <trkpt lat="42.93108" lon="0.25681">
        <ele>1384</ele>
        <time>2017-03-04T10:52:51Z</time>
      </trkpt>
      <trkpt lat="42.93106" lon="0.2568">
        <ele>1384</ele>
        <time>2017-03-04T10:52:51Z</time>
      </trkpt>
      <trkpt lat="42.93105" lon="0.25681">
        <ele>1384</ele>
        <time>2017-03-04T10:52:51Z</time>
      </trkpt>
      <trkpt lat="42.93102" lon="0.25679">
        <ele>1384</ele>
        <time>2017-03-04T10:52:51Z</time>
      </trkpt>
      <trkpt lat="42.93098" lon="0.25674">
        <ele>1384</ele>
        <time>2017-03-04T10:53:18Z</time>
      </trkpt>
      <trkpt lat="42.93097" lon="0.25674">
        <ele>1384</ele>
        <time>2017-03-04T10:53:18Z</time>
      </trkpt>
      <trkpt lat="42.93095" lon="0.25672">
        <ele>1384</ele>
        <time>2017-03-04T10:53:19Z</time>
      </trkpt>
      <trkpt lat="42.93094" lon="0.2567">
        <ele>1384</ele>
        <time>2017-03-04T10:53:19Z</time>
      </trkpt>
      <trkpt lat="42.93093" lon="0.25669">
        <ele>1384</ele>
        <time>2017-03-04T10:53:19Z</time>
      </trkpt>
      <trkpt lat="42.9309" lon="0.25666">
        <ele>1384</ele>
        <time>2017-03-04T10:53:42Z</time>
      </trkpt>
      <trkpt lat="42.93088" lon="0.25665">
        <ele>1384</ele>
        <time>2017-03-04T10:53:42Z</time>
      </trkpt>
      <trkpt lat="42.93087" lon="0.25664">
        <ele>1384</ele>
        <time>2017-03-04T10:53:43Z</time>
      </trkpt>
      <trkpt lat="42.93084" lon="0.25663">
        <ele>1384</ele>
        <time>2017-03-04T10:53:43Z</time>
      </trkpt>
      <trkpt lat="42.93082" lon="0.25662">
        <ele>1384</ele>
        <time>2017-03-04T10:53:43Z</time>
      </trkpt>
      <trkpt lat="42.93075" lon="0.25662">
        <ele>1384</ele>
        <time>2017-03-04T10:54:14Z</time>
      </trkpt>
      <trkpt lat="42.93075" lon="0.25661">
        <ele>1384</ele>
        <time>2017-03-04T10:54:15Z</time>
      </trkpt>
      <trkpt lat="42.93075" lon="0.25662">
        <ele>1384</ele>
        <time>2017-03-04T10:54:15Z</time>
      </trkpt>
      <trkpt lat="42.93072" lon="0.25662">
        <ele>1384</ele>
        <time>2017-03-04T10:54:15Z</time>
      </trkpt>
      <trkpt lat="42.93071" lon="0.25662">
        <ele>1384</ele>
        <time>2017-03-04T10:54:15Z</time>
      </trkpt>
      <trkpt lat="42.9307" lon="0.25658">
        <ele>1384</ele>
        <time>2017-03-04T10:56:26Z</time>
      </trkpt>
      <trkpt lat="42.93069" lon="0.25658">
        <ele>1384</ele>
        <time>2017-03-04T10:56:26Z</time>
      </trkpt>
      <trkpt lat="42.93067" lon="0.25657">
        <ele>1384</ele>
        <time>2017-03-04T10:56:27Z</time>
      </trkpt>
      <trkpt lat="42.93066" lon="0.25658">
        <ele>1384</ele>
        <time>2017-03-04T10:56:27Z</time>
      </trkpt>
      <trkpt lat="42.93062" lon="0.25659">
        <ele>1384</ele>
        <time>2017-03-04T10:56:27Z</time>
      </trkpt>
      <trkpt lat="42.93059" lon="0.25659">
        <ele>1384</ele>
        <time>2017-03-04T10:56:42Z</time>
      </trkpt>
      <trkpt lat="42.93056" lon="0.25661">
        <ele>1384</ele>
        <time>2017-03-04T10:56:42Z</time>
      </trkpt>
      <trkpt lat="42.93051" lon="0.25665">
        <ele>1384</ele>
        <time>2017-03-04T10:56:43Z</time>
      </trkpt>
      <trkpt lat="42.9305" lon="0.25667">
        <ele>1384</ele>
        <time>2017-03-04T10:56:43Z</time>
      </trkpt>
      <trkpt lat="42.93046" lon="0.25672">
        <ele>1384</ele>
        <time>2017-03-04T10:57:18Z</time>
      </trkpt>
      <trkpt lat="42.93046" lon="0.25672">
        <ele>1384</ele>
        <time>2017-03-04T10:57:18Z</time>
      </trkpt>
      <trkpt lat="42.93046" lon="0.25672">
        <ele>1384</ele>
        <time>2017-03-04T10:57:19Z</time>
      </trkpt>
      <trkpt lat="42.93045" lon="0.25675">
        <ele>1384</ele>
        <time>2017-03-04T10:57:19Z</time>
      </trkpt>
      <trkpt lat="42.93043" lon="0.25678">
        <ele>1384</ele>
        <time>2017-03-04T10:57:19Z</time>
      </trkpt>
      <trkpt lat="42.93037" lon="0.25684">
        <ele>1407</ele>
        <time>2017-03-04T10:57:58Z</time>
      </trkpt>
      <trkpt lat="42.93037" lon="0.25685">
        <ele>1407</ele>
        <time>2017-03-04T10:57:58Z</time>
      </trkpt>
      <trkpt lat="42.93037" lon="0.25686">
        <ele>1407</ele>
        <time>2017-03-04T10:57:59Z</time>
      </trkpt>
      <trkpt lat="42.93035" lon="0.25687">
        <ele>1407</ele>
        <time>2017-03-04T10:57:59Z</time>
      </trkpt>
      <trkpt lat="42.93033" lon="0.25689">
        <ele>1407</ele>
        <time>2017-03-04T10:57:59Z</time>
      </trkpt>
      <trkpt lat="42.93026" lon="0.25691">
        <ele>1407</ele>
        <time>2017-03-04T10:58:26Z</time>
      </trkpt>
      <trkpt lat="42.93024" lon="0.25691">
        <ele>1407</ele>
        <time>2017-03-04T10:58:26Z</time>
      </trkpt>
      <trkpt lat="42.93022" lon="0.25692">
        <ele>1407</ele>
        <time>2017-03-04T10:58:27Z</time>
      </trkpt>
      <trkpt lat="42.93021" lon="0.25693">
        <ele>1407</ele>
        <time>2017-03-04T10:58:27Z</time>
      </trkpt>
      <trkpt lat="42.9302" lon="0.25694">
        <ele>1407</ele>
        <time>2017-03-04T10:58:27Z</time>
      </trkpt>
      <trkpt lat="42.93018" lon="0.25694">
        <ele>1407</ele>
        <time>2017-03-04T10:58:50Z</time>
      </trkpt>
      <trkpt lat="42.93015" lon="0.25693">
        <ele>1407</ele>
        <time>2017-03-04T10:58:51Z</time>
      </trkpt>
      <trkpt lat="42.93014" lon="0.25691">
        <ele>1407</ele>
        <time>2017-03-04T10:58:51Z</time>
      </trkpt>
      <trkpt lat="42.93013" lon="0.25691">
        <ele>1407</ele>
        <time>2017-03-04T10:58:51Z</time>
      </trkpt>
      <trkpt lat="42.9301" lon="0.25687">
        <ele>1407</ele>
        <time>2017-03-04T10:58:51Z</time>
      </trkpt>
      <trkpt lat="42.93005" lon="0.25691">
        <ele>1407</ele>
        <time>2017-03-04T10:59:38Z</time>
      </trkpt>
      <trkpt lat="42.93003" lon="0.25692">
        <ele>1407</ele>
        <time>2017-03-04T10:59:38Z</time>
      </trkpt>
      <trkpt lat="42.93001" lon="0.25692">
        <ele>1407</ele>
        <time>2017-03-04T10:59:39Z</time>
      </trkpt>
      <trkpt lat="42.93001" lon="0.25693">
        <ele>1407</ele>
        <time>2017-03-04T10:59:39Z</time>
      </trkpt>
      <trkpt lat="42.93001" lon="0.25693">
        <ele>1407</ele>
        <time>2017-03-04T10:59:39Z</time>
      </trkpt>
      <trkpt lat="42.92995" lon="0.25698">
        <ele>1407</ele>
        <time>2017-03-04T11:00:14Z</time>
      </trkpt>
      <trkpt lat="42.92995" lon="0.25698">
        <ele>1407</ele>
        <time>2017-03-04T11:00:15Z</time>
      </trkpt>
      <trkpt lat="42.92994" lon="0.25698">
        <ele>1407</ele>
        <time>2017-03-04T11:00:15Z</time>
      </trkpt>
      <trkpt lat="42.92992" lon="0.25697">
        <ele>1407</ele>
        <time>2017-03-04T11:00:15Z</time>
      </trkpt>
      <trkpt lat="42.92991" lon="0.25696">
        <ele>1407</ele>
        <time>2017-03-04T11:00:15Z</time>
      </trkpt>
      <trkpt lat="42.92986" lon="0.25702">
        <ele>1407</ele>
        <time>2017-03-04T11:00:46Z</time>
      </trkpt>
      <trkpt lat="42.92986" lon="0.25703">
        <ele>1407</ele>
        <time>2017-03-04T11:00:47Z</time>
      </trkpt>
      <trkpt lat="42.92983" lon="0.25704">
        <ele>1407</ele>
        <time>2017-03-04T11:00:47Z</time>
      </trkpt>
      <trkpt lat="42.92981" lon="0.25704">
        <ele>1407</ele>
        <time>2017-03-04T11:00:47Z</time>
      </trkpt>
      <trkpt lat="42.92981" lon="0.25705">
        <ele>1407</ele>
        <time>2017-03-04T11:00:47Z</time>
      </trkpt>
      <trkpt lat="42.92974" lon="0.25703">
        <ele>1407</ele>
        <time>2017-03-04T11:01:22Z</time>
      </trkpt>
      <trkpt lat="42.92973" lon="0.25704">
        <ele>1407</ele>
        <time>2017-03-04T11:01:22Z</time>
      </trkpt>
      <trkpt lat="42.92973" lon="0.25703">
        <ele>1407</ele>
        <time>2017-03-04T11:01:23Z</time>
      </trkpt>
      <trkpt lat="42.92971" lon="0.25705">
        <ele>1407</ele>
        <time>2017-03-04T11:01:23Z</time>
      </trkpt>
      <trkpt lat="42.92969" lon="0.25705">
        <ele>1407</ele>
        <time>2017-03-04T11:01:23Z</time>
      </trkpt>
      <trkpt lat="42.92964" lon="0.25707">
        <ele>1407</ele>
        <time>2017-03-04T11:02:10Z</time>
      </trkpt>
      <trkpt lat="42.92962" lon="0.25706">
        <ele>1407</ele>
        <time>2017-03-04T11:02:10Z</time>
      </trkpt>
      <trkpt lat="42.92961" lon="0.25705">
        <ele>1407</ele>
        <time>2017-03-04T11:02:11Z</time>
      </trkpt>
      <trkpt lat="42.92958" lon="0.25705">
        <ele>1407</ele>
        <time>2017-03-04T11:02:11Z</time>
      </trkpt>
      <trkpt lat="42.92956" lon="0.25705">
        <ele>1450</ele>
        <time>2017-03-04T11:02:11Z</time>
      </trkpt>
      <trkpt lat="42.92953" lon="0.25702">
        <ele>1450</ele>
        <time>2017-03-04T11:03:42Z</time>
      </trkpt>
      <trkpt lat="42.92954" lon="0.25701">
        <ele>1450</ele>
        <time>2017-03-04T11:03:42Z</time>
      </trkpt>
      <trkpt lat="42.92954" lon="0.257">
        <ele>1450</ele>
        <time>2017-03-04T11:03:43Z</time>
      </trkpt>
      <trkpt lat="42.92952" lon="0.25699">
        <ele>1450</ele>
        <time>2017-03-04T11:03:43Z</time>
      </trkpt>
      <trkpt lat="42.92952" lon="0.25697">
        <ele>1450</ele>
        <time>2017-03-04T11:03:43Z</time>
      </trkpt>
      <trkpt lat="42.92949" lon="0.25695">
        <ele>1450</ele>
        <time>2017-03-04T11:04:30Z</time>
      </trkpt>
      <trkpt lat="42.92948" lon="0.25695">
        <ele>1450</ele>
        <time>2017-03-04T11:04:30Z</time>
      </trkpt>
      <trkpt lat="42.92946" lon="0.25695">
        <ele>1450</ele>
        <time>2017-03-04T11:04:31Z</time>
      </trkpt>
      <trkpt lat="42.92943" lon="0.25695">
        <ele>1450</ele>
        <time>2017-03-04T11:04:31Z</time>
      </trkpt>
      <trkpt lat="42.92938" lon="0.25695">
        <ele>1450</ele>
        <time>2017-03-04T11:04:31Z</time>
      </trkpt>
      <trkpt lat="42.92938" lon="0.25689">
        <ele>1450</ele>
        <time>2017-03-04T11:05:18Z</time>
      </trkpt>
      <trkpt lat="42.92938" lon="0.25686">
        <ele>1450</ele>
        <time>2017-03-04T11:05:18Z</time>
      </trkpt>
      <trkpt lat="42.92937" lon="0.25686">
        <ele>1450</ele>
        <time>2017-03-04T11:05:19Z</time>
      </trkpt>
      <trkpt lat="42.92936" lon="0.25685">
        <ele>1450</ele>
        <time>2017-03-04T11:05:19Z</time>
      </trkpt>
      <trkpt lat="42.92931" lon="0.25684">
        <ele>1450</ele>
        <time>2017-03-04T11:05:19Z</time>
      </trkpt>
      <trkpt lat="42.92924" lon="0.2568">
        <ele>1450</ele>
        <time>2017-03-04T11:06:38Z</time>
      </trkpt>
      <trkpt lat="42.92923" lon="0.2568">
        <ele>1450</ele>
        <time>2017-03-04T11:06:38Z</time>
      </trkpt>
      <trkpt lat="42.92923" lon="0.2568">
        <ele>1450</ele>
        <time>2017-03-04T11:06:39Z</time>
      </trkpt>
      <trkpt lat="42.92919" lon="0.25679">
        <ele>1450</ele>
        <time>2017-03-04T11:06:39Z</time>
      </trkpt>
      <trkpt lat="42.92918" lon="0.25678">
        <ele>1450</ele>
        <time>2017-03-04T11:06:39Z</time>
      </trkpt>
      <trkpt lat="42.92917" lon="0.25672">
        <ele>1450</ele>
        <time>2017-03-04T11:07:06Z</time>
      </trkpt>
      <trkpt lat="42.92917" lon="0.2567">
        <ele>1450</ele>
        <time>2017-03-04T11:07:06Z</time>
      </trkpt>
      <trkpt lat="42.92917" lon="0.25668">
        <ele>1450</ele>
        <time>2017-03-04T11:07:07Z</time>
      </trkpt>
      <trkpt lat="42.92917" lon="0.25665">
        <ele>1450</ele>
        <time>2017-03-04T11:07:07Z</time>
      </trkpt>
      <trkpt lat="42.92918" lon="0.25663">
        <ele>1450</ele>
        <time>2017-03-04T11:07:07Z</time>
      </trkpt>
      <trkpt lat="42.92914" lon="0.25664">
        <ele>1450</ele>
        <time>2017-03-04T11:08:46Z</time>
      </trkpt>
      <trkpt lat="42.92913" lon="0.25664">
        <ele>1450</ele>
        <time>2017-03-04T11:08:46Z</time>
      </trkpt>
      <trkpt lat="42.92911" lon="0.25664">
        <ele>1450</ele>
        <time>2017-03-04T11:08:47Z</time>
      </trkpt>
      <trkpt lat="42.9291" lon="0.25665">
        <ele>1450</ele>
        <time>2017-03-04T11:08:47Z</time>
      </trkpt>
      <trkpt lat="42.9291" lon="0.25666">
        <ele>1450</ele>
        <time>2017-03-04T11:08:47Z</time>
      </trkpt>
      <trkpt lat="42.92912" lon="0.25659">
        <ele>1450</ele>
        <time>2017-03-04T11:10:46Z</time>
      </trkpt>
      <trkpt lat="42.92912" lon="0.25658">
        <ele>1450</ele>
        <time>2017-03-04T11:10:47Z</time>
      </trkpt>
      <trkpt lat="42.9291" lon="0.25654">
        <ele>1450</ele>
        <time>2017-03-04T11:10:47Z</time>
      </trkpt>
      <trkpt lat="42.92909" lon="0.25654">
        <ele>1450</ele>
        <time>2017-03-04T11:10:47Z</time>
      </trkpt>
      <trkpt lat="42.92908" lon="0.2565">
        <ele>1450</ele>
        <time>2017-03-04T11:10:47Z</time>
      </trkpt>
      <trkpt lat="42.92898" lon="0.25645">
        <ele>1450</ele>
        <time>2017-03-04T11:12:10Z</time>
      </trkpt>
      <trkpt lat="42.92897" lon="0.25646">
        <ele>1450</ele>
        <time>2017-03-04T11:12:10Z</time>
      </trkpt>
      <trkpt lat="42.92896" lon="0.25647">
        <ele>1450</ele>
        <time>2017-03-04T11:12:11Z</time>
      </trkpt>
      <trkpt lat="42.92896" lon="0.25648">
        <ele>1450</ele>
        <time>2017-03-04T11:12:11Z</time>
      </trkpt>
      <trkpt lat="42.92895" lon="0.25649">
        <ele>1450</ele>
        <time>2017-03-04T11:12:11Z</time>
      </trkpt>
      <trkpt lat="42.9289" lon="0.25659">
        <ele>1450</ele>
        <time>2017-03-04T11:12:38Z</time>
      </trkpt>
      <trkpt lat="42.92889" lon="0.25659">
        <ele>1450</ele>
        <time>2017-03-04T11:12:38Z</time>
      </trkpt>
      <trkpt lat="42.92887" lon="0.25658">
        <ele>1450</ele>
        <time>2017-03-04T11:12:39Z</time>
      </trkpt>
      <trkpt lat="42.92886" lon="0.25657">
        <ele>1450</ele>
        <time>2017-03-04T11:12:39Z</time>
      </trkpt>
      <trkpt lat="42.92884" lon="0.25655">
        <ele>1450</ele>
        <time>2017-03-04T11:12:39Z</time>
      </trkpt>
      <trkpt lat="42.92883" lon="0.25649">
        <ele>1450</ele>
        <time>2017-03-04T11:13:02Z</time>
      </trkpt>
      <trkpt lat="42.92883" lon="0.25648">
        <ele>1450</ele>
        <time>2017-03-04T11:13:02Z</time>
      </trkpt>
      <trkpt lat="42.92883" lon="0.25646">
        <ele>1450</ele>
        <time>2017-03-04T11:13:03Z</time>
      </trkpt>
      <trkpt lat="42.92881" lon="0.25641">
        <ele>1450</ele>
        <time>2017-03-04T11:13:03Z</time>
      </trkpt>
      <trkpt lat="42.92881" lon="0.25638">
        <ele>1450</ele>
        <time>2017-03-04T11:13:03Z</time>
      </trkpt>
      <trkpt lat="42.92874" lon="0.2564">
        <ele>1489</ele>
        <time>2017-03-04T11:14:14Z</time>
      </trkpt>
      <trkpt lat="42.92874" lon="0.2564">
        <ele>1489</ele>
        <time>2017-03-04T11:14:14Z</time>
      </trkpt>
      <trkpt lat="42.92872" lon="0.2564">
        <ele>1489</ele>
        <time>2017-03-04T11:14:15Z</time>
      </trkpt>
      <trkpt lat="42.92871" lon="0.2564">
        <ele>1489</ele>
        <time>2017-03-04T11:14:15Z</time>
      </trkpt>
      <trkpt lat="42.92871" lon="0.2564">
        <ele>1489</ele>
        <time>2017-03-04T11:14:15Z</time>
      </trkpt>
      <trkpt lat="42.92867" lon="0.25633">
        <ele>1489</ele>
        <time>2017-03-04T11:15:50Z</time>
      </trkpt>
      <trkpt lat="42.92867" lon="0.25632">
        <ele>1489</ele>
        <time>2017-03-04T11:15:50Z</time>
      </trkpt>
      <trkpt lat="42.92867" lon="0.25632">
        <ele>1489</ele>
        <time>2017-03-04T11:15:51Z</time>
      </trkpt>
      <trkpt lat="42.92866" lon="0.25632">
        <ele>1489</ele>
        <time>2017-03-04T11:15:51Z</time>
      </trkpt>
      <trkpt lat="42.92863" lon="0.25632">
        <ele>1489</ele>
        <time>2017-03-04T11:15:51Z</time>
      </trkpt>
      <trkpt lat="42.92859" lon="0.25638">
        <ele>1489</ele>
        <time>2017-03-04T11:16:42Z</time>
      </trkpt>
      <trkpt lat="42.92856" lon="0.25639">
        <ele>1489</ele>
        <time>2017-03-04T11:16:42Z</time>
      </trkpt>
      <trkpt lat="42.92855" lon="0.2564">
        <ele>1489</ele>
        <time>2017-03-04T11:16:43Z</time>
      </trkpt>
      <trkpt lat="42.92854" lon="0.2564">
        <ele>1489</ele>
        <time>2017-03-04T11:16:43Z</time>
      </trkpt>
      <trkpt lat="42.92854" lon="0.2564">
        <ele>1489</ele>
        <time>2017-03-04T11:16:43Z</time>
      </trkpt>
      <trkpt lat="42.9285" lon="0.25643">
        <ele>1489</ele>
        <time>2017-03-04T11:17:46Z</time>
      </trkpt>
      <trkpt lat="42.9285" lon="0.25643">
        <ele>1489</ele>
        <time>2017-03-04T11:17:47Z</time>
      </trkpt>
      <trkpt lat="42.9285" lon="0.25643">
        <ele>1489</ele>
        <time>2017-03-04T11:17:47Z</time>
      </trkpt>
      <trkpt lat="42.92849" lon="0.25644">
        <ele>1489</ele>
        <time>2017-03-04T11:17:47Z</time>
      </trkpt>
      <trkpt lat="42.92842" lon="0.25642">
        <ele>1489</ele>
        <time>2017-03-04T11:17:47Z</time>
      </trkpt>
      <trkpt lat="42.92838" lon="0.25639">
        <ele>1489</ele>
        <time>2017-03-04T11:18:38Z</time>
      </trkpt>
      <trkpt lat="42.92839" lon="0.25633">
        <ele>1489</ele>
        <time>2017-03-04T11:18:39Z</time>
      </trkpt>
      <trkpt lat="42.92839" lon="0.25633">
        <ele>1489</ele>
        <time>2017-03-04T11:18:39Z</time>
      </trkpt>
      <trkpt lat="42.92839" lon="0.25629">
        <ele>1489</ele>
        <time>2017-03-04T11:18:39Z</time>
      </trkpt>
      <trkpt lat="42.9284" lon="0.25628">
        <ele>1489</ele>
        <time>2017-03-04T11:18:39Z</time>
      </trkpt>
      <trkpt lat="42.9284" lon="0.25621">
        <ele>1490</ele>
        <time>2017-03-04T11:20:10Z</time>
      </trkpt>
      <trkpt lat="42.92841" lon="0.25621">
        <ele>1490</ele>
        <time>2017-03-04T11:20:10Z</time>
      </trkpt>
      <trkpt lat="42.92842" lon="0.25618">
        <ele>1490</ele>
        <time>2017-03-04T11:20:11Z</time>
      </trkpt>
      <trkpt lat="42.92842" lon="0.25618">
        <ele>1490</ele>
        <time>2017-03-04T11:20:11Z</time>
      </trkpt>
      <trkpt lat="42.92842" lon="0.25615">
        <ele>1490</ele>
        <time>2017-03-04T11:20:11Z</time>
      </trkpt>
      <trkpt lat="42.92843" lon="0.25606">
        <ele>1490</ele>
        <time>2017-03-04T11:21:06Z</time>
      </trkpt>
      <trkpt lat="42.92842" lon="0.25605">
        <ele>1490</ele>
        <time>2017-03-04T11:21:06Z</time>
      </trkpt>
      <trkpt lat="42.92842" lon="0.25605">
        <ele>1490</ele>
        <time>2017-03-04T11:21:07Z</time>
      </trkpt>
      <trkpt lat="42.92842" lon="0.25605">
        <ele>1490</ele>
        <time>2017-03-04T11:21:07Z</time>
      </trkpt>
      <trkpt lat="42.92844" lon="0.256">
        <ele>1490</ele>
        <time>2017-03-04T11:21:07Z</time>
      </trkpt>
      <trkpt lat="42.92842" lon="0.25595">
        <ele>1490</ele>
        <time>2017-03-04T11:23:46Z</time>
      </trkpt>
      <trkpt lat="42.92839" lon="0.25592">
        <ele>1490</ele>
        <time>2017-03-04T11:23:46Z</time>
      </trkpt>
      <trkpt lat="42.92839" lon="0.2559">
        <ele>1490</ele>
        <time>2017-03-04T11:23:47Z</time>
      </trkpt>
      <trkpt lat="42.92839" lon="0.2559">
        <ele>1490</ele>
        <time>2017-03-04T11:23:47Z</time>
      </trkpt>
      <trkpt lat="42.92837" lon="0.25588">
        <ele>1490</ele>
        <time>2017-03-04T11:23:47Z</time>
      </trkpt>
      <trkpt lat="42.92833" lon="0.25584">
        <ele>1490</ele>
        <time>2017-03-04T11:24:14Z</time>
      </trkpt>
      <trkpt lat="42.9283" lon="0.25584">
        <ele>1490</ele>
        <time>2017-03-04T11:24:14Z</time>
      </trkpt>
      <trkpt lat="42.92828" lon="0.25582">
        <ele>1490</ele>
        <time>2017-03-04T11:24:15Z</time>
      </trkpt>
      <trkpt lat="42.92827" lon="0.25582">
        <ele>1490</ele>
        <time>2017-03-04T11:24:15Z</time>
      </trkpt>
      <trkpt lat="42.92825" lon="0.25582">
        <ele>1490</ele>
        <time>2017-03-04T11:24:15Z</time>
      </trkpt>
      <trkpt lat="42.92821" lon="0.25582">
        <ele>1490</ele>
        <time>2017-03-04T11:25:02Z</time>
      </trkpt>
      <trkpt lat="42.92819" lon="0.25582">
        <ele>1490</ele>
        <time>2017-03-04T11:25:02Z</time>
      </trkpt>
      <trkpt lat="42.92819" lon="0.25582">
        <ele>1490</ele>
        <time>2017-03-04T11:25:03Z</time>
      </trkpt>
      <trkpt lat="42.92817" lon="0.25581">
        <ele>1490</ele>
        <time>2017-03-04T11:25:03Z</time>
      </trkpt>
      <trkpt lat="42.92813" lon="0.25579">
        <ele>1490</ele>
        <time>2017-03-04T11:25:03Z</time>
      </trkpt>
      <trkpt lat="42.92804" lon="0.25573">
        <ele>1490</ele>
        <time>2017-03-04T11:25:38Z</time>
      </trkpt>
      <trkpt lat="42.92803" lon="0.25572">
        <ele>1490</ele>
        <time>2017-03-04T11:25:38Z</time>
      </trkpt>
      <trkpt lat="42.92804" lon="0.2557">
        <ele>1490</ele>
        <time>2017-03-04T11:25:39Z</time>
      </trkpt>
      <trkpt lat="42.92804" lon="0.25569">
        <ele>1490</ele>
        <time>2017-03-04T11:25:39Z</time>
      </trkpt>
      <trkpt lat="42.92802" lon="0.25566">
        <ele>1490</ele>
        <time>2017-03-04T11:25:39Z</time>
      </trkpt>
      <trkpt lat="42.92797" lon="0.25561">
        <ele>1490</ele>
        <time>2017-03-04T11:26:30Z</time>
      </trkpt>
      <trkpt lat="42.92796" lon="0.25561">
        <ele>1490</ele>
        <time>2017-03-04T11:26:30Z</time>
      </trkpt>
      <trkpt lat="42.92795" lon="0.2556">
        <ele>1490</ele>
        <time>2017-03-04T11:26:31Z</time>
      </trkpt>
      <trkpt lat="42.92794" lon="0.25561">
        <ele>1490</ele>
        <time>2017-03-04T11:26:31Z</time>
      </trkpt>
      <trkpt lat="42.92792" lon="0.25561">
        <ele>1490</ele>
        <time>2017-03-04T11:26:31Z</time>
      </trkpt>
      <trkpt lat="42.92786" lon="0.25551">
        <ele>1529</ele>
        <time>2017-03-04T11:27:18Z</time>
      </trkpt>
      <trkpt lat="42.92786" lon="0.25551">
        <ele>1529</ele>
        <time>2017-03-04T11:27:18Z</time>
      </trkpt>
      <trkpt lat="42.92785" lon="0.25551">
        <ele>1529</ele>
        <time>2017-03-04T11:27:19Z</time>
      </trkpt>
      <trkpt lat="42.92784" lon="0.25551">
        <ele>1529</ele>
        <time>2017-03-04T11:27:19Z</time>
      </trkpt>
      <trkpt lat="42.92784" lon="0.25551">
        <ele>1529</ele>
        <time>2017-03-04T11:27:19Z</time>
      </trkpt>
      <trkpt lat="42.92781" lon="0.25548">
        <ele>1529</ele>
        <time>2017-03-04T11:27:58Z</time>
      </trkpt>
      <trkpt lat="42.9278" lon="0.25546">
        <ele>1529</ele>
        <time>2017-03-04T11:27:58Z</time>
      </trkpt>
      <trkpt lat="42.9278" lon="0.25545">
        <ele>1529</ele>
        <time>2017-03-04T11:27:59Z</time>
      </trkpt>
      <trkpt lat="42.9278" lon="0.25543">
        <ele>1529</ele>
        <time>2017-03-04T11:27:59Z</time>
      </trkpt>
      <trkpt lat="42.92778" lon="0.25539">
        <ele>1520</ele>
        <time>2017-03-04T11:27:59Z</time>
      </trkpt>
      <trkpt lat="42.92772" lon="0.25533">
        <ele>1520</ele>
        <time>2017-03-04T11:29:50Z</time>
      </trkpt>
      <trkpt lat="42.92772" lon="0.25534">
        <ele>1520</ele>
        <time>2017-03-04T11:29:50Z</time>
      </trkpt>
      <trkpt lat="42.92771" lon="0.25535">
        <ele>1520</ele>
        <time>2017-03-04T11:29:51Z</time>
      </trkpt>
      <trkpt lat="42.9277" lon="0.25537">
        <ele>1520</ele>
        <time>2017-03-04T11:29:51Z</time>
      </trkpt>
      <trkpt lat="42.92768" lon="0.25539">
        <ele>1520</ele>
        <time>2017-03-04T11:29:51Z</time>
      </trkpt>
      <trkpt lat="42.92768" lon="0.25539">
        <ele>1520</ele>
        <time>2017-03-04T11:30:14Z</time>
      </trkpt>
      <trkpt lat="42.92768" lon="0.25536">
        <ele>1520</ele>
        <time>2017-03-04T11:30:14Z</time>
      </trkpt>
      <trkpt lat="42.92769" lon="0.25532">
        <ele>1520</ele>
        <time>2017-03-04T11:30:15Z</time>
      </trkpt>
      <trkpt lat="42.92768" lon="0.25529">
        <ele>1520</ele>
        <time>2017-03-04T11:30:15Z</time>
      </trkpt>
      <trkpt lat="42.92767" lon="0.25527">
        <ele>1520</ele>
        <time>2017-03-04T11:30:15Z</time>
      </trkpt>
      <trkpt lat="42.92764" lon="0.25523">
        <ele>1520</ele>
        <time>2017-03-04T11:31:02Z</time>
      </trkpt>
      <trkpt lat="42.92763" lon="0.25527">
        <ele>1520</ele>
        <time>2017-03-04T11:31:03Z</time>
      </trkpt>
      <trkpt lat="42.92761" lon="0.25533">
        <ele>1520</ele>
        <time>2017-03-04T11:31:03Z</time>
      </trkpt>
      <trkpt lat="42.92761" lon="0.25535">
        <ele>1520</ele>
        <time>2017-03-04T11:31:03Z</time>
      </trkpt>
      <trkpt lat="42.9276" lon="0.25538">
        <ele>1520</ele>
        <time>2017-03-04T11:31:03Z</time>
      </trkpt>
      <trkpt lat="42.92759" lon="0.25531">
        <ele>1520</ele>
        <time>2017-03-04T11:33:02Z</time>
      </trkpt>
      <trkpt lat="42.92757" lon="0.25529">
        <ele>1520</ele>
        <time>2017-03-04T11:33:02Z</time>
      </trkpt>
      <trkpt lat="42.92756" lon="0.25528">
        <ele>1520</ele>
        <time>2017-03-04T11:33:03Z</time>
      </trkpt>
      <trkpt lat="42.92755" lon="0.25528">
        <ele>1520</ele>
        <time>2017-03-04T11:33:03Z</time>
      </trkpt>
      <trkpt lat="42.92754" lon="0.25528">
        <ele>1520</ele>
        <time>2017-03-04T11:33:03Z</time>
      </trkpt>
      <trkpt lat="42.92753" lon="0.25526">
        <ele>1520</ele>
        <time>2017-03-04T11:33:22Z</time>
      </trkpt>
      <trkpt lat="42.92752" lon="0.25524">
        <ele>1520</ele>
        <time>2017-03-04T11:33:22Z</time>
      </trkpt>
      <trkpt lat="42.9275" lon="0.2552">
        <ele>1520</ele>
        <time>2017-03-04T11:33:23Z</time>
      </trkpt>
      <trkpt lat="42.92749" lon="0.25517">
        <ele>1520</ele>
        <time>2017-03-04T11:33:23Z</time>
      </trkpt>
      <trkpt lat="42.92749" lon="0.25513">
        <ele>1520</ele>
        <time>2017-03-04T11:33:23Z</time>
      </trkpt>
      <trkpt lat="42.92747" lon="0.25513">
        <ele>1520</ele>
        <time>2017-03-04T11:34:14Z</time>
      </trkpt>
      <trkpt lat="42.92745" lon="0.25515">
        <ele>1520</ele>
        <time>2017-03-04T11:34:15Z</time>
      </trkpt>
      <trkpt lat="42.92744" lon="0.25517">
        <ele>1520</ele>
        <time>2017-03-04T11:34:15Z</time>
      </trkpt>
      <trkpt lat="42.92743" lon="0.25519">
        <ele>1520</ele>
        <time>2017-03-04T11:34:15Z</time>
      </trkpt>
      <trkpt lat="42.92743" lon="0.2552">
        <ele>1520</ele>
        <time>2017-03-04T11:34:15Z</time>
      </trkpt>
      <trkpt lat="42.92743" lon="0.25522">
        <ele>1520</ele>
        <time>2017-03-04T11:34:38Z</time>
      </trkpt>
      <trkpt lat="42.92741" lon="0.25521">
        <ele>1520</ele>
        <time>2017-03-04T11:34:38Z</time>
      </trkpt>
      <trkpt lat="42.92739" lon="0.25518">
        <ele>1520</ele>
        <time>2017-03-04T11:34:39Z</time>
      </trkpt>
      <trkpt lat="42.92737" lon="0.25516">
        <ele>1520</ele>
        <time>2017-03-04T11:34:39Z</time>
      </trkpt>
      <trkpt lat="42.92736" lon="0.25514">
        <ele>1520</ele>
        <time>2017-03-04T11:34:39Z</time>
      </trkpt>
      <trkpt lat="42.9273" lon="0.25507">
        <ele>1520</ele>
        <time>2017-03-04T11:35:42Z</time>
      </trkpt>
      <trkpt lat="42.92729" lon="0.25509">
        <ele>1520</ele>
        <time>2017-03-04T11:35:42Z</time>
      </trkpt>
      <trkpt lat="42.92728" lon="0.25511">
        <ele>1520</ele>
        <time>2017-03-04T11:35:43Z</time>
      </trkpt>
      <trkpt lat="42.92726" lon="0.25513">
        <ele>1520</ele>
        <time>2017-03-04T11:35:43Z</time>
      </trkpt>
      <trkpt lat="42.92724" lon="0.25514">
        <ele>1520</ele>
        <time>2017-03-04T11:35:43Z</time>
      </trkpt>
      <trkpt lat="42.92717" lon="0.25518">
        <ele>1520</ele>
        <time>2017-03-04T11:36:18Z</time>
      </trkpt>
      <trkpt lat="42.92717" lon="0.25519">
        <ele>1520</ele>
        <time>2017-03-04T11:36:18Z</time>
      </trkpt>
      <trkpt lat="42.92716" lon="0.2552">
        <ele>1520</ele>
        <time>2017-03-04T11:36:19Z</time>
      </trkpt>
      <trkpt lat="42.92715" lon="0.25521">
        <ele>1520</ele>
        <time>2017-03-04T11:36:19Z</time>
      </trkpt>
      <trkpt lat="42.92714" lon="0.25521">
        <ele>1520</ele>
        <time>2017-03-04T11:36:19Z</time>
      </trkpt>
      <trkpt lat="42.92711" lon="0.2552">
        <ele>1520</ele>
        <time>2017-03-04T11:36:42Z</time>
      </trkpt>
      <trkpt lat="42.92708" lon="0.25518">
        <ele>1520</ele>
        <time>2017-03-04T11:36:42Z</time>
      </trkpt>
      <trkpt lat="42.92707" lon="0.25517">
        <ele>1572</ele>
        <time>2017-03-04T11:36:43Z</time>
      </trkpt>
      <trkpt lat="42.92706" lon="0.25516">
        <ele>1572</ele>
        <time>2017-03-04T11:36:43Z</time>
      </trkpt>
      <trkpt lat="42.92705" lon="0.25515">
        <ele>1572</ele>
        <time>2017-03-04T11:36:43Z</time>
      </trkpt>
      <trkpt lat="42.92701" lon="0.25515">
        <ele>1572</ele>
        <time>2017-03-04T11:37:06Z</time>
      </trkpt>
      <trkpt lat="42.92699" lon="0.25515">
        <ele>1572</ele>
        <time>2017-03-04T11:37:06Z</time>
      </trkpt>
      <trkpt lat="42.92696" lon="0.25515">
        <ele>1572</ele>
        <time>2017-03-04T11:37:07Z</time>
      </trkpt>
      <trkpt lat="42.92695" lon="0.25513">
        <ele>1572</ele>
        <time>2017-03-04T11:37:07Z</time>
      </trkpt>
      <trkpt lat="42.92693" lon="0.25511">
        <ele>1572</ele>
        <time>2017-03-04T11:37:07Z</time>
      </trkpt>
      <trkpt lat="42.92689" lon="0.25504">
        <ele>1572</ele>
        <time>2017-03-04T11:37:30Z</time>
      </trkpt>
      <trkpt lat="42.92689" lon="0.25502">
        <ele>1572</ele>
        <time>2017-03-04T11:37:31Z</time>
      </trkpt>
      <trkpt lat="42.92688" lon="0.25499">
        <ele>1572</ele>
        <time>2017-03-04T11:37:31Z</time>
      </trkpt>
      <trkpt lat="42.92687" lon="0.25497">
        <ele>1572</ele>
        <time>2017-03-04T11:37:31Z</time>
      </trkpt>
      <trkpt lat="42.92685" lon="0.25495">
        <ele>1572</ele>
        <time>2017-03-04T11:37:31Z</time>
      </trkpt>
      <trkpt lat="42.92682" lon="0.25489">
        <ele>1572</ele>
        <time>2017-03-04T11:38:06Z</time>
      </trkpt>
      <trkpt lat="42.92681" lon="0.25487">
        <ele>1572</ele>
        <time>2017-03-04T11:38:06Z</time>
      </trkpt>
      <trkpt lat="42.92682" lon="0.25486">
        <ele>1572</ele>
        <time>2017-03-04T11:38:07Z</time>
      </trkpt>
      <trkpt lat="42.92681" lon="0.25483">
        <ele>1572</ele>
        <time>2017-03-04T11:38:07Z</time>
      </trkpt>
      <trkpt lat="42.9268" lon="0.25479">
        <ele>1572</ele>
        <time>2017-03-04T11:38:07Z</time>
      </trkpt>
      <trkpt lat="42.92675" lon="0.25477">
        <ele>1572</ele>
        <time>2017-03-04T11:38:58Z</time>
      </trkpt>
      <trkpt lat="42.92675" lon="0.25476">
        <ele>1572</ele>
        <time>2017-03-04T11:38:58Z</time>
      </trkpt>
      <trkpt lat="42.92674" lon="0.25474">
        <ele>1572</ele>
        <time>2017-03-04T11:38:59Z</time>
      </trkpt>
      <trkpt lat="42.92673" lon="0.25472">
        <ele>1572</ele>
        <time>2017-03-04T11:38:59Z</time>
      </trkpt>
      <trkpt lat="42.92671" lon="0.2547">
        <ele>1572</ele>
        <time>2017-03-04T11:38:59Z</time>
      </trkpt>
      <trkpt lat="42.92666" lon="0.25462">
        <ele>1572</ele>
        <time>2017-03-04T11:39:30Z</time>
      </trkpt>
      <trkpt lat="42.92665" lon="0.25462">
        <ele>1572</ele>
        <time>2017-03-04T11:39:30Z</time>
      </trkpt>
      <trkpt lat="42.92666" lon="0.2546">
        <ele>1572</ele>
        <time>2017-03-04T11:39:31Z</time>
      </trkpt>
      <trkpt lat="42.92665" lon="0.25459">
        <ele>1572</ele>
        <time>2017-03-04T11:39:31Z</time>
      </trkpt>
      <trkpt lat="42.92663" lon="0.25457">
        <ele>1556</ele>
        <time>2017-03-04T11:39:31Z</time>
      </trkpt>
      <trkpt lat="42.92658" lon="0.25452">
        <ele>1556</ele>
        <time>2017-03-04T11:39:58Z</time>
      </trkpt>
      <trkpt lat="42.92657" lon="0.2545">
        <ele>1556</ele>
        <time>2017-03-04T11:39:58Z</time>
      </trkpt>
      <trkpt lat="42.92655" lon="0.25448">
        <ele>1556</ele>
        <time>2017-03-04T11:39:59Z</time>
      </trkpt>
      <trkpt lat="42.92655" lon="0.25448">
        <ele>1556</ele>
        <time>2017-03-04T11:39:59Z</time>
      </trkpt>
      <trkpt lat="42.92655" lon="0.25447">
        <ele>1556</ele>
        <time>2017-03-04T11:39:59Z</time>
      </trkpt>
      <trkpt lat="42.92653" lon="0.25453">
        <ele>1556</ele>
        <time>2017-03-04T11:46:54Z</time>
      </trkpt>
      <trkpt lat="42.92652" lon="0.25453">
        <ele>1556</ele>
        <time>2017-03-04T11:46:54Z</time>
      </trkpt>
      <trkpt lat="42.92651" lon="0.25454">
        <ele>1556</ele>
        <time>2017-03-04T11:46:55Z</time>
      </trkpt>
      <trkpt lat="42.9265" lon="0.25456">
        <ele>1556</ele>
        <time>2017-03-04T11:46:55Z</time>
      </trkpt>
      <trkpt lat="42.92648" lon="0.25459">
        <ele>1572</ele>
        <time>2017-03-04T11:46:55Z</time>
      </trkpt>
      <trkpt lat="42.92643" lon="0.25462">
        <ele>1572</ele>
        <time>2017-03-04T11:47:22Z</time>
      </trkpt>
      <trkpt lat="42.92642" lon="0.25464">
        <ele>1572</ele>
        <time>2017-03-04T11:47:22Z</time>
      </trkpt>
      <trkpt lat="42.92641" lon="0.25465">
        <ele>1572</ele>
        <time>2017-03-04T11:47:23Z</time>
      </trkpt>
      <trkpt lat="42.92639" lon="0.25466">
        <ele>1572</ele>
        <time>2017-03-04T11:47:23Z</time>
      </trkpt>
      <trkpt lat="42.92637" lon="0.25467">
        <ele>1572</ele>
        <time>2017-03-04T11:47:23Z</time>
      </trkpt>
      <trkpt lat="42.92633" lon="0.25465">
        <ele>1572</ele>
        <time>2017-03-04T11:47:54Z</time>
      </trkpt>
      <trkpt lat="42.92631" lon="0.25464">
        <ele>1572</ele>
        <time>2017-03-04T11:47:54Z</time>
      </trkpt>
      <trkpt lat="42.92629" lon="0.25463">
        <ele>1572</ele>
        <time>2017-03-04T11:47:55Z</time>
      </trkpt>
      <trkpt lat="42.92627" lon="0.25462">
        <ele>1572</ele>
        <time>2017-03-04T11:47:55Z</time>
      </trkpt>
      <trkpt lat="42.92626" lon="0.25461">
        <ele>1572</ele>
        <time>2017-03-04T11:47:55Z</time>
      </trkpt>
      <trkpt lat="42.92624" lon="0.25459">
        <ele>1604</ele>
        <time>2017-03-04T11:48:18Z</time>
      </trkpt>
      <trkpt lat="42.92621" lon="0.25459">
        <ele>1604</ele>
        <time>2017-03-04T11:48:18Z</time>
      </trkpt>
      <trkpt lat="42.92619" lon="0.25459">
        <ele>1604</ele>
        <time>2017-03-04T11:48:19Z</time>
      </trkpt>
      <trkpt lat="42.92617" lon="0.25459">
        <ele>1604</ele>
        <time>2017-03-04T11:48:19Z</time>
      </trkpt>
      <trkpt lat="42.92613" lon="0.2546">
        <ele>1604</ele>
        <time>2017-03-04T11:48:19Z</time>
      </trkpt>
      <trkpt lat="42.92611" lon="0.25458">
        <ele>1594</ele>
        <time>2017-03-04T11:48:46Z</time>
      </trkpt>
      <trkpt lat="42.9261" lon="0.25457">
        <ele>1594</ele>
        <time>2017-03-04T11:48:46Z</time>
      </trkpt>
      <trkpt lat="42.92607" lon="0.25457">
        <ele>1594</ele>
        <time>2017-03-04T11:48:47Z</time>
      </trkpt>
      <trkpt lat="42.92604" lon="0.25458">
        <ele>1594</ele>
        <time>2017-03-04T11:48:47Z</time>
      </trkpt>
      <trkpt lat="42.92602" lon="0.25458">
        <ele>1594</ele>
        <time>2017-03-04T11:48:47Z</time>
      </trkpt>
      <trkpt lat="42.92599" lon="0.25457">
        <ele>1594</ele>
        <time>2017-03-04T11:49:10Z</time>
      </trkpt>
      <trkpt lat="42.92597" lon="0.25457">
        <ele>1594</ele>
        <time>2017-03-04T11:49:10Z</time>
      </trkpt>
      <trkpt lat="42.92595" lon="0.25457">
        <ele>1594</ele>
        <time>2017-03-04T11:49:11Z</time>
      </trkpt>
      <trkpt lat="42.92593" lon="0.25458">
        <ele>1594</ele>
        <time>2017-03-04T11:49:11Z</time>
      </trkpt>
      <trkpt lat="42.92592" lon="0.25458">
        <ele>1594</ele>
        <time>2017-03-04T11:49:11Z</time>
      </trkpt>
      <trkpt lat="42.92589" lon="0.25458">
        <ele>1594</ele>
        <time>2017-03-04T11:49:34Z</time>
      </trkpt>
      <trkpt lat="42.92587" lon="0.25458">
        <ele>1594</ele>
        <time>2017-03-04T11:49:35Z</time>
      </trkpt>
      <trkpt lat="42.92585" lon="0.25457">
        <ele>1594</ele>
        <time>2017-03-04T11:49:35Z</time>
      </trkpt>
      <trkpt lat="42.92582" lon="0.25457">
        <ele>1594</ele>
        <time>2017-03-04T11:49:35Z</time>
      </trkpt>
      <trkpt lat="42.92581" lon="0.25456">
        <ele>1594</ele>
        <time>2017-03-04T11:49:35Z</time>
      </trkpt>
      <trkpt lat="42.92575" lon="0.25456">
        <ele>1594</ele>
        <time>2017-03-04T11:49:58Z</time>
      </trkpt>
      <trkpt lat="42.92574" lon="0.25457">
        <ele>1594</ele>
        <time>2017-03-04T11:49:58Z</time>
      </trkpt>
      <trkpt lat="42.92573" lon="0.25458">
        <ele>1594</ele>
        <time>2017-03-04T11:49:59Z</time>
      </trkpt>
      <trkpt lat="42.9257" lon="0.25458">
        <ele>1594</ele>
        <time>2017-03-04T11:49:59Z</time>
      </trkpt>
      <trkpt lat="42.92567" lon="0.25458">
        <ele>1594</ele>
        <time>2017-03-04T11:49:59Z</time>
      </trkpt>
      <trkpt lat="42.92561" lon="0.25459">
        <ele>1604</ele>
        <time>2017-03-04T11:50:26Z</time>
      </trkpt>
      <trkpt lat="42.92559" lon="0.25461">
        <ele>1604</ele>
        <time>2017-03-04T11:50:26Z</time>
      </trkpt>
      <trkpt lat="42.92557" lon="0.25461">
        <ele>1604</ele>
        <time>2017-03-04T11:50:27Z</time>
      </trkpt>
      <trkpt lat="42.92557" lon="0.2546">
        <ele>1604</ele>
        <time>2017-03-04T11:50:27Z</time>
      </trkpt>
      <trkpt lat="42.92556" lon="0.2546">
        <ele>1604</ele>
        <time>2017-03-04T11:50:27Z</time>
      </trkpt>
      <trkpt lat="42.92553" lon="0.2546">
        <ele>1604</ele>
        <time>2017-03-04T11:50:50Z</time>
      </trkpt>
      <trkpt lat="42.92551" lon="0.25458">
        <ele>1594</ele>
        <time>2017-03-04T11:50:50Z</time>
      </trkpt>
      <trkpt lat="42.92549" lon="0.25457">
        <ele>1594</ele>
        <time>2017-03-04T11:50:51Z</time>
      </trkpt>
      <trkpt lat="42.92547" lon="0.25456">
        <ele>1594</ele>
        <time>2017-03-04T11:50:51Z</time>
      </trkpt>
      <trkpt lat="42.92546" lon="0.25455">
        <ele>1594</ele>
        <time>2017-03-04T11:50:51Z</time>
      </trkpt>
      <trkpt lat="42.92542" lon="0.25453">
        <ele>1594</ele>
        <time>2017-03-04T11:51:22Z</time>
      </trkpt>
      <trkpt lat="42.92541" lon="0.25453">
        <ele>1607</ele>
        <time>2017-03-04T11:51:22Z</time>
      </trkpt>
      <trkpt lat="42.92539" lon="0.25452">
        <ele>1607</ele>
        <time>2017-03-04T11:51:23Z</time>
      </trkpt>
      <trkpt lat="42.92536" lon="0.25452">
        <ele>1607</ele>
        <time>2017-03-04T11:51:23Z</time>
      </trkpt>
      <trkpt lat="42.92534" lon="0.25451">
        <ele>1607</ele>
        <time>2017-03-04T11:51:23Z</time>
      </trkpt>
      <trkpt lat="42.92531" lon="0.25452">
        <ele>1607</ele>
        <time>2017-03-04T11:51:42Z</time>
      </trkpt>
      <trkpt lat="42.92529" lon="0.25452">
        <ele>1607</ele>
        <time>2017-03-04T11:51:42Z</time>
      </trkpt>
      <trkpt lat="42.92526" lon="0.25455">
        <ele>1607</ele>
        <time>2017-03-04T11:51:43Z</time>
      </trkpt>
      <trkpt lat="42.92525" lon="0.25458">
        <ele>1607</ele>
        <time>2017-03-04T11:51:43Z</time>
      </trkpt>
      <trkpt lat="42.92524" lon="0.2546">
        <ele>1619</ele>
        <time>2017-03-04T11:51:43Z</time>
      </trkpt>
      <trkpt lat="42.92522" lon="0.25463">
        <ele>1619</ele>
        <time>2017-03-04T11:52:06Z</time>
      </trkpt>
      <trkpt lat="42.92522" lon="0.25465">
        <ele>1619</ele>
        <time>2017-03-04T11:52:06Z</time>
      </trkpt>
      <trkpt lat="42.92519" lon="0.25466">
        <ele>1619</ele>
        <time>2017-03-04T11:52:07Z</time>
      </trkpt>
      <trkpt lat="42.92518" lon="0.25469">
        <ele>1619</ele>
        <time>2017-03-04T11:52:07Z</time>
      </trkpt>
      <trkpt lat="42.92517" lon="0.25473">
        <ele>1619</ele>
        <time>2017-03-04T11:52:07Z</time>
      </trkpt>
      <trkpt lat="42.92514" lon="0.25477">
        <ele>1619</ele>
        <time>2017-03-04T11:52:30Z</time>
      </trkpt>
      <trkpt lat="42.92511" lon="0.25479">
        <ele>1619</ele>
        <time>2017-03-04T11:52:30Z</time>
      </trkpt>
      <trkpt lat="42.92511" lon="0.25482">
        <ele>1619</ele>
        <time>2017-03-04T11:52:31Z</time>
      </trkpt>
      <trkpt lat="42.9251" lon="0.25483">
        <ele>1619</ele>
        <time>2017-03-04T11:52:31Z</time>
      </trkpt>
      <trkpt lat="42.92508" lon="0.25484">
        <ele>1619</ele>
        <time>2017-03-04T11:52:31Z</time>
      </trkpt>
      <trkpt lat="42.92505" lon="0.25486">
        <ele>1619</ele>
        <time>2017-03-04T11:52:54Z</time>
      </trkpt>
      <trkpt lat="42.92502" lon="0.25486">
        <ele>1619</ele>
        <time>2017-03-04T11:52:54Z</time>
      </trkpt>
      <trkpt lat="42.92501" lon="0.25487">
        <ele>1619</ele>
        <time>2017-03-04T11:52:55Z</time>
      </trkpt>
      <trkpt lat="42.92498" lon="0.25489">
        <ele>1619</ele>
        <time>2017-03-04T11:52:55Z</time>
      </trkpt>
      <trkpt lat="42.92496" lon="0.25492">
        <ele>1619</ele>
        <time>2017-03-04T11:52:55Z</time>
      </trkpt>
      <trkpt lat="42.92494" lon="0.25496">
        <ele>1619</ele>
        <time>2017-03-04T11:53:18Z</time>
      </trkpt>
      <trkpt lat="42.92492" lon="0.25498">
        <ele>1619</ele>
        <time>2017-03-04T11:53:18Z</time>
      </trkpt>
      <trkpt lat="42.92489" lon="0.255">
        <ele>1619</ele>
        <time>2017-03-04T11:53:19Z</time>
      </trkpt>
      <trkpt lat="42.92488" lon="0.25501">
        <ele>1619</ele>
        <time>2017-03-04T11:53:19Z</time>
      </trkpt>
      <trkpt lat="42.92487" lon="0.25503">
        <ele>1619</ele>
        <time>2017-03-04T11:53:19Z</time>
      </trkpt>
      <trkpt lat="42.92486" lon="0.25504">
        <ele>1619</ele>
        <time>2017-03-04T11:53:38Z</time>
      </trkpt>
      <trkpt lat="42.92483" lon="0.25506">
        <ele>1619</ele>
        <time>2017-03-04T11:53:38Z</time>
      </trkpt>
      <trkpt lat="42.92481" lon="0.25506">
        <ele>1619</ele>
        <time>2017-03-04T11:53:39Z</time>
      </trkpt>
      <trkpt lat="42.92479" lon="0.25507">
        <ele>1619</ele>
        <time>2017-03-04T11:53:39Z</time>
      </trkpt>
      <trkpt lat="42.92477" lon="0.25507">
        <ele>1619</ele>
        <time>2017-03-04T11:53:39Z</time>
      </trkpt>
      <trkpt lat="42.92473" lon="0.2551">
        <ele>1619</ele>
        <time>2017-03-04T11:54:06Z</time>
      </trkpt>
      <trkpt lat="42.92472" lon="0.2551">
        <ele>1619</ele>
        <time>2017-03-04T11:54:06Z</time>
      </trkpt>
      <trkpt lat="42.92471" lon="0.2551">
        <ele>1619</ele>
        <time>2017-03-04T11:54:07Z</time>
      </trkpt>
      <trkpt lat="42.92469" lon="0.25511">
        <ele>1619</ele>
        <time>2017-03-04T11:54:07Z</time>
      </trkpt>
      <trkpt lat="42.92466" lon="0.25512">
        <ele>1619</ele>
        <time>2017-03-04T11:54:07Z</time>
      </trkpt>
      <trkpt lat="42.92461" lon="0.25517">
        <ele>1619</ele>
        <time>2017-03-04T11:54:34Z</time>
      </trkpt>
      <trkpt lat="42.92459" lon="0.2552">
        <ele>1619</ele>
        <time>2017-03-04T11:54:34Z</time>
      </trkpt>
      <trkpt lat="42.92459" lon="0.25522">
        <ele>1619</ele>
        <time>2017-03-04T11:54:35Z</time>
      </trkpt>
      <trkpt lat="42.92457" lon="0.25523">
        <ele>1632</ele>
        <time>2017-03-04T11:54:35Z</time>
      </trkpt>
      <trkpt lat="42.92456" lon="0.25524">
        <ele>1632</ele>
        <time>2017-03-04T11:54:35Z</time>
      </trkpt>
      <trkpt lat="42.92454" lon="0.25529">
        <ele>1632</ele>
        <time>2017-03-04T11:55:18Z</time>
      </trkpt>
      <trkpt lat="42.92452" lon="0.25531">
        <ele>1632</ele>
        <time>2017-03-04T11:55:18Z</time>
      </trkpt>
      <trkpt lat="42.92451" lon="0.25532">
        <ele>1632</ele>
        <time>2017-03-04T11:55:19Z</time>
      </trkpt>
      <trkpt lat="42.92449" lon="0.25532">
        <ele>1632</ele>
        <time>2017-03-04T11:55:19Z</time>
      </trkpt>
      <trkpt lat="42.92447" lon="0.25532">
        <ele>1632</ele>
        <time>2017-03-04T11:55:19Z</time>
      </trkpt>
      <trkpt lat="42.92443" lon="0.25534">
        <ele>1632</ele>
        <time>2017-03-04T11:55:46Z</time>
      </trkpt>
      <trkpt lat="42.92441" lon="0.25533">
        <ele>1632</ele>
        <time>2017-03-04T11:55:47Z</time>
      </trkpt>
      <trkpt lat="42.92439" lon="0.25534">
        <ele>1632</ele>
        <time>2017-03-04T11:55:47Z</time>
      </trkpt>
      <trkpt lat="42.92439" lon="0.25534">
        <ele>1632</ele>
        <time>2017-03-04T11:55:47Z</time>
      </trkpt>
      <trkpt lat="42.92436" lon="0.25535">
        <ele>1632</ele>
        <time>2017-03-04T11:55:47Z</time>
      </trkpt>
      <trkpt lat="42.9243" lon="0.25543">
        <ele>1644</ele>
        <time>2017-03-04T11:56:42Z</time>
      </trkpt>
      <trkpt lat="42.92428" lon="0.25545">
        <ele>1644</ele>
        <time>2017-03-04T11:56:42Z</time>
      </trkpt>
      <trkpt lat="42.92425" lon="0.25547">
        <ele>1644</ele>
        <time>2017-03-04T11:56:43Z</time>
      </trkpt>
      <trkpt lat="42.92422" lon="0.25548">
        <ele>1644</ele>
        <time>2017-03-04T11:56:43Z</time>
      </trkpt>
      <trkpt lat="42.92417" lon="0.25549">
        <ele>1644</ele>
        <time>2017-03-04T11:56:43Z</time>
      </trkpt>
      <trkpt lat="42.92414" lon="0.25552">
        <ele>1644</ele>
        <time>2017-03-04T11:57:06Z</time>
      </trkpt>
      <trkpt lat="42.92413" lon="0.25553">
        <ele>1644</ele>
        <time>2017-03-04T11:57:06Z</time>
      </trkpt>
      <trkpt lat="42.92412" lon="0.25553">
        <ele>1644</ele>
        <time>2017-03-04T11:57:07Z</time>
      </trkpt>
      <trkpt lat="42.92409" lon="0.25555">
        <ele>1644</ele>
        <time>2017-03-04T11:57:07Z</time>
      </trkpt>
      <trkpt lat="42.92407" lon="0.25558">
        <ele>1644</ele>
        <time>2017-03-04T11:57:07Z</time>
      </trkpt>
      <trkpt lat="42.92403" lon="0.25561">
        <ele>1644</ele>
        <time>2017-03-04T11:57:30Z</time>
      </trkpt>
      <trkpt lat="42.92401" lon="0.25562">
        <ele>1644</ele>
        <time>2017-03-04T11:57:30Z</time>
      </trkpt>
      <trkpt lat="42.92399" lon="0.25563">
        <ele>1644</ele>
        <time>2017-03-04T11:57:31Z</time>
      </trkpt>
      <trkpt lat="42.92398" lon="0.25564">
        <ele>1644</ele>
        <time>2017-03-04T11:57:31Z</time>
      </trkpt>
      <trkpt lat="42.92395" lon="0.25566">
        <ele>1644</ele>
        <time>2017-03-04T11:57:31Z</time>
      </trkpt>
      <trkpt lat="42.92389" lon="0.25568">
        <ele>1644</ele>
        <time>2017-03-04T11:58:02Z</time>
      </trkpt>
      <trkpt lat="42.92388" lon="0.25569">
        <ele>1644</ele>
        <time>2017-03-04T11:58:02Z</time>
      </trkpt>
      <trkpt lat="42.92386" lon="0.2557">
        <ele>1644</ele>
        <time>2017-03-04T11:58:03Z</time>
      </trkpt>
      <trkpt lat="42.92386" lon="0.25571">
        <ele>1644</ele>
        <time>2017-03-04T11:58:03Z</time>
      </trkpt>
      <trkpt lat="42.92384" lon="0.25572">
        <ele>1644</ele>
        <time>2017-03-04T11:58:03Z</time>
      </trkpt>
      <trkpt lat="42.92381" lon="0.25574">
        <ele>1644</ele>
        <time>2017-03-04T11:58:26Z</time>
      </trkpt>
      <trkpt lat="42.92379" lon="0.25576">
        <ele>1644</ele>
        <time>2017-03-04T11:58:26Z</time>
      </trkpt>
      <trkpt lat="42.92375" lon="0.25577">
        <ele>1660</ele>
        <time>2017-03-04T11:58:27Z</time>
      </trkpt>
      <trkpt lat="42.92375" lon="0.25579">
        <ele>1660</ele>
        <time>2017-03-04T11:58:27Z</time>
      </trkpt>
      <trkpt lat="42.92374" lon="0.2558">
        <ele>1660</ele>
        <time>2017-03-04T11:58:27Z</time>
      </trkpt>
      <trkpt lat="42.92372" lon="0.25581">
        <ele>1660</ele>
        <time>2017-03-04T11:58:50Z</time>
      </trkpt>
      <trkpt lat="42.9237" lon="0.25581">
        <ele>1660</ele>
        <time>2017-03-04T11:58:50Z</time>
      </trkpt>
      <trkpt lat="42.92368" lon="0.25582">
        <ele>1660</ele>
        <time>2017-03-04T11:58:51Z</time>
      </trkpt>
      <trkpt lat="42.92366" lon="0.25583">
        <ele>1660</ele>
        <time>2017-03-04T11:58:51Z</time>
      </trkpt>
      <trkpt lat="42.92364" lon="0.25583">
        <ele>1660</ele>
        <time>2017-03-04T11:58:51Z</time>
      </trkpt>
      <trkpt lat="42.92362" lon="0.25586">
        <ele>1660</ele>
        <time>2017-03-04T11:59:14Z</time>
      </trkpt>
      <trkpt lat="42.92359" lon="0.25587">
        <ele>1660</ele>
        <time>2017-03-04T11:59:14Z</time>
      </trkpt>
      <trkpt lat="42.92357" lon="0.25589">
        <ele>1660</ele>
        <time>2017-03-04T11:59:15Z</time>
      </trkpt>
      <trkpt lat="42.92356" lon="0.25589">
        <ele>1660</ele>
        <time>2017-03-04T11:59:15Z</time>
      </trkpt>
      <trkpt lat="42.92355" lon="0.25592">
        <ele>1660</ele>
        <time>2017-03-04T11:59:15Z</time>
      </trkpt>
      <trkpt lat="42.9235" lon="0.25596">
        <ele>1660</ele>
        <time>2017-03-04T11:59:42Z</time>
      </trkpt>
      <trkpt lat="42.9235" lon="0.25598">
        <ele>1660</ele>
        <time>2017-03-04T11:59:42Z</time>
      </trkpt>
      <trkpt lat="42.92348" lon="0.256">
        <ele>1660</ele>
        <time>2017-03-04T11:59:43Z</time>
      </trkpt>
      <trkpt lat="42.92347" lon="0.25601">
        <ele>1660</ele>
        <time>2017-03-04T11:59:43Z</time>
      </trkpt>
      <trkpt lat="42.92346" lon="0.25601">
        <ele>1660</ele>
        <time>2017-03-04T11:59:43Z</time>
      </trkpt>
      <trkpt lat="42.92343" lon="0.25597">
        <ele>1660</ele>
        <time>2017-03-04T12:01:14Z</time>
      </trkpt>
      <trkpt lat="42.9234" lon="0.25604">
        <ele>1660</ele>
        <time>2017-03-04T12:01:14Z</time>
      </trkpt>
      <trkpt lat="42.92337" lon="0.25615">
        <ele>1660</ele>
        <time>2017-03-04T12:01:15Z</time>
      </trkpt>
      <trkpt lat="42.92336" lon="0.25619">
        <ele>1660</ele>
        <time>2017-03-04T12:01:15Z</time>
      </trkpt>
      <trkpt lat="42.92335" lon="0.25622">
        <ele>1660</ele>
        <time>2017-03-04T12:01:15Z</time>
      </trkpt>
      <trkpt lat="42.9233" lon="0.25622">
        <ele>1660</ele>
        <time>2017-03-04T12:03:46Z</time>
      </trkpt>
      <trkpt lat="42.92329" lon="0.25622">
        <ele>1660</ele>
        <time>2017-03-04T12:03:46Z</time>
      </trkpt>
      <trkpt lat="42.92328" lon="0.25623">
        <ele>1660</ele>
        <time>2017-03-04T12:03:47Z</time>
      </trkpt>
      <trkpt lat="42.92327" lon="0.25625">
        <ele>1660</ele>
        <time>2017-03-04T12:03:47Z</time>
      </trkpt>
      <trkpt lat="42.92326" lon="0.25627">
        <ele>1674</ele>
        <time>2017-03-04T12:03:47Z</time>
      </trkpt>
      <trkpt lat="42.92325" lon="0.25627">
        <ele>1674</ele>
        <time>2017-03-04T12:04:06Z</time>
      </trkpt>
      <trkpt lat="42.92324" lon="0.25628">
        <ele>1674</ele>
        <time>2017-03-04T12:04:06Z</time>
      </trkpt>
      <trkpt lat="42.92323" lon="0.25631">
        <ele>1674</ele>
        <time>2017-03-04T12:04:07Z</time>
      </trkpt>
      <trkpt lat="42.92321" lon="0.25635">
        <ele>1674</ele>
        <time>2017-03-04T12:04:07Z</time>
      </trkpt>
      <trkpt lat="42.92319" lon="0.25637">
        <ele>1674</ele>
        <time>2017-03-04T12:04:07Z</time>
      </trkpt>
      <trkpt lat="42.92312" lon="0.25631">
        <ele>1674</ele>
        <time>2017-03-04T12:04:58Z</time>
      </trkpt>
      <trkpt lat="42.92312" lon="0.2563">
        <ele>1674</ele>
        <time>2017-03-04T12:04:58Z</time>
      </trkpt>
      <trkpt lat="42.9231" lon="0.25634">
        <ele>1674</ele>
        <time>2017-03-04T12:04:59Z</time>
      </trkpt>
      <trkpt lat="42.92309" lon="0.25634">
        <ele>1674</ele>
        <time>2017-03-04T12:04:59Z</time>
      </trkpt>
      <trkpt lat="42.92308" lon="0.25634">
        <ele>1674</ele>
        <time>2017-03-04T12:04:59Z</time>
      </trkpt>
      <trkpt lat="42.92306" lon="0.2563">
        <ele>1674</ele>
        <time>2017-03-04T12:05:26Z</time>
      </trkpt>
      <trkpt lat="42.92304" lon="0.25628">
        <ele>1674</ele>
        <time>2017-03-04T12:05:26Z</time>
      </trkpt>
      <trkpt lat="42.92303" lon="0.25625">
        <ele>1660</ele>
        <time>2017-03-04T12:05:27Z</time>
      </trkpt>
      <trkpt lat="42.92303" lon="0.25624">
        <ele>1660</ele>
        <time>2017-03-04T12:05:27Z</time>
      </trkpt>
      <trkpt lat="42.92303" lon="0.25622">
        <ele>1660</ele>
        <time>2017-03-04T12:05:27Z</time>
      </trkpt>
      <trkpt lat="42.92298" lon="0.25618">
        <ele>1660</ele>
        <time>2017-03-04T12:06:54Z</time>
      </trkpt>
      <trkpt lat="42.92298" lon="0.25617">
        <ele>1660</ele>
        <time>2017-03-04T12:06:54Z</time>
      </trkpt>
      <trkpt lat="42.92296" lon="0.25616">
        <ele>1660</ele>
        <time>2017-03-04T12:06:55Z</time>
      </trkpt>
      <trkpt lat="42.92295" lon="0.25616">
        <ele>1660</ele>
        <time>2017-03-04T12:06:55Z</time>
      </trkpt>
      <trkpt lat="42.92292" lon="0.25616">
        <ele>1660</ele>
        <time>2017-03-04T12:06:55Z</time>
      </trkpt>
      <trkpt lat="42.92284" lon="0.25611">
        <ele>1665</ele>
        <time>2017-03-04T12:07:22Z</time>
      </trkpt>
      <trkpt lat="42.92282" lon="0.25613">
        <ele>1665</ele>
        <time>2017-03-04T12:07:22Z</time>
      </trkpt>
      <trkpt lat="42.92281" lon="0.25613">
        <ele>1665</ele>
        <time>2017-03-04T12:07:23Z</time>
      </trkpt>
      <trkpt lat="42.92279" lon="0.25614">
        <ele>1665</ele>
        <time>2017-03-04T12:07:23Z</time>
      </trkpt>
      <trkpt lat="42.92279" lon="0.25616">
        <ele>1665</ele>
        <time>2017-03-04T12:07:23Z</time>
      </trkpt>
      <trkpt lat="42.92278" lon="0.25617">
        <ele>1665</ele>
        <time>2017-03-04T12:07:42Z</time>
      </trkpt>
      <trkpt lat="42.92276" lon="0.25618">
        <ele>1665</ele>
        <time>2017-03-04T12:07:42Z</time>
      </trkpt>
      <trkpt lat="42.92273" lon="0.25621">
        <ele>1665</ele>
        <time>2017-03-04T12:07:43Z</time>
      </trkpt>
      <trkpt lat="42.92271" lon="0.25623">
        <ele>1665</ele>
        <time>2017-03-04T12:07:43Z</time>
      </trkpt>
      <trkpt lat="42.92268" lon="0.25624">
        <ele>1665</ele>
        <time>2017-03-04T12:07:43Z</time>
      </trkpt>
      <trkpt lat="42.92267" lon="0.25624">
        <ele>1665</ele>
        <time>2017-03-04T12:08:02Z</time>
      </trkpt>
      <trkpt lat="42.92266" lon="0.25626">
        <ele>1697</ele>
        <time>2017-03-04T12:08:02Z</time>
      </trkpt>
      <trkpt lat="42.92264" lon="0.2563">
        <ele>1697</ele>
        <time>2017-03-04T12:08:03Z</time>
      </trkpt>
      <trkpt lat="42.92262" lon="0.25632">
        <ele>1697</ele>
        <time>2017-03-04T12:08:03Z</time>
      </trkpt>
      <trkpt lat="42.9226" lon="0.25634">
        <ele>1697</ele>
        <time>2017-03-04T12:08:03Z</time>
      </trkpt>
      <trkpt lat="42.92259" lon="0.25637">
        <ele>1697</ele>
        <time>2017-03-04T12:08:18Z</time>
      </trkpt>
      <trkpt lat="42.92256" lon="0.25641">
        <ele>1697</ele>
        <time>2017-03-04T12:08:19Z</time>
      </trkpt>
      <trkpt lat="42.92254" lon="0.25644">
        <ele>1697</ele>
        <time>2017-03-04T12:08:19Z</time>
      </trkpt>
      <trkpt lat="42.92251" lon="0.25649">
        <ele>1697</ele>
        <time>2017-03-04T12:08:19Z</time>
      </trkpt>
      <trkpt lat="42.92248" lon="0.25653">
        <ele>1697</ele>
        <time>2017-03-04T12:08:42Z</time>
      </trkpt>
      <trkpt lat="42.92246" lon="0.25653">
        <ele>1697</ele>
        <time>2017-03-04T12:08:42Z</time>
      </trkpt>
      <trkpt lat="42.92245" lon="0.25652">
        <ele>1697</ele>
        <time>2017-03-04T12:08:43Z</time>
      </trkpt>
      <trkpt lat="42.92242" lon="0.25651">
        <ele>1697</ele>
        <time>2017-03-04T12:08:43Z</time>
      </trkpt>
      <trkpt lat="42.92238" lon="0.25652">
        <ele>1697</ele>
        <time>2017-03-04T12:08:43Z</time>
      </trkpt>
      <trkpt lat="42.92232" lon="0.25656">
        <ele>1697</ele>
        <time>2017-03-04T12:09:26Z</time>
      </trkpt>
      <trkpt lat="42.92231" lon="0.25657">
        <ele>1697</ele>
        <time>2017-03-04T12:09:26Z</time>
      </trkpt>
      <trkpt lat="42.92231" lon="0.25657">
        <ele>1697</ele>
        <time>2017-03-04T12:09:27Z</time>
      </trkpt>
      <trkpt lat="42.92228" lon="0.25657">
        <ele>1697</ele>
        <time>2017-03-04T12:09:27Z</time>
      </trkpt>
      <trkpt lat="42.92227" lon="0.25658">
        <ele>1697</ele>
        <time>2017-03-04T12:09:27Z</time>
      </trkpt>
      <trkpt lat="42.92223" lon="0.25661">
        <ele>1697</ele>
        <time>2017-03-04T12:09:54Z</time>
      </trkpt>
      <trkpt lat="42.92221" lon="0.25661">
        <ele>1697</ele>
        <time>2017-03-04T12:09:54Z</time>
      </trkpt>
      <trkpt lat="42.9222" lon="0.25662">
        <ele>1697</ele>
        <time>2017-03-04T12:09:55Z</time>
      </trkpt>
      <trkpt lat="42.92217" lon="0.25663">
        <ele>1697</ele>
        <time>2017-03-04T12:09:55Z</time>
      </trkpt>
      <trkpt lat="42.92216" lon="0.25666">
        <ele>1697</ele>
        <time>2017-03-04T12:09:55Z</time>
      </trkpt>
      <trkpt lat="42.92213" lon="0.25673">
        <ele>1697</ele>
        <time>2017-03-04T12:10:22Z</time>
      </trkpt>
      <trkpt lat="42.92213" lon="0.25674">
        <ele>1697</ele>
        <time>2017-03-04T12:10:22Z</time>
      </trkpt>
      <trkpt lat="42.92212" lon="0.25676">
        <ele>1697</ele>
        <time>2017-03-04T12:10:23Z</time>
      </trkpt>
      <trkpt lat="42.92211" lon="0.25679">
        <ele>1697</ele>
        <time>2017-03-04T12:10:23Z</time>
      </trkpt>
      <trkpt lat="42.92209" lon="0.25681">
        <ele>1697</ele>
        <time>2017-03-04T12:10:23Z</time>
      </trkpt>
      <trkpt lat="42.92207" lon="0.25687">
        <ele>1703</ele>
        <time>2017-03-04T12:10:54Z</time>
      </trkpt>
      <trkpt lat="42.92206" lon="0.25688">
        <ele>1703</ele>
        <time>2017-03-04T12:10:54Z</time>
      </trkpt>
      <trkpt lat="42.92205" lon="0.25691">
        <ele>1703</ele>
        <time>2017-03-04T12:10:55Z</time>
      </trkpt>
      <trkpt lat="42.92204" lon="0.25693">
        <ele>1703</ele>
        <time>2017-03-04T12:10:55Z</time>
      </trkpt>
      <trkpt lat="42.92203" lon="0.25694">
        <ele>1703</ele>
        <time>2017-03-04T12:10:55Z</time>
      </trkpt>
      <trkpt lat="42.92196" lon="0.25698">
        <ele>1703</ele>
        <time>2017-03-04T12:11:38Z</time>
      </trkpt>
      <trkpt lat="42.92195" lon="0.25701">
        <ele>1703</ele>
        <time>2017-03-04T12:11:38Z</time>
      </trkpt>
      <trkpt lat="42.92194" lon="0.25704">
        <ele>1703</ele>
        <time>2017-03-04T12:11:39Z</time>
      </trkpt>
      <trkpt lat="42.92194" lon="0.25706">
        <ele>1703</ele>
        <time>2017-03-04T12:11:39Z</time>
      </trkpt>
      <trkpt lat="42.92193" lon="0.25707">
        <ele>1703</ele>
        <time>2017-03-04T12:11:39Z</time>
      </trkpt>
      <trkpt lat="42.92188" lon="0.25711">
        <ele>1733</ele>
        <time>2017-03-04T12:12:54Z</time>
      </trkpt>
      <trkpt lat="42.92187" lon="0.25711">
        <ele>1733</ele>
        <time>2017-03-04T12:12:54Z</time>
      </trkpt>
      <trkpt lat="42.92185" lon="0.25711">
        <ele>1733</ele>
        <time>2017-03-04T12:12:55Z</time>
      </trkpt>
      <trkpt lat="42.92184" lon="0.25712">
        <ele>1733</ele>
        <time>2017-03-04T12:12:55Z</time>
      </trkpt>
      <trkpt lat="42.92179" lon="0.25717">
        <ele>1733</ele>
        <time>2017-03-04T12:12:55Z</time>
      </trkpt>
      <trkpt lat="42.92173" lon="0.25727">
        <ele>1733</ele>
        <time>2017-03-04T12:13:34Z</time>
      </trkpt>
      <trkpt lat="42.92173" lon="0.25727">
        <ele>1733</ele>
        <time>2017-03-04T12:13:34Z</time>
      </trkpt>
      <trkpt lat="42.92173" lon="0.25727">
        <ele>1733</ele>
        <time>2017-03-04T12:13:35Z</time>
      </trkpt>
      <trkpt lat="42.9217" lon="0.25728">
        <ele>1733</ele>
        <time>2017-03-04T12:13:35Z</time>
      </trkpt>
      <trkpt lat="42.92169" lon="0.25728">
        <ele>1733</ele>
        <time>2017-03-04T12:13:35Z</time>
      </trkpt>
      <trkpt lat="42.92165" lon="0.25735">
        <ele>1733</ele>
        <time>2017-03-04T12:14:06Z</time>
      </trkpt>
      <trkpt lat="42.92164" lon="0.25736">
        <ele>1733</ele>
        <time>2017-03-04T12:14:06Z</time>
      </trkpt>
      <trkpt lat="42.92164" lon="0.25736">
        <ele>1733</ele>
        <time>2017-03-04T12:14:07Z</time>
      </trkpt>
      <trkpt lat="42.92161" lon="0.25738">
        <ele>1733</ele>
        <time>2017-03-04T12:14:07Z</time>
      </trkpt>
      <trkpt lat="42.9216" lon="0.25739">
        <ele>1733</ele>
        <time>2017-03-04T12:14:07Z</time>
      </trkpt>
      <trkpt lat="42.9216" lon="0.2574">
        <ele>1733</ele>
        <time>2017-03-04T12:14:26Z</time>
      </trkpt>
      <trkpt lat="42.9216" lon="0.2574">
        <ele>1733</ele>
        <time>2017-03-04T12:14:26Z</time>
      </trkpt>
      <trkpt lat="42.92156" lon="0.25744">
        <ele>1733</ele>
        <time>2017-03-04T12:14:27Z</time>
      </trkpt>
      <trkpt lat="42.92153" lon="0.25744">
        <ele>1733</ele>
        <time>2017-03-04T12:14:27Z</time>
      </trkpt>
      <trkpt lat="42.9215" lon="0.25746">
        <ele>1733</ele>
        <time>2017-03-04T12:14:27Z</time>
      </trkpt>
      <trkpt lat="42.92146" lon="0.25749">
        <ele>1733</ele>
        <time>2017-03-04T12:14:58Z</time>
      </trkpt>
      <trkpt lat="42.92145" lon="0.25749">
        <ele>1733</ele>
        <time>2017-03-04T12:14:58Z</time>
      </trkpt>
      <trkpt lat="42.92144" lon="0.25751">
        <ele>1733</ele>
        <time>2017-03-04T12:14:59Z</time>
      </trkpt>
      <trkpt lat="42.92143" lon="0.25752">
        <ele>1733</ele>
        <time>2017-03-04T12:14:59Z</time>
      </trkpt>
      <trkpt lat="42.92141" lon="0.25753">
        <ele>1733</ele>
        <time>2017-03-04T12:14:59Z</time>
      </trkpt>
      <trkpt lat="42.92136" lon="0.25759">
        <ele>1733</ele>
        <time>2017-03-04T12:15:26Z</time>
      </trkpt>
      <trkpt lat="42.92135" lon="0.25759">
        <ele>1733</ele>
        <time>2017-03-04T12:15:26Z</time>
      </trkpt>
      <trkpt lat="42.92135" lon="0.25759">
        <ele>1733</ele>
        <time>2017-03-04T12:15:27Z</time>
      </trkpt>
      <trkpt lat="42.92133" lon="0.2576">
        <ele>1733</ele>
        <time>2017-03-04T12:15:27Z</time>
      </trkpt>
      <trkpt lat="42.92132" lon="0.25762">
        <ele>1733</ele>
        <time>2017-03-04T12:15:27Z</time>
      </trkpt>
      <trkpt lat="42.92128" lon="0.25766">
        <ele>1733</ele>
        <time>2017-03-04T12:15:54Z</time>
      </trkpt>
      <trkpt lat="42.92126" lon="0.25767">
        <ele>1733</ele>
        <time>2017-03-04T12:15:54Z</time>
      </trkpt>
      <trkpt lat="42.92125" lon="0.25768">
        <ele>1733</ele>
        <time>2017-03-04T12:15:55Z</time>
      </trkpt>
      <trkpt lat="42.92125" lon="0.25768">
        <ele>1758</ele>
        <time>2017-03-04T12:15:55Z</time>
      </trkpt>
      <trkpt lat="42.92123" lon="0.25768">
        <ele>1758</ele>
        <time>2017-03-04T12:15:55Z</time>
      </trkpt>
      <trkpt lat="42.92123" lon="0.25767">
        <ele>1758</ele>
        <time>2017-03-04T12:16:22Z</time>
      </trkpt>
      <trkpt lat="42.92121" lon="0.25766">
        <ele>1758</ele>
        <time>2017-03-04T12:16:22Z</time>
      </trkpt>
      <trkpt lat="42.9212" lon="0.25766">
        <ele>1758</ele>
        <time>2017-03-04T12:16:23Z</time>
      </trkpt>
      <trkpt lat="42.92117" lon="0.25765">
        <ele>1758</ele>
        <time>2017-03-04T12:16:23Z</time>
      </trkpt>
      <trkpt lat="42.92114" lon="0.25764">
        <ele>1758</ele>
        <time>2017-03-04T12:16:23Z</time>
      </trkpt>
      <trkpt lat="42.92112" lon="0.25762">
        <ele>1758</ele>
        <time>2017-03-04T12:16:42Z</time>
      </trkpt>
      <trkpt lat="42.92108" lon="0.25762">
        <ele>1758</ele>
        <time>2017-03-04T12:16:42Z</time>
      </trkpt>
      <trkpt lat="42.92106" lon="0.25761">
        <ele>1758</ele>
        <time>2017-03-04T12:16:43Z</time>
      </trkpt>
      <trkpt lat="42.92105" lon="0.2576">
        <ele>1758</ele>
        <time>2017-03-04T12:16:43Z</time>
      </trkpt>
      <trkpt lat="42.92103" lon="0.25759">
        <ele>1758</ele>
        <time>2017-03-04T12:16:43Z</time>
      </trkpt>
      <trkpt lat="42.92101" lon="0.25752">
        <ele>1758</ele>
        <time>2017-03-04T12:17:10Z</time>
      </trkpt>
      <trkpt lat="42.921" lon="0.25751">
        <ele>1758</ele>
        <time>2017-03-04T12:17:10Z</time>
      </trkpt>
      <trkpt lat="42.92099" lon="0.2575">
        <ele>1758</ele>
        <time>2017-03-04T12:17:11Z</time>
      </trkpt>
      <trkpt lat="42.92099" lon="0.25748">
        <ele>1758</ele>
        <time>2017-03-04T12:17:11Z</time>
      </trkpt>
      <trkpt lat="42.92098" lon="0.25746">
        <ele>1758</ele>
        <time>2017-03-04T12:17:11Z</time>
      </trkpt>
      <trkpt lat="42.92093" lon="0.25749">
        <ele>1758</ele>
        <time>2017-03-04T12:18:30Z</time>
      </trkpt>
      <trkpt lat="42.92092" lon="0.25746">
        <ele>1758</ele>
        <time>2017-03-04T12:18:30Z</time>
      </trkpt>
      <trkpt lat="42.9209" lon="0.25747">
        <ele>1758</ele>
        <time>2017-03-04T12:18:31Z</time>
      </trkpt>
      <trkpt lat="42.92087" lon="0.25745">
        <ele>1758</ele>
        <time>2017-03-04T12:18:31Z</time>
      </trkpt>
      <trkpt lat="42.92085" lon="0.25746">
        <ele>1758</ele>
        <time>2017-03-04T12:18:31Z</time>
      </trkpt>
      <trkpt lat="42.9208" lon="0.2574">
        <ele>1758</ele>
        <time>2017-03-04T12:19:42Z</time>
      </trkpt>
      <trkpt lat="42.92081" lon="0.25739">
        <ele>1758</ele>
        <time>2017-03-04T12:19:42Z</time>
      </trkpt>
      <trkpt lat="42.92081" lon="0.25738">
        <ele>1758</ele>
        <time>2017-03-04T12:19:43Z</time>
      </trkpt>
      <trkpt lat="42.92081" lon="0.25737">
        <ele>1758</ele>
        <time>2017-03-04T12:19:43Z</time>
      </trkpt>
      <trkpt lat="42.92081" lon="0.25735">
        <ele>1758</ele>
        <time>2017-03-04T12:19:43Z</time>
      </trkpt>
      <trkpt lat="42.9208" lon="0.25737">
        <ele>1758</ele>
        <time>2017-03-04T12:22:46Z</time>
      </trkpt>
      <trkpt lat="42.92079" lon="0.25737">
        <ele>1758</ele>
        <time>2017-03-04T12:22:46Z</time>
      </trkpt>
      <trkpt lat="42.92076" lon="0.25737">
        <ele>1758</ele>
        <time>2017-03-04T12:22:47Z</time>
      </trkpt>
      <trkpt lat="42.92072" lon="0.25736">
        <ele>1758</ele>
        <time>2017-03-04T12:22:47Z</time>
      </trkpt>
      <trkpt lat="42.9207" lon="0.25735">
        <ele>1758</ele>
        <time>2017-03-04T12:22:47Z</time>
      </trkpt>
      <trkpt lat="42.92058" lon="0.25738">
        <ele>1758</ele>
        <time>2017-03-04T12:23:22Z</time>
      </trkpt>
      <trkpt lat="42.92058" lon="0.25738">
        <ele>1758</ele>
        <time>2017-03-04T12:23:22Z</time>
      </trkpt>
      <trkpt lat="42.9206" lon="0.25744">
        <ele>1758</ele>
        <time>2017-03-04T12:23:22Z</time>
      </trkpt>
      <trkpt lat="42.92063" lon="0.25752">
        <ele>1758</ele>
        <time>2017-03-04T12:23:23Z</time>
      </trkpt>
      <trkpt lat="42.92063" lon="0.25752">
        <ele>1758</ele>
        <time>2017-03-04T12:23:23Z</time>
      </trkpt>
      <trkpt lat="42.92061" lon="0.25751">
        <ele>1758</ele>
        <time>2017-03-04T12:23:46Z</time>
      </trkpt>
      <trkpt lat="42.92061" lon="0.25751">
        <ele>1758</ele>
        <time>2017-03-04T12:23:47Z</time>
      </trkpt>
      <trkpt lat="42.92061" lon="0.25751">
        <ele>1758</ele>
        <time>2017-03-04T12:23:47Z</time>
      </trkpt>
      <trkpt lat="42.92057" lon="0.25745">
        <ele>1758</ele>
        <time>2017-03-04T12:23:47Z</time>
      </trkpt>
      <trkpt lat="42.92051" lon="0.25741">
        <ele>1758</ele>
        <time>2017-03-04T12:23:47Z</time>
      </trkpt>
      <trkpt lat="42.92044" lon="0.25745">
        <ele>1758</ele>
        <time>2017-03-04T12:25:26Z</time>
      </trkpt>
      <trkpt lat="42.92042" lon="0.25744">
        <ele>1758</ele>
        <time>2017-03-04T12:25:27Z</time>
      </trkpt>
      <trkpt lat="42.92041" lon="0.25742">
        <ele>1794</ele>
        <time>2017-03-04T12:25:27Z</time>
      </trkpt>
      <trkpt lat="42.92039" lon="0.2574">
        <ele>1794</ele>
        <time>2017-03-04T12:25:27Z</time>
      </trkpt>
      <trkpt lat="42.92036" lon="0.25739">
        <ele>1794</ele>
        <time>2017-03-04T12:25:27Z</time>
      </trkpt>
      <trkpt lat="42.92032" lon="0.2574">
        <ele>1794</ele>
        <time>2017-03-04T12:25:58Z</time>
      </trkpt>
      <trkpt lat="42.92032" lon="0.2574">
        <ele>1794</ele>
        <time>2017-03-04T12:25:58Z</time>
      </trkpt>
      <trkpt lat="42.9203" lon="0.25738">
        <ele>1794</ele>
        <time>2017-03-04T12:25:59Z</time>
      </trkpt>
      <trkpt lat="42.92027" lon="0.25737">
        <ele>1794</ele>
        <time>2017-03-04T12:25:59Z</time>
      </trkpt>
      <trkpt lat="42.92024" lon="0.25737">
        <ele>1794</ele>
        <time>2017-03-04T12:25:59Z</time>
      </trkpt>
      <trkpt lat="42.92025" lon="0.25736">
        <ele>1794</ele>
        <time>2017-03-04T12:26:58Z</time>
      </trkpt>
      <trkpt lat="42.92026" lon="0.25736">
        <ele>1794</ele>
        <time>2017-03-04T12:26:58Z</time>
      </trkpt>
      <trkpt lat="42.92027" lon="0.25741">
        <ele>1794</ele>
        <time>2017-03-04T12:26:59Z</time>
      </trkpt>
      <trkpt lat="42.92024" lon="0.25745">
        <ele>1794</ele>
        <time>2017-03-04T12:26:59Z</time>
      </trkpt>
      <trkpt lat="42.92026" lon="0.25749">
        <ele>1794</ele>
        <time>2017-03-04T12:26:59Z</time>
      </trkpt>
      <trkpt lat="42.92031" lon="0.25756">
        <ele>1794</ele>
        <time>2017-03-04T12:27:22Z</time>
      </trkpt>
      <trkpt lat="42.92031" lon="0.25757">
        <ele>1794</ele>
        <time>2017-03-04T12:27:23Z</time>
      </trkpt>
      <trkpt lat="42.92032" lon="0.25759">
        <ele>1794</ele>
        <time>2017-03-04T12:27:23Z</time>
      </trkpt>
      <trkpt lat="42.92031" lon="0.25762">
        <ele>1794</ele>
        <time>2017-03-04T12:27:23Z</time>
      </trkpt>
      <trkpt lat="42.92031" lon="0.25765">
        <ele>1794</ele>
        <time>2017-03-04T12:27:23Z</time>
      </trkpt>
      <trkpt lat="42.9203" lon="0.25771">
        <ele>1794</ele>
        <time>2017-03-04T12:28:18Z</time>
      </trkpt>
      <trkpt lat="42.92028" lon="0.2577">
        <ele>1794</ele>
        <time>2017-03-04T12:28:18Z</time>
      </trkpt>
      <trkpt lat="42.92025" lon="0.25769">
        <ele>1794</ele>
        <time>2017-03-04T12:28:19Z</time>
      </trkpt>
      <trkpt lat="42.92023" lon="0.2577">
        <ele>1794</ele>
        <time>2017-03-04T12:28:19Z</time>
      </trkpt>
      <trkpt lat="42.9202" lon="0.25769">
        <ele>1794</ele>
        <time>2017-03-04T12:28:19Z</time>
      </trkpt>
      <trkpt lat="42.92015" lon="0.25766">
        <ele>1794</ele>
        <time>2017-03-04T12:28:46Z</time>
      </trkpt>
      <trkpt lat="42.92013" lon="0.25765">
        <ele>1794</ele>
        <time>2017-03-04T12:28:47Z</time>
      </trkpt>
      <trkpt lat="42.92011" lon="0.25763">
        <ele>1794</ele>
        <time>2017-03-04T12:28:47Z</time>
      </trkpt>
      <trkpt lat="42.9201" lon="0.25763">
        <ele>1794</ele>
        <time>2017-03-04T12:28:47Z</time>
      </trkpt>
      <trkpt lat="42.92009" lon="0.25761">
        <ele>1794</ele>
        <time>2017-03-04T12:28:47Z</time>
      </trkpt>
      <trkpt lat="42.92005" lon="0.25759">
        <ele>1794</ele>
        <time>2017-03-04T12:29:42Z</time>
      </trkpt>
      <trkpt lat="42.92004" lon="0.25758">
        <ele>1794</ele>
        <time>2017-03-04T12:29:43Z</time>
      </trkpt>
      <trkpt lat="42.92002" lon="0.25756">
        <ele>1794</ele>
        <time>2017-03-04T12:29:43Z</time>
      </trkpt>
      <trkpt lat="42.92001" lon="0.25755">
        <ele>1794</ele>
        <time>2017-03-04T12:29:43Z</time>
      </trkpt>
      <trkpt lat="42.92" lon="0.25754">
        <ele>1794</ele>
        <time>2017-03-04T12:29:43Z</time>
      </trkpt>
      <trkpt lat="42.91997" lon="0.25752">
        <ele>1794</ele>
        <time>2017-03-04T12:30:06Z</time>
      </trkpt>
      <trkpt lat="42.91996" lon="0.25749">
        <ele>1794</ele>
        <time>2017-03-04T12:30:07Z</time>
      </trkpt>
      <trkpt lat="42.91994" lon="0.25746">
        <ele>1794</ele>
        <time>2017-03-04T12:30:07Z</time>
      </trkpt>
      <trkpt lat="42.91992" lon="0.25745">
        <ele>1794</ele>
        <time>2017-03-04T12:30:07Z</time>
      </trkpt>
      <trkpt lat="42.91989" lon="0.25744">
        <ele>1794</ele>
        <time>2017-03-04T12:30:07Z</time>
      </trkpt>
      <trkpt lat="42.91994" lon="0.25747">
        <ele>1794</ele>
        <time>2017-03-04T12:31:30Z</time>
      </trkpt>
      <trkpt lat="42.91995" lon="0.25751">
        <ele>1794</ele>
        <time>2017-03-04T12:31:30Z</time>
      </trkpt>
      <trkpt lat="42.91996" lon="0.25754">
        <ele>1794</ele>
        <time>2017-03-04T12:31:31Z</time>
      </trkpt>
      <trkpt lat="42.91997" lon="0.25758">
        <ele>1794</ele>
        <time>2017-03-04T12:31:31Z</time>
      </trkpt>
      <trkpt lat="42.91997" lon="0.25761">
        <ele>1794</ele>
        <time>2017-03-04T12:31:31Z</time>
      </trkpt>
      <trkpt lat="42.91997" lon="0.25765">
        <ele>1794</ele>
        <time>2017-03-04T12:31:50Z</time>
      </trkpt>
      <trkpt lat="42.91998" lon="0.25768">
        <ele>1794</ele>
        <time>2017-03-04T12:31:51Z</time>
      </trkpt>
      <trkpt lat="42.91997" lon="0.25771">
        <ele>1794</ele>
        <time>2017-03-04T12:31:51Z</time>
      </trkpt>
      <trkpt lat="42.91995" lon="0.25774">
        <ele>1794</ele>
        <time>2017-03-04T12:31:51Z</time>
      </trkpt>
      <trkpt lat="42.91994" lon="0.25778">
        <ele>1794</ele>
        <time>2017-03-04T12:31:51Z</time>
      </trkpt>
      <trkpt lat="42.91987" lon="0.25783">
        <ele>1794</ele>
        <time>2017-03-04T12:32:30Z</time>
      </trkpt>
      <trkpt lat="42.91985" lon="0.25783">
        <ele>1794</ele>
        <time>2017-03-04T12:32:30Z</time>
      </trkpt>
      <trkpt lat="42.91985" lon="0.25784">
        <ele>1794</ele>
        <time>2017-03-04T12:32:31Z</time>
      </trkpt>
      <trkpt lat="42.91985" lon="0.25783">
        <ele>1794</ele>
        <time>2017-03-04T12:32:31Z</time>
      </trkpt>
      <trkpt lat="42.91984" lon="0.25783">
        <ele>1794</ele>
        <time>2017-03-04T12:32:31Z</time>
      </trkpt>
      <trkpt lat="42.91979" lon="0.25781">
        <ele>1794</ele>
        <time>2017-03-04T12:33:26Z</time>
      </trkpt>
      <trkpt lat="42.91978" lon="0.2578">
        <ele>1794</ele>
        <time>2017-03-04T12:33:27Z</time>
      </trkpt>
      <trkpt lat="42.91976" lon="0.25779">
        <ele>1794</ele>
        <time>2017-03-04T12:33:27Z</time>
      </trkpt>
      <trkpt lat="42.91975" lon="0.25778">
        <ele>1794</ele>
        <time>2017-03-04T12:33:27Z</time>
      </trkpt>
      <trkpt lat="42.91974" lon="0.25776">
        <ele>1794</ele>
        <time>2017-03-04T12:33:27Z</time>
      </trkpt>
      <trkpt lat="42.91967" lon="0.25777">
        <ele>1794</ele>
        <time>2017-03-04T12:35:46Z</time>
      </trkpt>
      <trkpt lat="42.91967" lon="0.25779">
        <ele>1794</ele>
        <time>2017-03-04T12:35:46Z</time>
      </trkpt>
      <trkpt lat="42.91966" lon="0.25779">
        <ele>1794</ele>
        <time>2017-03-04T12:35:47Z</time>
      </trkpt>
      <trkpt lat="42.91965" lon="0.25779">
        <ele>1794</ele>
        <time>2017-03-04T12:35:47Z</time>
      </trkpt>
      <trkpt lat="42.91964" lon="0.2578">
        <ele>1794</ele>
        <time>2017-03-04T12:35:47Z</time>
      </trkpt>
      <trkpt lat="42.9196" lon="0.25781">
        <ele>1794</ele>
        <time>2017-03-04T12:36:22Z</time>
      </trkpt>
      <trkpt lat="42.91957" lon="0.25783">
        <ele>1808</ele>
        <time>2017-03-04T12:36:22Z</time>
      </trkpt>
      <trkpt lat="42.91956" lon="0.25786">
        <ele>1808</ele>
        <time>2017-03-04T12:36:23Z</time>
      </trkpt>
      <trkpt lat="42.91954" lon="0.25787">
        <ele>1808</ele>
        <time>2017-03-04T12:36:23Z</time>
      </trkpt>
      <trkpt lat="42.91953" lon="0.25786">
        <ele>1808</ele>
        <time>2017-03-04T12:36:23Z</time>
      </trkpt>
      <trkpt lat="42.91953" lon="0.25779">
        <ele>1808</ele>
        <time>2017-03-04T12:37:14Z</time>
      </trkpt>
      <trkpt lat="42.9195" lon="0.25779">
        <ele>1808</ele>
        <time>2017-03-04T12:37:14Z</time>
      </trkpt>
      <trkpt lat="42.91948" lon="0.25779">
        <ele>1808</ele>
        <time>2017-03-04T12:37:15Z</time>
      </trkpt>
      <trkpt lat="42.91945" lon="0.25778">
        <ele>1808</ele>
        <time>2017-03-04T12:37:15Z</time>
      </trkpt>
      <trkpt lat="42.91943" lon="0.25777">
        <ele>1808</ele>
        <time>2017-03-04T12:37:15Z</time>
      </trkpt>
      <trkpt lat="42.91936" lon="0.2578">
        <ele>1808</ele>
        <time>2017-03-04T12:37:42Z</time>
      </trkpt>
      <trkpt lat="42.91935" lon="0.25781">
        <ele>1808</ele>
        <time>2017-03-04T12:37:42Z</time>
      </trkpt>
      <trkpt lat="42.91934" lon="0.25781">
        <ele>1808</ele>
        <time>2017-03-04T12:37:43Z</time>
      </trkpt>
      <trkpt lat="42.91932" lon="0.25781">
        <ele>1808</ele>
        <time>2017-03-04T12:37:43Z</time>
      </trkpt>
      <trkpt lat="42.91931" lon="0.25781">
        <ele>1808</ele>
        <time>2017-03-04T12:37:43Z</time>
      </trkpt>
      <trkpt lat="42.91928" lon="0.25784">
        <ele>1808</ele>
        <time>2017-03-04T12:38:18Z</time>
      </trkpt>
      <trkpt lat="42.91927" lon="0.25785">
        <ele>1808</ele>
        <time>2017-03-04T12:38:18Z</time>
      </trkpt>
      <trkpt lat="42.91925" lon="0.25785">
        <ele>1808</ele>
        <time>2017-03-04T12:38:19Z</time>
      </trkpt>
      <trkpt lat="42.91924" lon="0.25787">
        <ele>1808</ele>
        <time>2017-03-04T12:38:19Z</time>
      </trkpt>
      <trkpt lat="42.91923" lon="0.25789">
        <ele>1808</ele>
        <time>2017-03-04T12:38:19Z</time>
      </trkpt>
      <trkpt lat="42.91917" lon="0.25801">
        <ele>1838</ele>
        <time>2017-03-04T12:39:46Z</time>
      </trkpt>
      <trkpt lat="42.91914" lon="0.25803">
        <ele>1838</ele>
        <time>2017-03-04T12:39:47Z</time>
      </trkpt>
      <trkpt lat="42.91914" lon="0.25805">
        <ele>1838</ele>
        <time>2017-03-04T12:39:47Z</time>
      </trkpt>
      <trkpt lat="42.91913" lon="0.25808">
        <ele>1838</ele>
        <time>2017-03-04T12:39:47Z</time>
      </trkpt>
      <trkpt lat="42.91913" lon="0.2581">
        <ele>1838</ele>
        <time>2017-03-04T12:39:47Z</time>
      </trkpt>
      <trkpt lat="42.91913" lon="0.25811">
        <ele>1838</ele>
        <time>2017-03-04T12:40:18Z</time>
      </trkpt>
      <trkpt lat="42.91914" lon="0.25814">
        <ele>1838</ele>
        <time>2017-03-04T12:40:18Z</time>
      </trkpt>
      <trkpt lat="42.91914" lon="0.25815">
        <ele>1838</ele>
        <time>2017-03-04T12:40:19Z</time>
      </trkpt>
      <trkpt lat="42.91912" lon="0.25817">
        <ele>1838</ele>
        <time>2017-03-04T12:40:19Z</time>
      </trkpt>
      <trkpt lat="42.91909" lon="0.25822">
        <ele>1838</ele>
        <time>2017-03-04T12:40:19Z</time>
      </trkpt>
      <trkpt lat="42.91901" lon="0.25833">
        <ele>1838</ele>
        <time>2017-03-04T12:40:58Z</time>
      </trkpt>
      <trkpt lat="42.91901" lon="0.25834">
        <ele>1838</ele>
        <time>2017-03-04T12:40:59Z</time>
      </trkpt>
      <trkpt lat="42.91901" lon="0.25834">
        <ele>1838</ele>
        <time>2017-03-04T12:40:59Z</time>
      </trkpt>
      <trkpt lat="42.91901" lon="0.25834">
        <ele>1838</ele>
        <time>2017-03-04T12:40:59Z</time>
      </trkpt>
      <trkpt lat="42.919" lon="0.2584">
        <ele>1838</ele>
        <time>2017-03-04T12:40:59Z</time>
      </trkpt>
      <trkpt lat="42.91899" lon="0.25848">
        <ele>1838</ele>
        <time>2017-03-04T12:41:14Z</time>
      </trkpt>
      <trkpt lat="42.91898" lon="0.25855">
        <ele>1838</ele>
        <time>2017-03-04T12:41:14Z</time>
      </trkpt>
      <trkpt lat="42.91897" lon="0.25861">
        <ele>1838</ele>
        <time>2017-03-04T12:41:15Z</time>
      </trkpt>
      <trkpt lat="42.91897" lon="0.25864">
        <ele>1838</ele>
        <time>2017-03-04T12:41:15Z</time>
      </trkpt>
      <trkpt lat="42.91891" lon="0.25867">
        <ele>1838</ele>
        <time>2017-03-04T12:42:18Z</time>
      </trkpt>
      <trkpt lat="42.9189" lon="0.25868">
        <ele>1838</ele>
        <time>2017-03-04T12:42:18Z</time>
      </trkpt>
      <trkpt lat="42.91887" lon="0.25871">
        <ele>1838</ele>
        <time>2017-03-04T12:42:19Z</time>
      </trkpt>
      <trkpt lat="42.91884" lon="0.25876">
        <ele>1851</ele>
        <time>2017-03-04T12:42:19Z</time>
      </trkpt>
      <trkpt lat="42.91883" lon="0.25879">
        <ele>1851</ele>
        <time>2017-03-04T12:42:19Z</time>
      </trkpt>
      <trkpt lat="42.9188" lon="0.25885">
        <ele>1851</ele>
        <time>2017-03-04T12:42:34Z</time>
      </trkpt>
      <trkpt lat="42.91877" lon="0.25891">
        <ele>1851</ele>
        <time>2017-03-04T12:42:35Z</time>
      </trkpt>
      <trkpt lat="42.91876" lon="0.25895">
        <ele>1851</ele>
        <time>2017-03-04T12:42:35Z</time>
      </trkpt>
      <trkpt lat="42.91874" lon="0.25899">
        <ele>1865</ele>
        <time>2017-03-04T12:42:35Z</time>
      </trkpt>
      <trkpt lat="42.91874" lon="0.259">
        <ele>1865</ele>
        <time>2017-03-04T12:42:50Z</time>
      </trkpt>
      <trkpt lat="42.91871" lon="0.25902">
        <ele>1865</ele>
        <time>2017-03-04T12:42:50Z</time>
      </trkpt>
      <trkpt lat="42.91868" lon="0.25907">
        <ele>1865</ele>
        <time>2017-03-04T12:42:51Z</time>
      </trkpt>
      <trkpt lat="42.91867" lon="0.25911">
        <ele>1865</ele>
        <time>2017-03-04T12:42:51Z</time>
      </trkpt>
      <trkpt lat="42.91866" lon="0.25913">
        <ele>1865</ele>
        <time>2017-03-04T12:43:22Z</time>
      </trkpt>
      <trkpt lat="42.91866" lon="0.25912">
        <ele>1865</ele>
        <time>2017-03-04T12:43:22Z</time>
      </trkpt>
      <trkpt lat="42.91864" lon="0.25917">
        <ele>1865</ele>
        <time>2017-03-04T12:43:23Z</time>
      </trkpt>
      <trkpt lat="42.91862" lon="0.25923">
        <ele>1865</ele>
        <time>2017-03-04T12:43:23Z</time>
      </trkpt>
      <trkpt lat="42.91861" lon="0.2593">
        <ele>1865</ele>
        <time>2017-03-04T12:43:23Z</time>
      </trkpt>
      <trkpt lat="42.9186" lon="0.25933">
        <ele>1865</ele>
        <time>2017-03-04T12:43:46Z</time>
      </trkpt>
      <trkpt lat="42.9186" lon="0.25933">
        <ele>1865</ele>
        <time>2017-03-04T12:43:47Z</time>
      </trkpt>
      <trkpt lat="42.9186" lon="0.25938">
        <ele>1865</ele>
        <time>2017-03-04T12:43:47Z</time>
      </trkpt>
      <trkpt lat="42.9186" lon="0.25942">
        <ele>1865</ele>
        <time>2017-03-04T12:43:47Z</time>
      </trkpt>
      <trkpt lat="42.9186" lon="0.25945">
        <ele>1865</ele>
        <time>2017-03-04T12:43:47Z</time>
      </trkpt>
      <trkpt lat="42.91852" lon="0.25951">
        <ele>1865</ele>
        <time>2017-03-04T12:44:30Z</time>
      </trkpt>
      <trkpt lat="42.9185" lon="0.25953">
        <ele>1865</ele>
        <time>2017-03-04T12:44:30Z</time>
      </trkpt>
      <trkpt lat="42.91848" lon="0.25959">
        <ele>1880</ele>
        <time>2017-03-04T12:44:31Z</time>
      </trkpt>
      <trkpt lat="42.91845" lon="0.25969">
        <ele>1880</ele>
        <time>2017-03-04T12:44:31Z</time>
      </trkpt>
      <trkpt lat="42.91843" lon="0.25976">
        <ele>1880</ele>
        <time>2017-03-04T12:44:31Z</time>
      </trkpt>
      <trkpt lat="42.91842" lon="0.25983">
        <ele>1880</ele>
        <time>2017-03-04T12:44:46Z</time>
      </trkpt>
      <trkpt lat="42.91841" lon="0.25987">
        <ele>1880</ele>
        <time>2017-03-04T12:44:47Z</time>
      </trkpt>
      <trkpt lat="42.9184" lon="0.25992">
        <ele>1880</ele>
        <time>2017-03-04T12:44:47Z</time>
      </trkpt>
      <trkpt lat="42.91839" lon="0.25998">
        <ele>1880</ele>
        <time>2017-03-04T12:44:47Z</time>
      </trkpt>
      <trkpt lat="42.91832" lon="0.26006">
        <ele>1880</ele>
        <time>2017-03-04T12:52:10Z</time>
      </trkpt>
      <trkpt lat="42.91832" lon="0.26006">
        <ele>1880</ele>
        <time>2017-03-04T12:52:11Z</time>
      </trkpt>
      <trkpt lat="42.91832" lon="0.26006">
        <ele>1880</ele>
        <time>2017-03-04T12:52:11Z</time>
      </trkpt>
      <trkpt lat="42.91832" lon="0.26006">
        <ele>1880</ele>
        <time>2017-03-04T12:52:11Z</time>
      </trkpt>
      <trkpt lat="42.9183" lon="0.26008">
        <ele>1880</ele>
        <time>2017-03-04T12:52:11Z</time>
      </trkpt>
      <trkpt lat="42.91827" lon="0.26009">
        <ele>1880</ele>
        <time>2017-03-04T13:21:02Z</time>
      </trkpt>
      <trkpt lat="42.91827" lon="0.2601">
        <ele>1880</ele>
        <time>2017-03-04T13:21:02Z</time>
      </trkpt>
      <trkpt lat="42.91825" lon="0.26012">
        <ele>1880</ele>
        <time>2017-03-04T13:21:03Z</time>
      </trkpt>
      <trkpt lat="42.91824" lon="0.26014">
        <ele>1880</ele>
        <time>2017-03-04T13:21:03Z</time>
      </trkpt>
      <trkpt lat="42.91821" lon="0.26019">
        <ele>1880</ele>
        <time>2017-03-04T13:21:03Z</time>
      </trkpt>
      <trkpt lat="42.91817" lon="0.26023">
        <ele>1880</ele>
        <time>2017-03-04T13:21:18Z</time>
      </trkpt>
      <trkpt lat="42.91808" lon="0.26035">
        <ele>1880</ele>
        <time>2017-03-04T13:21:19Z</time>
      </trkpt>
      <trkpt lat="42.91801" lon="0.26046">
        <ele>1877</ele>
        <time>2017-03-04T13:21:19Z</time>
      </trkpt>
      <trkpt lat="42.91795" lon="0.26057">
        <ele>1877</ele>
        <time>2017-03-04T13:21:19Z</time>
      </trkpt>
      <trkpt lat="42.9179" lon="0.26068">
        <ele>1880</ele>
        <time>2017-03-04T13:21:42Z</time>
      </trkpt>
      <trkpt lat="42.91788" lon="0.26069">
        <ele>1880</ele>
        <time>2017-03-04T13:21:43Z</time>
      </trkpt>
      <trkpt lat="42.91786" lon="0.2607">
        <ele>1880</ele>
        <time>2017-03-04T13:21:43Z</time>
      </trkpt>
      <trkpt lat="42.91783" lon="0.26068">
        <ele>1880</ele>
        <time>2017-03-04T13:21:43Z</time>
      </trkpt>
      <trkpt lat="42.91774" lon="0.26067">
        <ele>1880</ele>
        <time>2017-03-04T13:21:43Z</time>
      </trkpt>
      <trkpt lat="42.91769" lon="0.26065">
        <ele>1880</ele>
        <time>2017-03-04T13:21:58Z</time>
      </trkpt>
      <trkpt lat="42.91759" lon="0.26057">
        <ele>1880</ele>
        <time>2017-03-04T13:21:58Z</time>
      </trkpt>
      <trkpt lat="42.91749" lon="0.26049">
        <ele>1880</ele>
        <time>2017-03-04T13:21:59Z</time>
      </trkpt>
      <trkpt lat="42.91741" lon="0.26044">
        <ele>1880</ele>
        <time>2017-03-04T13:21:59Z</time>
      </trkpt>
      <trkpt lat="42.91738" lon="0.26043">
        <ele>1880</ele>
        <time>2017-03-04T13:22:30Z</time>
      </trkpt>
      <trkpt lat="42.91733" lon="0.26039">
        <ele>1879</ele>
        <time>2017-03-04T13:22:30Z</time>
      </trkpt>
      <trkpt lat="42.91728" lon="0.26037">
        <ele>1879</ele>
        <time>2017-03-04T13:22:31Z</time>
      </trkpt>
      <trkpt lat="42.91723" lon="0.2603">
        <ele>1879</ele>
        <time>2017-03-04T13:22:31Z</time>
      </trkpt>
      <trkpt lat="42.91719" lon="0.26023">
        <ele>1879</ele>
        <time>2017-03-04T13:22:31Z</time>
      </trkpt>
      <trkpt lat="42.91713" lon="0.26016">
        <ele>1879</ele>
        <time>2017-03-04T13:22:46Z</time>
      </trkpt>
      <trkpt lat="42.91709" lon="0.2601">
        <ele>1879</ele>
        <time>2017-03-04T13:22:47Z</time>
      </trkpt>
      <trkpt lat="42.91705" lon="0.26">
        <ele>1869</ele>
        <time>2017-03-04T13:22:47Z</time>
      </trkpt>
      <trkpt lat="42.91703" lon="0.25995">
        <ele>1869</ele>
        <time>2017-03-04T13:22:47Z</time>
      </trkpt>
      <trkpt lat="42.91702" lon="0.25995">
        <ele>1869</ele>
        <time>2017-03-04T13:23:22Z</time>
      </trkpt>
      <trkpt lat="42.91699" lon="0.25986">
        <ele>1869</ele>
        <time>2017-03-04T13:23:22Z</time>
      </trkpt>
      <trkpt lat="42.91695" lon="0.25978">
        <ele>1869</ele>
        <time>2017-03-04T13:23:23Z</time>
      </trkpt>
      <trkpt lat="42.9169" lon="0.25974">
        <ele>1869</ele>
        <time>2017-03-04T13:23:23Z</time>
      </trkpt>
      <trkpt lat="42.91681" lon="0.25966">
        <ele>1869</ele>
        <time>2017-03-04T13:23:23Z</time>
      </trkpt>
      <trkpt lat="42.91675" lon="0.25963">
        <ele>1869</ele>
        <time>2017-03-04T13:23:42Z</time>
      </trkpt>
      <trkpt lat="42.91673" lon="0.2597">
        <ele>1869</ele>
        <time>2017-03-04T13:23:42Z</time>
      </trkpt>
      <trkpt lat="42.91673" lon="0.2597">
        <ele>1869</ele>
        <time>2017-03-04T13:23:43Z</time>
      </trkpt>
      <trkpt lat="42.91668" lon="0.25969">
        <ele>1869</ele>
        <time>2017-03-04T13:23:43Z</time>
      </trkpt>
      <trkpt lat="42.91652" lon="0.25969">
        <ele>1869</ele>
        <time>2017-03-04T13:23:43Z</time>
      </trkpt>
      <trkpt lat="42.91643" lon="0.2597">
        <ele>1869</ele>
        <time>2017-03-04T13:23:58Z</time>
      </trkpt>
      <trkpt lat="42.91637" lon="0.25971">
        <ele>1869</ele>
        <time>2017-03-04T13:23:59Z</time>
      </trkpt>
      <trkpt lat="42.91632" lon="0.25971">
        <ele>1869</ele>
        <time>2017-03-04T13:23:59Z</time>
      </trkpt>
      <trkpt lat="42.91628" lon="0.25971">
        <ele>1869</ele>
        <time>2017-03-04T13:23:59Z</time>
      </trkpt>
      <trkpt lat="42.91627" lon="0.25971">
        <ele>1869</ele>
        <time>2017-03-04T13:24:54Z</time>
      </trkpt>
      <trkpt lat="42.91625" lon="0.25971">
        <ele>1869</ele>
        <time>2017-03-04T13:24:55Z</time>
      </trkpt>
      <trkpt lat="42.91621" lon="0.2597">
        <ele>1859</ele>
        <time>2017-03-04T13:24:55Z</time>
      </trkpt>
      <trkpt lat="42.91621" lon="0.25967">
        <ele>1859</ele>
        <time>2017-03-04T13:24:55Z</time>
      </trkpt>
      <trkpt lat="42.91616" lon="0.25965">
        <ele>1859</ele>
        <time>2017-03-04T13:24:55Z</time>
      </trkpt>
      <trkpt lat="42.91599" lon="0.25961">
        <ele>1859</ele>
        <time>2017-03-04T13:25:10Z</time>
      </trkpt>
      <trkpt lat="42.91586" lon="0.25959">
        <ele>1859</ele>
        <time>2017-03-04T13:25:11Z</time>
      </trkpt>
      <trkpt lat="42.9158" lon="0.2596">
        <ele>1859</ele>
        <time>2017-03-04T13:25:11Z</time>
      </trkpt>
      <trkpt lat="42.91566" lon="0.25962">
        <ele>1859</ele>
        <time>2017-03-04T13:25:11Z</time>
      </trkpt>
      <trkpt lat="42.91558" lon="0.25962">
        <ele>1859</ele>
        <time>2017-03-04T13:25:26Z</time>
      </trkpt>
      <trkpt lat="42.91554" lon="0.25962">
        <ele>1859</ele>
        <time>2017-03-04T13:25:27Z</time>
      </trkpt>
      <trkpt lat="42.91549" lon="0.25963">
        <ele>1859</ele>
        <time>2017-03-04T13:25:27Z</time>
      </trkpt>
      <trkpt lat="42.91548" lon="0.25963">
        <ele>1859</ele>
        <time>2017-03-04T13:25:27Z</time>
      </trkpt>
      <trkpt lat="42.91547" lon="0.25963">
        <ele>1859</ele>
        <time>2017-03-04T13:25:43Z</time>
      </trkpt>
      <trkpt lat="42.91544" lon="0.25965">
        <ele>1859</ele>
        <time>2017-03-04T13:25:43Z</time>
      </trkpt>
      <trkpt lat="42.91538" lon="0.25967">
        <ele>1845</ele>
        <time>2017-03-04T13:25:43Z</time>
      </trkpt>
      <trkpt lat="42.91534" lon="0.25966">
        <ele>1845</ele>
        <time>2017-03-04T13:25:43Z</time>
      </trkpt>
      <trkpt lat="42.91531" lon="0.25966">
        <ele>1845</ele>
        <time>2017-03-04T13:25:58Z</time>
      </trkpt>
      <trkpt lat="42.91526" lon="0.25967">
        <ele>1845</ele>
        <time>2017-03-04T13:25:59Z</time>
      </trkpt>
      <trkpt lat="42.91514" lon="0.2597">
        <ele>1845</ele>
        <time>2017-03-04T13:25:59Z</time>
      </trkpt>
      <trkpt lat="42.91511" lon="0.25973">
        <ele>1845</ele>
        <time>2017-03-04T13:25:59Z</time>
      </trkpt>
      <trkpt lat="42.91499" lon="0.2598">
        <ele>1845</ele>
        <time>2017-03-04T13:26:14Z</time>
      </trkpt>
      <trkpt lat="42.91491" lon="0.25985">
        <ele>1845</ele>
        <time>2017-03-04T13:26:15Z</time>
      </trkpt>
      <trkpt lat="42.91482" lon="0.25993">
        <ele>1845</ele>
        <time>2017-03-04T13:26:15Z</time>
      </trkpt>
      <trkpt lat="42.91477" lon="0.25996">
        <ele>1845</ele>
        <time>2017-03-04T13:26:15Z</time>
      </trkpt>
      <trkpt lat="42.91469" lon="0.25998">
        <ele>1845</ele>
        <time>2017-03-04T13:26:30Z</time>
      </trkpt>
      <trkpt lat="42.91464" lon="0.25997">
        <ele>1845</ele>
        <time>2017-03-04T13:26:30Z</time>
      </trkpt>
      <trkpt lat="42.91461" lon="0.25999">
        <ele>1845</ele>
        <time>2017-03-04T13:26:31Z</time>
      </trkpt>
      <trkpt lat="42.91455" lon="0.26004">
        <ele>1841</ele>
        <time>2017-03-04T13:26:31Z</time>
      </trkpt>
      <trkpt lat="42.91449" lon="0.26007">
        <ele>1841</ele>
        <time>2017-03-04T13:26:46Z</time>
      </trkpt>
      <trkpt lat="42.91447" lon="0.26006">
        <ele>1841</ele>
        <time>2017-03-04T13:26:47Z</time>
      </trkpt>
      <trkpt lat="42.91443" lon="0.26007">
        <ele>1841</ele>
        <time>2017-03-04T13:26:47Z</time>
      </trkpt>
      <trkpt lat="42.91438" lon="0.2601">
        <ele>1841</ele>
        <time>2017-03-04T13:26:47Z</time>
      </trkpt>
      <trkpt lat="42.91433" lon="0.26014">
        <ele>1841</ele>
        <time>2017-03-04T13:27:02Z</time>
      </trkpt>
      <trkpt lat="42.91428" lon="0.26016">
        <ele>1841</ele>
        <time>2017-03-04T13:27:02Z</time>
      </trkpt>
      <trkpt lat="42.91424" lon="0.26019">
        <ele>1841</ele>
        <time>2017-03-04T13:27:03Z</time>
      </trkpt>
      <trkpt lat="42.91419" lon="0.26021">
        <ele>1841</ele>
        <time>2017-03-04T13:27:03Z</time>
      </trkpt>
      <trkpt lat="42.91414" lon="0.26024">
        <ele>1841</ele>
        <time>2017-03-04T13:27:18Z</time>
      </trkpt>
      <trkpt lat="42.91408" lon="0.26028">
        <ele>1841</ele>
        <time>2017-03-04T13:27:19Z</time>
      </trkpt>
      <trkpt lat="42.914" lon="0.26031">
        <ele>1841</ele>
        <time>2017-03-04T13:27:19Z</time>
      </trkpt>
      <trkpt lat="42.91392" lon="0.26035">
        <ele>1841</ele>
        <time>2017-03-04T13:27:19Z</time>
      </trkpt>
      <trkpt lat="42.91384" lon="0.2604">
        <ele>1841</ele>
        <time>2017-03-04T13:27:34Z</time>
      </trkpt>
      <trkpt lat="42.91377" lon="0.26042">
        <ele>1821</ele>
        <time>2017-03-04T13:27:34Z</time>
      </trkpt>
      <trkpt lat="42.91369" lon="0.26044">
        <ele>1810</ele>
        <time>2017-03-04T13:27:35Z</time>
      </trkpt>
      <trkpt lat="42.9136" lon="0.26045">
        <ele>1810</ele>
        <time>2017-03-04T13:27:35Z</time>
      </trkpt>
      <trkpt lat="42.91352" lon="0.26045">
        <ele>1810</ele>
        <time>2017-03-04T13:27:50Z</time>
      </trkpt>
      <trkpt lat="42.91342" lon="0.26046">
        <ele>1810</ele>
        <time>2017-03-04T13:27:51Z</time>
      </trkpt>
      <trkpt lat="42.91337" lon="0.26046">
        <ele>1810</ele>
        <time>2017-03-04T13:27:51Z</time>
      </trkpt>
      <trkpt lat="42.91326" lon="0.26047">
        <ele>1810</ele>
        <time>2017-03-04T13:27:51Z</time>
      </trkpt>
      <trkpt lat="42.91318" lon="0.2605">
        <ele>1810</ele>
        <time>2017-03-04T13:28:50Z</time>
      </trkpt>
      <trkpt lat="42.91315" lon="0.26049">
        <ele>1810</ele>
        <time>2017-03-04T13:28:51Z</time>
      </trkpt>
      <trkpt lat="42.91309" lon="0.26047">
        <ele>1810</ele>
        <time>2017-03-04T13:28:51Z</time>
      </trkpt>
      <trkpt lat="42.91299" lon="0.26041">
        <ele>1829</ele>
        <time>2017-03-04T13:28:51Z</time>
      </trkpt>
      <trkpt lat="42.91299" lon="0.26038">
        <ele>1829</ele>
        <time>2017-03-04T13:28:51Z</time>
      </trkpt>
      <trkpt lat="42.91293" lon="0.26036">
        <ele>1829</ele>
        <time>2017-03-04T13:29:22Z</time>
      </trkpt>
      <trkpt lat="42.91291" lon="0.26035">
        <ele>1812</ele>
        <time>2017-03-04T13:29:22Z</time>
      </trkpt>
      <trkpt lat="42.91291" lon="0.26034">
        <ele>1812</ele>
        <time>2017-03-04T13:29:22Z</time>
      </trkpt>
      <trkpt lat="42.91291" lon="0.26033">
        <ele>1812</ele>
        <time>2017-03-04T13:29:23Z</time>
      </trkpt>
      <trkpt lat="42.91289" lon="0.26033">
        <ele>1812</ele>
        <time>2017-03-04T13:29:23Z</time>
      </trkpt>
      <trkpt lat="42.91283" lon="0.2603">
        <ele>1812</ele>
        <time>2017-03-04T13:29:38Z</time>
      </trkpt>
      <trkpt lat="42.91275" lon="0.26028">
        <ele>1812</ele>
        <time>2017-03-04T13:29:38Z</time>
      </trkpt>
      <trkpt lat="42.91268" lon="0.26022">
        <ele>1812</ele>
        <time>2017-03-04T13:29:39Z</time>
      </trkpt>
      <trkpt lat="42.91261" lon="0.26019">
        <ele>1812</ele>
        <time>2017-03-04T13:29:39Z</time>
      </trkpt>
      <trkpt lat="42.91239" lon="0.26019">
        <ele>1812</ele>
        <time>2017-03-04T13:30:46Z</time>
      </trkpt>
      <trkpt lat="42.91237" lon="0.26019">
        <ele>1812</ele>
        <time>2017-03-04T13:30:47Z</time>
      </trkpt>
      <trkpt lat="42.91231" lon="0.26018">
        <ele>1812</ele>
        <time>2017-03-04T13:30:47Z</time>
      </trkpt>
      <trkpt lat="42.91222" lon="0.26018">
        <ele>1812</ele>
        <time>2017-03-04T13:30:47Z</time>
      </trkpt>
      <trkpt lat="42.91213" lon="0.26018">
        <ele>1812</ele>
        <time>2017-03-04T13:30:47Z</time>
      </trkpt>
      <trkpt lat="42.91206" lon="0.26021">
        <ele>1797</ele>
        <time>2017-03-04T13:31:02Z</time>
      </trkpt>
      <trkpt lat="42.91201" lon="0.26022">
        <ele>1797</ele>
        <time>2017-03-04T13:31:02Z</time>
      </trkpt>
      <trkpt lat="42.91196" lon="0.26024">
        <ele>1797</ele>
        <time>2017-03-04T13:31:02Z</time>
      </trkpt>
      <trkpt lat="42.91184" lon="0.2603">
        <ele>1797</ele>
        <time>2017-03-04T13:31:03Z</time>
      </trkpt>
      <trkpt lat="42.91181" lon="0.26031">
        <ele>1797</ele>
        <time>2017-03-04T13:31:18Z</time>
      </trkpt>
      <trkpt lat="42.91175" lon="0.26031">
        <ele>1797</ele>
        <time>2017-03-04T13:31:18Z</time>
      </trkpt>
      <trkpt lat="42.91172" lon="0.26031">
        <ele>1797</ele>
        <time>2017-03-04T13:31:19Z</time>
      </trkpt>
      <trkpt lat="42.91169" lon="0.26031">
        <ele>1797</ele>
        <time>2017-03-04T13:31:19Z</time>
      </trkpt>
      <trkpt lat="42.91166" lon="0.26031">
        <ele>1797</ele>
        <time>2017-03-04T13:31:34Z</time>
      </trkpt>
      <trkpt lat="42.9116" lon="0.2603">
        <ele>1797</ele>
        <time>2017-03-04T13:31:34Z</time>
      </trkpt>
      <trkpt lat="42.91156" lon="0.26028">
        <ele>1797</ele>
        <time>2017-03-04T13:31:35Z</time>
      </trkpt>
      <trkpt lat="42.91157" lon="0.26026">
        <ele>1797</ele>
        <time>2017-03-04T13:31:35Z</time>
      </trkpt>
      <trkpt lat="42.91157" lon="0.26024">
        <ele>1797</ele>
        <time>2017-03-04T13:32:02Z</time>
      </trkpt>
      <trkpt lat="42.91155" lon="0.26022">
        <ele>1797</ele>
        <time>2017-03-04T13:32:02Z</time>
      </trkpt>
      <trkpt lat="42.91152" lon="0.26021">
        <ele>1797</ele>
        <time>2017-03-04T13:32:02Z</time>
      </trkpt>
      <trkpt lat="42.91147" lon="0.26021">
        <ele>1797</ele>
        <time>2017-03-04T13:32:03Z</time>
      </trkpt>
      <trkpt lat="42.91142" lon="0.2602">
        <ele>1797</ele>
        <time>2017-03-04T13:32:03Z</time>
      </trkpt>
      <trkpt lat="42.9114" lon="0.26016">
        <ele>1797</ele>
        <time>2017-03-04T13:32:26Z</time>
      </trkpt>
      <trkpt lat="42.91138" lon="0.26015">
        <ele>1797</ele>
        <time>2017-03-04T13:32:27Z</time>
      </trkpt>
      <trkpt lat="42.91136" lon="0.26014">
        <ele>1797</ele>
        <time>2017-03-04T13:32:27Z</time>
      </trkpt>
      <trkpt lat="42.91135" lon="0.26011">
        <ele>1797</ele>
        <time>2017-03-04T13:32:27Z</time>
      </trkpt>
      <trkpt lat="42.91134" lon="0.26008">
        <ele>1797</ele>
        <time>2017-03-04T13:32:27Z</time>
      </trkpt>
      <trkpt lat="42.91132" lon="0.26006">
        <ele>1797</ele>
        <time>2017-03-04T13:32:42Z</time>
      </trkpt>
      <trkpt lat="42.91131" lon="0.26003">
        <ele>1797</ele>
        <time>2017-03-04T13:32:42Z</time>
      </trkpt>
      <trkpt lat="42.91127" lon="0.26001">
        <ele>1797</ele>
        <time>2017-03-04T13:32:42Z</time>
      </trkpt>
      <trkpt lat="42.91119" lon="0.25999">
        <ele>1786</ele>
        <time>2017-03-04T13:32:43Z</time>
      </trkpt>
      <trkpt lat="42.91117" lon="0.26">
        <ele>1786</ele>
        <time>2017-03-04T13:33:02Z</time>
      </trkpt>
      <trkpt lat="42.91115" lon="0.25999">
        <ele>1786</ele>
        <time>2017-03-04T13:33:02Z</time>
      </trkpt>
      <trkpt lat="42.91115" lon="0.25999">
        <ele>1786</ele>
        <time>2017-03-04T13:33:02Z</time>
      </trkpt>
      <trkpt lat="42.9111" lon="0.25996">
        <ele>1786</ele>
        <time>2017-03-04T13:33:03Z</time>
      </trkpt>
      <trkpt lat="42.91103" lon="0.25994">
        <ele>1786</ele>
        <time>2017-03-04T13:33:03Z</time>
      </trkpt>
      <trkpt lat="42.91103" lon="0.25995">
        <ele>1786</ele>
        <time>2017-03-04T13:33:18Z</time>
      </trkpt>
      <trkpt lat="42.91095" lon="0.25996">
        <ele>1786</ele>
        <time>2017-03-04T13:33:18Z</time>
      </trkpt>
      <trkpt lat="42.91085" lon="0.25994">
        <ele>1786</ele>
        <time>2017-03-04T13:33:19Z</time>
      </trkpt>
      <trkpt lat="42.91076" lon="0.25994">
        <ele>1786</ele>
        <time>2017-03-04T13:33:19Z</time>
      </trkpt>
      <trkpt lat="42.91076" lon="0.2599">
        <ele>1786</ele>
        <time>2017-03-04T13:35:46Z</time>
      </trkpt>
      <trkpt lat="42.91063" lon="0.26006">
        <ele>1786</ele>
        <time>2017-03-04T13:35:47Z</time>
      </trkpt>
      <trkpt lat="42.91052" lon="0.26017">
        <ele>1786</ele>
        <time>2017-03-04T13:35:47Z</time>
      </trkpt>
      <trkpt lat="42.91046" lon="0.26028">
        <ele>1786</ele>
        <time>2017-03-04T13:35:47Z</time>
      </trkpt>
      <trkpt lat="42.9104" lon="0.26037">
        <ele>1783</ele>
        <time>2017-03-04T13:35:47Z</time>
      </trkpt>
      <trkpt lat="42.91033" lon="0.26045">
        <ele>1764</ele>
        <time>2017-03-04T13:36:02Z</time>
      </trkpt>
      <trkpt lat="42.9103" lon="0.26051">
        <ele>1764</ele>
        <time>2017-03-04T13:36:02Z</time>
      </trkpt>
      <trkpt lat="42.91025" lon="0.26058">
        <ele>1764</ele>
        <time>2017-03-04T13:36:02Z</time>
      </trkpt>
      <trkpt lat="42.9102" lon="0.26069">
        <ele>1764</ele>
        <time>2017-03-04T13:36:03Z</time>
      </trkpt>
      <trkpt lat="42.91015" lon="0.26078">
        <ele>1764</ele>
        <time>2017-03-04T13:36:18Z</time>
      </trkpt>
      <trkpt lat="42.91011" lon="0.2609">
        <ele>1764</ele>
        <time>2017-03-04T13:36:18Z</time>
      </trkpt>
      <trkpt lat="42.91007" lon="0.26102">
        <ele>1764</ele>
        <time>2017-03-04T13:36:19Z</time>
      </trkpt>
      <trkpt lat="42.91003" lon="0.2611">
        <ele>1764</ele>
        <time>2017-03-04T13:36:19Z</time>
      </trkpt>
      <trkpt lat="42.90999" lon="0.2612">
        <ele>1764</ele>
        <time>2017-03-04T13:36:34Z</time>
      </trkpt>
      <trkpt lat="42.90998" lon="0.26128">
        <ele>1743</ele>
        <time>2017-03-04T13:36:34Z</time>
      </trkpt>
      <trkpt lat="42.90998" lon="0.2614">
        <ele>1743</ele>
        <time>2017-03-04T13:36:35Z</time>
      </trkpt>
      <trkpt lat="42.90997" lon="0.26154">
        <ele>1743</ele>
        <time>2017-03-04T13:36:35Z</time>
      </trkpt>
      <trkpt lat="42.90995" lon="0.26166">
        <ele>1743</ele>
        <time>2017-03-04T13:36:50Z</time>
      </trkpt>
      <trkpt lat="42.90994" lon="0.26178">
        <ele>1743</ele>
        <time>2017-03-04T13:36:50Z</time>
      </trkpt>
      <trkpt lat="42.90994" lon="0.26189">
        <ele>1743</ele>
        <time>2017-03-04T13:36:51Z</time>
      </trkpt>
      <trkpt lat="42.90993" lon="0.26203">
        <ele>1743</ele>
        <time>2017-03-04T13:36:51Z</time>
      </trkpt>
      <trkpt lat="42.90991" lon="0.26216">
        <ele>1725</ele>
        <time>2017-03-04T13:37:06Z</time>
      </trkpt>
      <trkpt lat="42.90989" lon="0.26228">
        <ele>1725</ele>
        <time>2017-03-04T13:37:06Z</time>
      </trkpt>
      <trkpt lat="42.90987" lon="0.26236">
        <ele>1725</ele>
        <time>2017-03-04T13:37:07Z</time>
      </trkpt>
      <trkpt lat="42.90987" lon="0.26245">
        <ele>1725</ele>
        <time>2017-03-04T13:37:07Z</time>
      </trkpt>
      <trkpt lat="42.90984" lon="0.2626">
        <ele>1725</ele>
        <time>2017-03-04T13:37:22Z</time>
      </trkpt>
      <trkpt lat="42.90983" lon="0.26271">
        <ele>1725</ele>
        <time>2017-03-04T13:37:22Z</time>
      </trkpt>
      <trkpt lat="42.90981" lon="0.26282">
        <ele>1725</ele>
        <time>2017-03-04T13:37:23Z</time>
      </trkpt>
      <trkpt lat="42.90979" lon="0.26297">
        <ele>1712</ele>
        <time>2017-03-04T13:37:23Z</time>
      </trkpt>
      <trkpt lat="42.90977" lon="0.2631">
        <ele>1712</ele>
        <time>2017-03-04T13:37:38Z</time>
      </trkpt>
      <trkpt lat="42.90976" lon="0.26317">
        <ele>1712</ele>
        <time>2017-03-04T13:37:38Z</time>
      </trkpt>
      <trkpt lat="42.90973" lon="0.26327">
        <ele>1712</ele>
        <time>2017-03-04T13:37:39Z</time>
      </trkpt>
      <trkpt lat="42.90968" lon="0.26345">
        <ele>1712</ele>
        <time>2017-03-04T13:37:39Z</time>
      </trkpt>
      <trkpt lat="42.90959" lon="0.26367">
        <ele>1712</ele>
        <time>2017-03-04T13:37:54Z</time>
      </trkpt>
      <trkpt lat="42.90956" lon="0.2638">
        <ele>1718</ele>
        <time>2017-03-04T13:37:54Z</time>
      </trkpt>
      <trkpt lat="42.90953" lon="0.26397">
        <ele>1718</ele>
        <time>2017-03-04T13:37:55Z</time>
      </trkpt>
      <trkpt lat="42.90951" lon="0.26405">
        <ele>1718</ele>
        <time>2017-03-04T13:37:55Z</time>
      </trkpt>
      <trkpt lat="42.90949" lon="0.26413">
        <ele>1718</ele>
        <time>2017-03-04T13:38:10Z</time>
      </trkpt>
      <trkpt lat="42.90946" lon="0.26423">
        <ele>1718</ele>
        <time>2017-03-04T13:38:10Z</time>
      </trkpt>
      <trkpt lat="42.90944" lon="0.2643">
        <ele>1718</ele>
        <time>2017-03-04T13:38:11Z</time>
      </trkpt>
      <trkpt lat="42.90944" lon="0.26433">
        <ele>1718</ele>
        <time>2017-03-04T13:38:11Z</time>
      </trkpt>
      <trkpt lat="42.90941" lon="0.26438">
        <ele>1718</ele>
        <time>2017-03-04T13:38:26Z</time>
      </trkpt>
      <trkpt lat="42.90938" lon="0.26447">
        <ele>1718</ele>
        <time>2017-03-04T13:38:26Z</time>
      </trkpt>
      <trkpt lat="42.90936" lon="0.26455">
        <ele>1718</ele>
        <time>2017-03-04T13:38:27Z</time>
      </trkpt>
      <trkpt lat="42.90935" lon="0.26456">
        <ele>1718</ele>
        <time>2017-03-04T13:38:27Z</time>
      </trkpt>
      <trkpt lat="42.90934" lon="0.26457">
        <ele>1718</ele>
        <time>2017-03-04T13:39:26Z</time>
      </trkpt>
      <trkpt lat="42.90931" lon="0.26464">
        <ele>1699</ele>
        <time>2017-03-04T13:39:26Z</time>
      </trkpt>
      <trkpt lat="42.90927" lon="0.26473">
        <ele>1699</ele>
        <time>2017-03-04T13:39:27Z</time>
      </trkpt>
      <trkpt lat="42.90922" lon="0.26479">
        <ele>1699</ele>
        <time>2017-03-04T13:39:27Z</time>
      </trkpt>
      <trkpt lat="42.9092" lon="0.26483">
        <ele>1699</ele>
        <time>2017-03-04T13:39:27Z</time>
      </trkpt>
      <trkpt lat="42.90917" lon="0.26488">
        <ele>1699</ele>
        <time>2017-03-04T13:39:50Z</time>
      </trkpt>
      <trkpt lat="42.90914" lon="0.26494">
        <ele>1699</ele>
        <time>2017-03-04T13:39:50Z</time>
      </trkpt>
      <trkpt lat="42.90913" lon="0.26493">
        <ele>1699</ele>
        <time>2017-03-04T13:39:51Z</time>
      </trkpt>
      <trkpt lat="42.90912" lon="0.26493">
        <ele>1699</ele>
        <time>2017-03-04T13:39:51Z</time>
      </trkpt>
      <trkpt lat="42.90911" lon="0.26494">
        <ele>1699</ele>
        <time>2017-03-04T13:39:51Z</time>
      </trkpt>
      <trkpt lat="42.90908" lon="0.26495">
        <ele>1699</ele>
        <time>2017-03-04T13:40:14Z</time>
      </trkpt>
      <trkpt lat="42.90907" lon="0.26495">
        <ele>1699</ele>
        <time>2017-03-04T13:40:15Z</time>
      </trkpt>
      <trkpt lat="42.90905" lon="0.26495">
        <ele>1699</ele>
        <time>2017-03-04T13:40:15Z</time>
      </trkpt>
      <trkpt lat="42.90905" lon="0.26496">
        <ele>1699</ele>
        <time>2017-03-04T13:40:15Z</time>
      </trkpt>
      <trkpt lat="42.90899" lon="0.26498">
        <ele>1699</ele>
        <time>2017-03-04T13:40:15Z</time>
      </trkpt>
      <trkpt lat="42.90892" lon="0.26499">
        <ele>1699</ele>
        <time>2017-03-04T13:40:30Z</time>
      </trkpt>
      <trkpt lat="42.90882" lon="0.26503">
        <ele>1699</ele>
        <time>2017-03-04T13:40:31Z</time>
      </trkpt>
      <trkpt lat="42.90873" lon="0.26507">
        <ele>1702</ele>
        <time>2017-03-04T13:40:31Z</time>
      </trkpt>
      <trkpt lat="42.90871" lon="0.26512">
        <ele>1702</ele>
        <time>2017-03-04T13:40:31Z</time>
      </trkpt>
      <trkpt lat="42.90871" lon="0.26514">
        <ele>1702</ele>
        <time>2017-03-04T13:40:46Z</time>
      </trkpt>
      <trkpt lat="42.90864" lon="0.26518">
        <ele>1702</ele>
        <time>2017-03-04T13:40:46Z</time>
      </trkpt>
      <trkpt lat="42.90857" lon="0.26524">
        <ele>1702</ele>
        <time>2017-03-04T13:40:47Z</time>
      </trkpt>
      <trkpt lat="42.90849" lon="0.26532">
        <ele>1702</ele>
        <time>2017-03-04T13:40:47Z</time>
      </trkpt>
      <trkpt lat="42.9084" lon="0.26538">
        <ele>1702</ele>
        <time>2017-03-04T13:41:03Z</time>
      </trkpt>
      <trkpt lat="42.90832" lon="0.26543">
        <ele>1681</ele>
        <time>2017-03-04T13:41:03Z</time>
      </trkpt>
      <trkpt lat="42.90827" lon="0.26547">
        <ele>1681</ele>
        <time>2017-03-04T13:41:03Z</time>
      </trkpt>
      <trkpt lat="42.90819" lon="0.26552">
        <ele>1681</ele>
        <time>2017-03-04T13:41:03Z</time>
      </trkpt>
      <trkpt lat="42.90812" lon="0.26556">
        <ele>1681</ele>
        <time>2017-03-04T13:41:18Z</time>
      </trkpt>
      <trkpt lat="42.90805" lon="0.26557">
        <ele>1681</ele>
        <time>2017-03-04T13:41:19Z</time>
      </trkpt>
      <trkpt lat="42.9079" lon="0.26562">
        <ele>1691</ele>
        <time>2017-03-04T13:41:19Z</time>
      </trkpt>
      <trkpt lat="42.90783" lon="0.26572">
        <ele>1691</ele>
        <time>2017-03-04T13:41:19Z</time>
      </trkpt>
      <trkpt lat="42.9078" lon="0.26578">
        <ele>1691</ele>
        <time>2017-03-04T13:41:34Z</time>
      </trkpt>
      <trkpt lat="42.90782" lon="0.26599">
        <ele>1691</ele>
        <time>2017-03-04T13:41:34Z</time>
      </trkpt>
      <trkpt lat="42.90779" lon="0.26622">
        <ele>1691</ele>
        <time>2017-03-04T13:41:35Z</time>
      </trkpt>
      <trkpt lat="42.90779" lon="0.26632">
        <ele>1675</ele>
        <time>2017-03-04T13:41:35Z</time>
      </trkpt>
      <trkpt lat="42.90778" lon="0.26647">
        <ele>1675</ele>
        <time>2017-03-04T13:41:50Z</time>
      </trkpt>
      <trkpt lat="42.90776" lon="0.26658">
        <ele>1675</ele>
        <time>2017-03-04T13:41:50Z</time>
      </trkpt>
      <trkpt lat="42.90776" lon="0.26667">
        <ele>1675</ele>
        <time>2017-03-04T13:41:51Z</time>
      </trkpt>
      <trkpt lat="42.90776" lon="0.2668">
        <ele>1675</ele>
        <time>2017-03-04T13:41:51Z</time>
      </trkpt>
      <trkpt lat="42.90774" lon="0.26692">
        <ele>1675</ele>
        <time>2017-03-04T13:42:06Z</time>
      </trkpt>
      <trkpt lat="42.90774" lon="0.26703">
        <ele>1675</ele>
        <time>2017-03-04T13:42:07Z</time>
      </trkpt>
      <trkpt lat="42.90774" lon="0.2671">
        <ele>1659</ele>
        <time>2017-03-04T13:42:07Z</time>
      </trkpt>
      <trkpt lat="42.90774" lon="0.26724">
        <ele>1659</ele>
        <time>2017-03-04T13:42:07Z</time>
      </trkpt>
      <trkpt lat="42.90773" lon="0.26744">
        <ele>1659</ele>
        <time>2017-03-04T13:42:22Z</time>
      </trkpt>
      <trkpt lat="42.90772" lon="0.26753">
        <ele>1659</ele>
        <time>2017-03-04T13:42:22Z</time>
      </trkpt>
      <trkpt lat="42.90769" lon="0.26767">
        <ele>1659</ele>
        <time>2017-03-04T13:42:22Z</time>
      </trkpt>
      <trkpt lat="42.90765" lon="0.26774">
        <ele>1659</ele>
        <time>2017-03-04T13:42:23Z</time>
      </trkpt>
      <trkpt lat="42.90757" lon="0.26786">
        <ele>1659</ele>
        <time>2017-03-04T13:45:50Z</time>
      </trkpt>
      <trkpt lat="42.90753" lon="0.26795">
        <ele>1642</ele>
        <time>2017-03-04T13:45:50Z</time>
      </trkpt>
      <trkpt lat="42.90746" lon="0.26806">
        <ele>1642</ele>
        <time>2017-03-04T13:45:51Z</time>
      </trkpt>
      <trkpt lat="42.9074" lon="0.26819">
        <ele>1642</ele>
        <time>2017-03-04T13:45:51Z</time>
      </trkpt>
      <trkpt lat="42.90735" lon="0.26831">
        <ele>1642</ele>
        <time>2017-03-04T13:45:51Z</time>
      </trkpt>
      <trkpt lat="42.90732" lon="0.2684">
        <ele>1642</ele>
        <time>2017-03-04T13:46:06Z</time>
      </trkpt>
      <trkpt lat="42.90729" lon="0.26851">
        <ele>1642</ele>
        <time>2017-03-04T13:46:07Z</time>
      </trkpt>
      <trkpt lat="42.90726" lon="0.26863">
        <ele>1642</ele>
        <time>2017-03-04T13:46:07Z</time>
      </trkpt>
      <trkpt lat="42.90725" lon="0.26879">
        <ele>1624</ele>
        <time>2017-03-04T13:46:07Z</time>
      </trkpt>
      <trkpt lat="42.90726" lon="0.26895">
        <ele>1624</ele>
        <time>2017-03-04T13:46:22Z</time>
      </trkpt>
      <trkpt lat="42.9073" lon="0.26912">
        <ele>1624</ele>
        <time>2017-03-04T13:46:23Z</time>
      </trkpt>
      <trkpt lat="42.90731" lon="0.26926">
        <ele>1624</ele>
        <time>2017-03-04T13:46:23Z</time>
      </trkpt>
      <trkpt lat="42.90731" lon="0.26933">
        <ele>1624</ele>
        <time>2017-03-04T13:46:23Z</time>
      </trkpt>
      <trkpt lat="42.90729" lon="0.26943">
        <ele>1624</ele>
        <time>2017-03-04T13:46:38Z</time>
      </trkpt>
      <trkpt lat="42.90728" lon="0.26949">
        <ele>1624</ele>
        <time>2017-03-04T13:46:38Z</time>
      </trkpt>
      <trkpt lat="42.90728" lon="0.26955">
        <ele>1624</ele>
        <time>2017-03-04T13:46:39Z</time>
      </trkpt>
      <trkpt lat="42.90728" lon="0.26959">
        <ele>1611</ele>
        <time>2017-03-04T13:46:39Z</time>
      </trkpt>
      <trkpt lat="42.90733" lon="0.26969">
        <ele>1611</ele>
        <time>2017-03-04T13:47:14Z</time>
      </trkpt>
      <trkpt lat="42.90732" lon="0.26977">
        <ele>1611</ele>
        <time>2017-03-04T13:47:14Z</time>
      </trkpt>
      <trkpt lat="42.9073" lon="0.26985">
        <ele>1611</ele>
        <time>2017-03-04T13:47:15Z</time>
      </trkpt>
      <trkpt lat="42.9073" lon="0.26987">
        <ele>1611</ele>
        <time>2017-03-04T13:47:15Z</time>
      </trkpt>
      <trkpt lat="42.9073" lon="0.2699">
        <ele>1611</ele>
        <time>2017-03-04T13:47:15Z</time>
      </trkpt>
      <trkpt lat="42.90733" lon="0.26995">
        <ele>1611</ele>
        <time>2017-03-04T13:47:58Z</time>
      </trkpt>
      <trkpt lat="42.90734" lon="0.27001">
        <ele>1611</ele>
        <time>2017-03-04T13:47:59Z</time>
      </trkpt>
      <trkpt lat="42.90733" lon="0.27005">
        <ele>1611</ele>
        <time>2017-03-04T13:47:59Z</time>
      </trkpt>
      <trkpt lat="42.90732" lon="0.27011">
        <ele>1611</ele>
        <time>2017-03-04T13:47:59Z</time>
      </trkpt>
      <trkpt lat="42.90732" lon="0.2702">
        <ele>1611</ele>
        <time>2017-03-04T13:47:59Z</time>
      </trkpt>
      <trkpt lat="42.90733" lon="0.27034">
        <ele>1611</ele>
        <time>2017-03-04T13:48:14Z</time>
      </trkpt>
      <trkpt lat="42.90734" lon="0.27052">
        <ele>1604</ele>
        <time>2017-03-04T13:48:14Z</time>
      </trkpt>
      <trkpt lat="42.90734" lon="0.27066">
        <ele>1604</ele>
        <time>2017-03-04T13:48:15Z</time>
      </trkpt>
      <trkpt lat="42.90734" lon="0.27077">
        <ele>1604</ele>
        <time>2017-03-04T13:48:15Z</time>
      </trkpt>
      <trkpt lat="42.90734" lon="0.27088">
        <ele>1604</ele>
        <time>2017-03-04T13:48:30Z</time>
      </trkpt>
      <trkpt lat="42.90733" lon="0.27103">
        <ele>1604</ele>
        <time>2017-03-04T13:48:30Z</time>
      </trkpt>
      <trkpt lat="42.90734" lon="0.27114">
        <ele>1604</ele>
        <time>2017-03-04T13:48:31Z</time>
      </trkpt>
      <trkpt lat="42.90737" lon="0.27129">
        <ele>1602</ele>
        <time>2017-03-04T13:48:31Z</time>
      </trkpt>
      <trkpt lat="42.90739" lon="0.27142">
        <ele>1602</ele>
        <time>2017-03-04T13:49:06Z</time>
      </trkpt>
      <trkpt lat="42.90739" lon="0.27142">
        <ele>1602</ele>
        <time>2017-03-04T13:49:06Z</time>
      </trkpt>
      <trkpt lat="42.9074" lon="0.27143">
        <ele>1602</ele>
        <time>2017-03-04T13:49:07Z</time>
      </trkpt>
      <trkpt lat="42.9074" lon="0.27145">
        <ele>1602</ele>
        <time>2017-03-04T13:49:07Z</time>
      </trkpt>
      <trkpt lat="42.90741" lon="0.2715">
        <ele>1602</ele>
        <time>2017-03-04T13:49:07Z</time>
      </trkpt>
      <trkpt lat="42.90742" lon="0.27157">
        <ele>1602</ele>
        <time>2017-03-04T13:49:22Z</time>
      </trkpt>
      <trkpt lat="42.90743" lon="0.27163">
        <ele>1602</ele>
        <time>2017-03-04T13:49:22Z</time>
      </trkpt>
      <trkpt lat="42.90741" lon="0.27172">
        <ele>1602</ele>
        <time>2017-03-04T13:49:22Z</time>
      </trkpt>
      <trkpt lat="42.9074" lon="0.27174">
        <ele>1602</ele>
        <time>2017-03-04T13:49:23Z</time>
      </trkpt>
      <trkpt lat="42.9074" lon="0.27173">
        <ele>1602</ele>
        <time>2017-03-04T13:49:42Z</time>
      </trkpt>
      <trkpt lat="42.90741" lon="0.27173">
        <ele>1602</ele>
        <time>2017-03-04T13:49:42Z</time>
      </trkpt>
      <trkpt lat="42.90743" lon="0.27171">
        <ele>1602</ele>
        <time>2017-03-04T13:49:42Z</time>
      </trkpt>
      <trkpt lat="42.90746" lon="0.27174">
        <ele>1602</ele>
        <time>2017-03-04T13:49:43Z</time>
      </trkpt>
      <trkpt lat="42.9075" lon="0.27173">
        <ele>1602</ele>
        <time>2017-03-04T13:49:43Z</time>
      </trkpt>
      <trkpt lat="42.90755" lon="0.27181">
        <ele>1602</ele>
        <time>2017-03-04T13:49:58Z</time>
      </trkpt>
      <trkpt lat="42.90754" lon="0.2719">
        <ele>1602</ele>
        <time>2017-03-04T13:49:58Z</time>
      </trkpt>
      <trkpt lat="42.90755" lon="0.27192">
        <ele>1602</ele>
        <time>2017-03-04T13:49:59Z</time>
      </trkpt>
      <trkpt lat="42.90755" lon="0.27196">
        <ele>1602</ele>
        <time>2017-03-04T13:49:59Z</time>
      </trkpt>
      <trkpt lat="42.90756" lon="0.272">
        <ele>1602</ele>
        <time>2017-03-04T13:50:14Z</time>
      </trkpt>
      <trkpt lat="42.9076" lon="0.27204">
        <ele>1602</ele>
        <time>2017-03-04T13:50:14Z</time>
      </trkpt>
      <trkpt lat="42.90762" lon="0.27214">
        <ele>1599</ele>
        <time>2017-03-04T13:50:15Z</time>
      </trkpt>
      <trkpt lat="42.90763" lon="0.2722">
        <ele>1599</ele>
        <time>2017-03-04T13:50:15Z</time>
      </trkpt>
      <trkpt lat="42.90761" lon="0.27232">
        <ele>1599</ele>
        <time>2017-03-04T13:50:30Z</time>
      </trkpt>
      <trkpt lat="42.90755" lon="0.27238">
        <ele>1599</ele>
        <time>2017-03-04T13:50:30Z</time>
      </trkpt>
      <trkpt lat="42.90749" lon="0.27241">
        <ele>1599</ele>
        <time>2017-03-04T13:50:31Z</time>
      </trkpt>
      <trkpt lat="42.90744" lon="0.27242">
        <ele>1599</ele>
        <time>2017-03-04T13:50:31Z</time>
      </trkpt>
      <trkpt lat="42.90731" lon="0.27245">
        <ele>1599</ele>
        <time>2017-03-04T13:51:14Z</time>
      </trkpt>
      <trkpt lat="42.9074" lon="0.27265">
        <ele>1599</ele>
        <time>2017-03-04T13:51:14Z</time>
      </trkpt>
      <trkpt lat="42.90732" lon="0.27278">
        <ele>1599</ele>
        <time>2017-03-04T13:51:15Z</time>
      </trkpt>
      <trkpt lat="42.90728" lon="0.273">
        <ele>1580</ele>
        <time>2017-03-04T13:51:15Z</time>
      </trkpt>
      <trkpt lat="42.90737" lon="0.27317">
        <ele>1580</ele>
        <time>2017-03-04T13:51:15Z</time>
      </trkpt>
      <trkpt lat="42.90743" lon="0.27318">
        <ele>1580</ele>
        <time>2017-03-04T13:52:14Z</time>
      </trkpt>
      <trkpt lat="42.90743" lon="0.27318">
        <ele>1580</ele>
        <time>2017-03-04T13:52:14Z</time>
      </trkpt>
      <trkpt lat="42.90744" lon="0.27319">
        <ele>1580</ele>
        <time>2017-03-04T13:52:15Z</time>
      </trkpt>
      <trkpt lat="42.90746" lon="0.27322">
        <ele>1580</ele>
        <time>2017-03-04T13:52:15Z</time>
      </trkpt>
      <trkpt lat="42.90749" lon="0.27328">
        <ele>1580</ele>
        <time>2017-03-04T13:52:15Z</time>
      </trkpt>
      <trkpt lat="42.90751" lon="0.2733">
        <ele>1580</ele>
        <time>2017-03-04T13:52:30Z</time>
      </trkpt>
      <trkpt lat="42.90753" lon="0.2733">
        <ele>1580</ele>
        <time>2017-03-04T13:52:30Z</time>
      </trkpt>
      <trkpt lat="42.90754" lon="0.27337">
        <ele>1580</ele>
        <time>2017-03-04T13:52:31Z</time>
      </trkpt>
      <trkpt lat="42.9075" lon="0.27345">
        <ele>1580</ele>
        <time>2017-03-04T13:52:31Z</time>
      </trkpt>
      <trkpt lat="42.90745" lon="0.27354">
        <ele>1580</ele>
        <time>2017-03-04T13:52:46Z</time>
      </trkpt>
      <trkpt lat="42.90752" lon="0.27372">
        <ele>1580</ele>
        <time>2017-03-04T13:52:46Z</time>
      </trkpt>
      <trkpt lat="42.90761" lon="0.27379">
        <ele>1550</ele>
        <time>2017-03-04T13:52:47Z</time>
      </trkpt>
      <trkpt lat="42.90769" lon="0.27386">
        <ele>1550</ele>
        <time>2017-03-04T13:52:47Z</time>
      </trkpt>
      <trkpt lat="42.90773" lon="0.27389">
        <ele>1550</ele>
        <time>2017-03-04T13:53:30Z</time>
      </trkpt>
      <trkpt lat="42.90771" lon="0.27402">
        <ele>1550</ele>
        <time>2017-03-04T13:53:30Z</time>
      </trkpt>
      <trkpt lat="42.90779" lon="0.27418">
        <ele>1550</ele>
        <time>2017-03-04T13:53:31Z</time>
      </trkpt>
      <trkpt lat="42.90774" lon="0.27438">
        <ele>1550</ele>
        <time>2017-03-04T13:53:31Z</time>
      </trkpt>
      <trkpt lat="42.90777" lon="0.27459">
        <ele>1523</ele>
        <time>2017-03-04T13:53:31Z</time>
      </trkpt>
      <trkpt lat="42.90765" lon="0.27472">
        <ele>1523</ele>
        <time>2017-03-04T13:53:46Z</time>
      </trkpt>
      <trkpt lat="42.90765" lon="0.27489">
        <ele>1523</ele>
        <time>2017-03-04T13:53:46Z</time>
      </trkpt>
      <trkpt lat="42.90761" lon="0.27505">
        <ele>1523</ele>
        <time>2017-03-04T13:53:47Z</time>
      </trkpt>
      <trkpt lat="42.90766" lon="0.27527">
        <ele>1523</ele>
        <time>2017-03-04T13:53:47Z</time>
      </trkpt>
      <trkpt lat="42.90777" lon="0.27544">
        <ele>1499</ele>
        <time>2017-03-04T13:55:26Z</time>
      </trkpt>
      <trkpt lat="42.90776" lon="0.27543">
        <ele>1499</ele>
        <time>2017-03-04T13:55:26Z</time>
      </trkpt>
      <trkpt lat="42.90776" lon="0.27542">
        <ele>1499</ele>
        <time>2017-03-04T13:55:27Z</time>
      </trkpt>
      <trkpt lat="42.90774" lon="0.27542">
        <ele>1499</ele>
        <time>2017-03-04T13:55:27Z</time>
      </trkpt>
      <trkpt lat="42.90766" lon="0.27545">
        <ele>1499</ele>
        <time>2017-03-04T13:55:27Z</time>
      </trkpt>
      <trkpt lat="42.90761" lon="0.27554">
        <ele>1499</ele>
        <time>2017-03-04T13:55:43Z</time>
      </trkpt>
      <trkpt lat="42.90772" lon="0.27571">
        <ele>1499</ele>
        <time>2017-03-04T13:55:43Z</time>
      </trkpt>
      <trkpt lat="42.90777" lon="0.27584">
        <ele>1499</ele>
        <time>2017-03-04T13:55:43Z</time>
      </trkpt>
      <trkpt lat="42.90771" lon="0.27592">
        <ele>1499</ele>
        <time>2017-03-04T13:55:43Z</time>
      </trkpt>
      <trkpt lat="42.90764" lon="0.27598">
        <ele>1499</ele>
        <time>2017-03-04T13:56:10Z</time>
      </trkpt>
      <trkpt lat="42.90763" lon="0.27599">
        <ele>1499</ele>
        <time>2017-03-04T13:56:10Z</time>
      </trkpt>
      <trkpt lat="42.90762" lon="0.276">
        <ele>1499</ele>
        <time>2017-03-04T13:56:11Z</time>
      </trkpt>
      <trkpt lat="42.90762" lon="0.27601">
        <ele>1499</ele>
        <time>2017-03-04T13:56:11Z</time>
      </trkpt>
      <trkpt lat="42.90767" lon="0.27607">
        <ele>1499</ele>
        <time>2017-03-04T13:56:11Z</time>
      </trkpt>
      <trkpt lat="42.9076" lon="0.27613">
        <ele>1499</ele>
        <time>2017-03-04T13:56:26Z</time>
      </trkpt>
      <trkpt lat="42.90766" lon="0.2763">
        <ele>1483</ele>
        <time>2017-03-04T13:56:26Z</time>
      </trkpt>
      <trkpt lat="42.90767" lon="0.27649">
        <ele>1483</ele>
        <time>2017-03-04T13:56:27Z</time>
      </trkpt>
      <trkpt lat="42.90779" lon="0.27665">
        <ele>1483</ele>
        <time>2017-03-04T13:56:27Z</time>
      </trkpt>
      <trkpt lat="42.90786" lon="0.27677">
        <ele>1483</ele>
        <time>2017-03-04T13:56:43Z</time>
      </trkpt>
      <trkpt lat="42.90783" lon="0.2769">
        <ele>1483</ele>
        <time>2017-03-04T13:56:43Z</time>
      </trkpt>
      <trkpt lat="42.90775" lon="0.27688">
        <ele>1483</ele>
        <time>2017-03-04T13:56:43Z</time>
      </trkpt>
      <trkpt lat="42.90767" lon="0.27691">
        <ele>1483</ele>
        <time>2017-03-04T13:56:43Z</time>
      </trkpt>
      <trkpt lat="42.90765" lon="0.27721">
        <ele>1472</ele>
        <time>2017-03-04T13:57:14Z</time>
      </trkpt>
      <trkpt lat="42.90762" lon="0.27721">
        <ele>1472</ele>
        <time>2017-03-04T13:57:14Z</time>
      </trkpt>
      <trkpt lat="42.90754" lon="0.27731">
        <ele>1472</ele>
        <time>2017-03-04T13:57:15Z</time>
      </trkpt>
      <trkpt lat="42.90748" lon="0.27747">
        <ele>1472</ele>
        <time>2017-03-04T13:57:15Z</time>
      </trkpt>
      <trkpt lat="42.90751" lon="0.27758">
        <ele>1472</ele>
        <time>2017-03-04T13:57:15Z</time>
      </trkpt>
      <trkpt lat="42.90756" lon="0.27765">
        <ele>1472</ele>
        <time>2017-03-04T13:57:34Z</time>
      </trkpt>
      <trkpt lat="42.90757" lon="0.27768">
        <ele>1472</ele>
        <time>2017-03-04T13:57:34Z</time>
      </trkpt>
      <trkpt lat="42.90756" lon="0.27773">
        <ele>1472</ele>
        <time>2017-03-04T13:57:35Z</time>
      </trkpt>
      <trkpt lat="42.90755" lon="0.27776">
        <ele>1472</ele>
        <time>2017-03-04T13:57:35Z</time>
      </trkpt>
      <trkpt lat="42.90755" lon="0.27779">
        <ele>1472</ele>
        <time>2017-03-04T13:57:35Z</time>
      </trkpt>
      <trkpt lat="42.90755" lon="0.27788">
        <ele>1472</ele>
        <time>2017-03-04T13:57:50Z</time>
      </trkpt>
      <trkpt lat="42.90757" lon="0.278">
        <ele>1461</ele>
        <time>2017-03-04T13:57:50Z</time>
      </trkpt>
      <trkpt lat="42.90762" lon="0.27817">
        <ele>1461</ele>
        <time>2017-03-04T13:57:51Z</time>
      </trkpt>
      <trkpt lat="42.90769" lon="0.27832">
        <ele>1461</ele>
        <time>2017-03-04T13:57:51Z</time>
      </trkpt>
      <trkpt lat="42.90774" lon="0.27847">
        <ele>1461</ele>
        <time>2017-03-04T13:58:06Z</time>
      </trkpt>
      <trkpt lat="42.9078" lon="0.27861">
        <ele>1461</ele>
        <time>2017-03-04T13:58:07Z</time>
      </trkpt>
      <trkpt lat="42.90786" lon="0.27875">
        <ele>1453</ele>
        <time>2017-03-04T13:58:07Z</time>
      </trkpt>
      <trkpt lat="42.90792" lon="0.27893">
        <ele>1444</ele>
        <time>2017-03-04T13:58:07Z</time>
      </trkpt>
      <trkpt lat="42.90798" lon="0.27907">
        <ele>1444</ele>
        <time>2017-03-04T13:58:23Z</time>
      </trkpt>
      <trkpt lat="42.90804" lon="0.27921">
        <ele>1444</ele>
        <time>2017-03-04T13:58:23Z</time>
      </trkpt>
      <trkpt lat="42.90809" lon="0.27931">
        <ele>1444</ele>
        <time>2017-03-04T13:58:23Z</time>
      </trkpt>
      <trkpt lat="42.90816" lon="0.27944">
        <ele>1444</ele>
        <time>2017-03-04T13:58:23Z</time>
      </trkpt>
      <trkpt lat="42.90821" lon="0.27954">
        <ele>1444</ele>
        <time>2017-03-04T13:58:38Z</time>
      </trkpt>
      <trkpt lat="42.90826" lon="0.27965">
        <ele>1438</ele>
        <time>2017-03-04T13:58:38Z</time>
      </trkpt>
      <trkpt lat="42.90832" lon="0.27978">
        <ele>1438</ele>
        <time>2017-03-04T13:58:39Z</time>
      </trkpt>
      <trkpt lat="42.90836" lon="0.27992">
        <ele>1438</ele>
        <time>2017-03-04T13:58:39Z</time>
      </trkpt>
      <trkpt lat="42.90841" lon="0.28007">
        <ele>1438</ele>
        <time>2017-03-04T13:58:54Z</time>
      </trkpt>
      <trkpt lat="42.90843" lon="0.28023">
        <ele>1438</ele>
        <time>2017-03-04T13:58:55Z</time>
      </trkpt>
      <trkpt lat="42.90844" lon="0.28041">
        <ele>1438</ele>
        <time>2017-03-04T13:58:55Z</time>
      </trkpt>
      <trkpt lat="42.90844" lon="0.28057">
        <ele>1435</ele>
        <time>2017-03-04T13:58:55Z</time>
      </trkpt>
      <trkpt lat="42.9084" lon="0.28089">
        <ele>1435</ele>
        <time>2017-03-04T13:59:26Z</time>
      </trkpt>
      <trkpt lat="42.9084" lon="0.28089">
        <ele>1435</ele>
        <time>2017-03-04T13:59:26Z</time>
      </trkpt>
      <trkpt lat="42.90839" lon="0.28091">
        <ele>1435</ele>
        <time>2017-03-04T13:59:27Z</time>
      </trkpt>
      <trkpt lat="42.90837" lon="0.28093">
        <ele>1435</ele>
        <time>2017-03-04T13:59:27Z</time>
      </trkpt>
      <trkpt lat="42.90836" lon="0.28092">
        <ele>1435</ele>
        <time>2017-03-04T13:59:27Z</time>
      </trkpt>
      <trkpt lat="42.90836" lon="0.28089">
        <ele>1435</ele>
        <time>2017-03-04T14:01:30Z</time>
      </trkpt>
      <trkpt lat="42.90836" lon="0.28093">
        <ele>1435</ele>
        <time>2017-03-04T14:01:30Z</time>
      </trkpt>
      <trkpt lat="42.90839" lon="0.281">
        <ele>1435</ele>
        <time>2017-03-04T14:01:31Z</time>
      </trkpt>
      <trkpt lat="42.90842" lon="0.28109">
        <ele>1435</ele>
        <time>2017-03-04T14:01:31Z</time>
      </trkpt>
      <trkpt lat="42.90846" lon="0.28119">
        <ele>1435</ele>
        <time>2017-03-04T14:01:31Z</time>
      </trkpt>
      <trkpt lat="42.90852" lon="0.28129">
        <ele>1438</ele>
        <time>2017-03-04T14:01:46Z</time>
      </trkpt>
      <trkpt lat="42.90861" lon="0.28139">
        <ele>1438</ele>
        <time>2017-03-04T14:01:47Z</time>
      </trkpt>
      <trkpt lat="42.9087" lon="0.28148">
        <ele>1438</ele>
        <time>2017-03-04T14:01:47Z</time>
      </trkpt>
      <trkpt lat="42.90879" lon="0.28159">
        <ele>1422</ele>
        <time>2017-03-04T14:01:47Z</time>
      </trkpt>
      <trkpt lat="42.90892" lon="0.28172">
        <ele>1422</ele>
        <time>2017-03-04T14:02:02Z</time>
      </trkpt>
      <trkpt lat="42.90908" lon="0.28188">
        <ele>1422</ele>
        <time>2017-03-04T14:02:02Z</time>
      </trkpt>
      <trkpt lat="42.90921" lon="0.28202">
        <ele>1422</ele>
        <time>2017-03-04T14:02:02Z</time>
      </trkpt>
      <trkpt lat="42.90934" lon="0.28211">
        <ele>1426</ele>
        <time>2017-03-04T14:02:03Z</time>
      </trkpt>
      <trkpt lat="42.90947" lon="0.28223">
        <ele>1426</ele>
        <time>2017-03-04T14:02:18Z</time>
      </trkpt>
      <trkpt lat="42.90959" lon="0.28238">
        <ele>1406</ele>
        <time>2017-03-04T14:02:19Z</time>
      </trkpt>
      <trkpt lat="42.90972" lon="0.28253">
        <ele>1406</ele>
        <time>2017-03-04T14:02:19Z</time>
      </trkpt>
      <trkpt lat="42.90984" lon="0.28267">
        <ele>1406</ele>
        <time>2017-03-04T14:02:19Z</time>
      </trkpt>
      <trkpt lat="42.90997" lon="0.28281">
        <ele>1406</ele>
        <time>2017-03-04T14:02:34Z</time>
      </trkpt>
      <trkpt lat="42.91008" lon="0.28295">
        <ele>1408</ele>
        <time>2017-03-04T14:02:35Z</time>
      </trkpt>
      <trkpt lat="42.91013" lon="0.28306">
        <ele>1408</ele>
        <time>2017-03-04T14:02:35Z</time>
      </trkpt>
      <trkpt lat="42.9102" lon="0.28317">
        <ele>1408</ele>
        <time>2017-03-04T14:02:35Z</time>
      </trkpt>
      <trkpt lat="42.91026" lon="0.28325">
        <ele>1408</ele>
        <time>2017-03-04T14:02:50Z</time>
      </trkpt>
      <trkpt lat="42.91033" lon="0.28332">
        <ele>1408</ele>
        <time>2017-03-04T14:02:50Z</time>
      </trkpt>
      <trkpt lat="42.91041" lon="0.28338">
        <ele>1408</ele>
        <time>2017-03-04T14:02:51Z</time>
      </trkpt>
      <trkpt lat="42.9105" lon="0.28346">
        <ele>1399</ele>
        <time>2017-03-04T14:02:51Z</time>
      </trkpt>
      <trkpt lat="42.91055" lon="0.28353">
        <ele>1399</ele>
        <time>2017-03-04T14:03:06Z</time>
      </trkpt>
      <trkpt lat="42.91061" lon="0.28361">
        <ele>1399</ele>
        <time>2017-03-04T14:03:07Z</time>
      </trkpt>
      <trkpt lat="42.91068" lon="0.28368">
        <ele>1399</ele>
        <time>2017-03-04T14:03:07Z</time>
      </trkpt>
      <trkpt lat="42.91076" lon="0.28375">
        <ele>1399</ele>
        <time>2017-03-04T14:03:07Z</time>
      </trkpt>
      <trkpt lat="42.91083" lon="0.28381">
        <ele>1399</ele>
        <time>2017-03-04T14:03:22Z</time>
      </trkpt>
      <trkpt lat="42.9109" lon="0.28387">
        <ele>1399</ele>
        <time>2017-03-04T14:03:22Z</time>
      </trkpt>
      <trkpt lat="42.91095" lon="0.2839">
        <ele>1399</ele>
        <time>2017-03-04T14:03:22Z</time>
      </trkpt>
      <trkpt lat="42.91102" lon="0.28395">
        <ele>1399</ele>
        <time>2017-03-04T14:03:23Z</time>
      </trkpt>
      <trkpt lat="42.91109" lon="0.284">
        <ele>1399</ele>
        <time>2017-03-04T14:03:38Z</time>
      </trkpt>
      <trkpt lat="42.91115" lon="0.28404">
        <ele>1399</ele>
        <time>2017-03-04T14:03:39Z</time>
      </trkpt>
      <trkpt lat="42.91122" lon="0.28407">
        <ele>1399</ele>
        <time>2017-03-04T14:03:39Z</time>
      </trkpt>
      <trkpt lat="42.9113" lon="0.28411">
        <ele>1394</ele>
        <time>2017-03-04T14:03:39Z</time>
      </trkpt>
      <trkpt lat="42.91137" lon="0.28415">
        <ele>1394</ele>
        <time>2017-03-04T14:03:54Z</time>
      </trkpt>
      <trkpt lat="42.91146" lon="0.2842">
        <ele>1394</ele>
        <time>2017-03-04T14:03:54Z</time>
      </trkpt>
      <trkpt lat="42.91156" lon="0.28423">
        <ele>1394</ele>
        <time>2017-03-04T14:03:55Z</time>
      </trkpt>
      <trkpt lat="42.91165" lon="0.28428">
        <ele>1394</ele>
        <time>2017-03-04T14:03:55Z</time>
      </trkpt>
      <trkpt lat="42.91172" lon="0.28432">
        <ele>1394</ele>
        <time>2017-03-04T14:04:10Z</time>
      </trkpt>
      <trkpt lat="42.91182" lon="0.28437">
        <ele>1394</ele>
        <time>2017-03-04T14:04:10Z</time>
      </trkpt>
      <trkpt lat="42.91189" lon="0.28442">
        <ele>1394</ele>
        <time>2017-03-04T14:04:11Z</time>
      </trkpt>
      <trkpt lat="42.91197" lon="0.28446">
        <ele>1394</ele>
        <time>2017-03-04T14:04:11Z</time>
      </trkpt>
      <trkpt lat="42.91203" lon="0.28454">
        <ele>1394</ele>
        <time>2017-03-04T14:04:26Z</time>
      </trkpt>
      <trkpt lat="42.91207" lon="0.28458">
        <ele>1394</ele>
        <time>2017-03-04T14:04:26Z</time>
      </trkpt>
      <trkpt lat="42.9121" lon="0.28461">
        <ele>1381</ele>
        <time>2017-03-04T14:04:27Z</time>
      </trkpt>
      <trkpt lat="42.91212" lon="0.28463">
        <ele>1381</ele>
        <time>2017-03-04T14:04:27Z</time>
      </trkpt>
      <trkpt lat="42.91217" lon="0.28468">
        <ele>1381</ele>
        <time>2017-03-04T14:04:42Z</time>
      </trkpt>
      <trkpt lat="42.91223" lon="0.28472">
        <ele>1381</ele>
        <time>2017-03-04T14:04:42Z</time>
      </trkpt>
      <trkpt lat="42.91231" lon="0.28475">
        <ele>1381</ele>
        <time>2017-03-04T14:04:43Z</time>
      </trkpt>
      <trkpt lat="42.91239" lon="0.28479">
        <ele>1381</ele>
        <time>2017-03-04T14:04:43Z</time>
      </trkpt>
      <trkpt lat="42.91247" lon="0.28484">
        <ele>1381</ele>
        <time>2017-03-04T14:04:58Z</time>
      </trkpt>
      <trkpt lat="42.91256" lon="0.2849">
        <ele>1381</ele>
        <time>2017-03-04T14:04:59Z</time>
      </trkpt>
      <trkpt lat="42.91263" lon="0.28495">
        <ele>1381</ele>
        <time>2017-03-04T14:04:59Z</time>
      </trkpt>
      <trkpt lat="42.91268" lon="0.28501">
        <ele>1381</ele>
        <time>2017-03-04T14:04:59Z</time>
      </trkpt>
      <trkpt lat="42.91273" lon="0.28504">
        <ele>1381</ele>
        <time>2017-03-04T14:05:14Z</time>
      </trkpt>
      <trkpt lat="42.91279" lon="0.28508">
        <ele>1381</ele>
        <time>2017-03-04T14:05:14Z</time>
      </trkpt>
      <trkpt lat="42.91288" lon="0.28514">
        <ele>1381</ele>
        <time>2017-03-04T14:05:15Z</time>
      </trkpt>
      <trkpt lat="42.91294" lon="0.2852">
        <ele>1379</ele>
        <time>2017-03-04T14:05:15Z</time>
      </trkpt>
      <trkpt lat="42.91305" lon="0.28529">
        <ele>1379</ele>
        <time>2017-03-04T14:05:38Z</time>
      </trkpt>
      <trkpt lat="42.91304" lon="0.2853">
        <ele>1379</ele>
        <time>2017-03-04T14:05:38Z</time>
      </trkpt>
      <trkpt lat="42.91306" lon="0.2853">
        <ele>1379</ele>
        <time>2017-03-04T14:05:39Z</time>
      </trkpt>
      <trkpt lat="42.91307" lon="0.28531">
        <ele>1379</ele>
        <time>2017-03-04T14:05:39Z</time>
      </trkpt>
      <trkpt lat="42.91308" lon="0.28533">
        <ele>1379</ele>
        <time>2017-03-04T14:05:39Z</time>
      </trkpt>
      <trkpt lat="42.91308" lon="0.28533">
        <ele>1379</ele>
        <time>2017-03-04T14:06:22Z</time>
      </trkpt>
      <trkpt lat="42.91308" lon="0.28533">
        <ele>1379</ele>
        <time>2017-03-04T14:06:22Z</time>
      </trkpt>
      <trkpt lat="42.91309" lon="0.28533">
        <ele>1379</ele>
        <time>2017-03-04T14:06:22Z</time>
      </trkpt>
      <trkpt lat="42.91313" lon="0.28532">
        <ele>1379</ele>
        <time>2017-03-04T14:06:23Z</time>
      </trkpt>
      <trkpt lat="42.91319" lon="0.28534">
        <ele>1379</ele>
        <time>2017-03-04T14:06:23Z</time>
      </trkpt>
      <trkpt lat="42.91324" lon="0.28537">
        <ele>1379</ele>
        <time>2017-03-04T14:06:38Z</time>
      </trkpt>
      <trkpt lat="42.91329" lon="0.28542">
        <ele>1379</ele>
        <time>2017-03-04T14:06:39Z</time>
      </trkpt>
      <trkpt lat="42.91334" lon="0.28544">
        <ele>1378</ele>
        <time>2017-03-04T14:06:39Z</time>
      </trkpt>
      <trkpt lat="42.91338" lon="0.28546">
        <ele>1378</ele>
        <time>2017-03-04T14:06:39Z</time>
      </trkpt>
      <trkpt lat="42.91343" lon="0.28547">
        <ele>1378</ele>
        <time>2017-03-04T14:06:54Z</time>
      </trkpt>
      <trkpt lat="42.91348" lon="0.28549">
        <ele>1378</ele>
        <time>2017-03-04T14:06:55Z</time>
      </trkpt>
      <trkpt lat="42.91353" lon="0.28552">
        <ele>1378</ele>
        <time>2017-03-04T14:06:55Z</time>
      </trkpt>
      <trkpt lat="42.91359" lon="0.28554">
        <ele>1378</ele>
        <time>2017-03-04T14:06:55Z</time>
      </trkpt>
      <trkpt lat="42.91368" lon="0.28559">
        <ele>1378</ele>
        <time>2017-03-04T14:07:10Z</time>
      </trkpt>
      <trkpt lat="42.91377" lon="0.28564">
        <ele>1368</ele>
        <time>2017-03-04T14:07:10Z</time>
      </trkpt>
      <trkpt lat="42.91385" lon="0.28571">
        <ele>1368</ele>
        <time>2017-03-04T14:07:11Z</time>
      </trkpt>
      <trkpt lat="42.91392" lon="0.28578">
        <ele>1368</ele>
        <time>2017-03-04T14:07:11Z</time>
      </trkpt>
      <trkpt lat="42.91398" lon="0.28587">
        <ele>1368</ele>
        <time>2017-03-04T14:07:26Z</time>
      </trkpt>
      <trkpt lat="42.91404" lon="0.28596">
        <ele>1368</ele>
        <time>2017-03-04T14:07:26Z</time>
      </trkpt>
      <trkpt lat="42.91411" lon="0.28605">
        <ele>1368</ele>
        <time>2017-03-04T14:07:27Z</time>
      </trkpt>
      <trkpt lat="42.91419" lon="0.28615">
        <ele>1368</ele>
        <time>2017-03-04T14:07:27Z</time>
      </trkpt>
      <trkpt lat="42.91426" lon="0.28621">
        <ele>1368</ele>
        <time>2017-03-04T14:07:43Z</time>
      </trkpt>
      <trkpt lat="42.91437" lon="0.28626">
        <ele>1373</ele>
        <time>2017-03-04T14:07:43Z</time>
      </trkpt>
      <trkpt lat="42.9145" lon="0.28628">
        <ele>1373</ele>
        <time>2017-03-04T14:07:43Z</time>
      </trkpt>
      <trkpt lat="42.91463" lon="0.28628">
        <ele>1360</ele>
        <time>2017-03-04T14:07:43Z</time>
      </trkpt>
      <trkpt lat="42.91471" lon="0.28628">
        <ele>1360</ele>
        <time>2017-03-04T14:07:58Z</time>
      </trkpt>
      <trkpt lat="42.91481" lon="0.28629">
        <ele>1360</ele>
        <time>2017-03-04T14:07:59Z</time>
      </trkpt>
      <trkpt lat="42.91489" lon="0.28633">
        <ele>1360</ele>
        <time>2017-03-04T14:07:59Z</time>
      </trkpt>
      <trkpt lat="42.91497" lon="0.28636">
        <ele>1360</ele>
        <time>2017-03-04T14:07:59Z</time>
      </trkpt>
      <trkpt lat="42.91504" lon="0.28636">
        <ele>1360</ele>
        <time>2017-03-04T14:08:14Z</time>
      </trkpt>
      <trkpt lat="42.91512" lon="0.28638">
        <ele>1360</ele>
        <time>2017-03-04T14:08:14Z</time>
      </trkpt>
      <trkpt lat="42.91519" lon="0.28638">
        <ele>1360</ele>
        <time>2017-03-04T14:08:15Z</time>
      </trkpt>
      <trkpt lat="42.91527" lon="0.28642">
        <ele>1360</ele>
        <time>2017-03-04T14:08:15Z</time>
      </trkpt>
      <trkpt lat="42.91537" lon="0.28644">
        <ele>1360</ele>
        <time>2017-03-04T14:08:30Z</time>
      </trkpt>
      <trkpt lat="42.91548" lon="0.28646">
        <ele>1352</ele>
        <time>2017-03-04T14:08:30Z</time>
      </trkpt>
      <trkpt lat="42.91559" lon="0.2865">
        <ele>1352</ele>
        <time>2017-03-04T14:08:31Z</time>
      </trkpt>
      <trkpt lat="42.91571" lon="0.28655">
        <ele>1352</ele>
        <time>2017-03-04T14:08:31Z</time>
      </trkpt>
      <trkpt lat="42.91583" lon="0.2866">
        <ele>1352</ele>
        <time>2017-03-04T14:08:46Z</time>
      </trkpt>
      <trkpt lat="42.91595" lon="0.28663">
        <ele>1352</ele>
        <time>2017-03-04T14:08:47Z</time>
      </trkpt>
      <trkpt lat="42.9161" lon="0.28662">
        <ele>1352</ele>
        <time>2017-03-04T14:08:47Z</time>
      </trkpt>
      <trkpt lat="42.91625" lon="0.28657">
        <ele>1352</ele>
        <time>2017-03-04T14:08:47Z</time>
      </trkpt>
      <trkpt lat="42.91636" lon="0.28653">
        <ele>1341</ele>
        <time>2017-03-04T14:09:02Z</time>
      </trkpt>
      <trkpt lat="42.91647" lon="0.28648">
        <ele>1341</ele>
        <time>2017-03-04T14:09:02Z</time>
      </trkpt>
      <trkpt lat="42.91658" lon="0.28644">
        <ele>1341</ele>
        <time>2017-03-04T14:09:03Z</time>
      </trkpt>
      <trkpt lat="42.91669" lon="0.2864">
        <ele>1341</ele>
        <time>2017-03-04T14:09:03Z</time>
      </trkpt>
      <trkpt lat="42.91682" lon="0.28634">
        <ele>1341</ele>
        <time>2017-03-04T14:09:18Z</time>
      </trkpt>
      <trkpt lat="42.91695" lon="0.28631">
        <ele>1341</ele>
        <time>2017-03-04T14:09:18Z</time>
      </trkpt>
      <trkpt lat="42.91709" lon="0.28627">
        <ele>1339</ele>
        <time>2017-03-04T14:09:19Z</time>
      </trkpt>
      <trkpt lat="42.91722" lon="0.28625">
        <ele>1339</ele>
        <time>2017-03-04T14:09:19Z</time>
      </trkpt>
      <trkpt lat="42.91732" lon="0.28626">
        <ele>1339</ele>
        <time>2017-03-04T14:09:34Z</time>
      </trkpt>
      <trkpt lat="42.91747" lon="0.28624">
        <ele>1339</ele>
        <time>2017-03-04T14:09:34Z</time>
      </trkpt>
      <trkpt lat="42.91763" lon="0.28622">
        <ele>1339</ele>
        <time>2017-03-04T14:09:35Z</time>
      </trkpt>
      <trkpt lat="42.91777" lon="0.28618">
        <ele>1339</ele>
        <time>2017-03-04T14:09:35Z</time>
      </trkpt>
      <trkpt lat="42.91792" lon="0.28614">
        <ele>1339</ele>
        <time>2017-03-04T14:09:50Z</time>
      </trkpt>
      <trkpt lat="42.91807" lon="0.28614">
        <ele>1329</ele>
        <time>2017-03-04T14:09:50Z</time>
      </trkpt>
      <trkpt lat="42.91823" lon="0.28617">
        <ele>1329</ele>
        <time>2017-03-04T14:09:51Z</time>
      </trkpt>
      <trkpt lat="42.91841" lon="0.28623">
        <ele>1329</ele>
        <time>2017-03-04T14:09:51Z</time>
      </trkpt>
      <trkpt lat="42.91856" lon="0.28628">
        <ele>1331</ele>
        <time>2017-03-04T14:10:06Z</time>
      </trkpt>
      <trkpt lat="42.9187" lon="0.28633">
        <ele>1331</ele>
        <time>2017-03-04T14:10:06Z</time>
      </trkpt>
      <trkpt lat="42.91882" lon="0.28635">
        <ele>1320</ele>
        <time>2017-03-04T14:10:07Z</time>
      </trkpt>
      <trkpt lat="42.91896" lon="0.28637">
        <ele>1320</ele>
        <time>2017-03-04T14:10:07Z</time>
      </trkpt>
      <trkpt lat="42.91908" lon="0.28641">
        <ele>1320</ele>
        <time>2017-03-04T14:10:22Z</time>
      </trkpt>
      <trkpt lat="42.91919" lon="0.28648">
        <ele>1320</ele>
        <time>2017-03-04T14:10:22Z</time>
      </trkpt>
      <trkpt lat="42.91928" lon="0.28655">
        <ele>1320</ele>
        <time>2017-03-04T14:10:22Z</time>
      </trkpt>
      <trkpt lat="42.91937" lon="0.28659">
        <ele>1320</ele>
        <time>2017-03-04T14:10:23Z</time>
      </trkpt>
      <trkpt lat="42.91946" lon="0.28661">
        <ele>1320</ele>
        <time>2017-03-04T14:10:38Z</time>
      </trkpt>
      <trkpt lat="42.91956" lon="0.28665">
        <ele>1320</ele>
        <time>2017-03-04T14:10:38Z</time>
      </trkpt>
      <trkpt lat="42.91963" lon="0.28669">
        <ele>1319</ele>
        <time>2017-03-04T14:10:39Z</time>
      </trkpt>
      <trkpt lat="42.91971" lon="0.28672">
        <ele>1319</ele>
        <time>2017-03-04T14:10:39Z</time>
      </trkpt>
      <trkpt lat="42.91978" lon="0.28675">
        <ele>1319</ele>
        <time>2017-03-04T14:10:54Z</time>
      </trkpt>
      <trkpt lat="42.91988" lon="0.2868">
        <ele>1319</ele>
        <time>2017-03-04T14:10:55Z</time>
      </trkpt>
      <trkpt lat="42.91997" lon="0.28685">
        <ele>1319</ele>
        <time>2017-03-04T14:10:55Z</time>
      </trkpt>
      <trkpt lat="42.92003" lon="0.28689">
        <ele>1319</ele>
        <time>2017-03-04T14:10:55Z</time>
      </trkpt>
      <trkpt lat="42.92009" lon="0.28695">
        <ele>1319</ele>
        <time>2017-03-04T14:11:10Z</time>
      </trkpt>
      <trkpt lat="42.92012" lon="0.28698">
        <ele>1319</ele>
        <time>2017-03-04T14:11:10Z</time>
      </trkpt>
      <trkpt lat="42.92013" lon="0.28701">
        <ele>1319</ele>
        <time>2017-03-04T14:11:11Z</time>
      </trkpt>
      <trkpt lat="42.92016" lon="0.28704">
        <ele>1319</ele>
        <time>2017-03-04T14:11:11Z</time>
      </trkpt>
      <trkpt lat="42.9202" lon="0.28707">
        <ele>1319</ele>
        <time>2017-03-04T14:11:26Z</time>
      </trkpt>
      <trkpt lat="42.92027" lon="0.28708">
        <ele>1319</ele>
        <time>2017-03-04T14:11:27Z</time>
      </trkpt>
      <trkpt lat="42.92031" lon="0.28709">
        <ele>1319</ele>
        <time>2017-03-04T14:11:27Z</time>
      </trkpt>
      <trkpt lat="42.92036" lon="0.28709">
        <ele>1319</ele>
        <time>2017-03-04T14:11:27Z</time>
      </trkpt>
      <trkpt lat="42.92039" lon="0.28709">
        <ele>1319</ele>
        <time>2017-03-04T14:11:43Z</time>
      </trkpt>
      <trkpt lat="42.92045" lon="0.28709">
        <ele>1302</ele>
        <time>2017-03-04T14:11:43Z</time>
      </trkpt>
      <trkpt lat="42.92046" lon="0.28712">
        <ele>1302</ele>
        <time>2017-03-04T14:11:43Z</time>
      </trkpt>
      <trkpt lat="42.92048" lon="0.28715">
        <ele>1302</ele>
        <time>2017-03-04T14:11:43Z</time>
      </trkpt>
      <trkpt lat="42.92054" lon="0.28715">
        <ele>1302</ele>
        <time>2017-03-04T14:11:58Z</time>
      </trkpt>
      <trkpt lat="42.92063" lon="0.28716">
        <ele>1302</ele>
        <time>2017-03-04T14:11:59Z</time>
      </trkpt>
      <trkpt lat="42.92068" lon="0.28716">
        <ele>1302</ele>
        <time>2017-03-04T14:11:59Z</time>
      </trkpt>
      <trkpt lat="42.92074" lon="0.28715">
        <ele>1302</ele>
        <time>2017-03-04T14:11:59Z</time>
      </trkpt>
      <trkpt lat="42.92078" lon="0.28717">
        <ele>1302</ele>
        <time>2017-03-04T14:12:14Z</time>
      </trkpt>
      <trkpt lat="42.92082" lon="0.2872">
        <ele>1302</ele>
        <time>2017-03-04T14:12:14Z</time>
      </trkpt>
      <trkpt lat="42.92088" lon="0.28724">
        <ele>1302</ele>
        <time>2017-03-04T14:12:15Z</time>
      </trkpt>
      <trkpt lat="42.92091" lon="0.2873">
        <ele>1302</ele>
        <time>2017-03-04T14:12:15Z</time>
      </trkpt>
      <trkpt lat="42.92095" lon="0.28734">
        <ele>1302</ele>
        <time>2017-03-04T14:12:30Z</time>
      </trkpt>
      <trkpt lat="42.92098" lon="0.28739">
        <ele>1302</ele>
        <time>2017-03-04T14:12:30Z</time>
      </trkpt>
      <trkpt lat="42.92102" lon="0.28744">
        <ele>1302</ele>
        <time>2017-03-04T14:12:31Z</time>
      </trkpt>
      <trkpt lat="42.92107" lon="0.28749">
        <ele>1302</ele>
        <time>2017-03-04T14:12:31Z</time>
      </trkpt>
      <trkpt lat="42.9211" lon="0.2875">
        <ele>1302</ele>
        <time>2017-03-04T14:12:46Z</time>
      </trkpt>
      <trkpt lat="42.92116" lon="0.28757">
        <ele>1302</ele>
        <time>2017-03-04T14:12:47Z</time>
      </trkpt>
      <trkpt lat="42.92119" lon="0.28761">
        <ele>1302</ele>
        <time>2017-03-04T14:12:47Z</time>
      </trkpt>
      <trkpt lat="42.92124" lon="0.28767">
        <ele>1302</ele>
        <time>2017-03-04T14:12:47Z</time>
      </trkpt>
      <trkpt lat="42.9213" lon="0.28773">
        <ele>1300</ele>
        <time>2017-03-04T14:13:02Z</time>
      </trkpt>
      <trkpt lat="42.92133" lon="0.28776">
        <ele>1300</ele>
        <time>2017-03-04T14:13:02Z</time>
      </trkpt>
      <trkpt lat="42.92136" lon="0.28779">
        <ele>1300</ele>
        <time>2017-03-04T14:13:03Z</time>
      </trkpt>
      <trkpt lat="42.92139" lon="0.28782">
        <ele>1300</ele>
        <time>2017-03-04T14:13:03Z</time>
      </trkpt>
      <trkpt lat="42.92143" lon="0.28782">
        <ele>1300</ele>
        <time>2017-03-04T14:13:18Z</time>
      </trkpt>
      <trkpt lat="42.92148" lon="0.28784">
        <ele>1300</ele>
        <time>2017-03-04T14:13:18Z</time>
      </trkpt>
      <trkpt lat="42.92152" lon="0.28787">
        <ele>1300</ele>
        <time>2017-03-04T14:13:19Z</time>
      </trkpt>
      <trkpt lat="42.92158" lon="0.28787">
        <ele>1300</ele>
        <time>2017-03-04T14:13:19Z</time>
      </trkpt>
      <trkpt lat="42.92164" lon="0.2879">
        <ele>1300</ele>
        <time>2017-03-04T14:13:34Z</time>
      </trkpt>
      <trkpt lat="42.9217" lon="0.28794">
        <ele>1297</ele>
        <time>2017-03-04T14:13:34Z</time>
      </trkpt>
      <trkpt lat="42.92174" lon="0.28797">
        <ele>1297</ele>
        <time>2017-03-04T14:13:35Z</time>
      </trkpt>
      <trkpt lat="42.92178" lon="0.28799">
        <ele>1297</ele>
        <time>2017-03-04T14:13:35Z</time>
      </trkpt>
      <trkpt lat="42.92182" lon="0.28799">
        <ele>1297</ele>
        <time>2017-03-04T14:13:50Z</time>
      </trkpt>
      <trkpt lat="42.92183" lon="0.28806">
        <ele>1297</ele>
        <time>2017-03-04T14:13:51Z</time>
      </trkpt>
      <trkpt lat="42.92191" lon="0.28813">
        <ele>1297</ele>
        <time>2017-03-04T14:13:51Z</time>
      </trkpt>
      <trkpt lat="42.92191" lon="0.28813">
        <ele>1297</ele>
        <time>2017-03-04T14:13:51Z</time>
      </trkpt>
      <trkpt lat="42.92192" lon="0.28816">
        <ele>1297</ele>
        <time>2017-03-04T14:14:18Z</time>
      </trkpt>
      <trkpt lat="42.92196" lon="0.28818">
        <ele>1297</ele>
        <time>2017-03-04T14:14:18Z</time>
      </trkpt>
      <trkpt lat="42.92199" lon="0.2882">
        <ele>1297</ele>
        <time>2017-03-04T14:14:19Z</time>
      </trkpt>
      <trkpt lat="42.922" lon="0.28821">
        <ele>1297</ele>
        <time>2017-03-04T14:14:19Z</time>
      </trkpt>
      <trkpt lat="42.92203" lon="0.28824">
        <ele>1297</ele>
        <time>2017-03-04T14:14:19Z</time>
      </trkpt>
      <trkpt lat="42.9221" lon="0.28828">
        <ele>1287</ele>
        <time>2017-03-04T14:14:34Z</time>
      </trkpt>
      <trkpt lat="42.92215" lon="0.2883">
        <ele>1287</ele>
        <time>2017-03-04T14:14:35Z</time>
      </trkpt>
      <trkpt lat="42.92221" lon="0.28833">
        <ele>1287</ele>
        <time>2017-03-04T14:14:35Z</time>
      </trkpt>
      <trkpt lat="42.92227" lon="0.28835">
        <ele>1287</ele>
        <time>2017-03-04T14:14:35Z</time>
      </trkpt>
      <trkpt lat="42.92232" lon="0.28839">
        <ele>1287</ele>
        <time>2017-03-04T14:14:50Z</time>
      </trkpt>
      <trkpt lat="42.92237" lon="0.28842">
        <ele>1287</ele>
        <time>2017-03-04T14:14:50Z</time>
      </trkpt>
      <trkpt lat="42.92242" lon="0.28847">
        <ele>1287</ele>
        <time>2017-03-04T14:14:51Z</time>
      </trkpt>
      <trkpt lat="42.92248" lon="0.28852">
        <ele>1287</ele>
        <time>2017-03-04T14:14:51Z</time>
      </trkpt>
      <trkpt lat="42.92256" lon="0.28856">
        <ele>1287</ele>
        <time>2017-03-04T14:15:06Z</time>
      </trkpt>
      <trkpt lat="42.92262" lon="0.28863">
        <ele>1287</ele>
        <time>2017-03-04T14:15:06Z</time>
      </trkpt>
      <trkpt lat="42.92267" lon="0.28868">
        <ele>1287</ele>
        <time>2017-03-04T14:15:07Z</time>
      </trkpt>
      <trkpt lat="42.92274" lon="0.28873">
        <ele>1287</ele>
        <time>2017-03-04T14:15:07Z</time>
      </trkpt>
      <trkpt lat="42.9228" lon="0.28879">
        <ele>1292</ele>
        <time>2017-03-04T14:15:22Z</time>
      </trkpt>
      <trkpt lat="42.92287" lon="0.28886">
        <ele>1292</ele>
        <time>2017-03-04T14:15:22Z</time>
      </trkpt>
      <trkpt lat="42.92295" lon="0.28894">
        <ele>1273</ele>
        <time>2017-03-04T14:15:22Z</time>
      </trkpt>
      <trkpt lat="42.92302" lon="0.28902">
        <ele>1273</ele>
        <time>2017-03-04T14:15:23Z</time>
      </trkpt>
      <trkpt lat="42.92309" lon="0.28913">
        <ele>1273</ele>
        <time>2017-03-04T14:15:38Z</time>
      </trkpt>
      <trkpt lat="42.92313" lon="0.28923">
        <ele>1273</ele>
        <time>2017-03-04T14:15:38Z</time>
      </trkpt>
      <trkpt lat="42.92322" lon="0.28937">
        <ele>1273</ele>
        <time>2017-03-04T14:15:39Z</time>
      </trkpt>
      <trkpt lat="42.92329" lon="0.28944">
        <ele>1273</ele>
        <time>2017-03-04T14:15:39Z</time>
      </trkpt>
      <trkpt lat="42.9234" lon="0.28956">
        <ele>1273</ele>
        <time>2017-03-04T14:15:54Z</time>
      </trkpt>
      <trkpt lat="42.92347" lon="0.28969">
        <ele>1278</ele>
        <time>2017-03-04T14:15:54Z</time>
      </trkpt>
      <trkpt lat="42.92355" lon="0.28988">
        <ele>1278</ele>
        <time>2017-03-04T14:15:55Z</time>
      </trkpt>
      <trkpt lat="42.92359" lon="0.28995">
        <ele>1278</ele>
        <time>2017-03-04T14:15:55Z</time>
      </trkpt>
      <trkpt lat="42.9237" lon="0.29002">
        <ele>1278</ele>
        <time>2017-03-04T14:16:10Z</time>
      </trkpt>
      <trkpt lat="42.92375" lon="0.29008">
        <ele>1259</ele>
        <time>2017-03-04T14:16:10Z</time>
      </trkpt>
      <trkpt lat="42.92382" lon="0.29016">
        <ele>1259</ele>
        <time>2017-03-04T14:16:11Z</time>
      </trkpt>
      <trkpt lat="42.92388" lon="0.29027">
        <ele>1259</ele>
        <time>2017-03-04T14:16:11Z</time>
      </trkpt>
      <trkpt lat="42.92393" lon="0.29042">
        <ele>1255</ele>
        <time>2017-03-04T14:16:26Z</time>
      </trkpt>
      <trkpt lat="42.92388" lon="0.29052">
        <ele>1255</ele>
        <time>2017-03-04T14:16:26Z</time>
      </trkpt>
      <trkpt lat="42.92378" lon="0.29066">
        <ele>1255</ele>
        <time>2017-03-04T14:16:27Z</time>
      </trkpt>
      <trkpt lat="42.92359" lon="0.29076">
        <ele>1269</ele>
        <time>2017-03-04T14:16:27Z</time>
      </trkpt>
      <trkpt lat="42.92347" lon="0.29079">
        <ele>1269</ele>
        <time>2017-03-04T14:16:42Z</time>
      </trkpt>
      <trkpt lat="42.92333" lon="0.29089">
        <ele>1269</ele>
        <time>2017-03-04T14:16:42Z</time>
      </trkpt>
      <trkpt lat="42.92326" lon="0.291">
        <ele>1269</ele>
        <time>2017-03-04T14:16:42Z</time>
      </trkpt>
      <trkpt lat="42.92321" lon="0.29108">
        <ele>1269</ele>
        <time>2017-03-04T14:16:43Z</time>
      </trkpt>
      <trkpt lat="42.92312" lon="0.29118">
        <ele>1269</ele>
        <time>2017-03-04T14:16:58Z</time>
      </trkpt>
      <trkpt lat="42.923" lon="0.29126">
        <ele>1249</ele>
        <time>2017-03-04T14:16:58Z</time>
      </trkpt>
      <trkpt lat="42.92287" lon="0.2914">
        <ele>1260</ele>
        <time>2017-03-04T14:16:59Z</time>
      </trkpt>
      <trkpt lat="42.92276" lon="0.29153">
        <ele>1260</ele>
        <time>2017-03-04T14:16:59Z</time>
      </trkpt>
      <trkpt lat="42.92262" lon="0.29157">
        <ele>1260</ele>
        <time>2017-03-04T14:17:14Z</time>
      </trkpt>
      <trkpt lat="42.92253" lon="0.29159">
        <ele>1260</ele>
        <time>2017-03-04T14:17:14Z</time>
      </trkpt>
      <trkpt lat="42.92244" lon="0.29161">
        <ele>1260</ele>
        <time>2017-03-04T14:17:15Z</time>
      </trkpt>
      <trkpt lat="42.92229" lon="0.29166">
        <ele>1260</ele>
        <time>2017-03-04T14:17:15Z</time>
      </trkpt>
      <trkpt lat="42.92217" lon="0.29166">
        <ele>1260</ele>
        <time>2017-03-04T14:17:30Z</time>
      </trkpt>
      <trkpt lat="42.92211" lon="0.29169">
        <ele>1260</ele>
        <time>2017-03-04T14:17:30Z</time>
      </trkpt>
      <trkpt lat="42.92206" lon="0.29178">
        <ele>1266</ele>
        <time>2017-03-04T14:17:31Z</time>
      </trkpt>
      <trkpt lat="42.922" lon="0.29186">
        <ele>1266</ele>
        <time>2017-03-04T14:17:31Z</time>
      </trkpt>
      <trkpt lat="42.92193" lon="0.29191">
        <ele>1266</ele>
        <time>2017-03-04T14:17:46Z</time>
      </trkpt>
      <trkpt lat="42.92189" lon="0.29193">
        <ele>1266</ele>
        <time>2017-03-04T14:17:46Z</time>
      </trkpt>
      <trkpt lat="42.92183" lon="0.29198">
        <ele>1266</ele>
        <time>2017-03-04T14:17:47Z</time>
      </trkpt>
      <trkpt lat="42.92173" lon="0.29203">
        <ele>1266</ele>
        <time>2017-03-04T14:17:47Z</time>
      </trkpt>
      <trkpt lat="42.92168" lon="0.2921">
        <ele>1238</ele>
        <time>2017-03-04T14:18:02Z</time>
      </trkpt>
      <trkpt lat="42.92159" lon="0.29217">
        <ele>1238</ele>
        <time>2017-03-04T14:18:02Z</time>
      </trkpt>
      <trkpt lat="42.92157" lon="0.29218">
        <ele>1238</ele>
        <time>2017-03-04T14:18:02Z</time>
      </trkpt>
      <trkpt lat="42.92148" lon="0.29225">
        <ele>1238</ele>
        <time>2017-03-04T14:18:03Z</time>
      </trkpt>
      <trkpt lat="42.9214" lon="0.29233">
        <ele>1238</ele>
        <time>2017-03-04T14:18:18Z</time>
      </trkpt>
      <trkpt lat="42.92136" lon="0.29244">
        <ele>1238</ele>
        <time>2017-03-04T14:18:18Z</time>
      </trkpt>
      <trkpt lat="42.92137" lon="0.29255">
        <ele>1238</ele>
        <time>2017-03-04T14:18:19Z</time>
      </trkpt>
      <trkpt lat="42.92143" lon="0.29272">
        <ele>1238</ele>
        <time>2017-03-04T14:18:19Z</time>
      </trkpt>
      <trkpt lat="42.9215" lon="0.29278">
        <ele>1238</ele>
        <time>2017-03-04T14:18:34Z</time>
      </trkpt>
      <trkpt lat="42.92163" lon="0.29287">
        <ele>1238</ele>
        <time>2017-03-04T14:18:34Z</time>
      </trkpt>
      <trkpt lat="42.92177" lon="0.29299">
        <ele>1236</ele>
        <time>2017-03-04T14:18:35Z</time>
      </trkpt>
      <trkpt lat="42.92184" lon="0.29312">
        <ele>1236</ele>
        <time>2017-03-04T14:18:35Z</time>
      </trkpt>
      <trkpt lat="42.92189" lon="0.29324">
        <ele>1236</ele>
        <time>2017-03-04T14:18:50Z</time>
      </trkpt>
      <trkpt lat="42.92192" lon="0.29327">
        <ele>1236</ele>
        <time>2017-03-04T14:18:50Z</time>
      </trkpt>
      <trkpt lat="42.92194" lon="0.29331">
        <ele>1236</ele>
        <time>2017-03-04T14:18:51Z</time>
      </trkpt>
      <trkpt lat="42.92196" lon="0.29337">
        <ele>1236</ele>
        <time>2017-03-04T14:18:51Z</time>
      </trkpt>
      <trkpt lat="42.92198" lon="0.29344">
        <ele>1236</ele>
        <time>2017-03-04T14:19:06Z</time>
      </trkpt>
      <trkpt lat="42.922" lon="0.2935">
        <ele>1236</ele>
        <time>2017-03-04T14:19:06Z</time>
      </trkpt>
      <trkpt lat="42.92201" lon="0.29354">
        <ele>1236</ele>
        <time>2017-03-04T14:19:07Z</time>
      </trkpt>
      <trkpt lat="42.92202" lon="0.29356">
        <ele>1236</ele>
        <time>2017-03-04T14:19:07Z</time>
      </trkpt>
      <trkpt lat="42.92202" lon="0.29357">
        <ele>1236</ele>
        <time>2017-03-04T14:19:22Z</time>
      </trkpt>
      <trkpt lat="42.92204" lon="0.29358">
        <ele>1236</ele>
        <time>2017-03-04T14:19:22Z</time>
      </trkpt>
      <trkpt lat="42.92215" lon="0.29359">
        <ele>1232</ele>
        <time>2017-03-04T14:19:23Z</time>
      </trkpt>
      <trkpt lat="42.92223" lon="0.2936">
        <ele>1232</ele>
        <time>2017-03-04T14:19:23Z</time>
      </trkpt>
      <trkpt lat="42.92233" lon="0.29359">
        <ele>1232</ele>
        <time>2017-03-04T14:19:38Z</time>
      </trkpt>
      <trkpt lat="42.92247" lon="0.29356">
        <ele>1232</ele>
        <time>2017-03-04T14:19:38Z</time>
      </trkpt>
      <trkpt lat="42.92258" lon="0.29351">
        <ele>1232</ele>
        <time>2017-03-04T14:19:39Z</time>
      </trkpt>
      <trkpt lat="42.92268" lon="0.29348">
        <ele>1232</ele>
        <time>2017-03-04T14:19:39Z</time>
      </trkpt>
      <trkpt lat="42.92279" lon="0.29347">
        <ele>1232</ele>
        <time>2017-03-04T14:19:54Z</time>
      </trkpt>
      <trkpt lat="42.92288" lon="0.29343">
        <ele>1232</ele>
        <time>2017-03-04T14:19:54Z</time>
      </trkpt>
      <trkpt lat="42.92297" lon="0.29341">
        <ele>1223</ele>
        <time>2017-03-04T14:19:55Z</time>
      </trkpt>
      <trkpt lat="42.92306" lon="0.29341">
        <ele>1223</ele>
        <time>2017-03-04T14:19:55Z</time>
      </trkpt>
      <trkpt lat="42.92311" lon="0.29337">
        <ele>1223</ele>
        <time>2017-03-04T14:20:10Z</time>
      </trkpt>
      <trkpt lat="42.92321" lon="0.29335">
        <ele>1223</ele>
        <time>2017-03-04T14:20:10Z</time>
      </trkpt>
      <trkpt lat="42.92332" lon="0.29332">
        <ele>1223</ele>
        <time>2017-03-04T14:20:11Z</time>
      </trkpt>
      <trkpt lat="42.9234" lon="0.29327">
        <ele>1223</ele>
        <time>2017-03-04T14:20:11Z</time>
      </trkpt>
      <trkpt lat="42.92351" lon="0.29324">
        <ele>1223</ele>
        <time>2017-03-04T14:20:26Z</time>
      </trkpt>
      <trkpt lat="42.9236" lon="0.29321">
        <ele>1223</ele>
        <time>2017-03-04T14:20:26Z</time>
      </trkpt>
      <trkpt lat="42.92371" lon="0.29316">
        <ele>1223</ele>
        <time>2017-03-04T14:20:27Z</time>
      </trkpt>
      <trkpt lat="42.92383" lon="0.29313">
        <ele>1220</ele>
        <time>2017-03-04T14:20:27Z</time>
      </trkpt>
      <trkpt lat="42.92389" lon="0.29313">
        <ele>1220</ele>
        <time>2017-03-04T14:20:42Z</time>
      </trkpt>
      <trkpt lat="42.92398" lon="0.29309">
        <ele>1220</ele>
        <time>2017-03-04T14:20:42Z</time>
      </trkpt>
      <trkpt lat="42.92409" lon="0.29306">
        <ele>1220</ele>
        <time>2017-03-04T14:20:43Z</time>
      </trkpt>
      <trkpt lat="42.92419" lon="0.29302">
        <ele>1220</ele>
        <time>2017-03-04T14:20:43Z</time>
      </trkpt>
      <trkpt lat="42.92433" lon="0.29296">
        <ele>1220</ele>
        <time>2017-03-04T14:20:58Z</time>
      </trkpt>
      <trkpt lat="42.92446" lon="0.29293">
        <ele>1220</ele>
        <time>2017-03-04T14:20:58Z</time>
      </trkpt>
      <trkpt lat="42.92461" lon="0.29289">
        <ele>1215</ele>
        <time>2017-03-04T14:20:59Z</time>
      </trkpt>
      <trkpt lat="42.92476" lon="0.29286">
        <ele>1215</ele>
        <time>2017-03-04T14:20:59Z</time>
      </trkpt>
      <trkpt lat="42.9249" lon="0.29285">
        <ele>1215</ele>
        <time>2017-03-04T14:21:14Z</time>
      </trkpt>
      <trkpt lat="42.92502" lon="0.29281">
        <ele>1215</ele>
        <time>2017-03-04T14:21:14Z</time>
      </trkpt>
      <trkpt lat="42.92512" lon="0.29281">
        <ele>1215</ele>
        <time>2017-03-04T14:21:15Z</time>
      </trkpt>
      <trkpt lat="42.92529" lon="0.29283">
        <ele>1215</ele>
        <time>2017-03-04T14:21:15Z</time>
      </trkpt>
      <trkpt lat="42.92542" lon="0.29291">
        <ele>1203</ele>
        <time>2017-03-04T14:21:30Z</time>
      </trkpt>
      <trkpt lat="42.92555" lon="0.29299">
        <ele>1206</ele>
        <time>2017-03-04T14:21:30Z</time>
      </trkpt>
      <trkpt lat="42.92563" lon="0.29303">
        <ele>1206</ele>
        <time>2017-03-04T14:21:31Z</time>
      </trkpt>
      <trkpt lat="42.92576" lon="0.29309">
        <ele>1206</ele>
        <time>2017-03-04T14:21:31Z</time>
      </trkpt>
      <trkpt lat="42.92589" lon="0.29317">
        <ele>1206</ele>
        <time>2017-03-04T14:21:46Z</time>
      </trkpt>
      <trkpt lat="42.926" lon="0.29323">
        <ele>1206</ele>
        <time>2017-03-04T14:21:46Z</time>
      </trkpt>
      <trkpt lat="42.92609" lon="0.29326">
        <ele>1206</ele>
        <time>2017-03-04T14:21:47Z</time>
      </trkpt>
      <trkpt lat="42.92616" lon="0.29331">
        <ele>1206</ele>
        <time>2017-03-04T14:21:47Z</time>
      </trkpt>
      <trkpt lat="42.92626" lon="0.29334">
        <ele>1195</ele>
        <time>2017-03-04T14:22:02Z</time>
      </trkpt>
      <trkpt lat="42.92638" lon="0.2934">
        <ele>1195</ele>
        <time>2017-03-04T14:22:03Z</time>
      </trkpt>
      <trkpt lat="42.92649" lon="0.29345">
        <ele>1195</ele>
        <time>2017-03-04T14:22:03Z</time>
      </trkpt>
      <trkpt lat="42.92663" lon="0.29345">
        <ele>1195</ele>
        <time>2017-03-04T14:22:03Z</time>
      </trkpt>
      <trkpt lat="42.92677" lon="0.29348">
        <ele>1195</ele>
        <time>2017-03-04T14:22:18Z</time>
      </trkpt>
      <trkpt lat="42.92691" lon="0.29352">
        <ele>1195</ele>
        <time>2017-03-04T14:22:18Z</time>
      </trkpt>
      <trkpt lat="42.92708" lon="0.29353">
        <ele>1195</ele>
        <time>2017-03-04T14:22:19Z</time>
      </trkpt>
      <trkpt lat="42.92717" lon="0.29355">
        <ele>1185</ele>
        <time>2017-03-04T14:22:19Z</time>
      </trkpt>
      <trkpt lat="42.92726" lon="0.29357">
        <ele>1185</ele>
        <time>2017-03-04T14:22:34Z</time>
      </trkpt>
      <trkpt lat="42.92733" lon="0.2936">
        <ele>1185</ele>
        <time>2017-03-04T14:22:34Z</time>
      </trkpt>
      <trkpt lat="42.92743" lon="0.29363">
        <ele>1185</ele>
        <time>2017-03-04T14:22:35Z</time>
      </trkpt>
      <trkpt lat="42.92751" lon="0.29365">
        <ele>1185</ele>
        <time>2017-03-04T14:22:35Z</time>
      </trkpt>
      <trkpt lat="42.92762" lon="0.29366">
        <ele>1185</ele>
        <time>2017-03-04T14:22:50Z</time>
      </trkpt>
      <trkpt lat="42.92775" lon="0.29368">
        <ele>1185</ele>
        <time>2017-03-04T14:22:50Z</time>
      </trkpt>
      <trkpt lat="42.9279" lon="0.29368">
        <ele>1185</ele>
        <time>2017-03-04T14:22:51Z</time>
      </trkpt>
      <trkpt lat="42.92807" lon="0.29369">
        <ele>1176</ele>
        <time>2017-03-04T14:22:51Z</time>
      </trkpt>
      <trkpt lat="42.92828" lon="0.29366">
        <ele>1176</ele>
        <time>2017-03-04T14:23:06Z</time>
      </trkpt>
      <trkpt lat="42.92849" lon="0.29365">
        <ele>1176</ele>
        <time>2017-03-04T14:23:06Z</time>
      </trkpt>
      <trkpt lat="42.92868" lon="0.29362">
        <ele>1176</ele>
        <time>2017-03-04T14:23:07Z</time>
      </trkpt>
      <trkpt lat="42.92881" lon="0.29365">
        <ele>1167</ele>
        <time>2017-03-04T14:23:07Z</time>
      </trkpt>
      <trkpt lat="42.92889" lon="0.29368">
        <ele>1167</ele>
        <time>2017-03-04T14:23:22Z</time>
      </trkpt>
      <trkpt lat="42.92899" lon="0.29376">
        <ele>1181</ele>
        <time>2017-03-04T14:23:22Z</time>
      </trkpt>
      <trkpt lat="42.92909" lon="0.29376">
        <ele>1181</ele>
        <time>2017-03-04T14:23:23Z</time>
      </trkpt>
      <trkpt lat="42.92923" lon="0.29377">
        <ele>1181</ele>
        <time>2017-03-04T14:23:23Z</time>
      </trkpt>
      <trkpt lat="42.92934" lon="0.29377">
        <ele>1181</ele>
        <time>2017-03-04T14:23:38Z</time>
      </trkpt>
      <trkpt lat="42.92945" lon="0.29377">
        <ele>1181</ele>
        <time>2017-03-04T14:23:38Z</time>
      </trkpt>
      <trkpt lat="42.92955" lon="0.29376">
        <ele>1181</ele>
        <time>2017-03-04T14:23:39Z</time>
      </trkpt>
      <trkpt lat="42.92973" lon="0.2938">
        <ele>1175</ele>
        <time>2017-03-04T14:23:39Z</time>
      </trkpt>
      <trkpt lat="42.92984" lon="0.29382">
        <ele>1175</ele>
        <time>2017-03-04T14:23:54Z</time>
      </trkpt>
      <trkpt lat="42.92996" lon="0.29385">
        <ele>1175</ele>
        <time>2017-03-04T14:23:54Z</time>
      </trkpt>
      <trkpt lat="42.93007" lon="0.29386">
        <ele>1175</ele>
        <time>2017-03-04T14:23:55Z</time>
      </trkpt>
      <trkpt lat="42.93017" lon="0.29387">
        <ele>1175</ele>
        <time>2017-03-04T14:23:55Z</time>
      </trkpt>
      <trkpt lat="42.93027" lon="0.2939">
        <ele>1175</ele>
        <time>2017-03-04T14:24:10Z</time>
      </trkpt>
      <trkpt lat="42.93033" lon="0.2939">
        <ele>1175</ele>
        <time>2017-03-04T14:24:10Z</time>
      </trkpt>
      <trkpt lat="42.93043" lon="0.2939">
        <ele>1167</ele>
        <time>2017-03-04T14:24:11Z</time>
      </trkpt>
      <trkpt lat="42.93052" lon="0.2939">
        <ele>1167</ele>
        <time>2017-03-04T14:24:11Z</time>
      </trkpt>
      <trkpt lat="42.93062" lon="0.29389">
        <ele>1167</ele>
        <time>2017-03-04T14:24:26Z</time>
      </trkpt>
      <trkpt lat="42.93072" lon="0.29389">
        <ele>1167</ele>
        <time>2017-03-04T14:24:26Z</time>
      </trkpt>
      <trkpt lat="42.93081" lon="0.29389">
        <ele>1167</ele>
        <time>2017-03-04T14:24:27Z</time>
      </trkpt>
      <trkpt lat="42.93091" lon="0.2939">
        <ele>1167</ele>
        <time>2017-03-04T14:24:27Z</time>
      </trkpt>
      <trkpt lat="42.93102" lon="0.29391">
        <ele>1167</ele>
        <time>2017-03-04T14:24:42Z</time>
      </trkpt>
      <trkpt lat="42.93115" lon="0.29389">
        <ele>1167</ele>
        <time>2017-03-04T14:24:43Z</time>
      </trkpt>
      <trkpt lat="42.93129" lon="0.29389">
        <ele>1159</ele>
        <time>2017-03-04T14:24:43Z</time>
      </trkpt>
      <trkpt lat="42.93145" lon="0.29387">
        <ele>1159</ele>
        <time>2017-03-04T14:24:43Z</time>
      </trkpt>
      <trkpt lat="42.93167" lon="0.29379">
        <ele>1159</ele>
        <time>2017-03-04T14:24:58Z</time>
      </trkpt>
      <trkpt lat="42.9319" lon="0.2937">
        <ele>1154</ele>
        <time>2017-03-04T14:24:59Z</time>
      </trkpt>
      <trkpt lat="42.93205" lon="0.29359">
        <ele>1154</ele>
        <time>2017-03-04T14:24:59Z</time>
      </trkpt>
      <trkpt lat="42.93216" lon="0.2935">
        <ele>1149</ele>
        <time>2017-03-04T14:24:59Z</time>
      </trkpt>
      <trkpt lat="42.93219" lon="0.29345">
        <ele>1149</ele>
        <time>2017-03-04T14:25:18Z</time>
      </trkpt>
      <trkpt lat="42.93219" lon="0.29341">
        <ele>1149</ele>
        <time>2017-03-04T14:25:18Z</time>
      </trkpt>
      <trkpt lat="42.93219" lon="0.29341">
        <ele>1149</ele>
        <time>2017-03-04T14:25:19Z</time>
      </trkpt>
      <trkpt lat="42.93222" lon="0.29342">
        <ele>1149</ele>
        <time>2017-03-04T14:25:19Z</time>
      </trkpt>
      <trkpt lat="42.93228" lon="0.2934">
        <ele>1149</ele>
        <time>2017-03-04T14:25:19Z</time>
      </trkpt>
      <trkpt lat="42.9324" lon="0.29335">
        <ele>1149</ele>
        <time>2017-03-04T14:27:02Z</time>
      </trkpt>
      <trkpt lat="42.9324" lon="0.29334">
        <ele>1149</ele>
        <time>2017-03-04T14:27:03Z</time>
      </trkpt>
      <trkpt lat="42.9324" lon="0.29334">
        <ele>1149</ele>
        <time>2017-03-04T14:27:03Z</time>
      </trkpt>
      <trkpt lat="42.93241" lon="0.29334">
        <ele>1149</ele>
        <time>2017-03-04T14:27:03Z</time>
      </trkpt>
      <trkpt lat="42.93242" lon="0.29334">
        <ele>1149</ele>
        <time>2017-03-04T14:27:03Z</time>
      </trkpt>
      <trkpt lat="42.93242" lon="0.29334">
        <ele>1149</ele>
        <time>2017-03-04T14:27:38Z</time>
      </trkpt>
      <trkpt lat="42.93248" lon="0.29331">
        <ele>1149</ele>
        <time>2017-03-04T14:27:38Z</time>
      </trkpt>
      <trkpt lat="42.93252" lon="0.29329">
        <ele>1149</ele>
        <time>2017-03-04T14:27:39Z</time>
      </trkpt>
      <trkpt lat="42.93258" lon="0.29325">
        <ele>1149</ele>
        <time>2017-03-04T14:27:39Z</time>
      </trkpt>
      <trkpt lat="42.93262" lon="0.29323">
        <ele>1149</ele>
        <time>2017-03-04T14:27:58Z</time>
      </trkpt>
      <trkpt lat="42.93267" lon="0.29319">
        <ele>1149</ele>
        <time>2017-03-04T14:27:58Z</time>
      </trkpt>
      <trkpt lat="42.93267" lon="0.29319">
        <ele>1149</ele>
        <time>2017-03-04T14:27:59Z</time>
      </trkpt>
      <trkpt lat="42.93267" lon="0.29319">
        <ele>1149</ele>
        <time>2017-03-04T14:27:59Z</time>
      </trkpt>
      <trkpt lat="42.93269" lon="0.29315">
        <ele>1149</ele>
        <time>2017-03-04T14:27:59Z</time>
      </trkpt>
      <trkpt lat="42.93272" lon="0.29312">
        <ele>1149</ele>
        <time>2017-03-04T14:28:14Z</time>
      </trkpt>
      <trkpt lat="42.93276" lon="0.29304">
        <ele>1149</ele>
        <time>2017-03-04T14:28:14Z</time>
      </trkpt>
      <trkpt lat="42.9328" lon="0.29299">
        <ele>1149</ele>
        <time>2017-03-04T14:28:15Z</time>
      </trkpt>
      <trkpt lat="42.93285" lon="0.29296">
        <ele>1149</ele>
        <time>2017-03-04T14:28:15Z</time>
      </trkpt>
      <trkpt lat="42.93289" lon="0.29293">
        <ele>1149</ele>
        <time>2017-03-04T14:28:30Z</time>
      </trkpt>
      <trkpt lat="42.93294" lon="0.29288">
        <ele>1144</ele>
        <time>2017-03-04T14:28:30Z</time>
      </trkpt>
      <trkpt lat="42.933" lon="0.29284">
        <ele>1144</ele>
        <time>2017-03-04T14:28:31Z</time>
      </trkpt>
      <trkpt lat="42.93304" lon="0.29279">
        <ele>1144</ele>
        <time>2017-03-04T14:28:31Z</time>
      </trkpt>
      <trkpt lat="42.9331" lon="0.29272">
        <ele>1144</ele>
        <time>2017-03-04T14:28:46Z</time>
      </trkpt>
      <trkpt lat="42.93316" lon="0.29267">
        <ele>1144</ele>
        <time>2017-03-04T14:28:46Z</time>
      </trkpt>
      <trkpt lat="42.93319" lon="0.29264">
        <ele>1144</ele>
        <time>2017-03-04T14:28:47Z</time>
      </trkpt>
      <trkpt lat="42.93324" lon="0.29254">
        <ele>1144</ele>
        <time>2017-03-04T14:28:47Z</time>
      </trkpt>
      <trkpt lat="42.93327" lon="0.29249">
        <ele>1144</ele>
        <time>2017-03-04T14:29:02Z</time>
      </trkpt>
      <trkpt lat="42.93331" lon="0.2924">
        <ele>1144</ele>
        <time>2017-03-04T14:29:02Z</time>
      </trkpt>
      <trkpt lat="42.93333" lon="0.29235">
        <ele>1144</ele>
        <time>2017-03-04T14:29:03Z</time>
      </trkpt>
      <trkpt lat="42.93336" lon="0.29228">
        <ele>1144</ele>
        <time>2017-03-04T14:29:03Z</time>
      </trkpt>
      <trkpt lat="42.9334" lon="0.29223">
        <ele>1144</ele>
        <time>2017-03-04T14:29:18Z</time>
      </trkpt>
      <trkpt lat="42.93346" lon="0.29219">
        <ele>1144</ele>
        <time>2017-03-04T14:29:19Z</time>
      </trkpt>
      <trkpt lat="42.9335" lon="0.29215">
        <ele>1144</ele>
        <time>2017-03-04T14:29:19Z</time>
      </trkpt>
      <trkpt lat="42.93357" lon="0.29209">
        <ele>1144</ele>
        <time>2017-03-04T14:29:19Z</time>
      </trkpt>
      <trkpt lat="42.93361" lon="0.29207">
        <ele>1147</ele>
        <time>2017-03-04T14:29:34Z</time>
      </trkpt>
      <trkpt lat="42.93369" lon="0.29201">
        <ele>1147</ele>
        <time>2017-03-04T14:29:34Z</time>
      </trkpt>
      <trkpt lat="42.93374" lon="0.29196">
        <ele>1147</ele>
        <time>2017-03-04T14:29:35Z</time>
      </trkpt>
      <trkpt lat="42.9338" lon="0.29193">
        <ele>1143</ele>
        <time>2017-03-04T14:29:35Z</time>
      </trkpt>
      <trkpt lat="42.93386" lon="0.29191">
        <ele>1143</ele>
        <time>2017-03-04T14:29:50Z</time>
      </trkpt>
      <trkpt lat="42.93389" lon="0.29188">
        <ele>1143</ele>
        <time>2017-03-04T14:29:50Z</time>
      </trkpt>
      <trkpt lat="42.93394" lon="0.29184">
        <ele>1143</ele>
        <time>2017-03-04T14:29:51Z</time>
      </trkpt>
      <trkpt lat="42.93399" lon="0.2918">
        <ele>1143</ele>
        <time>2017-03-04T14:29:51Z</time>
      </trkpt>
      <trkpt lat="42.93402" lon="0.29178">
        <ele>1143</ele>
        <time>2017-03-04T14:30:06Z</time>
      </trkpt>
      <trkpt lat="42.93407" lon="0.2918">
        <ele>1143</ele>
        <time>2017-03-04T14:30:06Z</time>
      </trkpt>
      <trkpt lat="42.93412" lon="0.2918">
        <ele>1143</ele>
        <time>2017-03-04T14:30:07Z</time>
      </trkpt>
      <trkpt lat="42.93417" lon="0.29178">
        <ele>1143</ele>
        <time>2017-03-04T14:30:07Z</time>
      </trkpt>
      <trkpt lat="42.93421" lon="0.29176">
        <ele>1143</ele>
        <time>2017-03-04T14:30:22Z</time>
      </trkpt>
      <trkpt lat="42.93424" lon="0.29173">
        <ele>1143</ele>
        <time>2017-03-04T14:30:23Z</time>
      </trkpt>
      <trkpt lat="42.9343" lon="0.29165">
        <ele>1143</ele>
        <time>2017-03-04T14:30:23Z</time>
      </trkpt>
      <trkpt lat="42.93435" lon="0.2916">
        <ele>1143</ele>
        <time>2017-03-04T14:30:23Z</time>
      </trkpt>
      <trkpt lat="42.93441" lon="0.29157">
        <ele>1143</ele>
        <time>2017-03-04T14:30:38Z</time>
      </trkpt>
      <trkpt lat="42.93444" lon="0.29154">
        <ele>1143</ele>
        <time>2017-03-04T14:30:38Z</time>
      </trkpt>
      <trkpt lat="42.93448" lon="0.29152">
        <ele>1143</ele>
        <time>2017-03-04T14:30:39Z</time>
      </trkpt>
      <trkpt lat="42.9345" lon="0.29149">
        <ele>1143</ele>
        <time>2017-03-04T14:30:39Z</time>
      </trkpt>
      <trkpt lat="42.93452" lon="0.29148">
        <ele>1143</ele>
        <time>2017-03-04T14:30:54Z</time>
      </trkpt>
      <trkpt lat="42.93458" lon="0.29145">
        <ele>1143</ele>
        <time>2017-03-04T14:30:54Z</time>
      </trkpt>
      <trkpt lat="42.93462" lon="0.29142">
        <ele>1140</ele>
        <time>2017-03-04T14:30:55Z</time>
      </trkpt>
      <trkpt lat="42.93464" lon="0.29143">
        <ele>1140</ele>
        <time>2017-03-04T14:30:55Z</time>
      </trkpt>
      <trkpt lat="42.93465" lon="0.29144">
        <ele>1140</ele>
        <time>2017-03-04T14:31:18Z</time>
      </trkpt>
      <trkpt lat="42.93466" lon="0.29142">
        <ele>1140</ele>
        <time>2017-03-04T14:31:19Z</time>
      </trkpt>
      <trkpt lat="42.93468" lon="0.29139">
        <ele>1140</ele>
        <time>2017-03-04T14:31:19Z</time>
      </trkpt>
      <trkpt lat="42.9347" lon="0.29136">
        <ele>1140</ele>
        <time>2017-03-04T14:31:19Z</time>
      </trkpt>
      <trkpt lat="42.93476" lon="0.29133">
        <ele>1140</ele>
        <time>2017-03-04T14:31:19Z</time>
      </trkpt>
      <trkpt lat="42.93481" lon="0.29132">
        <ele>1140</ele>
        <time>2017-03-04T14:31:34Z</time>
      </trkpt>
      <trkpt lat="42.93487" lon="0.2913">
        <ele>1140</ele>
        <time>2017-03-04T14:31:34Z</time>
      </trkpt>
      <trkpt lat="42.93491" lon="0.29125">
        <ele>1140</ele>
        <time>2017-03-04T14:31:35Z</time>
      </trkpt>
      <trkpt lat="42.93498" lon="0.2912">
        <ele>1139</ele>
        <time>2017-03-04T14:31:35Z</time>
      </trkpt>
      <trkpt lat="42.93512" lon="0.2911">
        <ele>1139</ele>
        <time>2017-03-04T14:31:50Z</time>
      </trkpt>
      <trkpt lat="42.93519" lon="0.29102">
        <ele>1139</ele>
        <time>2017-03-04T14:31:50Z</time>
      </trkpt>
      <trkpt lat="42.9353" lon="0.29096">
        <ele>1139</ele>
        <time>2017-03-04T14:31:51Z</time>
      </trkpt>
      <trkpt lat="42.93534" lon="0.29096">
        <ele>1139</ele>
        <time>2017-03-04T14:31:51Z</time>
      </trkpt>
      <trkpt lat="42.9354" lon="0.29092">
        <ele>1139</ele>
        <time>2017-03-04T14:32:14Z</time>
      </trkpt>
      <trkpt lat="42.9354" lon="0.29091">
        <ele>1139</ele>
        <time>2017-03-04T14:32:15Z</time>
      </trkpt>
      <trkpt lat="42.93542" lon="0.29088">
        <ele>1139</ele>
        <time>2017-03-04T14:32:15Z</time>
      </trkpt>
      <trkpt lat="42.93542" lon="0.29087">
        <ele>1130</ele>
        <time>2017-03-04T14:32:15Z</time>
      </trkpt>
      <trkpt lat="42.93544" lon="0.29085">
        <ele>1130</ele>
        <time>2017-03-04T14:32:15Z</time>
      </trkpt>
      <trkpt lat="42.93546" lon="0.29083">
        <ele>1130</ele>
        <time>2017-03-04T14:32:30Z</time>
      </trkpt>
      <trkpt lat="42.93549" lon="0.2908">
        <ele>1130</ele>
        <time>2017-03-04T14:32:30Z</time>
      </trkpt>
      <trkpt lat="42.93553" lon="0.29075">
        <ele>1130</ele>
        <time>2017-03-04T14:32:31Z</time>
      </trkpt>
      <trkpt lat="42.93555" lon="0.2907">
        <ele>1130</ele>
        <time>2017-03-04T14:32:31Z</time>
      </trkpt>
      <trkpt lat="42.93557" lon="0.29063">
        <ele>1130</ele>
        <time>2017-03-04T14:32:46Z</time>
      </trkpt>
      <trkpt lat="42.93559" lon="0.29057">
        <ele>1130</ele>
        <time>2017-03-04T14:32:47Z</time>
      </trkpt>
      <trkpt lat="42.93562" lon="0.29051">
        <ele>1130</ele>
        <time>2017-03-04T14:32:47Z</time>
      </trkpt>
      <trkpt lat="42.93564" lon="0.29045">
        <ele>1130</ele>
        <time>2017-03-04T14:32:47Z</time>
      </trkpt>
      <trkpt lat="42.93566" lon="0.2904">
        <ele>1131</ele>
        <time>2017-03-04T14:33:02Z</time>
      </trkpt>
      <trkpt lat="42.93569" lon="0.29032">
        <ele>1131</ele>
        <time>2017-03-04T14:33:02Z</time>
      </trkpt>
      <trkpt lat="42.93571" lon="0.29028">
        <ele>1131</ele>
        <time>2017-03-04T14:33:03Z</time>
      </trkpt>
      <trkpt lat="42.93573" lon="0.29025">
        <ele>1131</ele>
        <time>2017-03-04T14:33:03Z</time>
      </trkpt>
      <trkpt lat="42.93575" lon="0.29021">
        <ele>1131</ele>
        <time>2017-03-04T14:33:18Z</time>
      </trkpt>
      <trkpt lat="42.93579" lon="0.29015">
        <ele>1131</ele>
        <time>2017-03-04T14:33:18Z</time>
      </trkpt>
      <trkpt lat="42.9358" lon="0.29012">
        <ele>1131</ele>
        <time>2017-03-04T14:33:19Z</time>
      </trkpt>
      <trkpt lat="42.93582" lon="0.29006">
        <ele>1131</ele>
        <time>2017-03-04T14:33:19Z</time>
      </trkpt>
      <trkpt lat="42.93584" lon="0.29001">
        <ele>1131</ele>
        <time>2017-03-04T14:33:34Z</time>
      </trkpt>
      <trkpt lat="42.93588" lon="0.28994">
        <ele>1131</ele>
        <time>2017-03-04T14:33:34Z</time>
      </trkpt>
      <trkpt lat="42.9359" lon="0.2899">
        <ele>1131</ele>
        <time>2017-03-04T14:33:35Z</time>
      </trkpt>
      <trkpt lat="42.93592" lon="0.28985">
        <ele>1131</ele>
        <time>2017-03-04T14:33:35Z</time>
      </trkpt>
      <trkpt lat="42.93595" lon="0.28979">
        <ele>1131</ele>
        <time>2017-03-04T14:33:50Z</time>
      </trkpt>
      <trkpt lat="42.93596" lon="0.28978">
        <ele>1131</ele>
        <time>2017-03-04T14:33:50Z</time>
      </trkpt>
      <trkpt lat="42.93598" lon="0.28972">
        <ele>1131</ele>
        <time>2017-03-04T14:33:51Z</time>
      </trkpt>
      <trkpt lat="42.936" lon="0.28969">
        <ele>1131</ele>
        <time>2017-03-04T14:33:51Z</time>
      </trkpt>
      <trkpt lat="42.93601" lon="0.28968">
        <ele>1131</ele>
        <time>2017-03-04T14:34:06Z</time>
      </trkpt>
      <trkpt lat="42.93603" lon="0.28965">
        <ele>1131</ele>
        <time>2017-03-04T14:34:06Z</time>
      </trkpt>
      <trkpt lat="42.93606" lon="0.2896">
        <ele>1131</ele>
        <time>2017-03-04T14:34:07Z</time>
      </trkpt>
      <trkpt lat="42.93608" lon="0.28952">
        <ele>1137</ele>
        <time>2017-03-04T14:34:07Z</time>
      </trkpt>
      <trkpt lat="42.9361" lon="0.28948">
        <ele>1137</ele>
        <time>2017-03-04T14:34:26Z</time>
      </trkpt>
      <trkpt lat="42.93612" lon="0.28947">
        <ele>1137</ele>
        <time>2017-03-04T14:34:26Z</time>
      </trkpt>
      <trkpt lat="42.93614" lon="0.28943">
        <ele>1137</ele>
        <time>2017-03-04T14:34:27Z</time>
      </trkpt>
      <trkpt lat="42.93616" lon="0.2894">
        <ele>1137</ele>
        <time>2017-03-04T14:34:27Z</time>
      </trkpt>
      <trkpt lat="42.93619" lon="0.28934">
        <ele>1137</ele>
        <time>2017-03-04T14:34:27Z</time>
      </trkpt>
      <trkpt lat="42.93623" lon="0.28929">
        <ele>1137</ele>
        <time>2017-03-04T14:34:42Z</time>
      </trkpt>
      <trkpt lat="42.93626" lon="0.28925">
        <ele>1123</ele>
        <time>2017-03-04T14:34:42Z</time>
      </trkpt>
      <trkpt lat="42.93629" lon="0.28922">
        <ele>1123</ele>
        <time>2017-03-04T14:34:43Z</time>
      </trkpt>
      <trkpt lat="42.93631" lon="0.28918">
        <ele>1123</ele>
        <time>2017-03-04T14:34:43Z</time>
      </trkpt>
      <trkpt lat="42.93634" lon="0.28913">
        <ele>1123</ele>
        <time>2017-03-04T14:34:58Z</time>
      </trkpt>
      <trkpt lat="42.93638" lon="0.28902">
        <ele>1123</ele>
        <time>2017-03-04T14:34:58Z</time>
      </trkpt>
      <trkpt lat="42.93642" lon="0.28895">
        <ele>1123</ele>
        <time>2017-03-04T14:34:59Z</time>
      </trkpt>
      <trkpt lat="42.93644" lon="0.28889">
        <ele>1123</ele>
        <time>2017-03-04T14:34:59Z</time>
      </trkpt>
      <trkpt lat="42.93645" lon="0.28885">
        <ele>1123</ele>
        <time>2017-03-04T14:35:14Z</time>
      </trkpt>
      <trkpt lat="42.93647" lon="0.28878">
        <ele>1123</ele>
        <time>2017-03-04T14:35:15Z</time>
      </trkpt>
      <trkpt lat="42.9365" lon="0.28869">
        <ele>1128</ele>
        <time>2017-03-04T14:35:15Z</time>
      </trkpt>
      <trkpt lat="42.93652" lon="0.28862">
        <ele>1128</ele>
        <time>2017-03-04T14:35:15Z</time>
      </trkpt>
      <trkpt lat="42.93656" lon="0.28856">
        <ele>1128</ele>
        <time>2017-03-04T14:35:30Z</time>
      </trkpt>
      <trkpt lat="42.93658" lon="0.28853">
        <ele>1128</ele>
        <time>2017-03-04T14:35:30Z</time>
      </trkpt>
      <trkpt lat="42.93661" lon="0.28847">
        <ele>1128</ele>
        <time>2017-03-04T14:35:31Z</time>
      </trkpt>
      <trkpt lat="42.93665" lon="0.28842">
        <ele>1128</ele>
        <time>2017-03-04T14:35:31Z</time>
      </trkpt>
      <trkpt lat="42.93668" lon="0.28835">
        <ele>1128</ele>
        <time>2017-03-04T14:35:46Z</time>
      </trkpt>
      <trkpt lat="42.93672" lon="0.28828">
        <ele>1128</ele>
        <time>2017-03-04T14:35:46Z</time>
      </trkpt>
      <trkpt lat="42.93675" lon="0.28823">
        <ele>1128</ele>
        <time>2017-03-04T14:35:47Z</time>
      </trkpt>
      <trkpt lat="42.93679" lon="0.28815">
        <ele>1128</ele>
        <time>2017-03-04T14:35:47Z</time>
      </trkpt>
      <trkpt lat="42.93682" lon="0.28808">
        <ele>1128</ele>
        <time>2017-03-04T14:36:02Z</time>
      </trkpt>
      <trkpt lat="42.93686" lon="0.28805">
        <ele>1128</ele>
        <time>2017-03-04T14:36:02Z</time>
      </trkpt>
      <trkpt lat="42.93689" lon="0.28801">
        <ele>1128</ele>
        <time>2017-03-04T14:36:02Z</time>
      </trkpt>
      <trkpt lat="42.93692" lon="0.28797">
        <ele>1128</ele>
        <time>2017-03-04T14:36:03Z</time>
      </trkpt>
      <trkpt lat="42.93696" lon="0.28791">
        <ele>1134</ele>
        <time>2017-03-04T14:36:18Z</time>
      </trkpt>
      <trkpt lat="42.93698" lon="0.28786">
        <ele>1134</ele>
        <time>2017-03-04T14:36:18Z</time>
      </trkpt>
      <trkpt lat="42.93703" lon="0.28781">
        <ele>1134</ele>
        <time>2017-03-04T14:36:19Z</time>
      </trkpt>
      <trkpt lat="42.93706" lon="0.28775">
        <ele>1134</ele>
        <time>2017-03-04T14:36:19Z</time>
      </trkpt>
      <trkpt lat="42.9371" lon="0.28769">
        <ele>1120</ele>
        <time>2017-03-04T14:36:42Z</time>
      </trkpt>
      <trkpt lat="42.93711" lon="0.2877">
        <ele>1120</ele>
        <time>2017-03-04T14:36:42Z</time>
      </trkpt>
      <trkpt lat="42.93713" lon="0.28769">
        <ele>1120</ele>
        <time>2017-03-04T14:36:43Z</time>
      </trkpt>
      <trkpt lat="42.93716" lon="0.28767">
        <ele>1120</ele>
        <time>2017-03-04T14:36:43Z</time>
      </trkpt>
      <trkpt lat="42.93719" lon="0.28763">
        <ele>1120</ele>
        <time>2017-03-04T14:36:43Z</time>
      </trkpt>
      <trkpt lat="42.93724" lon="0.28762">
        <ele>1120</ele>
        <time>2017-03-04T14:36:58Z</time>
      </trkpt>
      <trkpt lat="42.93728" lon="0.28759">
        <ele>1120</ele>
        <time>2017-03-04T14:36:58Z</time>
      </trkpt>
      <trkpt lat="42.93732" lon="0.28754">
        <ele>1120</ele>
        <time>2017-03-04T14:36:59Z</time>
      </trkpt>
      <trkpt lat="42.93737" lon="0.28749">
        <ele>1120</ele>
        <time>2017-03-04T14:36:59Z</time>
      </trkpt>
      <trkpt lat="42.93739" lon="0.28744">
        <ele>1120</ele>
        <time>2017-03-04T14:37:14Z</time>
      </trkpt>
      <trkpt lat="42.93742" lon="0.28735">
        <ele>1120</ele>
        <time>2017-03-04T14:37:14Z</time>
      </trkpt>
      <trkpt lat="42.93745" lon="0.28729">
        <ele>1120</ele>
        <time>2017-03-04T14:37:15Z</time>
      </trkpt>
      <trkpt lat="42.93746" lon="0.28725">
        <ele>1120</ele>
        <time>2017-03-04T14:37:15Z</time>
      </trkpt>
      <trkpt lat="42.93749" lon="0.2872">
        <ele>1120</ele>
        <time>2017-03-04T14:37:30Z</time>
      </trkpt>
      <trkpt lat="42.93751" lon="0.28714">
        <ele>1120</ele>
        <time>2017-03-04T14:37:30Z</time>
      </trkpt>
      <trkpt lat="42.93755" lon="0.28705">
        <ele>1124</ele>
        <time>2017-03-04T14:37:31Z</time>
      </trkpt>
      <trkpt lat="42.93759" lon="0.28698">
        <ele>1124</ele>
        <time>2017-03-04T14:37:31Z</time>
      </trkpt>
      <trkpt lat="42.93763" lon="0.28691">
        <ele>1124</ele>
        <time>2017-03-04T14:37:46Z</time>
      </trkpt>
      <trkpt lat="42.93767" lon="0.28685">
        <ele>1124</ele>
        <time>2017-03-04T14:37:46Z</time>
      </trkpt>
      <trkpt lat="42.9377" lon="0.2868">
        <ele>1124</ele>
        <time>2017-03-04T14:37:47Z</time>
      </trkpt>
      <trkpt lat="42.93772" lon="0.28676">
        <ele>1124</ele>
        <time>2017-03-04T14:37:47Z</time>
      </trkpt>
      <trkpt lat="42.93772" lon="0.28677">
        <ele>1124</ele>
        <time>2017-03-04T14:38:22Z</time>
      </trkpt>
      <trkpt lat="42.93775" lon="0.28669">
        <ele>1124</ele>
        <time>2017-03-04T14:38:22Z</time>
      </trkpt>
      <trkpt lat="42.9378" lon="0.2866">
        <ele>1124</ele>
        <time>2017-03-04T14:38:22Z</time>
      </trkpt>
      <trkpt lat="42.93784" lon="0.28651">
        <ele>1124</ele>
        <time>2017-03-04T14:38:23Z</time>
      </trkpt>
      <trkpt lat="42.93786" lon="0.28645">
        <ele>1124</ele>
        <time>2017-03-04T14:38:23Z</time>
      </trkpt>
      <trkpt lat="42.93791" lon="0.28639">
        <ele>1124</ele>
        <time>2017-03-04T14:38:38Z</time>
      </trkpt>
      <trkpt lat="42.93795" lon="0.28634">
        <ele>1112</ele>
        <time>2017-03-04T14:38:38Z</time>
      </trkpt>
      <trkpt lat="42.93798" lon="0.28627">
        <ele>1112</ele>
        <time>2017-03-04T14:38:39Z</time>
      </trkpt>
      <trkpt lat="42.93802" lon="0.2862">
        <ele>1115</ele>
        <time>2017-03-04T14:38:39Z</time>
      </trkpt>
      <trkpt lat="42.93805" lon="0.28616">
        <ele>1115</ele>
        <time>2017-03-04T14:38:54Z</time>
      </trkpt>
      <trkpt lat="42.93808" lon="0.28611">
        <ele>1115</ele>
        <time>2017-03-04T14:38:55Z</time>
      </trkpt>
      <trkpt lat="42.93812" lon="0.28603">
        <ele>1115</ele>
        <time>2017-03-04T14:38:55Z</time>
      </trkpt>
      <trkpt lat="42.93815" lon="0.28599">
        <ele>1115</ele>
        <time>2017-03-04T14:38:55Z</time>
      </trkpt>
      <trkpt lat="42.93819" lon="0.28595">
        <ele>1115</ele>
        <time>2017-03-04T14:39:10Z</time>
      </trkpt>
      <trkpt lat="42.93822" lon="0.28593">
        <ele>1115</ele>
        <time>2017-03-04T14:39:10Z</time>
      </trkpt>
      <trkpt lat="42.93826" lon="0.28587">
        <ele>1115</ele>
        <time>2017-03-04T14:39:11Z</time>
      </trkpt>
      <trkpt lat="42.93829" lon="0.28584">
        <ele>1115</ele>
        <time>2017-03-04T14:39:11Z</time>
      </trkpt>
      <trkpt lat="42.93829" lon="0.28582">
        <ele>1115</ele>
        <time>2017-03-04T14:39:26Z</time>
      </trkpt>
      <trkpt lat="42.93829" lon="0.28578">
        <ele>1115</ele>
        <time>2017-03-04T14:39:26Z</time>
      </trkpt>
      <trkpt lat="42.93831" lon="0.28573">
        <ele>1115</ele>
        <time>2017-03-04T14:39:27Z</time>
      </trkpt>
      <trkpt lat="42.93835" lon="0.28566">
        <ele>1115</ele>
        <time>2017-03-04T14:39:27Z</time>
      </trkpt>
      <trkpt lat="42.93838" lon="0.2856">
        <ele>1115</ele>
        <time>2017-03-04T14:39:42Z</time>
      </trkpt>
      <trkpt lat="42.93842" lon="0.28555">
        <ele>1115</ele>
        <time>2017-03-04T14:39:42Z</time>
      </trkpt>
      <trkpt lat="42.93845" lon="0.2855">
        <ele>1115</ele>
        <time>2017-03-04T14:39:42Z</time>
      </trkpt>
      <trkpt lat="42.93848" lon="0.28548">
        <ele>1115</ele>
        <time>2017-03-04T14:39:43Z</time>
      </trkpt>
      <trkpt lat="42.93853" lon="0.28541">
        <ele>1118</ele>
        <time>2017-03-04T14:39:58Z</time>
      </trkpt>
      <trkpt lat="42.93857" lon="0.28536">
        <ele>1118</ele>
        <time>2017-03-04T14:39:58Z</time>
      </trkpt>
      <trkpt lat="42.93859" lon="0.28532">
        <ele>1118</ele>
        <time>2017-03-04T14:39:59Z</time>
      </trkpt>
      <trkpt lat="42.93862" lon="0.28526">
        <ele>1118</ele>
        <time>2017-03-04T14:39:59Z</time>
      </trkpt>
      <trkpt lat="42.93865" lon="0.28522">
        <ele>1118</ele>
        <time>2017-03-04T14:40:14Z</time>
      </trkpt>
      <trkpt lat="42.93869" lon="0.28517">
        <ele>1118</ele>
        <time>2017-03-04T14:40:14Z</time>
      </trkpt>
      <trkpt lat="42.93875" lon="0.28511">
        <ele>1118</ele>
        <time>2017-03-04T14:40:15Z</time>
      </trkpt>
      <trkpt lat="42.93879" lon="0.28505">
        <ele>1109</ele>
        <time>2017-03-04T14:40:15Z</time>
      </trkpt>
      <trkpt lat="42.93883" lon="0.28499">
        <ele>1109</ele>
        <time>2017-03-04T14:40:30Z</time>
      </trkpt>
      <trkpt lat="42.93885" lon="0.28495">
        <ele>1109</ele>
        <time>2017-03-04T14:40:30Z</time>
      </trkpt>
      <trkpt lat="42.93888" lon="0.28489">
        <ele>1109</ele>
        <time>2017-03-04T14:40:31Z</time>
      </trkpt>
      <trkpt lat="42.93891" lon="0.28483">
        <ele>1109</ele>
        <time>2017-03-04T14:40:31Z</time>
      </trkpt>
      <trkpt lat="42.93896" lon="0.28469">
        <ele>1109</ele>
        <time>2017-03-04T14:41:02Z</time>
      </trkpt>
      <trkpt lat="42.93897" lon="0.28467">
        <ele>1109</ele>
        <time>2017-03-04T14:41:02Z</time>
      </trkpt>
      <trkpt lat="42.93897" lon="0.28465">
        <ele>1109</ele>
        <time>2017-03-04T14:41:03Z</time>
      </trkpt>
      <trkpt lat="42.93899" lon="0.28461">
        <ele>1109</ele>
        <time>2017-03-04T14:41:03Z</time>
      </trkpt>
      <trkpt lat="42.93902" lon="0.28454">
        <ele>1111</ele>
        <time>2017-03-04T14:41:03Z</time>
      </trkpt>
      <trkpt lat="42.93905" lon="0.28446">
        <ele>1111</ele>
        <time>2017-03-04T14:41:18Z</time>
      </trkpt>
      <trkpt lat="42.93908" lon="0.28441">
        <ele>1111</ele>
        <time>2017-03-04T14:41:18Z</time>
      </trkpt>
      <trkpt lat="42.93912" lon="0.28437">
        <ele>1111</ele>
        <time>2017-03-04T14:41:19Z</time>
      </trkpt>
      <trkpt lat="42.93917" lon="0.28432">
        <ele>1111</ele>
        <time>2017-03-04T14:41:19Z</time>
      </trkpt>
      <trkpt lat="42.93922" lon="0.28429">
        <ele>1111</ele>
        <time>2017-03-04T14:41:34Z</time>
      </trkpt>
      <trkpt lat="42.93928" lon="0.28424">
        <ele>1111</ele>
        <time>2017-03-04T14:41:35Z</time>
      </trkpt>
      <trkpt lat="42.93932" lon="0.28417">
        <ele>1111</ele>
        <time>2017-03-04T14:41:35Z</time>
      </trkpt>
      <trkpt lat="42.93936" lon="0.28411">
        <ele>1111</ele>
        <time>2017-03-04T14:41:35Z</time>
      </trkpt>
      <trkpt lat="42.93942" lon="0.28405">
        <ele>1111</ele>
        <time>2017-03-04T14:42:06Z</time>
      </trkpt>
      <trkpt lat="42.93944" lon="0.284">
        <ele>1111</ele>
        <time>2017-03-04T14:42:06Z</time>
      </trkpt>
      <trkpt lat="42.93946" lon="0.28395">
        <ele>1111</ele>
        <time>2017-03-04T14:42:07Z</time>
      </trkpt>
      <trkpt lat="42.93948" lon="0.28393">
        <ele>1111</ele>
        <time>2017-03-04T14:42:07Z</time>
      </trkpt>
      <trkpt lat="42.93952" lon="0.28387">
        <ele>1111</ele>
        <time>2017-03-04T14:42:07Z</time>
      </trkpt>
      <trkpt lat="42.93955" lon="0.28381">
        <ele>1111</ele>
        <time>2017-03-04T14:42:22Z</time>
      </trkpt>
      <trkpt lat="42.93959" lon="0.28376">
        <ele>1103</ele>
        <time>2017-03-04T14:42:22Z</time>
      </trkpt>
      <trkpt lat="42.93962" lon="0.28369">
        <ele>1103</ele>
        <time>2017-03-04T14:42:22Z</time>
      </trkpt>
      <trkpt lat="42.93964" lon="0.28364">
        <ele>1103</ele>
        <time>2017-03-04T14:42:23Z</time>
      </trkpt>
      <trkpt lat="42.93967" lon="0.28354">
        <ele>1103</ele>
        <time>2017-03-04T14:42:38Z</time>
      </trkpt>
      <trkpt lat="42.9397" lon="0.28348">
        <ele>1103</ele>
        <time>2017-03-04T14:42:39Z</time>
      </trkpt>
      <trkpt lat="42.93973" lon="0.28342">
        <ele>1103</ele>
        <time>2017-03-04T14:42:39Z</time>
      </trkpt>
      <trkpt lat="42.93978" lon="0.28336">
        <ele>1103</ele>
        <time>2017-03-04T14:42:39Z</time>
      </trkpt>
      <trkpt lat="42.9398" lon="0.28333">
        <ele>1103</ele>
        <time>2017-03-04T14:42:54Z</time>
      </trkpt>
      <trkpt lat="42.93983" lon="0.28327">
        <ele>1103</ele>
        <time>2017-03-04T14:42:54Z</time>
      </trkpt>
      <trkpt lat="42.93985" lon="0.28324">
        <ele>1103</ele>
        <time>2017-03-04T14:42:55Z</time>
      </trkpt>
      <trkpt lat="42.93987" lon="0.28321">
        <ele>1103</ele>
        <time>2017-03-04T14:42:55Z</time>
      </trkpt>
      <trkpt lat="42.9399" lon="0.28317">
        <ele>1103</ele>
        <time>2017-03-04T14:43:10Z</time>
      </trkpt>
      <trkpt lat="42.93994" lon="0.2831">
        <ele>1103</ele>
        <time>2017-03-04T14:43:10Z</time>
      </trkpt>
      <trkpt lat="42.93997" lon="0.28306">
        <ele>1103</ele>
        <time>2017-03-04T14:43:11Z</time>
      </trkpt>
      <trkpt lat="42.94003" lon="0.28302">
        <ele>1103</ele>
        <time>2017-03-04T14:43:11Z</time>
      </trkpt>
      <trkpt lat="42.94005" lon="0.28302">
        <ele>1103</ele>
        <time>2017-03-04T14:43:26Z</time>
      </trkpt>
      <trkpt lat="42.94008" lon="0.28302">
        <ele>1103</ele>
        <time>2017-03-04T14:43:27Z</time>
      </trkpt>
      <trkpt lat="42.94012" lon="0.28297">
        <ele>1103</ele>
        <time>2017-03-04T14:43:27Z</time>
      </trkpt>
      <trkpt lat="42.94019" lon="0.28292">
        <ele>1101</ele>
        <time>2017-03-04T14:43:27Z</time>
      </trkpt>
      <trkpt lat="42.94024" lon="0.28286">
        <ele>1101</ele>
        <time>2017-03-04T14:43:42Z</time>
      </trkpt>
      <trkpt lat="42.94029" lon="0.28283">
        <ele>1101</ele>
        <time>2017-03-04T14:43:42Z</time>
      </trkpt>
      <trkpt lat="42.94033" lon="0.2828">
        <ele>1101</ele>
        <time>2017-03-04T14:43:43Z</time>
      </trkpt>
      <trkpt lat="42.94035" lon="0.28277">
        <ele>1101</ele>
        <time>2017-03-04T14:43:43Z</time>
      </trkpt>
      <trkpt lat="42.9404" lon="0.28272">
        <ele>1101</ele>
        <time>2017-03-04T14:43:58Z</time>
      </trkpt>
      <trkpt lat="42.94045" lon="0.2827">
        <ele>1094</ele>
        <time>2017-03-04T14:43:58Z</time>
      </trkpt>
      <trkpt lat="42.94046" lon="0.28267">
        <ele>1094</ele>
        <time>2017-03-04T14:43:59Z</time>
      </trkpt>
      <trkpt lat="42.94047" lon="0.28263">
        <ele>1094</ele>
        <time>2017-03-04T14:43:59Z</time>
      </trkpt>
      <trkpt lat="42.94046" lon="0.2826">
        <ele>1094</ele>
        <time>2017-03-04T14:44:14Z</time>
      </trkpt>
      <trkpt lat="42.94047" lon="0.28255">
        <ele>1094</ele>
        <time>2017-03-04T14:44:14Z</time>
      </trkpt>
      <trkpt lat="42.9405" lon="0.2825">
        <ele>1094</ele>
        <time>2017-03-04T14:44:15Z</time>
      </trkpt>
      <trkpt lat="42.94053" lon="0.28246">
        <ele>1094</ele>
        <time>2017-03-04T14:44:15Z</time>
      </trkpt>
      <trkpt lat="42.94057" lon="0.28239">
        <ele>1094</ele>
        <time>2017-03-04T14:44:30Z</time>
      </trkpt>
      <trkpt lat="42.9406" lon="0.28237">
        <ele>1094</ele>
        <time>2017-03-04T14:44:30Z</time>
      </trkpt>
      <trkpt lat="42.94063" lon="0.28232">
        <ele>1094</ele>
        <time>2017-03-04T14:44:31Z</time>
      </trkpt>
      <trkpt lat="42.94067" lon="0.28228">
        <ele>1094</ele>
        <time>2017-03-04T14:44:31Z</time>
      </trkpt>
      <trkpt lat="42.9407" lon="0.28225">
        <ele>1094</ele>
        <time>2017-03-04T14:44:46Z</time>
      </trkpt>
      <trkpt lat="42.94073" lon="0.28221">
        <ele>1094</ele>
        <time>2017-03-04T14:44:46Z</time>
      </trkpt>
      <trkpt lat="42.94076" lon="0.28217">
        <ele>1094</ele>
        <time>2017-03-04T14:44:47Z</time>
      </trkpt>
      <trkpt lat="42.94079" lon="0.28212">
        <ele>1094</ele>
        <time>2017-03-04T14:44:47Z</time>
      </trkpt>
      <trkpt lat="42.94082" lon="0.28207">
        <ele>1094</ele>
        <time>2017-03-04T14:45:02Z</time>
      </trkpt>
      <trkpt lat="42.94083" lon="0.28203">
        <ele>1094</ele>
        <time>2017-03-04T14:45:02Z</time>
      </trkpt>
      <trkpt lat="42.94086" lon="0.28199">
        <ele>1094</ele>
        <time>2017-03-04T14:45:03Z</time>
      </trkpt>
      <trkpt lat="42.94089" lon="0.28196">
        <ele>1094</ele>
        <time>2017-03-04T14:45:03Z</time>
      </trkpt>
      <trkpt lat="42.9409" lon="0.28193">
        <ele>1094</ele>
        <time>2017-03-04T14:45:18Z</time>
      </trkpt>
      <trkpt lat="42.94091" lon="0.28187">
        <ele>1094</ele>
        <time>2017-03-04T14:45:18Z</time>
      </trkpt>
      <trkpt lat="42.94095" lon="0.2818">
        <ele>1094</ele>
        <time>2017-03-04T14:45:19Z</time>
      </trkpt>
      <trkpt lat="42.94097" lon="0.28174">
        <ele>1094</ele>
        <time>2017-03-04T14:45:19Z</time>
      </trkpt>
      <trkpt lat="42.94098" lon="0.2817">
        <ele>1094</ele>
        <time>2017-03-04T14:45:34Z</time>
      </trkpt>
      <trkpt lat="42.94099" lon="0.28164">
        <ele>1094</ele>
        <time>2017-03-04T14:45:34Z</time>
      </trkpt>
      <trkpt lat="42.94103" lon="0.28155">
        <ele>1094</ele>
        <time>2017-03-04T14:45:35Z</time>
      </trkpt>
      <trkpt lat="42.94104" lon="0.2815">
        <ele>1094</ele>
        <time>2017-03-04T14:45:35Z</time>
      </trkpt>
      <trkpt lat="42.94109" lon="0.28146">
        <ele>1094</ele>
        <time>2017-03-04T14:45:50Z</time>
      </trkpt>
      <trkpt lat="42.94112" lon="0.28143">
        <ele>1094</ele>
        <time>2017-03-04T14:45:50Z</time>
      </trkpt>
      <trkpt lat="42.94118" lon="0.28135">
        <ele>1094</ele>
        <time>2017-03-04T14:45:51Z</time>
      </trkpt>
      <trkpt lat="42.94123" lon="0.28128">
        <ele>1094</ele>
        <time>2017-03-04T14:45:51Z</time>
      </trkpt>
      <trkpt lat="42.94128" lon="0.28122">
        <ele>1088</ele>
        <time>2017-03-04T14:46:06Z</time>
      </trkpt>
      <trkpt lat="42.94131" lon="0.28116">
        <ele>1088</ele>
        <time>2017-03-04T14:46:07Z</time>
      </trkpt>
      <trkpt lat="42.94134" lon="0.28112">
        <ele>1088</ele>
        <time>2017-03-04T14:46:07Z</time>
      </trkpt>
      <trkpt lat="42.94141" lon="0.28106">
        <ele>1088</ele>
        <time>2017-03-04T14:46:07Z</time>
      </trkpt>
      <trkpt lat="42.94147" lon="0.28101">
        <ele>1088</ele>
        <time>2017-03-04T14:46:22Z</time>
      </trkpt>
      <trkpt lat="42.94153" lon="0.28096">
        <ele>1088</ele>
        <time>2017-03-04T14:46:22Z</time>
      </trkpt>
      <trkpt lat="42.94161" lon="0.28091">
        <ele>1088</ele>
        <time>2017-03-04T14:46:22Z</time>
      </trkpt>
      <trkpt lat="42.94166" lon="0.28087">
        <ele>1088</ele>
        <time>2017-03-04T14:46:23Z</time>
      </trkpt>
      <trkpt lat="42.94173" lon="0.28082">
        <ele>1088</ele>
        <time>2017-03-04T14:46:38Z</time>
      </trkpt>
      <trkpt lat="42.94177" lon="0.28078">
        <ele>1088</ele>
        <time>2017-03-04T14:46:38Z</time>
      </trkpt>
      <trkpt lat="42.94182" lon="0.28074">
        <ele>1088</ele>
        <time>2017-03-04T14:46:39Z</time>
      </trkpt>
      <trkpt lat="42.94187" lon="0.28069">
        <ele>1088</ele>
        <time>2017-03-04T14:46:39Z</time>
      </trkpt>
      <trkpt lat="42.9419" lon="0.28066">
        <ele>1088</ele>
        <time>2017-03-04T14:46:54Z</time>
      </trkpt>
      <trkpt lat="42.94196" lon="0.28062">
        <ele>1088</ele>
        <time>2017-03-04T14:46:55Z</time>
      </trkpt>
      <trkpt lat="42.942" lon="0.28059">
        <ele>1088</ele>
        <time>2017-03-04T14:46:55Z</time>
      </trkpt>
      <trkpt lat="42.94203" lon="0.28058">
        <ele>1088</ele>
        <time>2017-03-04T14:46:55Z</time>
      </trkpt>
      <trkpt lat="42.94202" lon="0.28059">
        <ele>1088</ele>
        <time>2017-03-04T14:47:58Z</time>
      </trkpt>
      <trkpt lat="42.94209" lon="0.28052">
        <ele>1080</ele>
        <time>2017-03-04T14:47:58Z</time>
      </trkpt>
      <trkpt lat="42.94213" lon="0.28049">
        <ele>1080</ele>
        <time>2017-03-04T14:47:59Z</time>
      </trkpt>
      <trkpt lat="42.94216" lon="0.28047">
        <ele>1080</ele>
        <time>2017-03-04T14:47:59Z</time>
      </trkpt>
      <trkpt lat="42.9422" lon="0.28044">
        <ele>1080</ele>
        <time>2017-03-04T14:47:59Z</time>
      </trkpt>
      <trkpt lat="42.94226" lon="0.2804">
        <ele>1079</ele>
        <time>2017-03-04T14:48:14Z</time>
      </trkpt>
      <trkpt lat="42.94229" lon="0.28035">
        <ele>1079</ele>
        <time>2017-03-04T14:48:14Z</time>
      </trkpt>
      <trkpt lat="42.94229" lon="0.28034">
        <ele>1079</ele>
        <time>2017-03-04T14:48:15Z</time>
      </trkpt>
      <trkpt lat="42.94231" lon="0.2803">
        <ele>1079</ele>
        <time>2017-03-04T14:48:15Z</time>
      </trkpt>
      <trkpt lat="42.94234" lon="0.28023">
        <ele>1079</ele>
        <time>2017-03-04T14:48:30Z</time>
      </trkpt>
      <trkpt lat="42.94238" lon="0.28019">
        <ele>1079</ele>
        <time>2017-03-04T14:48:30Z</time>
      </trkpt>
      <trkpt lat="42.9424" lon="0.28012">
        <ele>1079</ele>
        <time>2017-03-04T14:48:31Z</time>
      </trkpt>
      <trkpt lat="42.94243" lon="0.28007">
        <ele>1079</ele>
        <time>2017-03-04T14:48:31Z</time>
      </trkpt>
      <trkpt lat="42.94247" lon="0.28001">
        <ele>1079</ele>
        <time>2017-03-04T14:48:46Z</time>
      </trkpt>
      <trkpt lat="42.94249" lon="0.27995">
        <ele>1079</ele>
        <time>2017-03-04T14:48:46Z</time>
      </trkpt>
      <trkpt lat="42.9425" lon="0.27991">
        <ele>1079</ele>
        <time>2017-03-04T14:48:47Z</time>
      </trkpt>
      <trkpt lat="42.94251" lon="0.27986">
        <ele>1079</ele>
        <time>2017-03-04T14:48:47Z</time>
      </trkpt>
      <trkpt lat="42.94254" lon="0.27978">
        <ele>1079</ele>
        <time>2017-03-04T14:49:02Z</time>
      </trkpt>
      <trkpt lat="42.94258" lon="0.27971">
        <ele>1079</ele>
        <time>2017-03-04T14:49:02Z</time>
      </trkpt>
      <trkpt lat="42.94258" lon="0.27966">
        <ele>1079</ele>
        <time>2017-03-04T14:49:02Z</time>
      </trkpt>
      <trkpt lat="42.94259" lon="0.27959">
        <ele>1079</ele>
        <time>2017-03-04T14:49:03Z</time>
      </trkpt>
      <trkpt lat="42.94265" lon="0.27949">
        <ele>1079</ele>
        <time>2017-03-04T14:49:18Z</time>
      </trkpt>
      <trkpt lat="42.94267" lon="0.27944">
        <ele>1079</ele>
        <time>2017-03-04T14:49:18Z</time>
      </trkpt>
      <trkpt lat="42.94268" lon="0.27939">
        <ele>1079</ele>
        <time>2017-03-04T14:49:19Z</time>
      </trkpt>
      <trkpt lat="42.94265" lon="0.27935">
        <ele>1079</ele>
        <time>2017-03-04T14:49:19Z</time>
      </trkpt>
      <trkpt lat="42.94264" lon="0.27931">
        <ele>1079</ele>
        <time>2017-03-04T14:50:18Z</time>
      </trkpt>
      <trkpt lat="42.94265" lon="0.2793">
        <ele>1079</ele>
        <time>2017-03-04T14:50:18Z</time>
      </trkpt>
      <trkpt lat="42.94267" lon="0.27926">
        <ele>1079</ele>
        <time>2017-03-04T14:50:19Z</time>
      </trkpt>
      <trkpt lat="42.94271" lon="0.2792">
        <ele>1079</ele>
        <time>2017-03-04T14:50:19Z</time>
      </trkpt>
      <trkpt lat="42.94273" lon="0.27917">
        <ele>1079</ele>
        <time>2017-03-04T14:50:19Z</time>
      </trkpt>
      <trkpt lat="42.94275" lon="0.27915">
        <ele>1079</ele>
        <time>2017-03-04T14:50:34Z</time>
      </trkpt>
      <trkpt lat="42.94279" lon="0.27912">
        <ele>1079</ele>
        <time>2017-03-04T14:50:34Z</time>
      </trkpt>
      <trkpt lat="42.9428" lon="0.27907">
        <ele>1079</ele>
        <time>2017-03-04T14:50:35Z</time>
      </trkpt>
      <trkpt lat="42.94279" lon="0.27901">
        <ele>1079</ele>
        <time>2017-03-04T14:50:35Z</time>
      </trkpt>
    </trkseg>
  </trk>
</gpx>